# Wetter Temperatur Luftdruck Luftfeuchtigkeit Sichtweite Windgeschwindigkeit Windrichtung Zeit
1 Clouds 8 1010 93 9000 0.5 0 19:59 17.10.2019
2 Clouds 8 1010 93 9000 0.5 0 19:39 17.10.2019
3 Clouds 8 1010 93 9000 1 340 19:19 17.10.2019
4 Clouds 8 1010 93 9000 1 340 19:19 17.10.2019
5 Clouds 8 1010 93 10000 1.5 300 18:58 17.10.2019
6 Clouds 8 1010 93 10000 1.5 300 18:38 17.10.2019
7 Clouds 8 1010 93 10000 1.5 280 18:19 17.10.2019
8 Clouds 8 1010 93 10000 0.5 10 17:42 17.10.2019
9 Clouds 8 1010 93 10000 2.1 310 17:23 17.10.2019
10 Clouds 8 1010 93 10000 1.5 280 16:57 17.10.2019
11 Clouds 8 1009 93 10000 1 300 16:38 17.10.2019
12 Clouds 8 1009 93 10000 1 300 16:18 17.10.2019
13 Clouds 8 1009 93 10000 2.1 310 15:55 17.10.2019
14 Clouds 8 1009 93 10000 2.1 310 15:37 17.10.2019
15 Clouds 8 1009 93 10000 1.5 310 15:19 17.10.2019
16 Clouds 8 1009 93 10000 1.5 320 14:42 17.10.2019
17 Clouds 8 1009 93 10000 2.6 320 14:23 17.10.2019
18 Clouds 8 1009 93 10000 2.6 300 13:56 17.10.2019
19 Clouds 8 1009 93 10000 2.6 300 13:38 17.10.2019
20 Clouds 8 1008 93 10000 1.5 350 13:18 17.10.2019
21 Clouds 8 1008 93 10000 2.1 350 12:41 17.10.2019
22 Clouds 8 1008 93 10000 2.6 340 12:21 17.10.2019
23 Clouds 8 1008 93 10000 2.6 350 11:59 17.10.2019
24 Clouds 8 1008 93 10000 2.6 350 11:59 17.10.2019
25 Clouds 8 1008 93 10000 2.6 350 11:40 17.10.2019
26 Clouds 8 1008 93 10000 2.6 350 11:19 17.10.2019
27 Clouds 8 1008 93 10000 2.6 350 11:19 17.10.2019
28 Rain 8 1007 93 10000 2.1 350 10:55 17.10.2019
29 Rain 8 1007 93 10000 2.1 350 10:37 17.10.2019
30 Rain 7 1007 100 10000 2.1 340 10:18 17.10.2019
31 Rain 7 1007 100 10000 2.6 350 09:42 17.10.2019
32 Rain 7 1007 100 8000 3.1 20 09:23 17.10.2019
33 Drizzle 7 1007 100 8000 2.1 340 08:59 17.10.2019
34 Drizzle 7 1007 100 8000 2.1 340 08:41 17.10.2019
35 Rain 7 1006 93 8000 2.6 330 08:21 17.10.2019
36 Rain 7 1006 100 6000 3.1 350 07:56 17.10.2019
37 Rain 7 1006 100 6000 3.1 350 07:37 17.10.2019
38 Drizzle 7 1006 100 6000 2.6 350 07:18 17.10.2019
39 Mist 7 1006 100 4200 3.1 360 06:40 17.10.2019
40 Mist 7 1006 100 2700 3.6 350 06:21 17.10.2019
41 Mist 7 1006 100 2400 3.6 350 05:54 17.10.2019
42 Mist 7 1006 100 2200 3.1 350 05:32 17.10.2019
43 Mist 7 1006 100 2200 2.1 360 04:55 17.10.2019
44 Mist 7 1006 100 5000 2.6 10 03:55 17.10.2019
45 Mist 7 1006 100 6000 3.6 20 02:37 17.10.2019
46 Rain 7 1006 93 3600 3.6 40 01:31 17.10.2019
47 Rain 8 1006 93 2700 2.6 20 00:40 17.10.2019
48 Mist 8 1006 93 3800 3.6 20 00:19 17.10.2019
49 Rain 8 1006 93 10000 3.1 30 23:42 16.10.2019
50 Mist 8 1006 100 5000 3.1 10 23:21 16.10.2019
51 Mist 8 1006 100 6000 3.1 20 22:56 16.10.2019
52 Mist 8 1006 100 6000 3.1 20 22:56 16.10.2019
53 Mist 8 1006 100 6000 3.1 20 22:37 16.10.2019
54 Drizzle 8 1006 100 4200 3.1 20 22:19 16.10.2019
55 Drizzle 8 1006 100 3200 3.6 20 21:56 16.10.2019
56 Drizzle 8 1006 100 3200 3.6 20 21:37 16.10.2019
57 Drizzle 8 1007 100 3500 3.1 40 21:19 16.10.2019
58 Mist 8 1007 100 500 2.6 30 20:58 16.10.2019
59 Mist 8 1007 100 500 2.6 30 20:39 16.10.2019
60 Drizzle 8 1007 100 550 3.1 30 20:20 16.10.2019
61 Drizzle 8 1007 93 10000 3.6 40 19:59 16.10.2019
62 Mist 8 1007 93 7000 4.1 50 19:38 16.10.2019
63 Mist 8 1007 93 7000 4.1 50 19:20 16.10.2019
64 Mist 8 1007 93 7000 4.1 50 19:20 16.10.2019
65 Clouds 8 1007 93 10000 4.6 50 18:39 16.10.2019
66 Clouds 8 1007 93 10000 4.1 50 18:20 16.10.2019
67 Clouds 8 1007 93 9000 4.1 50 17:58 16.10.2019
68 Clouds 8 1007 93 9000 4.1 50 17:58 16.10.2019
69 Clouds 8 1007 93 9000 4.1 50 17:39 16.10.2019
70 Drizzle 9 1007 100 7000 5.1 50 17:21 16.10.2019
71 Mist 9 1007 100 4500 4.1 40 17:00 16.10.2019
72 Mist 9 1007 100 4500 4.1 40 16:41 16.10.2019
73 Mist 9 1007 100 4000 3.1 40 16:21 16.10.2019
74 Mist 9 1007 100 6000 3.1 50 15:57 16.10.2019
75 Mist 9 1007 100 6000 3.1 50 15:38 16.10.2019
76 Clouds 9 1007 100 10000 4.1 40 15:18 16.10.2019
77 Clouds 9 1007 100 10000 4.1 40 14:56 16.10.2019
78 Clouds 9 1007 100 10000 2.6 40 14:38 16.10.2019
79 Clouds 9 1007 100 10000 2.6 40 14:18 16.10.2019
80 Clouds 9 1007 100 10000 3.6 40 13:56 16.10.2019
81 Clouds 9 1007 100 10000 3.6 40 13:56 16.10.2019
82 Clouds 9 1007 100 10000 3.6 40 13:56 16.10.2019
83 Clouds 9 1007 100 10000 3.6 40 13:37 16.10.2019
84 Clouds 9 1007 100 10000 3.6 50 13:18 16.10.2019
85 Clouds 9 1007 100 10000 4.1 60 12:41 16.10.2019
86 Clouds 10 1007 93 10000 4.1 60 12:19 16.10.2019
87 Clouds 10 1008 93 10000 4.1 60 11:43 16.10.2019
88 Clouds 10 1008 93 8000 4.6 70 11:18 16.10.2019
89 Drizzle 10 1008 93 5000 4.1 70 10:41 16.10.2019
90 Clouds 10 1008 100 6000 4.1 70 10:22 16.10.2019
91 Clouds 10 1008 100 10000 3.6 70 09:58 16.10.2019
92 Clouds 10 1008 100 10000 3.6 70 09:38 16.10.2019
93 Clouds 10 1008 100 10000 3.1 60 09:20 16.10.2019
94 Mist 10 1008 100 5000 3.6 60 08:43 16.10.2019
95 Mist 10 1008 100 4000 3.1 80 08:25 16.10.2019
96 Mist 10 1008 100 5000 3.1 70 07:56 16.10.2019
97 -273 0 0 0 0 0 07:56 16.10.2019
98 Mist 10 1008 100 5000 3.1 70 07:38 16.10.2019
99 Mist 10 1009 100 6000 2.6 70 07:19 16.10.2019
100 Mist 10 1009 100 6000 2.6 60 06:40 16.10.2019
101 Mist 9 1009 100 7000 2.1 60 06:19 16.10.2019
102 Mist 10 1009 100 8000 2.6 80 03:33 16.10.2019
103 Clouds 10 1010 100 10000 3.6 90 02:50 16.10.2019
104 Clouds 10 1011 93 10000 5.1 100 01:20 16.10.2019
105 -273 0 0 0 0 0 00:54 16.10.2019
106 Clouds 10 1011 100 10000 5.1 110 00:35 16.10.2019
107 Mist 9 1012 93 3700 2.6 100 23:42 15.10.2019
108 Mist 9 1012 93 5000 4.1 100 23:22 15.10.2019
109 Mist 9 1013 100 5000 4.1 100 22:57 15.10.2019
110 Mist 9 1013 100 5000 4.1 100 22:38 15.10.2019
111 Mist 9 1013 100 5000 4.6 90 22:20 15.10.2019
112 Mist 9 1013 93 5000 3.6 90 21:57 15.10.2019
113 Drizzle 9 1013 93 2200 4.1 80 21:38 15.10.2019
114 Drizzle 9 1013 93 2200 4.1 80 21:20 15.10.2019
115 Drizzle 9 1014 100 2100 3.6 70 20:58 15.10.2019
116 Drizzle 8 1014 100 2300 3.6 70 20:39 15.10.2019
117 Drizzle 8 1014 100 2300 3.6 70 20:21 15.10.2019
118 Drizzle 8 1014 100 3100 4.6 90 19:59 15.10.2019
119 Drizzle 8 1014 100 3000 5.7 90 19:40 15.10.2019
120 Drizzle 8 1014 100 3000 5.7 90 19:20 15.10.2019
121 Drizzle 8 1015 100 3000 5.1 90 18:55 15.10.2019
122 Drizzle 8 1015 100 3000 5.1 90 18:36 15.10.2019
123 Rain 8 1015 93 3000 5.1 80 18:18 15.10.2019
124 Rain 8 1015 93 5000 4.6 70 17:41 15.10.2019
125 Rain 8 1015 93 5000 4.6 70 17:41 15.10.2019
126 Rain 8 1016 93 7000 4.1 70 17:20 15.10.2019
127 Drizzle 8 1015 93 7000 5.1 80 16:58 15.10.2019
128 Drizzle 8 1015 93 7000 5.1 80 16:39 15.10.2019
129 Rain 8 1016 93 7000 4.6 80 16:20 15.10.2019
130 Drizzle 8 1017 87 10000 4.1 90 15:55 15.10.2019
131 -273 0 0 0 0 0 15:55 15.10.2019
132 Drizzle 8 1017 87 10000 4.1 90 15:36 15.10.2019
133 Drizzle 8 1017 87 10000 5.1 110 15:18 15.10.2019
134 Clouds 8 1018 87 10000 3.1 90 14:38 15.10.2019
135 Clouds 8 1018 87 10000 3.1 90 14:38 15.10.2019
136 Rain 8 1018 87 10000 3.6 110 14:20 15.10.2019
137 Drizzle 9 1018 93 10000 2.6 80 13:58 15.10.2019
138 Drizzle 9 1018 93 10000 2.6 80 13:40 15.10.2019
139 Clouds 9 1018 87 9000 3.1 80 13:19 15.10.2019
140 Clouds 9 1018 87 10000 3.6 70 12:44 15.10.2019
141 Clouds 9 1018 81 10000 3.1 70 12:22 15.10.2019
142 Clouds 9 1019 81 10000 3.1 80 11:58 15.10.2019
143 Clouds 9 1019 81 10000 3.1 80 11:40 15.10.2019
144 Clouds 8 1019 81 10000 3.6 100 11:19 15.10.2019
145 Clouds 8 1019 81 10000 3.1 90 10:45 15.10.2019
146 Clouds 8 1019 81 10000 3.1 90 10:23 15.10.2019
147 Clouds 8 1019 93 10000 2.6 90 09:59 15.10.2019
148 Clouds 8 1019 93 10000 2.6 90 09:40 15.10.2019
149 Clouds 7 1019 93 10000 2.1 80 09:20 15.10.2019
150 Clouds 7 1019 93 10000 2.1 80 08:57 15.10.2019
151 Clouds 7 1019 93 10000 2.1 80 08:57 15.10.2019
152 Clouds 7 1018 87 10000 2.1 90 08:37 15.10.2019
153 Clouds 7 1018 87 10000 2.1 90 08:18 15.10.2019
154 Clouds 7 1019 100 10000 2.1 60 07:43 15.10.2019
155 Clouds 7 1019 100 10000 2.1 60 07:21 15.10.2019
156 Clouds 6 1019 100 10000 1 70 06:54 15.10.2019
157 Clouds 6 1019 100 10000 1 0 06:36 15.10.2019
158 Clouds 6 1019 93 10000 0.92 109.612 05:56 15.10.2019
159 Clouds 6 1019 93 10000 0.92 109.612 05:36 15.10.2019
160 Clouds 6 1019 93 10000 1 0 04:40 15.10.2019
161 Clouds 6 1019 100 10000 1 60 03:59 15.10.2019
162 Clouds 6 1019 100 10000 0.92 109.612 03:30 15.10.2019
163 Clouds 6 1019 100 10000 0.5 0 01:51 15.10.2019
164 Clouds 6 1018 100 10000 0.71 143.877 01:26 15.10.2019
165 Clouds 6 1018 100 10000 0.71 143.877 00:59 15.10.2019
166 Clouds 6 1018 100 10000 0.67 12.593 00:24 15.10.2019
167 Clouds 6 1018 100 10000 0.67 12.593 23:57 14.10.2019
168 Fog 6 1018 100 550 1 260 23:37 14.10.2019
169 Fog 6 1018 100 550 1 260 23:18 14.10.2019
170 Clouds 6 1017 100 7000 1 320 22:39 14.10.2019
171 Clouds 6 1017 100 7000 1 320 22:20 14.10.2019
172 Clouds 6 1016 93 8000 1.5 300 21:57 14.10.2019
173 Clouds 6 1016 93 10000 1 300 21:39 14.10.2019
174 Clouds 6 1016 93 10000 1 300 21:20 14.10.2019
175 Clouds 6 1015 93 10000 2.1 340 20:57 14.10.2019
176 Clouds 6 1015 93 10000 2.1 340 20:38 14.10.2019
177 Clouds 7 1015 93 10000 2.6 340 20:38 14.10.2019
178 Clouds 6 1015 93 10000 2.1 340 20:38 14.10.2019
179 Clouds 7 1015 93 10000 2.6 340 20:19 14.10.2019
180 Clouds 7 1014 93 10000 2.6 350 19:43 14.10.2019
181 Clouds 7 1014 93 10000 2.1 350 19:25 14.10.2019
182 Clouds 8 1013 87 10000 2.1 340 18:59 14.10.2019
183 Clouds 8 1013 87 10000 2.1 340 18:40 14.10.2019
184 Clouds 8 1013 87 10000 2.6 350 18:20 14.10.2019
185 Clouds 8 1013 87 10000 2.6 350 18:20 14.10.2019
186 Clouds 9 1012 87 10000 3.1 350 17:58 14.10.2019
187 Clouds 9 1012 87 10000 3.1 350 17:40 14.10.2019
188 Clouds 9 1011 87 10000 4.1 350 17:22 14.10.2019
189 Clouds 9 1010 81 10000 4.1 340 16:44 14.10.2019
190 Clouds 9 1010 87 10000 3.1 350 16:22 14.10.2019
191 Rain 9 1008 81 10000 2.6 360 15:57 14.10.2019
192 Rain 9 1008 81 10000 2.6 360 15:38 14.10.2019
193 Rain 9 1008 87 10000 3.6 360 15:20 14.10.2019
194 Clouds 9 1007 93 10000 3.6 10 14:43 14.10.2019
195 -273 0 0 0 0 0 14:24 14.10.2019
196 Rain 9 1005 93 10000 4.1 20 13:57 14.10.2019
197 Rain 9 1005 93 10000 4.1 20 13:38 14.10.2019
198 Rain 9 1004 93 10000 3.6 10 13:19 14.10.2019
199 Rain 9 1003 93 10000 5.1 30 12:41 14.10.2019
200 Rain 8 1003 100 7000 4.6 20 12:19 14.10.2019
201 Rain 8 1002 100 7000 4.6 30 11:47 14.10.2019
202 Rain 8 1002 100 5000 4.6 30 11:27 14.10.2019
203 Rain 8 1001 93 4500 5.1 40 10:59 14.10.2019
204 Rain 8 1001 93 4500 5.1 40 10:40 14.10.2019
205 Rain 8 1001 100 5000 4.1 40 10:21 14.10.2019
206 Rain 8 1000 100 3500 4.6 60 09:57 14.10.2019
207 Rain 8 1000 100 3500 4.6 60 09:38 14.10.2019
208 Rain 8 1000 93 5000 5.1 50 09:19 14.10.2019
209 Rain 8 1000 93 5000 5.7 60 08:45 14.10.2019
210 Rain 8 1001 93 5000 5.1 70 08:22 14.10.2019
211 Rain 8 1001 93 7000 4.1 60 07:44 14.10.2019
212 Rain 8 1002 93 6000 4.1 60 07:21 14.10.2019
213 Rain 8 1002 93 7000 3.6 100 06:54 14.10.2019
214 Rain 8 1002 93 10000 5.7 110 06:27 14.10.2019
215 Rain 8 1002 93 10000 5.1 110 05:50 14.10.2019
216 Rain 8 1004 100 10000 1.5 90 04:49 14.10.2019
217 Rain 8 1005 100 10000 2.1 90 03:48 14.10.2019
218 Rain 8 1006 100 10000 2.1 90 03:21 14.10.2019
219 Rain 7 1007 93 10000 1.5 110 01:36 14.10.2019
220 Rain 7 1008 93 10000 1 120 01:18 14.10.2019
221 Clouds 7 1008 93 10000 1.5 120 00:23 14.10.2019
222 Clouds 7 1009 93 10000 1 120 23:46 13.10.2019
223 Clouds 7 1010 100 10000 1 110 23:21 13.10.2019
224 Clouds 7 1010 100 10000 1.5 140 23:00 13.10.2019
225 Clouds 7 1010 100 10000 1.5 140 22:41 13.10.2019
226 Clear 7 1010 93 10000 1 160 22:22 13.10.2019
227 Clear 7 1010 93 10000 1 160 22:22 13.10.2019
228 Clouds 7 1010 93 10000 1.5 0 21:58 13.10.2019
229 Clouds 6 1010 93 10000 1.5 0 21:38 13.10.2019
230 Clouds 6 1010 93 10000 1.5 150 21:19 13.10.2019
231 Clouds 6 1010 100 10000 1.5 140 20:58 13.10.2019
232 Clouds 6 1010 100 10000 1.5 140 20:58 13.10.2019
233 Clouds 6 1010 100 10000 1.5 140 20:40 13.10.2019
234 Clouds 6 1010 100 10000 2.03 192.792 20:21 13.10.2019
235 -273 0 0 0 0 0 19:59 13.10.2019
236 Mist 6 1010 93 10000 1.5 0 19:39 13.10.2019
237 Mist 6 1010 93 10000 1.5 0 19:39 13.10.2019
238 Mist 6 1010 93 10000 1.5 0 19:39 13.10.2019
239 Clouds 6 1010 93 10000 2.03 192.792 19:21 13.10.2019
240 Clouds 7 1010 87 10000 2.03 192.792 18:59 13.10.2019
241 Clouds 7 1010 87 10000 2.03 192.792 18:59 13.10.2019
242 Clouds 7 1010 87 10000 2.03 192.792 18:58 13.10.2019
243 Clouds 7 1010 87 10000 2.03 192.792 18:58 13.10.2019
244 Clouds 7 1010 87 10000 2.03 192.792 18:58 13.10.2019
245 Clouds 7 1010 87 10000 2.03 192.792 18:38 13.10.2019
246 Clear 7 1010 81 10000 1.5 0 18:38 13.10.2019
247 Clear 8 1010 81 10000 1.5 0 18:19 13.10.2019
248 Clear 8 1010 81 10000 1.5 0 18:19 13.10.2019
249 Clear 9 1010 76 10000 1 210 17:58 13.10.2019
250 Clear 10 1010 76 10000 1 210 17:39 13.10.2019
251 Clear 11 1010 71 10000 2.1 230 17:21 13.10.2019
252 Clouds 11 1009 66 10000 2.6 240 16:43 13.10.2019
253 Clouds 12 1009 66 10000 3.6 250 16:19 13.10.2019
254 Clouds 12 1009 58 10000 4.1 240 15:57 13.10.2019
255 Clouds 12 1009 58 10000 4.1 260 15:38 13.10.2019
256 Clouds 12 1009 58 10000 4.1 260 15:19 13.10.2019
257 Clouds 12 1008 66 10000 4.6 260 14:57 13.10.2019
258 Clouds 12 1008 66 10000 4.6 260 14:38 13.10.2019
259 Clouds 12 1008 66 10000 4.1 260 14:19 13.10.2019
260 Clouds 11 1008 71 10000 3.6 250 13:42 13.10.2019
261 Clouds 11 1008 71 10000 3.6 250 13:42 13.10.2019
262 Clouds 11 1008 76 10000 4.1 270 13:23 13.10.2019
263 Clouds 11 1007 71 10000 4.1 230 12:59 13.10.2019
264 Clouds 11 1007 81 10000 4.1 280 12:39 13.10.2019
265 Clouds 10 1007 81 10000 4.1 280 12:21 13.10.2019
266 Clouds 10 1007 76 10000 4.6 280 11:59 13.10.2019
267 Clouds 10 1006 81 10000 4.1 250 11:39 13.10.2019
268 Clouds 10 1006 81 10000 4.1 250 11:21 13.10.2019
269 Clouds 10 1006 81 10000 4.6 250 10:59 13.10.2019
270 Clouds 9 1006 81 10000 4.6 250 10:39 13.10.2019
271 Clouds 9 1006 81 10000 4.6 250 10:39 13.10.2019
272 Clouds 9 1005 81 10000 4.6 250 10:20 13.10.2019
273 Clouds 9 1005 81 10000 4.6 270 09:39 13.10.2019
274 Clouds 9 1004 81 10000 5.1 260 09:21 13.10.2019
275 Clouds 9 1004 81 10000 5.1 260 09:21 13.10.2019
276 Clouds 9 1004 81 10000 5.7 260 08:51 13.10.2019
277 Clouds 10 1003 81 10000 4.6 250 08:27 13.10.2019
278 Clouds 9 1002 81 10000 5.1 270 07:55 13.10.2019
279 Clouds 10 1002 81 10000 5.1 270 07:35 13.10.2019
280 Drizzle 10 1001 81 10000 4.6 260 06:54 13.10.2019
281 Clouds 10 1001 81 10000 4.6 250 06:24 13.10.2019
282 Clouds 10 1000 81 10000 5.7 250 05:27 13.10.2019
283 Clouds 10 1000 81 10000 5.7 250 05:27 13.10.2019
284 Drizzle 10 999 81 10000 6.2 240 04:35 13.10.2019
285 Rain 10 999 81 10000 5.1 230 03:34 13.10.2019
286 Drizzle 10 998 81 10000 5.1 230 02:31 13.10.2019
287 Drizzle 10 998 81 10000 5.1 230 02:31 13.10.2019
288 Clouds 11 998 81 10000 5.1 240 01:37 13.10.2019
289 Clouds 10 998 81 10000 5.1 230 00:59 13.10.2019
290 Clouds 11 997 81 10000 5.1 240 00:38 13.10.2019
291 Clouds 11 997 81 10000 5.1 240 00:19 13.10.2019
292 Clouds 11 997 81 10000 5.1 240 23:42 12.10.2019
293 Clouds 11 997 81 10000 5.1 230 23:23 12.10.2019
294 Clouds 11 997 81 10000 5.1 240 22:59 12.10.2019
295 Clouds 11 997 81 10000 5.1 240 22:40 12.10.2019
296 Clouds 11 997 81 10000 5.1 230 22:22 12.10.2019
297 Rain 11 996 81 10000 5.7 230 21:58 12.10.2019
298 Rain 11 996 81 10000 5.7 230 21:40 12.10.2019
299 Rain 11 996 81 10000 5.7 230 21:40 12.10.2019
300 Rain 11 996 81 10000 5.7 230 21:40 12.10.2019
301 Rain 11 996 81 10000 5.1 220 21:21 12.10.2019
302 -273 0 0 0 0 0 20:54 12.10.2019
303 Rain 11 996 81 10000 4.6 210 20:36 12.10.2019
304 Rain 11 996 76 10000 3.6 220 20:18 12.10.2019
305 Rain 11 996 71 10000 3.6 220 19:36 12.10.2019
306 Rain 11 996 71 10000 4.1 220 19:18 12.10.2019
307 Rain 11 996 71 10000 3.6 210 18:43 12.10.2019
308 Rain 11 996 71 10000 3.6 220 18:24 12.10.2019
309 Rain 12 996 66 10000 3.6 230 17:46 12.10.2019
310 Clear 12 996 71 10000 4.1 240 17:22 12.10.2019
311 Clouds 12 995 71 10000 5.1 240 16:59 12.10.2019
312 Clouds 12 995 71 10000 5.1 240 16:40 12.10.2019
313 Clouds 12 995 71 10000 5.1 240 16:40 12.10.2019
314 Clouds 12 995 71 10000 5.7 230 16:21 12.10.2019
315 Clouds 12 995 81 10000 4.1 230 15:56 12.10.2019
316 Clouds 12 995 81 10000 4.1 230 15:37 12.10.2019
317 Rain 12 995 76 10000 4.6 240 15:18 12.10.2019
318 Rain 12 995 76 10000 4.1 230 14:40 12.10.2019
319 Rain 12 995 81 10000 4.1 220 14:20 12.10.2019
320 Rain 12 994 81 10000 4.1 220 13:51 12.10.2019
321 Clouds 11 994 81 10000 4.1 230 13:32 12.10.2019
322 Clouds 11 994 87 10000 4.1 230 12:56 12.10.2019
323 Clouds 11 994 87 10000 3.6 240 12:38 12.10.2019
324 Clouds 11 994 87 10000 3.6 240 12:38 12.10.2019
325 Clouds 11 994 87 10000 3.6 240 12:20 12.10.2019
326 Clouds 11 994 87 10000 3.6 240 12:20 12.10.2019
327 Clouds 10 994 93 10000 4.1 240 11:45 12.10.2019
328 Clouds 10 993 93 10000 4.1 240 11:24 12.10.2019
329 Clouds 10 993 93 10000 3.1 240 10:58 12.10.2019
330 Clouds 10 993 93 10000 3.1 240 10:39 12.10.2019
331 Clouds 10 993 93 8000 4.1 230 10:20 12.10.2019
332 -273 0 0 0 0 0 09:57 12.10.2019
333 Rain 10 992 93 10000 5.7 240 09:57 12.10.2019
334 Rain 10 992 93 10000 5.7 240 09:38 12.10.2019
335 Rain 10 992 87 10000 3.6 240 09:19 12.10.2019
336 Rain 9 991 93 10000 4.1 240 08:44 12.10.2019
337 Rain 9 991 93 10000 4.1 240 08:25 12.10.2019
338 Clouds 9 991 93 10000 4.1 240 07:59 12.10.2019
339 Clouds 9 991 93 10000 4.1 240 07:31 12.10.2019
340 Clouds 9 991 93 10000 4.6 240 06:37 12.10.2019
341 Clouds 9 990 93 10000 4.1 240 05:44 12.10.2019
342 Rain 9 990 87 10000 5.7 250 04:43 12.10.2019
343 Rain 10 990 93 10000 4.6 240 03:56 12.10.2019
344 Rain 10 990 93 10000 4.1 230 02:50 12.10.2019
345 Rain 10 991 93 10000 3.1 220 01:34 12.10.2019
346 Rain 11 991 93 10000 3.1 210 00:56 12.10.2019
347 Rain 11 991 93 10000 2.6 200 00:38 12.10.2019
348 Rain 10 991 93 10000 3.6 210 23:55 11.10.2019
349 Rain 10 991 93 10000 3.6 210 23:37 11.10.2019
350 Rain 11 991 93 10000 2.6 190 23:18 11.10.2019
351 Rain 11 992 93 10000 3.1 190 22:38 11.10.2019
352 Rain 11 992 93 10000 3.1 190 22:19 11.10.2019
353 Drizzle 10 992 93 10000 2.6 180 21:44 11.10.2019
354 Rain 10 993 100 10000 2.6 150 21:22 11.10.2019
355 Rain 10 993 93 10000 2.1 170 20:59 11.10.2019
356 Rain 10 993 93 10000 2.1 170 20:41 11.10.2019
357 Clouds 10 993 93 10000 2.1 170 20:23 11.10.2019
358 Clouds 10 994 93 10000 3.6 180 19:55 11.10.2019
359 Clouds 10 994 93 10000 3.6 180 19:37 11.10.2019
360 Clouds 10 994 93 10000 3.6 180 19:37 11.10.2019
361 Clouds 10 994 93 10000 2.1 170 19:18 11.10.2019
362 Clouds 10 994 93 10000 2.1 170 19:18 11.10.2019
363 Clouds 10 994 93 10000 2.1 170 19:18 11.10.2019
364 Clouds 10 994 93 10000 2.1 170 19:18 11.10.2019
365 Drizzle 10 995 93 10000 2.6 170 18:56 11.10.2019
366 Drizzle 10 995 93 10000 2.6 170 18:37 11.10.2019
367 Rain 10 995 87 10000 3.6 160 18:18 11.10.2019
368 Rain 11 995 87 10000 2.6 170 17:55 11.10.2019
369 Rain 11 995 87 10000 2.6 170 17:36 11.10.2019
370 Clouds 11 996 87 10000 3.1 180 17:18 11.10.2019
371 Clouds 11 996 87 10000 3.1 170 16:40 11.10.2019
372 Clouds 11 996 87 10000 3.6 190 16:20 11.10.2019
373 Clouds 11 996 87 10000 3.1 190 15:59 11.10.2019
374 Clouds 11 996 87 10000 3.1 190 15:59 11.10.2019
375 Clouds 11 996 87 10000 3.1 190 15:38 11.10.2019
376 Drizzle 11 997 87 10000 3.6 190 15:19 11.10.2019
377 Drizzle 11 997 87 10000 4.1 190 14:47 11.10.2019
378 Rain 11 997 87 10000 3.6 210 14:29 11.10.2019
379 Clouds 11 998 81 10000 3.6 210 13:57 11.10.2019
380 Clouds 11 998 81 10000 3.6 210 13:38 11.10.2019
381 Clouds 11 998 81 10000 3.1 210 13:19 11.10.2019
382 Clouds 11 998 81 10000 3.6 220 12:56 11.10.2019
383 Clouds 11 998 81 10000 3.6 220 12:38 11.10.2019
384 Clouds 11 998 81 10000 5.1 230 12:18 11.10.2019
385 Clouds 11 998 81 10000 5.1 220 11:41 11.10.2019
386 Clouds 10 998 87 10000 4.1 220 11:22 11.10.2019
387 Clouds 10 998 87 10000 4.1 210 10:58 11.10.2019
388 Clouds 10 998 87 10000 4.1 210 10:40 11.10.2019
389 Clouds 10 998 87 10000 4.1 210 10:22 11.10.2019
390 Clouds 9 998 93 10000 4.1 210 09:55 11.10.2019
391 Clouds 9 998 93 10000 4.1 210 09:37 11.10.2019
392 Clouds 9 998 93 10000 4.1 220 09:18 11.10.2019
393 Clouds 8 998 100 10000 3.6 210 08:55 11.10.2019
394 Clouds 8 998 93 10000 3.6 210 08:36 11.10.2019
395 Clouds 8 998 93 10000 3.6 210 08:18 11.10.2019
396 Mist 8 998 93 10000 3.6 210 07:41 11.10.2019
397 Drizzle 7 998 93 4500 4.1 210 07:22 11.10.2019
398 Clouds 7 999 100 10000 2.6 200 06:47 11.10.2019
399 Clouds 8 999 100 10000 2.1 200 06:22 11.10.2019
400 Clouds 7 999 100 10000 1.5 180 05:39 11.10.2019
401 Clouds 8 999 100 10000 3.1 220 04:59 11.10.2019
402 Clouds 8 999 100 10000 2.1 200 04:24 11.10.2019
403 Clouds 9 1000 93 10000 2.6 220 02:32 11.10.2019
404 Clouds 9 999 93 10000 2.6 220 00:49 11.10.2019
405 Clouds 9 999 93 10000 2.6 230 00:29 11.10.2019
406 Clouds 9 999 93 10000 2.6 240 23:44 10.10.2019
407 Clouds 9 999 100 10000 2.1 220 23:22 10.10.2019
408 Clouds 9 999 100 10000 2.1 220 22:57 10.10.2019
409 Clouds 9 999 100 10000 2.1 220 22:39 10.10.2019
410 Rain 9 999 100 10000 2.6 220 22:20 10.10.2019
411 Rain 9 999 93 10000 2.6 220 21:57 10.10.2019
412 Rain 9 999 93 10000 2.6 220 21:39 10.10.2019
413 Rain 9 999 93 10000 2.1 210 21:20 10.10.2019
414 Rain 9 999 93 10000 2.1 200 20:43 10.10.2019
415 Clouds 10 999 87 10000 2.1 200 20:22 10.10.2019
416 Clouds 9 999 87 10000 2.1 200 19:59 10.10.2019
417 Clouds 10 999 87 10000 2.1 200 19:41 10.10.2019
418 Clouds 10 999 87 10000 2.1 200 19:41 10.10.2019
419 Clouds 9 999 87 10000 2.1 200 19:41 10.10.2019
420 Clouds 10 999 87 10000 2.1 200 19:21 10.10.2019
421 Clear 10 999 87 10000 1.5 210 18:59 10.10.2019
422 Clear 10 999 87 10000 1.5 210 18:39 10.10.2019
423 Clouds 10 999 81 10000 2.1 220 18:20 10.10.2019
424 Clouds 10 999 81 10000 2.1 230 17:55 10.10.2019
425 Clouds 10 999 81 10000 2.1 230 17:36 10.10.2019
426 Clouds 11 999 81 10000 2.6 240 17:18 10.10.2019
427 Clouds 11 999 76 10000 3.6 240 16:44 10.10.2019
428 Clouds 11 999 76 10000 3.1 230 16:26 10.10.2019
429 Clouds 11 999 81 10000 2.6 270 15:57 10.10.2019
430 Clouds 11 999 81 10000 2.6 270 15:37 10.10.2019
431 Rain 11 998 87 10000 2.1 260 15:19 10.10.2019
432 Clouds 11 998 81 10000 1.5 180 14:54 10.10.2019
433 Clouds 11 998 76 10000 2.1 190 14:36 10.10.2019
434 Clouds 11 998 76 10000 2.1 190 14:18 10.10.2019
435 Clouds 11 998 76 10000 2.6 220 13:41 10.10.2019
436 Clouds 11 998 81 10000 2.1 190 13:23 10.10.2019
437 Clouds 11 998 87 10000 2.6 200 12:57 10.10.2019
438 Clouds 11 998 87 10000 2.6 200 12:39 10.10.2019
439 Mist 10 998 87 10000 2.6 200 12:20 10.10.2019
440 Mist 10 998 87 10000 2.6 200 12:20 10.10.2019
441 Mist 10 998 93 10000 1.5 190 11:56 10.10.2019
442 Mist 10 998 93 10000 1.5 190 11:38 10.10.2019
443 Clouds 10 998 93 10000 1.5 0 11:19 10.10.2019
444 Mist 10 998 100 10000 1.5 160 10:44 10.10.2019
445 Mist 9 998 100 10000 1.5 150 10:26 10.10.2019
446 Fog 9 998 100 10000 1.5 170 09:56 10.10.2019
447 Fog 9 998 100 10000 1.5 170 09:38 10.10.2019
448 Fog 8 998 100 7000 1 0 09:20 10.10.2019
449 Fog 8 998 100 7000 1.5 0 08:57 10.10.2019
450 Fog 8 998 100 7000 1.5 0 08:37 10.10.2019
451 Fog 8 998 100 4900 1.5 140 08:18 10.10.2019
452 Fog 8 998 100 2300 1 0 07:44 10.10.2019
453 Fog 8 998 100 800 1.5 150 07:21 10.10.2019
454 Mist 8 998 100 9000 2.1 120 06:48 10.10.2019
455 Mist 8 998 100 10000 1.5 120 06:29 10.10.2019
456 Rain 7 998 100 10000 1.5 120 05:28 10.10.2019
457 Rain 7 998 93 10000 2.1 100 04:47 10.10.2019
458 Mist 7 998 93 10000 1.5 120 04:26 10.10.2019
459 Fog 5 999 100 10000 1 0 01:44 10.10.2019
460 Fog 5 999 100 10000 1 0 01:43 10.10.2019
461 Fog 6 999 100 5000 1.83 132.472 01:25 10.10.2019
462 Fog 6 1000 93 600 1.83 132.472 00:54 10.10.2019
463 Fog 6 1000 100 1400 0.35 269.026 00:22 10.10.2019
464 Fog 6 1000 100 10000 1 0 23:40 09.10.2019
465 Fog 7 1000 100 10000 1 0 23:21 09.10.2019
466 Fog 7 1000 100 10000 1 180 22:56 09.10.2019
467 Fog 7 1000 100 10000 1 180 22:37 09.10.2019
468 Mist 7 1000 93 10000 1 200 22:19 09.10.2019
469 Mist 7 1000 93 10000 1.5 200 21:40 09.10.2019
470 Mist 8 1000 93 10000 1.5 200 21:21 09.10.2019
471 Mist 8 1000 93 10000 1 210 20:56 09.10.2019
472 Mist 8 1000 93 10000 1 210 20:38 09.10.2019
473 Mist 8 1000 93 10000 1 210 20:38 09.10.2019
474 Mist 8 1000 93 10000 0.39 112.54 20:19 09.10.2019
475 Mist 8 1000 93 10000 1 280 19:58 09.10.2019
476 Mist 8 1000 93 10000 1 280 19:39 09.10.2019
477 Mist 8 1000 93 10000 1.5 250 19:20 09.10.2019
478 Rain 9 1000 93 10000 1.5 310 18:38 09.10.2019
479 Clouds 9 1000 93 10000 1.5 0 18:19 09.10.2019
480 Mist 9 1000 93 10000 1.5 200 17:57 09.10.2019
481 Mist 9 1000 93 10000 1.5 200 17:37 09.10.2019
482 Mist 9 1000 93 10000 1.5 200 17:37 09.10.2019
483 Mist 9 999 93 10000 1.5 80 17:19 09.10.2019
484 Mist 9 999 93 10000 1.5 80 17:19 09.10.2019
485 Rain 9 999 93 10000 2.6 100 16:55 09.10.2019
486 Rain 9 999 81 10000 2.1 90 16:36 09.10.2019
487 Rain 9 999 81 10000 2.1 90 16:18 09.10.2019
488 Clouds 9 999 81 10000 2.6 70 15:55 09.10.2019
489 Clouds 9 999 81 10000 2.6 70 15:36 09.10.2019
490 Drizzle 9 999 81 10000 2.6 90 15:18 09.10.2019
491 Drizzle 9 999 81 10000 2.6 90 15:18 09.10.2019
492 Rain 9 999 81 10000 2.6 100 14:41 09.10.2019
493 Rain 9 999 81 10000 3.1 80 14:18 09.10.2019
494 Rain 9 999 81 10000 3.6 80 13:55 09.10.2019
495 Rain 9 999 81 10000 3.6 80 13:36 09.10.2019
496 Drizzle 9 999 87 10000 3.6 100 13:18 09.10.2019
497 Clouds 9 999 81 10000 3.6 100 12:42 09.10.2019
498 Rain 8 999 87 10000 3.6 110 12:22 09.10.2019
499 Clouds 8 999 87 10000 3.6 100 11:57 09.10.2019
500 Clouds 8 999 87 10000 3.6 100 11:39 09.10.2019
501 Drizzle 8 999 87 10000 3.6 100 11:20 09.10.2019
502 Rain 7 999 81 10000 3.1 100 10:55 09.10.2019
503 Rain 7 999 81 10000 3.1 100 10:37 09.10.2019
504 Rain 7 998 87 10000 4.1 90 10:18 09.10.2019
505 Rain 6 998 87 10000 3.6 90 09:42 09.10.2019
506 Rain 6 998 87 10000 3.6 90 09:19 09.10.2019
507 Clouds 6 998 87 10000 3.1 90 08:56 09.10.2019
508 Drizzle 6 998 87 10000 2.6 80 08:37 09.10.2019
509 Drizzle 6 998 87 10000 2.6 80 08:18 09.10.2019
510 Drizzle 6 998 87 10000 2.6 80 08:18 09.10.2019
511 Clouds 5 998 93 10000 1.5 60 07:43 09.10.2019
512 Drizzle 5 998 93 10000 1.5 60 07:23 09.10.2019
513 Rain 5 998 93 10000 2.1 60 06:52 09.10.2019
514 Rain 5 998 100 10000 1.5 60 06:20 09.10.2019
515 Rain 5 998 93 10000 1.5 50 05:46 09.10.2019
516 Rain 5 998 93 10000 2.1 60 04:27 09.10.2019
517 Drizzle 5 998 93 10000 2.34 81.901 02:54 09.10.2019
518 Drizzle 5 998 87 10000 1.5 60 01:44 09.10.2019
519 Drizzle 4 998 86 10000 1.5 50 01:21 09.10.2019
520 Drizzle 4 998 86 10000 1.5 50 01:21 09.10.2019
521 Drizzle 4 998 86 10000 1.5 50 01:21 09.10.2019
522 Rain 4 998 86 10000 1 30 00:58 09.10.2019
523 Rain 4 998 86 10000 1 30 00:40 09.10.2019
524 Drizzle 4 999 81 10000 1.5 70 00:21 09.10.2019
525 Rain 4 999 86 10000 1.5 80 23:57 08.10.2019
526 Rain 4 999 86 10000 1.5 80 23:36 08.10.2019
527 Mist 4 999 75 10000 1.5 50 23:18 08.10.2019
528 Mist 4 999 86 10000 1 30 22:39 08.10.2019
529 Mist 4 999 86 10000 0.5 360 22:20 08.10.2019
530 Mist 4 999 86 10000 0.5 360 22:20 08.10.2019
531 Drizzle 4 999 80 10000 0.64 84.085 21:57 08.10.2019
532 Clouds 4 999 86 10000 0.64 84.085 21:39 08.10.2019
533 Clouds 4 999 86 10000 1.02 139.185 21:19 08.10.2019
534 Clear 4 1000 86 10000 1.5 140 20:57 08.10.2019
535 Clear 4 1000 86 10000 1.5 140 20:39 08.10.2019
536 Clear 4 1000 80 10000 1 0 20:21 08.10.2019
537 Clouds 4 1000 80 10000 2.1 150 19:58 08.10.2019
538 Clouds 5 1000 80 10000 2.1 150 19:40 08.10.2019
539 Clouds 5 1000 80 10000 1.5 140 19:21 08.10.2019
540 Clouds 5 1000 75 10000 2.1 150 18:55 08.10.2019
541 Clouds 5 1000 75 10000 2.1 150 18:55 08.10.2019
542 Clouds 5 1001 70 10000 1 0 18:36 08.10.2019
543 Clouds 6 1001 70 10000 1 0 18:18 08.10.2019
544 Clouds 7 1001 65 10000 2.1 180 17:40 08.10.2019
545 Clouds 7 1001 65 10000 1.5 170 17:20 08.10.2019
546 Clouds 7 1001 68 10000 2.1 180 16:58 08.10.2019
547 Clouds 7 1001 68 10000 2.1 180 16:39 08.10.2019
548 Clouds 7 1001 68 10000 2.1 160 16:21 08.10.2019
549 Clouds 7 1001 68 10000 2.1 170 15:41 08.10.2019
550 Clouds 7 1001 68 10000 2.1 170 15:41 08.10.2019
551 Clouds 7 1002 65 10000 1 0 15:21 08.10.2019
552 Clouds 7 1002 65 10000 1.5 160 14:58 08.10.2019
553 Clouds 7 1002 65 10000 1.5 160 14:58 08.10.2019
554 Clouds 7 1002 65 10000 1.5 160 14:39 08.10.2019
555 Clouds 7 1003 65 10000 2.1 190 14:21 08.10.2019
556 Clouds 7 1003 70 10000 2.1 220 13:57 08.10.2019
557 Clouds 7 1003 70 10000 2.1 220 13:38 08.10.2019
558 Clear 7 1003 75 10000 1.5 0 13:19 08.10.2019
559 Clear 7 1004 81 10000 2.1 210 12:58 08.10.2019
560 Clear 6 1004 81 10000 2.1 210 12:37 08.10.2019
561 Clear 6 1004 81 10000 1 0 12:18 08.10.2019
562 Clear 6 1004 87 10000 1.5 230 11:42 08.10.2019
563 Clear 5 1005 93 10000 1.47 202.892 11:24 08.10.2019
564 Clear 4 1005 100 10000 1.47 202.892 10:58 08.10.2019
565 Clear 4 1005 100 10000 0.5 0 10:37 08.10.2019
566 Clear 4 1005 100 10000 0.5 0 10:19 08.10.2019
567 Clear 4 1005 100 10000 1.47 202.892 09:55 08.10.2019
568 Clear 3 1005 100 10000 1.47 202.892 09:37 08.10.2019
569 Clear 3 1006 100 10000 0.8 187.897 09:19 08.10.2019
570 Clear 3 1006 100 10000 0.5 0 08:42 08.10.2019
571 Clear 2 1006 100 10000 0.43 193.449 08:23 08.10.2019
572 Clear 2 1006 100 10000 0.43 193.449 08:23 08.10.2019
573 Clouds 2 1007 100 10000 1 0 07:44 08.10.2019
574 Clear 2 1007 100 10000 2.6 240 07:21 08.10.2019
575 Clear 2 1008 100 10000 1 0 06:51 08.10.2019
576 Clouds 2 1008 100 10000 1.14 266.571 06:28 08.10.2019
577 Mist 1 1008 100 9000 1 210 05:46 08.10.2019
578 Clouds 1 1009 100 10000 0.5 250 05:26 08.10.2019
579 Clouds 1 1010 100 10000 1.14 266.571 04:31 08.10.2019
580 Clouds 2 1010 100 10000 1 200 03:29 08.10.2019
581 Mist 2 1010 100 3600 1.68 302.821 02:37 08.10.2019
582 Clouds 2 1011 93 10000 1.68 302.821 01:47 08.10.2019
583 Clouds 2 1011 100 10000 1.52 307.951 01:28 08.10.2019
584 Fog 2 1012 100 10000 1 250 00:48 08.10.2019
585 Mist 2 1012 93 6000 1.5 270 00:21 08.10.2019
586 Fog 2 1012 93 10000 1 280 23:41 07.10.2019
587 Fog 2 1012 93 10000 1 280 23:20 07.10.2019
588 Fog 2 1012 93 10000 1 280 23:20 07.10.2019
589 Fog 3 1013 93 10000 1 290 22:57 07.10.2019
590 Fog 3 1013 93 10000 1 290 22:39 07.10.2019
591 Fog 3 1014 86 10000 2.1 280 22:20 07.10.2019
592 Mist 3 1014 93 10000 1.5 290 21:57 07.10.2019
593 Mist 3 1014 93 10000 1.5 290 21:38 07.10.2019
594 Clear 4 1014 86 10000 2.1 290 21:20 07.10.2019
595 Clear 4 1014 93 10000 1.5 0 20:57 07.10.2019
596 Clouds 5 1014 93 10000 1.5 350 20:39 07.10.2019
597 Clouds 5 1014 93 10000 1.5 350 20:20 07.10.2019
598 Clouds 5 1014 87 10000 3.1 350 19:58 07.10.2019
599 Clouds 5 1014 87 10000 3.1 350 19:39 07.10.2019
600 Clouds 5 1015 87 10000 3.6 340 19:19 07.10.2019
601 Clouds 5 1015 87 10000 2.1 320 18:56 07.10.2019
602 Clouds 5 1015 87 10000 2.1 320 18:56 07.10.2019
603 Clouds 5 1015 87 10000 2.1 320 18:38 07.10.2019
604 Rain 6 1015 87 10000 3.1 320 18:18 07.10.2019
605 Rain 6 1015 75 10000 3.6 310 17:43 07.10.2019
606 Rain 7 1015 75 10000 3.6 310 17:20 07.10.2019
607 Rain 7 1015 75 10000 4.6 280 16:57 07.10.2019
608 Rain 7 1015 75 10000 4.6 280 16:38 07.10.2019
609 Rain 7 1015 75 10000 3.1 290 16:20 07.10.2019
610 Rain 8 1016 70 10000 4.1 300 15:45 07.10.2019
611 Rain 8 1016 70 10000 3.6 310 15:25 07.10.2019
612 Rain 8 1016 75 10000 4.1 320 14:55 07.10.2019
613 Rain 8 1016 75 10000 4.1 320 14:37 07.10.2019
614 Rain 8 1016 70 10000 3.6 330 14:18 07.10.2019
615 Clouds 8 1016 70 10000 3.1 310 13:41 07.10.2019
616 Clouds 7 1016 70 10000 3.1 310 13:20 07.10.2019
617 Clouds 8 1016 70 10000 3.6 290 12:55 07.10.2019
618 Clouds 7 1016 70 10000 3.6 290 12:37 07.10.2019
619 Clear 7 1017 75 10000 3.1 290 12:19 07.10.2019
620 Clear 6 1017 75 10000 3.1 300 11:57 07.10.2019
621 Clear 6 1017 75 10000 3.1 300 11:37 07.10.2019
622 Clear 6 1017 75 10000 2.6 300 11:18 07.10.2019
623 Clear 4 1017 80 10000 2.6 310 10:41 07.10.2019
624 Clear 4 1017 80 10000 2.6 310 10:41 07.10.2019
625 Clear 4 1017 80 10000 2.6 310 10:41 07.10.2019
626 Clear 4 1017 80 10000 2.6 300 10:20 07.10.2019
627 Clear 4 1017 80 10000 2.6 300 10:20 07.10.2019
628 Clear 3 1017 65 10000 2.1 330 09:42 07.10.2019
629 Clear 3 1017 65 10000 2.1 330 09:42 07.10.2019
630 Clear 2 1017 86 10000 2.1 300 09:23 07.10.2019
631 Clear 1 1017 71 10000 2.1 290 08:57 07.10.2019
632 Clear 1 1017 71 10000 2.1 290 08:38 07.10.2019
633 Clear 0 1017 92 10000 2.1 280 08:19 07.10.2019
634 Clear 0 1017 92 10000 2.1 270 07:41 07.10.2019
635 Clear -1 1017 92 10000 1.5 290 07:23 07.10.2019
636 Clear 0 1017 71 10000 1.5 270 06:54 07.10.2019
637 Clouds 0 1018 86 10000 1.5 270 06:34 07.10.2019
638 Clouds 1 1018 80 10000 1.5 300 05:49 07.10.2019
639 Clouds 1 1018 80 10000 1.5 280 05:23 07.10.2019
640 Clouds 2 1018 74 10000 1.5 270 04:28 07.10.2019
641 Clouds 2 1018 74 10000 2.1 280 03:45 07.10.2019
642 Clouds 2 1018 74 10000 2.1 280 03:45 07.10.2019
643 Clouds 2 1019 71 10000 2.1 280 03:21 07.10.2019
644 Clouds 2 1019 71 10000 2.1 280 02:22 07.10.2019
645 Clouds 2 1019 71 10000 2.1 280 02:22 07.10.2019
646 Clouds 2 1019 71 10000 2.1 280 01:52 07.10.2019
647 Clouds 2 1019 86 10000 1.5 270 01:22 07.10.2019
648 Clouds 2 1020 69 10000 0.5 280 00:41 07.10.2019
649 Clouds 2 1020 86 10000 1.87 309.57 00:21 07.10.2019
650 Clouds 2 1020 86 10000 0.5 290 23:54 06.10.2019
651 Clouds 2 1020 86 10000 1 290 23:36 06.10.2019
652 Clouds 1 1020 86 10000 1 290 23:18 06.10.2019
653 Clouds 2 1020 86 10000 1 280 22:41 06.10.2019
654 Clear 1 1021 74 10000 1 270 22:22 06.10.2019
655 Clear 1 1021 74 10000 2.1 270 21:58 06.10.2019
656 Clear 1 1021 74 10000 2.1 270 21:38 06.10.2019
657 Clear 1 1021 74 10000 2.1 300 21:19 06.10.2019
658 Clear 2 1021 74 10000 2.1 280 20:58 06.10.2019
659 Clear 2 1021 74 10000 2.1 280 20:40 06.10.2019
660 Clear 2 1021 69 10000 2.1 290 20:21 06.10.2019
661 Clear 3 1022 69 10000 2.1 300 19:58 06.10.2019
662 Clear 3 1022 69 10000 2.1 300 19:38 06.10.2019
663 Clear 3 1022 64 10000 1.5 290 19:19 06.10.2019
664 Clear 4 1022 64 10000 2.6 300 18:57 06.10.2019
665 Clear 4 1022 64 10000 2.6 300 18:39 06.10.2019
666 Clear 5 1022 60 10000 4.1 300 18:19 06.10.2019
667 Clear 5 1022 60 10000 3.6 300 17:58 06.10.2019
668 Clear 5 1022 60 10000 3.6 300 17:39 06.10.2019
669 Clear 6 1022 52 10000 4.1 290 17:19 06.10.2019
670 Clear 6 1022 52 10000 4.6 310 16:42 06.10.2019
671 Clear 6 1023 52 10000 4.1 330 16:24 06.10.2019
672 Clear 6 1023 56 10000 4.6 300 15:58 06.10.2019
673 Clear 6 1023 56 10000 4.6 300 15:39 06.10.2019
674 Clear 6 1023 52 10000 4.1 310 15:18 06.10.2019
675 Clear 7 1023 48 10000 4.6 310 14:43 06.10.2019
676 Clear 6 1023 52 10000 4.1 310 14:24 06.10.2019
677 Clear 6 1023 52 10000 3.6 320 13:58 06.10.2019
678 Clear 6 1023 48 10000 4.1 320 13:39 06.10.2019
679 Clear 6 1023 48 10000 4.1 320 13:20 06.10.2019
680 Clear 6 1023 48 10000 4.1 310 12:57 06.10.2019
681 Clear 6 1023 48 10000 4.1 310 12:57 06.10.2019
682 Clear 6 1023 48 10000 4.1 310 12:57 06.10.2019
683 Clear 6 1023 48 10000 4.1 310 12:38 06.10.2019
684 Clear 5 1024 52 10000 4.1 330 12:20 06.10.2019
685 Clear 5 1024 52 10000 4.6 340 11:56 06.10.2019
686 Clear 5 1024 52 10000 4.6 340 11:37 06.10.2019
687 Clouds 4 1024 55 10000 5.1 330 11:18 06.10.2019
688 Clouds 4 1024 55 10000 4.6 340 10:43 06.10.2019
689 Clouds 4 1024 59 10000 4.6 330 10:25 06.10.2019
690 Clouds 3 1024 59 10000 4.1 330 09:58 06.10.2019
691 Clouds 4 1024 59 10000 4.1 330 09:39 06.10.2019
692 Clouds 3 1024 59 10000 3.1 320 09:18 06.10.2019
693 Clouds 3 1024 64 10000 3.6 330 08:43 06.10.2019
694 Clouds 3 1024 64 10000 3.6 330 08:20 06.10.2019
695 Clouds 2 1024 74 10000 3.1 330 07:44 06.10.2019
696 Clouds 2 1024 80 10000 2.6 330 07:19 06.10.2019
697 Clear 2 1024 80 10000 2.6 320 06:20 06.10.2019
698 Clear 2 1024 74 10000 1.5 320 05:34 06.10.2019
699 Clear 2 1024 80 10000 2.1 340 03:42 06.10.2019
700 Clouds 2 1024 85 10000 2.1 340 02:43 06.10.2019
701 Clouds 2 1024 85 10000 1.5 330 02:21 06.10.2019
702 Clouds 2 1025 85 10000 1.5 340 01:44 06.10.2019
703 Clouds 2 1025 83 10000 1.5 340 01:26 06.10.2019
704 Clouds 2 1024 83 10000 2.1 350 00:52 06.10.2019
705 Clouds 2 1024 83 10000 2.1 340 00:26 06.10.2019
706 Clouds 3 1024 73 10000 3.1 340 23:44 05.10.2019
707 Clouds 2 1024 73 10000 3.6 340 23:22 05.10.2019
708 Clouds 2 1024 74 10000 3.1 330 22:58 05.10.2019
709 Clouds 2 1024 74 10000 3.1 330 22:40 05.10.2019
710 Clouds 2 1024 74 10000 3.1 330 22:40 05.10.2019
711 Clouds 2 1024 74 10000 2.6 320 22:20 05.10.2019
712 Clouds 3 1024 74 10000 3.6 320 21:56 05.10.2019
713 Clouds 3 1024 74 10000 3.6 320 21:38 05.10.2019
714 Clouds 3 1024 74 10000 4.1 320 21:18 05.10.2019
715 Clouds 3 1024 80 10000 3.1 320 20:55 05.10.2019
716 Clouds 3 1024 74 10000 3.1 310 20:37 05.10.2019
717 Clouds 3 1024 74 10000 3.1 310 20:18 05.10.2019
718 Clouds 3 1024 69 10000 3.1 320 19:37 05.10.2019
719 Clouds 3 1023 74 10000 2.6 330 19:19 05.10.2019
720 Clouds 3 1023 74 10000 2.6 330 19:19 05.10.2019
721 Clouds 3 1023 69 10000 4.1 320 18:55 05.10.2019
722 Clouds 3 1023 69 10000 4.1 320 18:55 05.10.2019
723 Clouds 3 1023 69 10000 4.1 320 18:37 05.10.2019
724 Clouds 4 1023 69 10000 4.6 330 18:19 05.10.2019
725 Clouds 4 1023 65 10000 5.7 350 17:43 05.10.2019
726 Clear 5 1022 60 10000 4.6 320 17:25 05.10.2019
727 Clear 5 1022 56 10000 4.6 330 16:58 05.10.2019
728 Clear 5 1022 56 10000 4.6 330 16:40 05.10.2019
729 Clouds 5 1022 56 10000 5.7 320 16:21 05.10.2019
730 Clear 6 1022 52 10000 4.6 340 15:57 05.10.2019
731 Clear 6 1022 52 10000 4.6 340 15:38 05.10.2019
732 Clear 6 1022 52 10000 5.1 340 15:20 05.10.2019
733 Clear 6 1021 48 10000 5.7 310 14:44 05.10.2019
734 Clear 6 1021 45 10000 5.1 330 14:25 05.10.2019
735 Clear 6 1021 48 10000 4.6 320 13:59 05.10.2019
736 Clear 6 1021 48 10000 4.6 320 13:40 05.10.2019
737 Clear 6 1021 52 10000 4.1 340 13:20 05.10.2019
738 Clear 6 1021 58 10000 4.6 330 12:44 05.10.2019
739 Clear 6 1021 68 10000 4.1 330 12:20 05.10.2019
740 Clear 6 1021 68 10000 4.1 340 11:45 05.10.2019
741 Clear 5 1021 75 10000 3.6 340 11:23 05.10.2019
742 Clear 5 1021 80 10000 3.1 330 10:59 05.10.2019
743 Clear 4 1021 80 10000 3.1 330 10:41 05.10.2019
744 Clouds 4 1020 93 10000 2.1 330 10:23 05.10.2019
745 Clouds 3 1020 93 10000 2.6 340 09:56 05.10.2019
746 Clouds 3 1020 93 10000 2.6 340 09:38 05.10.2019
747 Clouds 3 1020 86 10000 3.6 340 09:20 05.10.2019
748 Clouds 2 1019 93 10000 3.1 340 08:39 05.10.2019
749 Clouds 2 1019 93 10000 3.1 340 08:19 05.10.2019
750 Clouds 1 1019 100 10000 3.1 350 07:53 05.10.2019
751 Clouds 1 1019 100 10000 3.1 330 07:32 05.10.2019
752 Clouds 2 1019 100 10000 3.1 320 06:57 05.10.2019
753 Clouds 1 1019 100 10000 3.6 330 06:26 05.10.2019
754 Clouds 1 1018 100 10000 3.6 330 05:40 05.10.2019
755 Clouds 1 1018 97 10000 2.6 320 03:41 05.10.2019
756 Clouds 1 1018 96 10000 2.6 320 03:22 05.10.2019
757 Clouds 1 1017 97 10000 2.1 340 01:30 05.10.2019
758 Clouds 1 1017 97 10000 2.6 320 00:58 05.10.2019
759 Clouds 1 1017 97 10000 2.6 320 00:40 05.10.2019
760 Clear 1 1017 95 10000 3.6 320 00:22 05.10.2019
761 Clear 1 1017 95 10000 2.6 320 23:43 04.10.2019
762 Clear 1 1017 95 10000 4.1 330 23:24 04.10.2019
763 Clear 2 1017 95 10000 3.1 320 22:58 04.10.2019
764 Clear 1 1017 95 10000 3.1 320 22:38 04.10.2019
765 Clear 1 1017 95 10000 3.1 320 22:38 04.10.2019
766 Clouds 1 1016 93 10000 4.1 330 22:19 04.10.2019
767 Clouds 2 1016 93 10000 4.6 320 21:55 04.10.2019
768 Rain 2 1016 93 10000 4.1 320 21:36 04.10.2019
769 Rain 2 1016 93 10000 4.1 320 21:18 04.10.2019
770 Clouds 2 1016 86 10000 4.1 330 20:42 04.10.2019
771 Clear 3 1016 86 10000 4.6 330 20:23 04.10.2019
772 Rain 3 1016 82 10000 4.1 340 19:58 04.10.2019
773 Rain 3 1016 82 10000 4.1 340 19:39 04.10.2019
774 Clear 3 1015 82 10000 3.6 330 19:21 04.10.2019
775 Clear 4 1015 65 10000 3.6 350 18:56 04.10.2019
776 Clear 4 1015 65 10000 3.6 350 18:37 04.10.2019
777 Clouds 4 1015 80 10000 2.1 350 18:18 04.10.2019
778 Clouds 4 1015 80 10000 2.1 350 18:18 04.10.2019
779 Clear 5 1015 80 10000 1.5 340 17:41 04.10.2019
780 Clear 5 1015 80 10000 1.5 340 17:41 04.10.2019
781 Clouds 5 1015 80 10000 2.6 350 17:22 04.10.2019
782 Clouds 5 1015 75 10000 3.6 20 16:58 04.10.2019
783 Clouds 5 1015 75 10000 3.6 20 16:40 04.10.2019
784 Clouds 5 1015 86 10000 4.1 30 16:19 04.10.2019
785 Clouds 5 1015 86 10000 4.1 30 16:19 04.10.2019
786 Clouds 5 1015 80 10000 3.6 330 15:57 04.10.2019
787 Clouds 6 1015 80 10000 3.6 330 15:39 04.10.2019
788 Rain 6 1015 70 10000 3.1 40 15:20 04.10.2019
789 -273 0 0 0 0 0 14:56 04.10.2019
790 Rain 6 1015 58 10000 3.6 30 14:38 04.10.2019
791 Clouds 6 1015 58 10000 5.1 20 14:20 04.10.2019
792 Clouds 6 1015 65 10000 7.2 10 13:44 04.10.2019
793 Clouds 6 1014 60 10000 4.6 360 13:22 04.10.2019
794 Clouds 6 1014 61 10000 4.6 10 12:55 04.10.2019
795 Clouds 6 1014 61 10000 4.6 10 12:55 04.10.2019
796 Clouds 6 1014 61 10000 4.6 360 12:36 04.10.2019
797 Clouds 5 1014 69 10000 4.6 360 12:18 04.10.2019
798 Clouds 6 1014 70 10000 4.1 360 11:42 04.10.2019
799 Clouds 6 1014 70 10000 4.1 360 11:42 04.10.2019
800 Clouds 6 1014 70 10000 4.1 360 11:42 04.10.2019
801 Clouds 6 1014 70 10000 4.1 360 11:42 04.10.2019
802 Clouds 6 1014 70 10000 4.1 360 11:42 04.10.2019
803 Clouds 5 1014 80 10000 2.6 10 11:21 04.10.2019
804 Clouds 4 1014 86 10000 3.1 350 10:42 04.10.2019
805 Clouds 4 1014 86 10000 3.1 350 10:42 04.10.2019
806 Clear 4 1014 86 10000 3.1 330 10:21 04.10.2019
807 Clouds 3 1014 93 10000 3.1 340 09:58 04.10.2019
808 Clouds 3 1014 93 10000 3.1 340 09:58 04.10.2019
809 Clouds 3 1014 93 10000 3.1 340 09:40 04.10.2019
810 Clouds 3 1014 93 10000 3.1 330 09:22 04.10.2019
811 Clouds 2 1014 100 10000 2.6 340 08:43 04.10.2019
812 Clouds 2 1014 100 10000 2.6 340 08:43 04.10.2019
813 Clouds 2 1014 93 10000 2.1 340 08:25 04.10.2019
814 Clouds 2 1014 93 10000 3.1 340 07:47 04.10.2019
815 Clouds 2 1014 93 10000 3.6 320 07:24 04.10.2019
816 Clouds 2 1014 93 10000 4.1 340 06:56 04.10.2019
817 Clouds 2 1014 93 10000 4.1 340 06:56 04.10.2019
818 Clouds 2 1014 93 10000 3.1 340 06:37 04.10.2019
819 Clear 2 1014 93 10000 3.1 340 06:18 04.10.2019
820 Clear 2 1014 93 10000 3.1 340 06:18 04.10.2019
821 Drizzle 3 1013 93 10000 4.6 350 05:19 04.10.2019
822 Clear 2 1013 100 10000 3.1 350 04:35 04.10.2019
823 Rain 3 1013 93 10000 4.1 350 02:56 04.10.2019
824 Rain 3 1013 93 10000 4.1 350 02:37 04.10.2019
825 Rain 3 1013 93 10000 4.1 350 02:37 04.10.2019
826 Rain 3 1013 93 10000 3.1 340 01:43 04.10.2019
827 Rain 3 1013 93 10000 3.1 350 01:25 04.10.2019
828 Clouds 3 1013 93 10000 4.1 340 00:29 04.10.2019
829 Rain 4 1013 93 10000 4.1 340 23:38 03.10.2019
830 Rain 4 1013 93 10000 4.1 340 23:20 03.10.2019
831 Drizzle 4 1013 93 10000 4.6 340 22:57 03.10.2019
832 Drizzle 4 1013 93 10000 4.6 340 22:39 03.10.2019
833 Drizzle 4 1013 93 10000 4.6 340 22:39 03.10.2019
834 Rain 4 1013 93 10000 3.6 340 22:21 03.10.2019
835 Rain 4 1013 93 10000 3.6 340 22:21 03.10.2019
836 Clouds 4 1013 93 10000 4.1 350 21:57 03.10.2019
837 Clouds 4 1013 93 10000 4.1 350 21:39 03.10.2019
838 Clouds 4 1013 93 10000 4.6 350 21:19 03.10.2019
839 Clouds 4 1013 93 10000 4.6 350 21:19 03.10.2019
840 Clouds 4 1013 80 10000 4.1 350 20:57 03.10.2019
841 Clouds 4 1013 80 10000 4.1 350 20:38 03.10.2019
842 Rain 4 1013 80 10000 4.6 350 20:20 03.10.2019
843 Rain 4 1013 86 10000 4.6 360 19:55 03.10.2019
844 Rain 4 1013 86 10000 4.6 360 19:55 03.10.2019
845 Rain 4 1013 86 10000 3.6 360 19:37 03.10.2019
846 Rain 5 1013 86 10000 3.6 360 19:19 03.10.2019
847 Rain 5 1013 86 10000 4.6 360 18:55 03.10.2019
848 Rain 5 1013 86 10000 4.6 360 18:37 03.10.2019
849 Rain 5 1012 87 10000 4.6 350 18:18 03.10.2019
850 Rain 6 1012 87 10000 4.1 350 17:42 03.10.2019
851 Rain 6 1012 87 10000 4.6 350 17:21 03.10.2019
852 Clouds 6 1012 81 10000 4.6 10 16:55 03.10.2019
853 Clouds 6 1012 81 10000 4.6 10 16:37 03.10.2019
854 Rain 7 1012 81 10000 4.6 10 16:19 03.10.2019
855 Rain 7 1012 81 10000 5.1 360 15:43 03.10.2019
856 Rain 7 1012 81 10000 5.1 360 15:43 03.10.2019
857 Clouds 7 1011 75 10000 5.1 20 15:23 03.10.2019
858 Rain 7 1011 70 10000 6.2 30 14:57 03.10.2019
859 Rain 8 1011 75 10000 5.1 20 14:36 03.10.2019
860 Rain 8 1011 75 10000 5.1 20 14:36 03.10.2019
861 Rain 7 1011 75 10000 5.1 20 14:18 03.10.2019
862 -273 0 0 0 0 0 13:43 03.10.2019
863 Rain 8 1011 75 10000 4.6 20 13:22 03.10.2019
864 Rain 7 1011 81 10000 5.7 10 12:58 03.10.2019
865 Rain 7 1011 81 10000 5.7 10 12:39 03.10.2019
866 Clouds 7 1010 87 10000 3.6 360 12:19 03.10.2019
867 Rain 7 1010 87 10000 4.1 350 11:57 03.10.2019
868 Rain 7 1010 87 10000 4.1 350 11:38 03.10.2019
869 Rain 7 1010 87 10000 4.6 350 11:20 03.10.2019
870 Clouds 6 1010 93 10000 4.1 340 10:56 03.10.2019
871 Clouds 6 1010 93 10000 4.1 340 10:37 03.10.2019
872 Clouds 6 1010 93 10000 3.6 350 10:18 03.10.2019
873 Clouds 6 1010 93 10000 3.1 350 09:55 03.10.2019
874 Clouds 6 1010 93 10000 3.1 350 09:37 03.10.2019
875 Clouds 6 1009 93 10000 3.6 360 09:18 03.10.2019
876 Rain 5 1009 93 8000 3.1 350 08:41 03.10.2019
877 Rain 5 1009 93 8000 3.1 350 08:41 03.10.2019
878 Rain 5 1009 93 10000 2.6 20 08:23 03.10.2019
879 Rain 5 1009 93 8000 3.1 20 07:41 03.10.2019
880 Rain 5 1009 93 10000 3.6 20 07:20 03.10.2019
881 Rain 5 1009 93 10000 4.1 20 06:52 03.10.2019
882 Rain 5 1009 93 10000 3.6 10 06:26 03.10.2019
883 Rain 5 1008 93 10000 3.6 350 05:48 03.10.2019
884 Rain 5 1008 93 10000 3.6 340 05:25 03.10.2019
885 Rain 5 1008 93 10000 4.1 350 04:44 03.10.2019
886 Drizzle 5 1008 93 10000 4.1 350 03:54 03.10.2019
887 Rain 5 1008 100 10000 4.1 350 03:18 03.10.2019
888 Rain 6 1007 93 10000 4.6 350 02:21 03.10.2019
889 Rain 6 1007 93 10000 3.6 350 01:37 03.10.2019
890 Rain 6 1007 93 10000 4.6 350 00:52 03.10.2019
891 Rain 6 1006 93 10000 3.1 360 00:31 03.10.2019
892 Rain 6 1006 100 10000 3.6 360 23:44 02.10.2019
893 Rain 6 1006 93 10000 4.1 350 23:25 02.10.2019
894 Drizzle 6 1006 93 10000 4.1 360 22:57 02.10.2019
895 Drizzle 6 1006 93 10000 4.1 360 22:39 02.10.2019
896 Rain 7 1005 93 10000 3.6 360 22:18 02.10.2019
897 Rain 6 1005 93 10000 3.6 360 21:55 02.10.2019
898 Rain 6 1005 93 10000 3.6 360 21:36 02.10.2019
899 Rain 7 1005 93 10000 4.1 350 21:18 02.10.2019
900 Rain 6 1004 93 10000 3.6 350 20:55 02.10.2019
901 Rain 7 1004 93 10000 3.6 350 20:55 02.10.2019
902 -273 0 0 0 0 0 20:54 02.10.2019
903 Rain 7 1004 93 10000 3.6 350 20:36 02.10.2019
904 Rain 7 1004 93 10000 3.6 350 20:36 02.10.2019
905 Rain 7 1004 93 10000 3.6 350 20:18 02.10.2019
906 Rain 7 1004 93 10000 4.1 350 19:43 02.10.2019
907 Rain 7 1003 93 10000 3.6 360 19:22 02.10.2019
908 Rain 7 1003 93 10000 3.6 360 18:57 02.10.2019
909 Rain 7 1003 93 10000 3.6 360 18:39 02.10.2019
910 Rain 7 1002 100 10000 4.1 10 18:20 02.10.2019
911 Rain 7 1002 100 7000 4.6 10 17:57 02.10.2019
912 Rain 7 1002 100 7000 4.6 10 17:38 02.10.2019
913 Rain 7 1001 93 7000 4.6 10 17:19 02.10.2019
914 Rain 8 1001 93 9000 3.6 10 16:45 02.10.2019
915 -273 0 0 0 0 0 16:22 02.10.2019
916 Rain 8 1000 93 10000 5.1 20 15:59 02.10.2019
917 Rain 8 999 87 8000 4.1 10 15:40 02.10.2019
918 Rain 8 999 87 8000 4.1 10 15:22 02.10.2019
919 Rain 9 999 93 9000 3.6 20 14:57 02.10.2019
920 Rain 8 998 100 10000 1.5 0 14:39 02.10.2019
921 Rain 8 998 100 10000 1.5 0 14:39 02.10.2019
922 Rain 9 998 100 10000 1.5 0 14:20 02.10.2019
923 Rain 9 998 100 9000 1.5 0 13:45 02.10.2019
924 Rain 9 997 93 9000 2.1 300 13:26 02.10.2019
925 Rain 9 997 93 10000 2.6 290 12:58 02.10.2019
926 Rain 9 996 87 10000 3.1 270 12:38 02.10.2019
927 Rain 9 996 87 10000 3.1 270 12:20 02.10.2019
928 Drizzle 9 995 87 10000 3.6 270 11:44 02.10.2019
929 Drizzle 9 995 87 10000 3.6 270 11:23 02.10.2019
930 Rain 8 995 87 10000 2.6 270 10:42 02.10.2019
931 Rain 8 995 87 10000 2.6 270 10:20 02.10.2019
932 Rain 7 994 86 10000 3.1 270 09:59 02.10.2019
933 Drizzle 7 993 87 10000 1.5 280 09:38 02.10.2019
934 Drizzle 6 993 87 10000 1.5 280 09:19 02.10.2019
935 Clear 5 993 93 10000 1.5 290 08:44 02.10.2019
936 Clear 5 993 93 10000 1.5 290 08:25 02.10.2019
937 Clear 5 993 93 10000 1.5 290 08:25 02.10.2019
938 Clear 4 992 93 10000 1 280 07:59 02.10.2019
939 Clear 4 991 93 10000 0.5 260 07:38 02.10.2019
940 Clear 4 991 93 10000 0.5 260 07:20 02.10.2019
941 Drizzle 4 991 93 10000 2.1 250 06:36 02.10.2019
942 Clouds 4 990 93 10000 2.1 240 05:55 02.10.2019
943 Clouds 5 990 100 10000 2.1 240 05:24 02.10.2019
944 Clouds 5 990 86 10000 2.1 240 04:50 02.10.2019
945 Clouds 5 989 93 10000 2.1 240 03:52 02.10.2019
946 Drizzle 6 989 81 10000 3.1 240 02:41 02.10.2019
947 Drizzle 6 989 81 10000 3.1 240 02:23 02.10.2019
948 Clear 7 988 70 10000 3.6 250 01:22 02.10.2019
949 Clear 7 987 70 10000 4.6 260 00:49 02.10.2019
950 Clear 7 987 70 10000 4.6 260 00:25 02.10.2019
951 Clear 8 987 70 10000 4.6 250 23:43 01.10.2019
952 Clear 8 987 70 10000 4.6 250 23:24 01.10.2019
953 Clear 8 987 66 10000 4.6 240 22:58 01.10.2019
954 Clear 8 987 66 10000 5.7 240 22:39 01.10.2019
955 Clear 8 987 66 10000 5.7 240 22:19 01.10.2019
956 Clear 8 987 66 10000 6.2 240 21:55 01.10.2019
957 Clear 9 987 66 10000 5.7 240 21:37 01.10.2019
958 Clear 9 987 66 10000 5.7 240 21:18 01.10.2019
959 Clear 9 987 66 10000 4.6 230 20:54 01.10.2019
960 Clear 9 987 66 10000 5.1 240 20:36 01.10.2019
961 Clear 9 987 66 10000 5.1 240 20:18 01.10.2019
962 Clear 9 987 61 10000 5.1 260 19:44 01.10.2019
963 Clear 9 987 61 10000 5.1 260 19:26 01.10.2019
964 Clouds 9 987 57 10000 6.2 250 18:59 01.10.2019
965 Clouds 9 987 57 10000 7.7 250 18:39 01.10.2019
966 Clouds 9 987 57 10000 7.7 250 18:39 01.10.2019
967 Clouds 9 987 57 10000 7.7 250 18:39 01.10.2019
968 Clouds 10 987 57 10000 7.7 250 18:21 01.10.2019
969 Clouds 9 987 57 10000 8.2 260 17:55 01.10.2019
970 Clouds 10 987 53 10000 7.7 250 17:37 01.10.2019
971 Clouds 10 987 53 10000 7.7 250 17:18 01.10.2019
972 Clear 10 987 53 10000 8.7 260 16:54 01.10.2019
973 Clouds 10 987 50 10000 8.7 240 16:36 01.10.2019
974 Clouds 10 987 50 10000 8.7 240 16:18 01.10.2019
975 Clouds 10 988 52 10000 8.7 240 15:42 01.10.2019
976 Clouds 10 988 44 10000 8.7 240 15:21 01.10.2019
977 Clouds 9 988 44 10000 6.7 250 14:41 01.10.2019
978 Clouds 10 988 44 10000 6.7 250 14:20 01.10.2019
979 Clouds 9 988 44 10000 6.7 250 13:57 01.10.2019
980 Clear 9 988 44 10000 8.2 260 13:38 01.10.2019
981 Clear 9 988 51 10000 8.2 260 13:18 01.10.2019
982 Clouds 9 988 51 10000 7.2 260 12:56 01.10.2019
983 Clouds 8 988 61 10000 7.7 260 12:38 01.10.2019
984 Clouds 8 988 61 10000 7.7 260 12:18 01.10.2019
985 Clouds 8 988 61 10000 7.7 260 11:57 01.10.2019
986 Clouds 7 988 70 10000 7.7 280 11:37 01.10.2019
987 Clouds 7 988 70 10000 7.7 280 11:18 01.10.2019
988 Clouds 7 988 70 10000 7.7 260 10:47 01.10.2019
989 Clouds 6 988 75 10000 7.2 270 10:28 01.10.2019
990 Clouds 6 988 70 10000 7.2 260 09:46 01.10.2019
991 Clear 6 987 75 10000 6.7 250 09:26 01.10.2019
992 Clear 6 988 75 10000 6.7 250 08:46 01.10.2019
993 Clear 5 988 75 10000 6.2 250 08:27 01.10.2019
994 Clear 5 988 80 10000 5.1 260 07:58 01.10.2019
995 Clear 5 988 80 10000 5.1 250 07:40 01.10.2019
996 Clear 4 988 80 10000 5.1 250 07:20 01.10.2019
997 Clouds 4 988 86 10000 5.1 250 06:42 01.10.2019
998 Clear 4 989 86 10000 5.1 240 06:18 01.10.2019
999 Clear 4 989 86 10000 6.2 250 05:44 01.10.2019
1000 Clear 4 989 86 10000 6.2 250 05:44 01.10.2019
1001 Clear 4 989 86 10000 6.2 250 04:42 01.10.2019
1002 Clear 4 989 86 10000 5.7 240 03:49 01.10.2019
1003 Rain 5 989 81 10000 5.7 260 02:20 01.10.2019
1004 Rain 5 989 81 10000 5.7 270 01:56 01.10.2019
1005 Rain 5 988 81 10000 10.8 280 00:52 01.10.2019
1006 Rain 5 988 87 10000 8.7 280 00:26 01.10.2019
1007 Drizzle 6 987 93 10000 7.2 280 23:42 30.09.2019
1008 Drizzle 5 987 93 10000 7.2 280 23:24 30.09.2019
1009 Mist 6 987 93 6000 8.7 300 22:59 30.09.2019
1010 Mist 6 987 93 6000 8.7 300 22:59 30.09.2019
1011 Drizzle 7 986 93 10000 8.7 280 22:40 30.09.2019
1012 Drizzle 7 986 93 10000 8.7 280 22:22 30.09.2019
1013 Clouds 8 986 100 10000 6.7 270 21:56 30.09.2019
1014 Clouds 8 986 100 10000 6.7 270 21:56 30.09.2019
1015 Drizzle 9 985 93 9000 5.1 260 21:37 30.09.2019
1016 Drizzle 9 985 93 9000 5.1 260 21:19 30.09.2019
1017 Rain 10 985 87 10000 5.7 240 20:55 30.09.2019
1018 Rain 10 985 87 10000 5.7 240 20:55 30.09.2019
1019 Rain 10 985 93 10000 3.6 210 20:37 30.09.2019
1020 Rain 10 985 93 10000 3.6 210 20:19 30.09.2019
1021 Rain 11 985 93 10000 2.1 210 19:56 30.09.2019
1022 Rain 11 985 93 10000 2.1 210 19:55 30.09.2019
1023 Rain 10 985 100 10000 1 0 19:37 30.09.2019
1024 Clouds 11 985 87 10000 1 0 19:18 30.09.2019
1025 Clouds 11 986 87 10000 1.5 250 18:41 30.09.2019
1026 Clouds 11 986 87 10000 1.5 250 18:22 30.09.2019
1027 Clouds 12 985 82 10000 1.5 260 17:59 30.09.2019
1028 Clouds 12 986 82 10000 2.6 270 17:39 30.09.2019
1029 Clouds 12 986 82 10000 2.6 270 17:39 30.09.2019
1030 Clouds 12 986 82 10000 2.6 270 17:21 30.09.2019
1031 Clouds 12 986 82 10000 1.5 260 16:55 30.09.2019
1032 Clouds 12 986 82 10000 2.1 290 16:36 30.09.2019
1033 Clouds 12 986 82 10000 2.1 290 16:18 30.09.2019
1034 Clouds 12 986 82 10000 3.1 280 15:54 30.09.2019
1035 Clouds 12 986 82 10000 3.1 270 15:36 30.09.2019
1036 Clouds 13 986 82 10000 3.1 270 15:18 30.09.2019
1037 Clouds 13 986 82 10000 2.1 280 14:54 30.09.2019
1038 Clouds 13 986 87 10000 2.6 260 14:36 30.09.2019
1039 Clouds 13 986 87 10000 2.1 230 14:18 30.09.2019
1040 Rain 13 986 87 10000 2.1 250 13:43 30.09.2019
1041 Rain 13 986 87 10000 2.1 250 13:22 30.09.2019
1042 Rain 12 986 93 10000 1.5 250 12:57 30.09.2019
1043 Rain 13 986 93 10000 1.5 250 12:39 30.09.2019
1044 Rain 12 986 93 10000 1.5 250 12:19 30.09.2019
1045 Rain 12 986 93 10000 1 0 11:43 30.09.2019
1046 Rain 12 986 93 10000 1 0 11:22 30.09.2019
1047 Rain 11 986 100 10000 0.26 335.445 10:58 30.09.2019
1048 Rain 11 986 100 10000 0.26 335.445 10:38 30.09.2019
1049 Rain 11 986 100 10000 0.26 335.445 10:18 30.09.2019
1050 Rain 11 986 100 8000 1 0 09:57 30.09.2019
1051 Mist 11 986 100 5000 0.5 0 09:38 30.09.2019
1052 Mist 11 986 100 5000 0.5 0 09:18 30.09.2019
1053 Mist 11 986 100 3500 1 0 08:46 30.09.2019
1054 Mist 11 986 100 3500 1 0 08:27 30.09.2019
1055 Mist 10 986 100 3000 1 140 07:42 30.09.2019
1056 Mist 11 986 100 3000 1 140 07:20 30.09.2019
1057 Mist 11 986 100 8000 0.5 130 06:50 30.09.2019
1058 Mist 10 987 100 3600 0.54 346.583 06:31 30.09.2019
1059 Mist 11 987 100 5000 1.07 299.898 05:45 30.09.2019
1060 Mist 10 988 100 4300 1.53 303.41 02:55 30.09.2019
1061 Mist 10 988 100 6000 0.5 180 02:37 30.09.2019
1062 Mist 11 989 100 5000 0.5 240 01:31 30.09.2019
1063 Mist 11 989 100 10000 1 220 00:38 30.09.2019
1064 Mist 11 989 100 10000 1 220 00:20 30.09.2019
1065 Clouds 11 990 100 10000 2.1 210 23:44 29.09.2019
1066 Clouds 11 990 100 10000 2.1 210 23:22 29.09.2019
1067 Mist 11 990 100 9000 1.5 190 22:55 29.09.2019
1068 Mist 11 990 100 9000 1.5 190 22:55 29.09.2019
1069 Clouds 11 990 100 8000 1.5 170 22:36 29.09.2019
1070 Clouds 11 990 100 8000 1.5 170 22:18 29.09.2019
1071 Fog 11 990 100 10000 2.1 160 21:56 29.09.2019
1072 Mist 11 991 100 10000 1.5 0 21:37 29.09.2019
1073 Mist 11 991 100 10000 1.5 0 21:37 29.09.2019
1074 Mist 11 991 100 10000 1.5 0 21:18 29.09.2019
1075 Rain 11 991 93 10000 2.6 210 20:43 29.09.2019
1076 Rain 11 991 93 10000 2.6 210 20:20 29.09.2019
1077 Rain 12 991 93 10000 3.1 170 19:58 29.09.2019
1078 Clouds 12 992 87 10000 2.1 150 19:37 29.09.2019
1079 Clouds 12 992 87 10000 2.1 150 19:19 29.09.2019
1080 Drizzle 12 992 87 10000 2.1 150 18:56 29.09.2019
1081 Drizzle 12 992 87 10000 2.1 150 18:56 29.09.2019
1082 Drizzle 12 992 87 10000 2.1 150 18:56 29.09.2019
1083 Drizzle 12 992 87 10000 2.1 150 18:56 29.09.2019
1084 Drizzle 12 992 87 10000 2.1 150 18:56 29.09.2019
1085 Drizzle 13 992 93 10000 1.5 150 18:37 29.09.2019
1086 Drizzle 13 992 93 10000 1.5 150 18:19 29.09.2019
1087 Clouds 13 993 93 10000 1.5 170 17:57 29.09.2019
1088 Clouds 13 993 87 10000 2.1 190 17:38 29.09.2019
1089 Clouds 13 993 87 10000 2.1 190 17:19 29.09.2019
1090 Clouds 13 993 87 10000 1.5 170 16:57 29.09.2019
1091 Clouds 13 993 87 10000 1.5 170 16:57 29.09.2019
1092 Clouds 14 993 87 10000 2.1 140 16:39 29.09.2019
1093 Clouds 14 993 87 10000 2.1 140 16:18 29.09.2019
1094 Clouds 14 994 87 10000 2.1 160 15:41 29.09.2019
1095 Clouds 14 994 87 10000 2.1 160 15:20 29.09.2019
1096 Clouds 14 995 87 10000 1.5 0 14:59 29.09.2019
1097 Clouds 14 995 87 10000 1.5 0 14:40 29.09.2019
1098 Clouds 14 995 87 10000 1.5 0 14:20 29.09.2019
1099 Clouds 14 995 82 10000 1 0 13:57 29.09.2019
1100 Clouds 14 995 82 10000 1.5 190 13:39 29.09.2019
1101 Clouds 14 995 82 10000 1.5 190 13:19 29.09.2019
1102 Clouds 13 996 87 10000 1.5 0 12:57 29.09.2019
1103 Clouds 13 996 93 10000 1.5 0 12:39 29.09.2019
1104 Clouds 13 996 93 10000 1.5 0 12:21 29.09.2019
1105 Clouds 13 996 87 10000 0.5 0 11:57 29.09.2019
1106 Clouds 12 996 93 10000 1.5 0 11:37 29.09.2019
1107 Clouds 12 996 93 10000 1.5 0 11:18 29.09.2019
1108 Clouds 12 997 100 10000 2.1 140 10:56 29.09.2019
1109 Clouds 11 997 100 10000 2.1 140 10:36 29.09.2019
1110 Clouds 11 997 100 10000 2.1 140 10:18 29.09.2019
1111 Mist 11 997 100 9000 1.5 150 09:43 29.09.2019
1112 Mist 11 997 100 9000 1.5 150 09:20 29.09.2019
1113 Clouds 11 997 100 10000 1.5 170 08:57 29.09.2019
1114 Mist 11 997 100 9000 1 0 08:37 29.09.2019
1115 Mist 11 997 100 9000 1 0 08:18 29.09.2019
1116 Mist 11 997 100 9000 1 0 08:18 29.09.2019
1117 Mist 11 998 100 8000 1.5 190 07:41 29.09.2019
1118 Mist 11 998 100 8000 1.5 190 07:23 29.09.2019
1119 Mist 11 998 100 8000 1.5 190 06:42 29.09.2019
1120 Mist 10 999 100 1800 0.5 210 04:57 29.09.2019
1121 Mist 11 999 100 8000 1 240 04:25 29.09.2019
1122 Mist 11 999 100 7000 1.5 230 03:49 29.09.2019
1123 Drizzle 11 1000 93 10000 1.5 250 02:40 29.09.2019
1124 Mist 11 1000 93 9000 2.1 240 01:51 29.09.2019
1125 Mist 11 1001 93 9000 1.5 240 01:30 29.09.2019
1126 Mist 11 1001 100 8000 1 240 00:42 29.09.2019
1127 Mist 11 1001 100 8000 1 240 00:19 29.09.2019
1128 Mist 11 1001 100 4400 1.5 0 23:42 28.09.2019
1129 Drizzle 11 1002 100 1600 1 160 23:22 28.09.2019
1130 Drizzle 11 1002 100 1600 1 160 22:56 28.09.2019
1131 Mist 11 1002 100 5000 1 160 22:37 28.09.2019
1132 Rain 11 1002 100 5000 1 160 22:19 28.09.2019
1133 Rain 11 1002 100 2400 1 200 21:55 28.09.2019
1134 Rain 11 1002 100 2400 1 200 21:55 28.09.2019
1135 Rain 11 1002 93 2600 1.13 0.152 21:36 28.09.2019
1136 Rain 11 1002 93 2600 1.49 64.83 21:18 28.09.2019
1137 Rain 11 1002 93 3500 1 0 20:55 28.09.2019
1138 Rain 11 1003 93 10000 1.5 60 20:36 28.09.2019
1139 Drizzle 11 1003 93 10000 1.5 60 20:18 28.09.2019
1140 Drizzle 11 1003 93 10000 1.5 80 19:54 28.09.2019
1141 Drizzle 12 1003 93 10000 1.5 90 19:36 28.09.2019
1142 Rain 12 1003 93 8000 2.6 80 19:18 28.09.2019
1143 Rain 12 1003 100 7000 2.6 80 18:41 28.09.2019
1144 Rain 12 1003 100 7000 2.6 80 18:22 28.09.2019
1145 Rain 12 1004 100 10000 3.1 90 17:59 28.09.2019
1146 Rain 12 1004 100 7000 4.1 80 17:40 28.09.2019
1147 Rain 12 1004 100 7000 4.1 80 17:21 28.09.2019
1148 Rain 13 1004 93 10000 3.1 70 16:49 28.09.2019
1149 Rain 13 1004 93 7000 3.1 50 16:29 28.09.2019
1150 Rain 13 1004 93 8000 3.1 60 15:59 28.09.2019
1151 Rain 13 1005 93 9000 2.6 70 15:39 28.09.2019
1152 Rain 13 1005 93 9000 2.6 70 15:21 28.09.2019
1153 Rain 13 1005 93 10000 2.6 70 14:55 28.09.2019
1154 Rain 13 1005 93 10000 2.6 90 14:36 28.09.2019
1155 Rain 13 1005 93 10000 2.6 90 14:18 28.09.2019
1156 Rain 13 1005 87 10000 3.6 100 13:43 28.09.2019
1157 Rain 14 1005 87 10000 3.6 100 13:20 28.09.2019
1158 Rain 13 1006 93 10000 3.1 90 12:57 28.09.2019
1159 Rain 14 1006 93 10000 3.1 100 12:37 28.09.2019
1160 Rain 14 1006 93 10000 3.1 100 12:18 28.09.2019
1161 Drizzle 14 1006 93 10000 3.1 100 11:41 28.09.2019
1162 Drizzle 14 1006 93 10000 3.1 100 11:20 28.09.2019
1163 Clouds 14 1006 93 10000 3.6 100 10:56 28.09.2019
1164 Clouds 14 1006 87 10000 4.1 100 10:38 28.09.2019
1165 Clouds 14 1006 87 10000 4.1 100 10:18 28.09.2019
1166 Clouds 13 1006 93 10000 4.1 110 09:41 28.09.2019
1167 Clouds 13 1006 93 10000 4.1 110 09:20 28.09.2019
1168 Clouds 13 1006 93 10000 3.6 100 08:48 28.09.2019
1169 Rain 13 1007 93 10000 4.1 110 08:29 28.09.2019
1170 Rain 13 1007 93 10000 4.6 110 07:59 28.09.2019
1171 Rain 13 1007 93 10000 4.6 110 07:41 28.09.2019
1172 Rain 13 1007 93 10000 4.6 110 07:19 28.09.2019
1173 Rain 13 1007 93 10000 5.1 110 06:41 28.09.2019
1174 Clouds 13 1007 93 10000 5.1 110 06:21 28.09.2019
1175 Clouds 12 1007 93 10000 5.1 100 05:37 28.09.2019
1176 Clouds 13 1007 93 10000 5.1 100 05:18 28.09.2019
1177 Clouds 13 1008 93 10000 5.7 100 04:31 28.09.2019
1178 Clouds 12 1008 87 10000 6.2 110 03:42 28.09.2019
1179 Clouds 12 1008 87 10000 6.2 110 03:18 28.09.2019
1180 Clouds 13 1009 87 10000 5.7 110 02:41 28.09.2019
1181 Clouds 13 1009 87 10000 5.7 110 02:23 28.09.2019
1182 Clouds 12 1009 87 10000 4.6 100 01:43 28.09.2019
1183 Clouds 12 1009 87 10000 4.6 100 01:23 28.09.2019
1184 Clouds 12 1010 87 10000 4.6 100 00:48 28.09.2019
1185 Clouds 12 1010 87 10000 4.6 100 00:29 28.09.2019
1186 Clouds 12 1010 87 10000 5.1 110 23:39 27.09.2019
1187 Clouds 12 1010 87 10000 5.1 110 23:21 27.09.2019
1188 Clouds 11 1010 93 10000 5.1 110 22:57 27.09.2019
1189 Clouds 11 1011 93 10000 4.6 110 22:38 27.09.2019
1190 Clouds 11 1011 93 10000 4.6 110 22:18 27.09.2019
1191 Clear 11 1011 87 10000 4.6 100 21:54 27.09.2019
1192 Clouds 11 1011 87 10000 4.1 100 21:36 27.09.2019
1193 Clouds 11 1011 87 10000 4.1 100 21:18 27.09.2019
1194 Clouds 11 1011 87 10000 3.6 90 20:41 27.09.2019
1195 Clouds 11 1011 87 10000 3.6 90 20:20 27.09.2019
1196 Clear 11 1011 87 10000 4.1 90 19:58 27.09.2019
1197 Clear 11 1011 87 10000 4.1 90 19:39 27.09.2019
1198 Clear 11 1011 87 10000 4.1 90 19:39 27.09.2019
1199 Clear 11 1011 87 10000 4.1 90 19:21 27.09.2019
1200 Clear 12 1011 82 10000 4.1 100 18:43 27.09.2019
1201 Clear 12 1011 82 10000 4.1 100 18:25 27.09.2019
1202 Clouds 12 1012 76 10000 5.1 100 17:58 27.09.2019
1203 Clouds 13 1012 82 10000 5.7 110 17:40 27.09.2019
1204 Clouds 13 1012 82 10000 5.7 110 17:20 27.09.2019
1205 Clear 13 1012 76 10000 5.1 110 16:58 27.09.2019
1206 Clear 13 1012 76 10000 7.2 120 16:40 27.09.2019
1207 Clear 13 1012 76 10000 7.2 120 16:19 27.09.2019
1208 Clear 14 1013 71 10000 6.2 110 16:19 27.09.2019
1209 Clear 14 1013 71 10000 6.2 110 15:55 27.09.2019
1210 Clear 14 1013 62 10000 7.7 120 15:36 27.09.2019
1211 Clear 14 1013 62 10000 7.7 120 15:36 27.09.2019
1212 Clear 14 1013 62 10000 7.7 120 15:18 27.09.2019
1213 Clear 14 1013 50 10000 7.2 120 14:41 27.09.2019
1214 Clear 14 1013 50 10000 7.2 120 14:23 27.09.2019
1215 Clear 14 1013 50 10000 7.2 120 14:23 27.09.2019
1216 Clear 14 1014 54 10000 5.1 110 13:59 27.09.2019
1217 Clear 14 1014 67 10000 6.2 110 13:40 27.09.2019
1218 Clear 14 1014 67 10000 6.2 110 13:21 27.09.2019
1219 Clouds 14 1014 62 10000 5.1 110 12:57 27.09.2019
1220 Clouds 13 1014 71 10000 5.1 110 12:38 27.09.2019
1221 Clouds 13 1014 71 10000 5.1 110 12:19 27.09.2019
1222 Clear 13 1014 76 10000 4.1 100 11:39 27.09.2019
1223 Clear 13 1014 76 10000 4.1 100 11:39 27.09.2019
1224 Clear 13 1014 76 10000 4.1 100 11:39 27.09.2019
1225 Clear 12 1014 76 10000 4.1 100 11:20 27.09.2019
1226 Clear 12 1014 76 10000 4.1 100 11:20 27.09.2019
1227 Clear 12 1015 81 10000 2.6 80 10:55 27.09.2019
1228 Clear 11 1015 76 10000 2.6 80 10:37 27.09.2019
1229 Clear 11 1015 76 10000 2.6 80 10:37 27.09.2019
1230 Clear 11 1015 76 10000 2.6 80 10:37 27.09.2019
1231 Clear 11 1015 76 10000 2.6 80 10:18 27.09.2019
1232 Clear 8 1015 93 10000 4.06 115.789 09:41 27.09.2019
1233 Clear 7 1015 93 10000 2.58 84.362 09:20 27.09.2019
1234 Clear 6 1015 100 10000 2.58 84.362 08:57 27.09.2019
1235 Clear 4 1015 100 10000 2.56 84.147 08:37 27.09.2019
1236 Clear 4 1015 100 10000 0.5 0 08:19 27.09.2019
1237 Clear 4 1015 100 10000 1 0 07:45 27.09.2019
1238 Clear 3 1015 100 10000 1 0 07:22 27.09.2019
1239 Mist 3 1015 100 5000 2.56 84.147 06:42 27.09.2019
1240 Mist 3 1015 100 5000 2.04 75.691 06:23 27.09.2019
1241 Mist 3 1015 100 10000 2.04 75.691 05:49 27.09.2019
1242 Fog 2 1016 100 10000 1 310 05:31 27.09.2019
1243 Fog 3 1016 93 10000 2.04 75.691 03:55 27.09.2019
1244 Fog 4 1016 100 8000 1.81 75.634 02:41 27.09.2019
1245 Mist 4 1017 100 10000 1.84 80.389 01:44 27.09.2019
1246 Fog 3 1017 93 10000 0.5 330 00:59 27.09.2019
1247 Fog 4 1017 100 10000 0.5 330 00:19 27.09.2019
1248 Clear 5 1017 93 10000 1.51 95.143 23:56 26.09.2019
1249 Clear 4 1017 100 10000 1.51 95.143 23:37 26.09.2019
1250 Clear 5 1017 100 10000 1.51 95.143 23:18 26.09.2019
1251 Clear 4 1017 93 10000 1.51 95.143 22:55 26.09.2019
1252 Clear 5 1017 86 10000 0.5 310 22:37 26.09.2019
1253 Clear 5 1017 86 10000 0.5 310 22:18 26.09.2019
1254 Clear 5 1017 87 10000 1.51 95.143 21:55 26.09.2019
1255 Clear 6 1017 87 10000 1.51 95.143 21:36 26.09.2019
1256 Clear 6 1017 87 10000 1.97 102.851 21:18 26.09.2019
1257 Clear 7 1016 81 10000 1.5 90 20:56 26.09.2019
1258 Clear 7 1016 70 10000 1.5 140 20:37 26.09.2019
1259 Clear 7 1016 70 10000 1.5 140 20:19 26.09.2019
1260 Clouds 9 1016 62 10000 2.6 90 19:40 26.09.2019
1261 Clouds 10 1016 62 10000 4.1 100 19:19 26.09.2019
1262 Clouds 10 1016 62 10000 4.1 100 18:59 26.09.2019
1263 Clouds 10 1016 62 10000 4.1 100 18:59 26.09.2019
1264 Clouds 11 1016 62 10000 3.6 80 18:39 26.09.2019
1265 Clouds 11 1016 62 10000 3.6 80 18:21 26.09.2019
1266 Clouds 11 1016 62 10000 3.6 100 17:56 26.09.2019
1267 Clouds 12 1016 62 10000 3.6 90 17:37 26.09.2019
1268 Clouds 12 1016 62 10000 3.6 90 17:18 26.09.2019
1269 Clouds 12 1016 62 10000 3.6 90 17:18 26.09.2019
1270 Clouds 13 1016 54 10000 3.6 70 16:40 26.09.2019
1271 Clouds 13 1016 54 10000 3.6 70 16:21 26.09.2019
1272 Clouds 13 1016 54 10000 3.6 70 16:21 26.09.2019
1273 Clear 13 1016 50 10000 2.6 120 15:59 26.09.2019
1274 Clear 13 1016 54 10000 2.6 90 15:38 26.09.2019
1275 Clear 13 1016 54 10000 2.6 90 15:20 26.09.2019
1276 Clear 14 1016 50 10000 2.1 90 14:57 26.09.2019
1277 Clouds 13 1016 50 10000 2.1 0 14:38 26.09.2019
1278 Clouds 13 1016 50 10000 2.1 0 14:38 26.09.2019
1279 Clouds 14 1016 50 10000 2.1 0 14:19 26.09.2019
1280 Clouds 14 1016 54 10000 3.1 50 13:41 26.09.2019
1281 Clouds 14 1016 54 10000 3.1 50 13:20 26.09.2019
1282 Clouds 14 1016 54 10000 3.1 50 13:20 26.09.2019
1283 Clouds 14 1016 54 10000 3.1 50 13:20 26.09.2019
1284 Clear 13 1016 54 10000 3.1 80 12:59 26.09.2019
1285 Clear 13 1016 54 10000 3.6 80 12:41 26.09.2019
1286 Clear 13 1016 54 10000 3.6 80 12:41 26.09.2019
1287 Clear 13 1016 54 10000 3.6 80 12:21 26.09.2019
1288 Clear 12 1016 71 10000 3.6 80 11:42 26.09.2019
1289 Clear 12 1016 71 10000 3.6 80 11:23 26.09.2019
1290 Clear 11 1016 71 10000 4.1 100 10:58 26.09.2019
1291 Clear 11 1016 76 10000 3.1 90 10:40 26.09.2019
1292 Clear 11 1016 76 10000 3.1 90 10:20 26.09.2019
1293 Clear 10 1016 76 10000 2.6 80 09:45 26.09.2019
1294 Clear 9 1016 93 10000 1 0 09:26 26.09.2019
1295 Clear 8 1015 100 10000 0.5 0 08:59 26.09.2019
1296 Clear 8 1015 100 10000 1.76 51.965 08:41 26.09.2019
1297 Clear 7 1015 100 10000 1.76 51.965 08:23 26.09.2019
1298 Fog 6 1015 100 7000 0.5 300 07:44 26.09.2019
1299 Fog 6 1015 100 350 0.5 280 07:22 26.09.2019
1300 Fog 6 1015 93 200 0.5 280 06:50 26.09.2019
1301 Fog 6 1014 100 200 1 290 06:27 26.09.2019
1302 Fog 6 1014 100 100 1 290 05:51 26.09.2019
1303 Fog 6 1014 100 5000 1.67 48.238 05:25 26.09.2019
1304 Clear 6 1015 100 10000 1.39 57.005 03:18 26.09.2019
1305 Clear 6 1014 100 10000 1.39 57.005 01:55 26.09.2019
1306 Clear 6 1014 93 10000 1 0 01:32 26.09.2019
1307 Clear 6 1014 93 10000 1.62 45 00:58 26.09.2019
1308 Clear 6 1014 93 10000 1.62 45 00:38 26.09.2019
1309 Clear 6 1014 93 10000 1.25 64.73 00:20 26.09.2019
1310 Clear 7 1014 93 10000 1.25 64.73 23:42 25.09.2019
1311 Clear 7 1014 93 10000 1.25 64.73 23:19 25.09.2019
1312 Clear 7 1014 93 10000 0.5 0 22:43 25.09.2019
1313 Clear 8 1014 93 10000 1.5 40 22:22 25.09.2019
1314 Clear 8 1014 87 10000 1 10 21:58 25.09.2019
1315 Clear 9 1014 81 10000 1 70 21:40 25.09.2019
1316 Clear 9 1014 81 10000 1 70 21:19 25.09.2019
1317 Clear 9 1014 76 10000 1.5 90 20:59 25.09.2019
1318 Clear 10 1014 71 10000 2.1 80 20:40 25.09.2019
1319 Clear 10 1014 71 10000 2.1 80 20:22 25.09.2019
1320 Clear 10 1014 66 10000 2.1 90 19:59 25.09.2019
1321 Clear 10 1013 62 10000 2.1 80 19:38 25.09.2019
1322 Clear 10 1014 62 10000 2.6 70 19:19 25.09.2019
1323 Clear 11 1014 62 10000 2.6 70 18:56 25.09.2019
1324 Clear 11 1014 62 10000 2.6 70 18:56 25.09.2019
1325 Clear 11 1013 62 10000 2.6 90 18:37 25.09.2019
1326 Clear 12 1013 58 10000 3.1 70 18:18 25.09.2019
1327 Clear 12 1013 58 10000 3.1 60 17:40 25.09.2019
1328 Clear 12 1013 58 10000 3.1 60 17:21 25.09.2019
1329 Clear 13 1013 50 10000 3.1 80 16:57 25.09.2019
1330 Clouds 13 1014 50 10000 2.6 60 16:37 25.09.2019
1331 Clouds 13 1014 50 10000 2.6 60 16:19 25.09.2019
1332 Clear 13 1014 47 10000 2.1 0 15:42 25.09.2019
1333 Clear 13 1014 47 10000 2.1 0 15:23 25.09.2019
1334 Clear 14 1014 50 10000 1 0 14:59 25.09.2019
1335 Clear 14 1014 50 10000 1 0 14:59 25.09.2019
1336 Clear 14 1014 50 10000 2.1 90 14:41 25.09.2019
1337 Clear 13 1014 50 10000 2.1 90 14:22 25.09.2019
1338 Clear 13 1014 54 10000 2.1 90 13:56 25.09.2019
1339 Clear 13 1014 50 10000 2.1 60 13:38 25.09.2019
1340 Clear 13 1014 50 10000 2.1 60 13:19 25.09.2019
1341 Clear 13 1014 58 10000 2.6 60 12:42 25.09.2019
1342 Clear 13 1014 58 10000 2.6 60 12:24 25.09.2019
1343 Clear 13 1014 66 10000 3.6 60 11:59 25.09.2019
1344 Clear 12 1014 66 10000 3.1 90 11:40 25.09.2019
1345 Clear 12 1014 66 10000 3.1 90 11:40 25.09.2019
1346 Clear 11 1014 66 10000 3.1 90 11:19 25.09.2019
1347 Clear 11 1014 66 10000 3.1 90 11:19 25.09.2019
1348 Clear 11 1014 66 10000 3.1 50 10:45 25.09.2019
1349 Clear 10 1014 81 10000 1 360 10:26 25.09.2019
1350 Clear 10 1014 81 10000 1 360 10:26 25.09.2019
1351 Clouds 10 1014 87 10000 0.5 30 09:58 25.09.2019
1352 Clouds 10 1014 87 10000 0.5 30 09:58 25.09.2019
1353 Clouds 10 1014 87 10000 0.5 30 09:58 25.09.2019
1354 Clouds 8 1014 93 10000 0.5 350 09:38 25.09.2019
1355 Clouds 7 1014 93 10000 0.5 350 09:20 25.09.2019
1356 Clouds 7 1014 93 10000 1 40 08:55 25.09.2019
1357 Clouds 6 1014 93 10000 1 330 08:37 25.09.2019
1358 Clouds 6 1014 93 10000 1 330 08:18 25.09.2019
1359 Fog 5 1014 100 10000 1 340 07:40 25.09.2019
1360 Fog 5 1014 100 10000 1 340 07:22 25.09.2019
1361 Fog 5 1014 100 10000 0.5 310 06:45 25.09.2019
1362 Fog 5 1014 100 10000 0.5 310 06:23 25.09.2019
1363 Fog 5 1014 93 10000 1 340 05:37 25.09.2019
1364 Mist 3 1014 93 10000 1 330 04:55 25.09.2019
1365 Fog 5 1015 93 10000 0.5 330 02:31 25.09.2019
1366 Clouds 5 1015 93 10000 0.77 72.463 00:56 25.09.2019
1367 Clouds 6 1015 100 10000 0.77 72.463 00:36 25.09.2019
1368 Clouds 6 1015 100 10000 1.13 186.004 00:18 25.09.2019
1369 Clouds 6 1015 93 10000 1 360 23:40 24.09.2019
1370 Clouds 6 1015 93 10000 1 360 23:21 24.09.2019
1371 Clouds 7 1015 87 10000 1 180 22:56 24.09.2019
1372 Clear 8 1015 81 10000 1.5 160 22:36 24.09.2019
1373 Clear 7 1015 81 10000 1.5 160 22:18 24.09.2019
1374 Clear 7 1015 81 10000 1.5 160 22:18 24.09.2019
1375 Clear 8 1015 87 10000 1.5 0 21:54 24.09.2019
1376 Clear 8 1015 81 10000 1.5 140 21:36 24.09.2019
1377 Clear 8 1015 81 10000 1.5 140 21:18 24.09.2019
1378 Clear 9 1015 81 10000 1.5 0 20:54 24.09.2019
1379 Clear 9 1015 81 10000 1.5 140 20:36 24.09.2019
1380 Clear 9 1015 81 10000 1.5 140 20:18 24.09.2019
1381 Clear 10 1015 76 10000 1.5 160 19:41 24.09.2019
1382 Clear 10 1015 76 10000 1.5 160 19:19 24.09.2019
1383 Clear 11 1015 62 10000 2.6 150 18:56 24.09.2019
1384 Clear 11 1015 58 10000 3.1 170 18:38 24.09.2019
1385 Clear 12 1015 58 10000 3.1 170 18:20 24.09.2019
1386 Clouds 12 1015 54 10000 3.1 200 17:55 24.09.2019
1387 Clouds 12 1016 54 10000 2.1 220 17:37 24.09.2019
1388 Clouds 13 1016 54 10000 2.1 220 17:19 24.09.2019
1389 Clear 13 1016 54 10000 2.6 200 16:41 24.09.2019
1390 Clear 13 1016 54 10000 2.6 200 16:20 24.09.2019
1391 Clear 13 1017 54 10000 2.6 180 15:57 24.09.2019
1392 Clouds 13 1017 54 10000 3.6 180 15:38 24.09.2019
1393 Clouds 13 1017 54 10000 3.6 180 15:19 24.09.2019
1394 Clouds 13 1017 58 10000 3.1 190 14:38 24.09.2019
1395 Clouds 13 1017 58 10000 3.1 190 14:18 24.09.2019
1396 Clouds 13 1018 58 10000 3.6 180 13:45 24.09.2019
1397 Clouds 13 1018 58 10000 3.6 180 13:21 24.09.2019
1398 Clear 12 1018 58 10000 3.6 190 12:44 24.09.2019
1399 Clear 12 1018 58 10000 3.1 210 12:23 24.09.2019
1400 Clear 12 1018 58 10000 3.1 210 11:58 24.09.2019
1401 Clear 12 1018 58 10000 3.1 210 11:58 24.09.2019
1402 Clear 11 1018 62 10000 2.6 150 11:40 24.09.2019
1403 Clear 11 1018 62 10000 2.6 150 11:21 24.09.2019
1404 Clear 10 1019 76 10000 1.5 150 10:42 24.09.2019
1405 Clear 10 1019 76 10000 1.5 150 10:22 24.09.2019
1406 Clear 10 1019 76 10000 1.5 150 09:59 24.09.2019
1407 Clear 10 1019 81 10000 1.5 0 09:41 24.09.2019
1408 Clear 9 1019 81 10000 1.5 0 09:20 24.09.2019
1409 Clear 9 1018 87 10000 1 180 08:57 24.09.2019
1410 Clear 8 1019 87 10000 1.5 0 08:38 24.09.2019
1411 Clear 8 1019 87 10000 1.5 0 08:19 24.09.2019
1412 Clear 8 1019 93 10000 1 0 07:46 24.09.2019
1413 Clear 8 1019 93 10000 1 150 07:24 24.09.2019
1414 Clear 8 1019 93 10000 1 200 06:48 24.09.2019
1415 Clouds 8 1019 93 10000 0.5 190 06:30 24.09.2019
1416 Clouds 8 1019 87 10000 1 150 05:51 24.09.2019
1417 Clouds 8 1020 93 10000 0.5 190 05:18 24.09.2019
1418 Clouds 8 1020 87 10000 0.5 220 03:43 24.09.2019
1419 Clouds 9 1020 87 10000 1 170 02:47 24.09.2019
1420 Clouds 8 1020 81 10000 1 150 01:55 24.09.2019
1421 Drizzle 9 1021 76 10000 1.5 140 00:43 24.09.2019
1422 Drizzle 9 1021 76 10000 1.5 140 00:25 24.09.2019
1423 Clouds 9 1021 76 10000 1.5 140 23:56 23.09.2019
1424 Clouds 9 1021 71 10000 1.5 150 23:38 23.09.2019
1425 Clouds 9 1021 71 10000 1.5 150 23:20 23.09.2019
1426 Clear 9 1021 71 10000 1.5 150 22:39 23.09.2019
1427 Clear 9 1021 71 10000 1.5 150 22:20 23.09.2019
1428 Clear 9 1021 71 10000 1.5 160 21:57 23.09.2019
1429 Clear 9 1021 71 10000 1.5 150 21:39 23.09.2019
1430 Clear 9 1021 71 10000 1.5 150 21:19 23.09.2019
1431 Clear 9 1022 66 10000 2.6 150 20:41 23.09.2019
1432 Clear 9 1022 66 10000 2.6 150 20:20 23.09.2019
1433 Clear 9 1022 66 10000 2.6 150 20:20 23.09.2019
1434 Clear 10 1022 66 10000 2.1 150 19:59 23.09.2019
1435 Clear 10 1022 66 10000 3.1 150 19:39 23.09.2019
1436 Clear 10 1022 66 10000 3.1 150 19:21 23.09.2019
1437 Clear 10 1022 66 10000 3.1 160 18:55 23.09.2019
1438 Rain 10 1022 57 10000 3.6 160 18:37 23.09.2019
1439 Rain 10 1022 57 10000 3.6 160 18:37 23.09.2019
1440 Rain 11 1022 54 10000 3.6 160 18:18 23.09.2019
1441 Rain 11 1022 54 10000 3.6 160 17:55 23.09.2019
1442 Clear 11 1022 50 10000 3.6 140 17:36 23.09.2019
1443 Clear 12 1022 50 10000 3.6 140 17:18 23.09.2019
1444 Clear 12 1022 43 10000 3.1 170 16:39 23.09.2019
1445 Clear 12 1022 43 10000 3.1 170 16:21 23.09.2019
1446 Clear 12 1023 47 10000 2.6 140 15:59 23.09.2019
1447 Clear 12 1023 43 10000 2.6 170 15:41 23.09.2019
1448 Clear 12 1023 43 10000 2.6 170 15:20 23.09.2019
1449 Clear 12 1023 50 10000 3.1 110 14:58 23.09.2019
1450 Clear 12 1024 47 10000 3.1 150 14:39 23.09.2019
1451 Clouds 12 1024 47 10000 2.1 190 14:19 23.09.2019
1452 Clouds 12 1024 47 10000 2.1 190 13:57 23.09.2019
1453 Clouds 12 1024 50 10000 1.5 180 13:37 23.09.2019
1454 Clouds 12 1024 57 10000 2.1 150 13:18 23.09.2019
1455 Clouds 12 1024 57 10000 2.1 150 13:18 23.09.2019
1456 Clouds 12 1024 54 10000 2.6 130 12:40 23.09.2019
1457 Clouds 12 1024 54 10000 2.6 130 12:21 23.09.2019
1458 Clouds 11 1025 54 10000 2.1 120 11:55 23.09.2019
1459 Clear 11 1025 53 10000 3.1 130 11:36 23.09.2019
1460 Clear 11 1025 57 10000 2.6 110 11:18 23.09.2019
1461 Clear 10 1025 66 10000 2.1 90 10:41 23.09.2019
1462 Clear 9 1025 66 10000 2.1 90 10:20 23.09.2019
1463 Clear 7 1025 81 10000 1.5 0 09:40 23.09.2019
1464 Clear 7 1025 81 10000 1.5 0 09:40 23.09.2019
1465 Clear 6 1025 81 10000 1.5 0 09:21 23.09.2019
1466 Clear 4 1025 100 10000 1.57 55.863 08:58 23.09.2019
1467 Clear 2 1024 100 10000 1.52 55.839 08:38 23.09.2019
1468 Clear 3 1024 100 10000 1.52 55.839 08:18 23.09.2019
1469 Clear 3 1024 100 10000 1.52 55.839 08:18 23.09.2019
1470 Clear 3 1024 100 10000 1.52 55.839 08:18 23.09.2019
1471 Fog 1 1024 100 10000 1.52 55.839 07:33 23.09.2019
1472 Fog 1 1024 100 10000 1.52 55.839 06:58 23.09.2019
1473 Fog 1 1024 86 10000 1.56 44.688 06:20 23.09.2019
1474 Clear 2 1024 86 10000 1.56 44.688 05:28 23.09.2019
1475 Clear 2 1024 86 10000 0.5 330 04:56 23.09.2019
1476 Fog 2 1024 86 10000 0.5 290 03:59 23.09.2019
1477 Fog 2 1024 100 10000 1 280 01:25 23.09.2019
1478 Fog 3 1024 100 10000 1 290 00:26 23.09.2019
1479 Fog 4 1023 100 10000 0.5 270 23:58 22.09.2019
1480 Fog 3 1023 100 10000 1 300 23:40 22.09.2019
1481 Fog 4 1023 100 10000 1 300 23:21 22.09.2019
1482 Fog 3 1023 100 10000 1 350 22:55 22.09.2019
1483 Fog 4 1023 93 10000 1 360 22:37 22.09.2019
1484 Fog 4 1023 93 10000 1 360 22:18 22.09.2019
1485 Fog 5 1022 87 10000 1 10 21:42 22.09.2019
1486 Fog 5 1022 87 10000 1 10 21:20 22.09.2019
1487 Fog 5 1022 87 10000 1 20 20:45 22.09.2019
1488 Clear 6 1022 81 10000 1 10 20:27 22.09.2019
1489 Clear 6 1022 81 10000 1.5 30 19:59 22.09.2019
1490 Clear 7 1022 76 10000 1.5 20 19:40 22.09.2019
1491 Clouds 7 1022 93 10000 2.1 320 19:20 22.09.2019
1492 Clear 8 1021 66 10000 2.6 60 18:57 22.09.2019
1493 Clear 8 1021 71 10000 2.6 60 18:38 22.09.2019
1494 Clouds 9 1021 71 10000 2.6 50 18:18 22.09.2019
1495 Clouds 9 1021 71 10000 3.1 20 17:46 22.09.2019
1496 Clouds 10 1021 71 10000 3.1 20 17:27 22.09.2019
1497 Clouds 10 1021 71 10000 3.1 40 16:57 22.09.2019
1498 Clouds 10 1021 71 10000 3.1 40 16:57 22.09.2019
1499 Clouds 10 1020 76 10000 4.1 70 16:39 22.09.2019
1500 Clouds 10 1020 76 10000 4.1 70 16:20 22.09.2019
1501 Clouds 10 1020 76 10000 4.1 70 15:45 22.09.2019
1502 Clouds 10 1020 76 10000 4.1 70 15:26 22.09.2019
1503 Clouds 10 1020 76 10000 4.6 60 14:55 22.09.2019
1504 Clouds 10 1020 81 9000 4.6 60 14:37 22.09.2019
1505 Clouds 10 1019 76 10000 4.1 40 14:18 22.09.2019
1506 Clouds 10 1019 81 10000 4.6 40 13:42 22.09.2019
1507 Clouds 10 1019 81 10000 4.6 40 13:24 22.09.2019
1508 Clouds 10 1019 81 10000 4.1 50 12:57 22.09.2019
1509 Clouds 10 1019 81 10000 3.6 40 12:39 22.09.2019
1510 Rain 10 1018 87 10000 5.7 40 12:18 22.09.2019
1511 Rain 10 1018 87 10000 5.7 40 11:55 22.09.2019
1512 Clouds 10 1018 81 10000 4.1 20 11:36 22.09.2019
1513 Clouds 10 1018 81 10000 4.1 20 11:18 22.09.2019
1514 Clouds 10 1017 81 10000 3.1 30 10:42 22.09.2019
1515 Clouds 11 1017 81 10000 3.1 30 10:20 22.09.2019
1516 Clouds 11 1017 81 10000 3.1 30 10:20 22.09.2019
1517 Mist 10 1016 93 10000 2.6 30 09:43 22.09.2019
1518 Mist 10 1016 93 10000 2.6 30 09:43 22.09.2019
1519 Mist 10 1016 93 10000 2.6 30 09:43 22.09.2019
1520 Mist 10 1016 93 10000 2.6 30 09:21 22.09.2019
1521 Clear 10 1016 93 10000 2.1 20 08:56 22.09.2019
1522 Clear 10 1016 93 10000 2.1 10 08:38 22.09.2019
1523 Clear 10 1016 93 10000 2.1 10 08:38 22.09.2019
1524 Clear 9 1016 93 10000 2.1 10 08:19 22.09.2019
1525 Clear 9 1015 100 10000 1.5 360 07:43 22.09.2019
1526 Clear 8 1015 100 10000 1.5 360 07:25 22.09.2019
1527 Clear 8 1015 100 10000 1.5 20 06:58 22.09.2019
1528 Mist 8 1015 100 10000 1.5 360 06:34 22.09.2019
1529 Fog 7 1014 100 10000 1.94 5.546 03:56 22.09.2019
1530 Clear 8 1014 93 10000 2.28 316.032 02:44 22.09.2019
1531 Clear 9 1014 93 10000 2.28 316.032 02:24 22.09.2019
1532 Clear 9 1014 93 10000 2.28 316.032 01:36 22.09.2019
1533 Clear 10 1014 93 10000 2.31 307.732 00:44 22.09.2019
1534 Clear 11 1014 93 10000 3.44 294.793 00:26 22.09.2019
1535 Clear 11 1014 93 10000 3.44 294.793 23:51 21.09.2019
1536 Clear 11 1014 87 10000 1 270 23:33 21.09.2019
1537 Clear 12 1014 87 10000 1 290 22:43 21.09.2019
1538 Clear 12 1014 87 10000 1 290 22:43 21.09.2019
1539 Clear 13 1014 87 10000 1 290 22:24 21.09.2019
1540 Clear 13 1014 76 10000 1.5 260 21:58 21.09.2019
1541 Clear 14 1014 76 10000 1.5 250 21:40 21.09.2019
1542 Clouds 14 1014 76 10000 1.5 250 21:19 21.09.2019
1543 Clouds 14 1014 67 10000 2.6 270 20:55 21.09.2019
1544 Clouds 14 1014 67 10000 2.1 260 20:36 21.09.2019
1545 Clouds 15 1014 67 10000 2.1 260 20:18 21.09.2019
1546 Clouds 16 1014 59 10000 2.6 270 19:42 21.09.2019
1547 Clouds 16 1014 59 10000 3.1 260 19:19 21.09.2019
1548 Clouds 17 1014 55 10000 4.6 270 18:40 21.09.2019
1549 Clouds 17 1014 55 10000 4.6 270 18:21 21.09.2019
1550 Clear 18 1014 52 10000 5.7 300 17:42 21.09.2019
1551 Clear 18 1014 52 10000 5.7 300 17:42 21.09.2019
1552 Clear 18 1014 52 10000 5.7 300 17:23 21.09.2019
1553 Clear 18 1014 48 10000 6.7 300 16:56 21.09.2019
1554 Clear 19 1014 52 10000 6.7 290 16:37 21.09.2019
1555 Clear 19 1014 52 10000 6.7 290 16:19 21.09.2019
1556 Clear 19 1015 52 10000 6.7 290 15:42 21.09.2019
1557 Clear 18 1015 52 10000 6.7 290 15:21 21.09.2019
1558 Clear 18 1015 55 10000 7.2 290 14:48 21.09.2019
1559 Clear 18 1015 55 10000 7.7 280 14:29 21.09.2019
1560 Clear 18 1015 55 10000 6.7 280 13:50 21.09.2019
1561 Clear 18 1014 59 10000 6.2 300 13:29 21.09.2019
1562 Clear 17 1015 59 10000 6.7 280 12:59 21.09.2019
1563 Clear 17 1014 63 10000 5.7 280 12:41 21.09.2019
1564 Clear 17 1014 63 10000 5.7 280 12:21 21.09.2019
1565 Clear 16 1014 63 10000 5.1 280 11:58 21.09.2019
1566 Clear 16 1014 63 10000 5.7 290 11:39 21.09.2019
1567 Clear 15 1014 67 10000 5.1 290 11:19 21.09.2019
1568 Clear 15 1014 67 10000 6.7 290 10:41 21.09.2019
1569 Clear 15 1014 67 10000 6.7 290 10:22 21.09.2019
1570 Clear 14 1014 71 10000 6.2 280 09:57 21.09.2019
1571 Clear 13 1014 82 10000 5.1 280 09:38 21.09.2019
1572 Clear 13 1014 82 10000 5.1 280 09:20 21.09.2019
1573 Clear 12 1014 93 10000 3.6 280 08:51 21.09.2019
1574 Clouds 12 1014 93 10000 3.6 260 08:25 21.09.2019
1575 Clouds 11 1013 87 10000 3.6 270 07:40 21.09.2019
1576 Clouds 11 1013 87 10000 3.6 270 07:21 21.09.2019
1577 Clouds 11 1013 87 10000 2.6 270 06:47 21.09.2019
1578 Clouds 11 1013 87 10000 2.6 270 06:26 21.09.2019
1579 Clouds 11 1013 87 10000 2.1 290 04:49 21.09.2019
1580 Clouds 11 1013 87 10000 2.1 290 04:49 21.09.2019
1581 Clouds 11 1013 87 10000 2.6 280 04:31 21.09.2019
1582 Clouds 11 1013 87 10000 1.5 0 02:27 21.09.2019
1583 Clouds 12 1013 87 10000 2.1 220 01:52 21.09.2019
1584 Clouds 12 1013 87 10000 2.1 220 01:33 21.09.2019
1585 Clouds 12 1014 81 10000 0.5 0 00:38 21.09.2019
1586 Clouds 12 1014 81 10000 0.5 0 00:18 21.09.2019
1587 Clouds 12 1014 81 10000 0.5 0 00:18 21.09.2019
1588 Clouds 12 1014 81 10000 1.5 270 23:41 20.09.2019
1589 Clouds 12 1014 81 10000 1.5 270 23:21 20.09.2019
1590 Clear 12 1014 71 10000 2.6 270 22:41 20.09.2019
1591 Clear 12 1014 71 10000 2.6 270 22:22 20.09.2019
1592 Clear 11 1015 76 10000 3.1 270 21:56 20.09.2019
1593 Clear 11 1015 76 10000 3.1 270 21:56 20.09.2019
1594 Clear 11 1015 76 10000 3.6 260 21:37 20.09.2019
1595 Clear 11 1015 76 10000 3.6 260 21:18 20.09.2019
1596 Rain 11 1015 76 10000 3.6 240 20:54 20.09.2019
1597 Clear 11 1015 76 10000 2.6 230 20:36 20.09.2019
1598 Drizzle 11 1015 81 10000 2.1 230 20:18 20.09.2019
1599 Drizzle 11 1015 76 10000 2.1 220 19:41 20.09.2019
1600 Drizzle 11 1015 76 10000 2.1 220 19:20 20.09.2019
1601 Drizzle 11 1016 71 10000 2.6 240 18:40 20.09.2019
1602 Drizzle 11 1016 66 10000 2.6 220 18:21 20.09.2019
1603 Drizzle 11 1016 66 10000 2.6 220 17:59 20.09.2019
1604 Drizzle 11 1016 62 10000 4.1 230 17:41 20.09.2019
1605 Drizzle 11 1016 62 10000 4.1 230 17:23 20.09.2019
1606 Rain 11 1017 71 10000 2.6 230 16:43 20.09.2019
1607 Rain 11 1017 71 10000 2.6 230 16:21 20.09.2019
1608 Rain 11 1017 54 10000 3.6 240 15:58 20.09.2019
1609 Drizzle 12 1018 50 10000 4.6 240 15:39 20.09.2019
1610 Drizzle 12 1018 50 10000 4.6 240 15:21 20.09.2019
1611 Clear 12 1017 47 10000 4.1 220 14:42 20.09.2019
1612 Clear 13 1017 47 10000 4.1 220 14:19 20.09.2019
1613 Clear 12 1018 58 10000 4.1 250 13:48 20.09.2019
1614 Clear 13 1018 58 10000 4.1 250 13:28 20.09.2019
1615 Clear 12 1018 58 10000 4.1 250 12:58 20.09.2019
1616 Clear 12 1019 62 10000 4.6 240 12:37 20.09.2019
1617 Clear 12 1019 58 10000 3.6 270 12:18 20.09.2019
1618 Clear 12 1019 58 10000 3.6 270 11:49 20.09.2019
1619 Clear 11 1019 66 10000 3.1 250 11:21 20.09.2019
1620 Clear 10 1019 66 10000 2.6 230 10:57 20.09.2019
1621 Clear 9 1020 81 10000 2.1 230 10:39 20.09.2019
1622 Clear 9 1020 81 10000 2.1 230 10:19 20.09.2019
1623 Clear 7 1020 100 10000 2.1 230 09:38 20.09.2019
1624 Clear 6 1020 93 10000 1 240 09:18 20.09.2019
1625 Clear 5 1020 93 10000 1 0 08:43 20.09.2019
1626 Clear 5 1020 93 10000 1 0 08:25 20.09.2019
1627 Clear 4 1020 93 10000 1 0 08:25 20.09.2019
1628 Clear 4 1020 100 10000 2.84 277.01 07:48 20.09.2019
1629 Clear 4 1020 100 10000 2.59 278.074 07:28 20.09.2019
1630 Clear 3 1020 70 10000 2.1 230 06:48 20.09.2019
1631 Clear 3 1020 70 10000 2.1 230 06:30 20.09.2019
1632 Clear 3 1020 100 10000 2.6 240 05:57 20.09.2019
1633 Clear 3 1021 100 10000 2.1 240 03:51 20.09.2019
1634 Clear 3 1021 72 10000 2.6 230 03:25 20.09.2019
1635 Clouds 4 1021 72 10000 1.62 307.844 01:45 20.09.2019
1636 Clouds 4 1021 72 10000 1.62 307.844 01:45 20.09.2019
1637 Clouds 4 1022 72 10000 1.75 318.059 01:27 20.09.2019
1638 Clouds 4 1022 72 10000 1.75 318.059 00:32 20.09.2019
1639 Clouds 4 1022 93 10000 1 0 23:46 19.09.2019
1640 Clouds 3 1022 93 10000 1 0 23:46 19.09.2019
1641 Clouds 3 1022 93 10000 1 0 23:24 19.09.2019
1642 Clouds 3 1022 93 10000 1.9 282.535 22:57 19.09.2019
1643 Clear 3 1022 93 10000 1.9 282.535 22:38 19.09.2019
1644 Clear 3 1022 93 10000 1.9 282.535 22:20 19.09.2019
1645 Clear 3 1022 93 10000 1 280 21:56 19.09.2019
1646 Clear 4 1022 80 10000 1 280 21:38 19.09.2019
1647 Clear 5 1022 75 10000 1 0 21:19 19.09.2019
1648 Clear 6 1021 70 10000 0.5 0 20:43 19.09.2019
1649 Clear 6 1021 70 10000 0.5 0 20:23 19.09.2019
1650 Clear 7 1021 61 10000 1.5 320 19:57 19.09.2019
1651 Clear 7 1021 61 10000 1.5 320 19:38 19.09.2019
1652 Clear 8 1021 61 10000 1.5 320 19:19 19.09.2019
1653 Clear 10 1021 43 10000 4.6 330 18:55 19.09.2019
1654 Clear 10 1021 43 10000 4.6 330 18:37 19.09.2019
1655 Clear 10 1021 42 10000 5.7 320 18:18 19.09.2019
1656 Clear 11 1021 42 10000 5.7 320 17:42 19.09.2019
1657 Clear 11 1021 42 10000 5.7 320 17:23 19.09.2019
1658 Clear 11 1021 42 10000 5.7 330 16:58 19.09.2019
1659 Clouds 11 1021 42 10000 5.7 320 16:39 19.09.2019
1660 Clouds 11 1021 42 10000 5.7 320 16:18 19.09.2019
1661 Clouds 11 1020 50 10000 5.7 330 15:39 19.09.2019
1662 Clouds 11 1020 50 10000 5.7 330 15:19 19.09.2019
1663 Clouds 11 1020 53 10000 6.2 300 14:42 19.09.2019
1664 Clouds 11 1020 53 10000 6.2 300 14:24 19.09.2019
1665 Clouds 11 1020 61 10000 6.2 310 13:59 19.09.2019
1666 Clouds 11 1020 62 10000 5.1 330 13:40 19.09.2019
1667 Clouds 11 1020 66 10000 5.1 340 13:20 19.09.2019
1668 Clouds 11 1020 66 10000 5.7 310 12:40 19.09.2019
1669 Clouds 10 1020 66 10000 5.7 310 12:20 19.09.2019
1670 Clouds 10 1019 66 10000 4.6 320 11:57 19.09.2019
1671 Clear 10 1019 66 10000 5.1 310 11:39 19.09.2019
1672 Clear 10 1019 66 10000 5.1 310 11:20 19.09.2019
1673 Clear 9 1019 70 10000 5.1 320 10:56 19.09.2019
1674 Clear 9 1019 70 10000 5.1 320 10:56 19.09.2019
1675 Clear 9 1018 70 10000 6.2 320 10:36 19.09.2019
1676 Clear 9 1018 75 10000 5.1 320 10:18 19.09.2019
1677 Clouds 8 1018 75 10000 5.7 320 09:41 19.09.2019
1678 Clouds 8 1018 75 10000 5.7 320 09:21 19.09.2019
1679 Clouds 7 1017 81 10000 5.1 310 08:56 19.09.2019
1680 Clear 7 1017 81 10000 4.1 310 08:29 19.09.2019
1681 Clear 6 1017 81 10000 4.6 310 07:57 19.09.2019
1682 Clear 6 1017 81 10000 4.6 310 07:57 19.09.2019
1683 Clouds 6 1017 81 10000 4.6 310 07:38 19.09.2019
1684 Clouds 6 1017 81 10000 4.6 310 07:38 19.09.2019
1685 Clouds 6 1017 81 10000 4.6 310 07:20 19.09.2019
1686 Clouds 6 1016 87 10000 3.1 300 06:45 19.09.2019
1687 Clouds 6 1016 87 10000 3.1 300 06:25 19.09.2019
1688 Clouds 5 1016 93 10000 2.1 290 05:50 19.09.2019
1689 Clouds 5 1016 93 10000 2.1 290 05:50 19.09.2019
1690 Clouds 5 1015 86 10000 2.6 290 04:39 19.09.2019
1691 Clear 6 1015 87 10000 3.1 290 03:22 19.09.2019
1692 Clear 6 1015 100 10000 1.5 270 01:53 19.09.2019
1693 Clouds 6 1015 86 10000 1 290 01:21 19.09.2019
1694 Clouds 6 1015 87 10000 1.5 270 00:49 19.09.2019
1695 Clouds 6 1015 87 10000 2.12 307.491 00:25 19.09.2019
1696 Clouds 6 1015 81 10000 1.5 270 23:39 18.09.2019
1697 Clouds 6 1015 81 10000 1.5 270 23:21 18.09.2019
1698 Clear 7 1014 87 10000 1.5 290 22:43 18.09.2019
1699 Clear 7 1014 87 10000 1.5 290 22:20 18.09.2019
1700 Clear 7 1014 81 10000 2.6 280 21:58 18.09.2019
1701 Clear 7 1014 75 10000 2.1 270 21:40 18.09.2019
1702 Clear 7 1014 75 10000 2.1 270 21:19 18.09.2019
1703 Clear 7 1014 75 10000 1.5 290 20:58 18.09.2019
1704 Clear 8 1014 70 10000 3.1 310 20:40 18.09.2019
1705 Clear 9 1013 66 10000 3.1 320 20:22 18.09.2019
1706 Clear 8 1014 70 10000 3.1 310 20:22 18.09.2019
1707 Clear 9 1013 66 10000 3.1 320 19:58 18.09.2019
1708 Clear 10 1013 62 10000 4.1 310 19:39 18.09.2019
1709 Clouds 11 1013 58 10000 5.1 330 19:19 18.09.2019
1710 Clouds 11 1013 58 10000 5.1 330 18:56 18.09.2019
1711 Rain 11 1013 58 10000 3.6 320 18:37 18.09.2019
1712 Rain 11 1013 58 10000 3.6 320 18:19 18.09.2019
1713 Clouds 12 1012 54 10000 5.7 340 17:57 18.09.2019
1714 Clear 12 1012 54 10000 4.1 320 17:57 18.09.2019
1715 Clouds 12 1012 54 10000 5.7 340 17:39 18.09.2019
1716 Clouds 12 1012 54 10000 5.7 340 17:19 18.09.2019
1717 Rain 12 1012 50 10000 5.1 320 16:56 18.09.2019
1718 Rain 12 1012 50 10000 5.1 320 16:56 18.09.2019
1719 Clouds 13 1012 50 10000 5.7 320 16:37 18.09.2019
1720 Clouds 13 1012 50 10000 5.7 320 16:18 18.09.2019
1721 -273 0 0 0 0 0 15:55 18.09.2019
1722 Clouds 12 1011 62 10000 6.2 320 15:36 18.09.2019
1723 Clouds 12 1011 62 10000 6.2 320 15:18 18.09.2019
1724 Clouds 12 1011 62 10000 5.1 330 14:57 18.09.2019
1725 Clouds 12 1011 62 10000 5.7 330 14:37 18.09.2019
1726 Clouds 12 1011 66 10000 6.2 320 14:19 18.09.2019
1727 Clouds 11 1010 71 10000 4.6 330 13:42 18.09.2019
1728 Clouds 11 1010 71 10000 6.2 340 13:19 18.09.2019
1729 Clouds 11 1010 71 10000 6.2 340 12:53 18.09.2019
1730 Clouds 11 1010 71 10000 5.7 320 12:32 18.09.2019
1731 Clouds 11 1010 71 10000 5.7 320 12:32 18.09.2019
1732 Clouds 10 1009 71 10000 5.7 320 11:59 18.09.2019
1733 Clouds 10 1009 71 10000 5.7 310 11:39 18.09.2019
1734 Clouds 10 1009 71 10000 5.7 310 11:39 18.09.2019
1735 Clouds 10 1009 76 10000 5.1 320 11:19 18.09.2019
1736 Clouds 9 1008 76 10000 5.1 310 10:40 18.09.2019
1737 Clouds 9 1008 76 10000 5.1 310 10:40 18.09.2019
1738 Clouds 9 1008 76 10000 5.1 310 10:21 18.09.2019
1739 Clouds 8 1008 81 10000 5.7 310 09:58 18.09.2019
1740 Clouds 8 1008 81 10000 5.7 310 09:58 18.09.2019
1741 Clear 8 1008 81 10000 5.1 310 09:39 18.09.2019
1742 Clear 7 1008 81 10000 5.1 310 09:21 18.09.2019
1743 Clear 7 1007 87 10000 4.6 310 08:45 18.09.2019
1744 Clear 6 1007 87 10000 4.6 310 08:26 18.09.2019
1745 Clear 6 1007 87 10000 4.6 310 08:26 18.09.2019
1746 Clear 6 1007 87 10000 4.1 310 07:59 18.09.2019
1747 Clear 6 1007 87 10000 3.6 310 07:40 18.09.2019
1748 Clear 6 1007 87 10000 3.6 310 07:40 18.09.2019
1749 Clear 6 1007 87 10000 3.6 310 07:22 18.09.2019
1750 Clouds 6 1006 87 10000 4.1 300 06:41 18.09.2019
1751 Clouds 6 1006 87 10000 4.1 300 05:51 18.09.2019
1752 Clouds 6 1005 87 10000 4.1 300 05:21 18.09.2019
1753 Clouds 7 1005 93 10000 3.6 310 03:23 18.09.2019
1754 Clouds 7 1004 93 10000 3.6 300 02:39 18.09.2019
1755 Clouds 7 1004 87 10000 3.6 310 01:34 18.09.2019
1756 Clouds 7 1003 87 10000 3.1 310 00:50 18.09.2019
1757 Clouds 7 1003 87 10000 3.1 310 00:25 18.09.2019
1758 Clouds 7 1003 81 10000 3.1 300 23:47 17.09.2019
1759 Clouds 8 1003 81 10000 3.1 300 23:23 17.09.2019
1760 Clear 8 1002 81 10000 3.6 320 22:44 17.09.2019
1761 Clear 8 1002 81 10000 3.6 320 22:25 17.09.2019
1762 Clear 8 1002 87 10000 3.1 310 21:56 17.09.2019
1763 Clouds 8 1002 87 10000 3.1 330 21:37 17.09.2019
1764 Clouds 9 1002 87 10000 3.1 330 21:37 17.09.2019
1765 Rain 9 1002 87 10000 3.1 330 21:19 17.09.2019
1766 Rain 9 1002 87 10000 3.1 330 20:59 17.09.2019
1767 Rain 9 1001 87 10000 3.1 340 20:41 17.09.2019
1768 Rain 9 1001 87 10000 3.1 340 20:22 17.09.2019
1769 Rain 9 1001 66 10000 3.6 320 19:59 17.09.2019
1770 Rain 10 1000 62 10000 4.6 340 19:39 17.09.2019
1771 Rain 10 1000 62 10000 4.1 340 19:20 17.09.2019
1772 Rain 10 1000 62 10000 4.1 340 18:57 17.09.2019
1773 Rain 10 1000 62 10000 4.1 340 18:57 17.09.2019
1774 Clouds 11 1000 62 10000 6.7 350 18:39 17.09.2019
1775 Clouds 11 1000 62 10000 6.7 350 18:21 17.09.2019
1776 Clouds 11 999 58 10000 5.7 350 17:46 17.09.2019
1777 Clouds 12 999 58 10000 5.7 350 17:20 17.09.2019
1778 Clouds 12 999 58 10000 5.7 350 17:20 17.09.2019
1779 Clouds 12 999 50 10000 5.7 360 16:59 17.09.2019
1780 Clouds 12 999 50 10000 5.1 360 16:40 17.09.2019
1781 Clouds 12 999 50 10000 5.1 360 16:40 17.09.2019
1782 -273 0 0 0 0 0 16:22 17.09.2019
1783 Clouds 12 999 50 10000 5.1 360 16:22 17.09.2019
1784 Clouds 13 998 54 10000 4.1 350 15:40 17.09.2019
1785 Clouds 13 998 54 10000 4.1 350 15:21 17.09.2019
1786 Clouds 13 998 54 10000 4.1 350 15:21 17.09.2019
1787 Clouds 13 998 54 10000 4.1 350 15:21 17.09.2019
1788 Clouds 14 998 50 10000 4.6 40 14:58 17.09.2019
1789 Clear 13 998 47 10000 4.1 20 14:39 17.09.2019
1790 Clear 14 998 44 10000 4.1 10 14:19 17.09.2019
1791 Clear 13 998 44 10000 4.1 10 13:57 17.09.2019
1792 Clear 13 998 47 10000 4.1 20 13:39 17.09.2019
1793 Clear 13 998 47 10000 4.1 20 13:21 17.09.2019
1794 Clear 13 998 47 10000 3.1 10 12:43 17.09.2019
1795 Clear 12 998 47 10000 3.1 10 12:20 17.09.2019
1796 Clear 12 998 62 10000 2.1 50 11:57 17.09.2019
1797 Clear 12 998 66 10000 1.5 10 11:38 17.09.2019
1798 Clear 12 998 66 10000 1.5 10 11:18 17.09.2019
1799 Clear 10 998 81 10000 1 0 10:41 17.09.2019
1800 Clear 10 998 81 10000 1 0 10:21 17.09.2019
1801 Clear 9 998 87 10000 1.86 49.112 09:56 17.09.2019
1802 Clear 9 999 87 10000 1.86 49.112 09:37 17.09.2019
1803 Clear 8 999 87 10000 0.72 287.903 09:19 17.09.2019
1804 Clear 8 999 87 10000 0.72 287.903 09:19 17.09.2019
1805 Clear 6 999 100 10000 0.72 287.903 08:43 17.09.2019
1806 Clear 6 999 100 10000 0.82 253.901 08:25 17.09.2019
1807 Clear 6 999 100 10000 0.82 253.901 08:25 17.09.2019
1808 Fog 4 999 100 10000 0.82 253.901 07:46 17.09.2019
1809 Fog 4 999 100 10000 0.82 253.901 07:28 17.09.2019
1810 Fog 4 999 100 10000 0.82 253.901 06:57 17.09.2019
1811 Fog 4 999 100 10000 0.82 253.901 06:36 17.09.2019
1812 Fog 4 1000 100 7000 1.42 246.336 05:56 17.09.2019
1813 Fog 5 1000 100 1600 1.42 246.336 05:33 17.09.2019
1814 Mist 6 1001 100 10000 1.42 246.336 04:19 17.09.2019
1815 Clouds 8 1001 87 10000 2.1 260 02:40 17.09.2019
1816 Clouds 8 1001 93 10000 1.5 260 01:52 17.09.2019
1817 Clouds 9 1002 87 10000 3.1 240 00:58 17.09.2019
1818 Clouds 9 1002 81 10000 3.6 270 23:55 16.09.2019
1819 Rain 9 1002 81 10000 4.1 280 23:36 16.09.2019
1820 Rain 9 1002 81 10000 4.1 280 23:18 16.09.2019
1821 Rain 9 1003 76 10000 6.2 290 22:41 16.09.2019
1822 Rain 9 1003 76 10000 6.2 290 22:23 16.09.2019
1823 Rain 9 1003 81 10000 7.2 300 21:58 16.09.2019
1824 Rain 10 1002 71 10000 6.7 300 21:38 16.09.2019
1825 Rain 10 1002 71 10000 6.7 300 21:20 16.09.2019
1826 Rain 10 1002 71 10000 5.7 300 20:55 16.09.2019
1827 Clouds 10 1002 76 10000 5.7 290 20:37 16.09.2019
1828 Clouds 10 1002 71 10000 7.2 290 20:18 16.09.2019
1829 Rain 10 1002 76 10000 6.7 300 19:42 16.09.2019
1830 Rain 11 1002 76 10000 6.7 300 19:21 16.09.2019
1831 Rain 11 1002 76 10000 6.2 290 18:59 16.09.2019
1832 Rain 11 1001 76 10000 4.6 290 18:41 16.09.2019
1833 Rain 11 1001 76 10000 4.6 290 18:21 16.09.2019
1834 Rain 12 1001 58 10000 7.7 290 17:43 16.09.2019
1835 Rain 12 1001 58 10000 7.7 290 17:24 16.09.2019
1836 Rain 12 1001 54 10000 6.7 300 16:58 16.09.2019
1837 Clear 13 1001 54 10000 6.7 300 16:39 16.09.2019
1838 Clear 13 1001 54 10000 6.7 300 16:21 16.09.2019
1839 Rain 13 1000 54 10000 5.7 290 15:56 16.09.2019
1840 Clear 13 1000 54 10000 6.2 300 15:37 16.09.2019
1841 Clear 13 1000 54 10000 6.2 300 15:19 16.09.2019
1842 Clear 13 1000 54 10000 6.7 300 14:56 16.09.2019
1843 Clouds 13 1000 54 10000 8.2 300 14:37 16.09.2019
1844 Clouds 13 1000 54 10000 8.2 300 14:19 16.09.2019
1845 Clouds 13 999 50 10000 6.7 290 13:40 16.09.2019
1846 Clouds 13 999 50 10000 6.7 290 13:21 16.09.2019
1847 Clouds 13 999 54 10000 7.7 270 12:48 16.09.2019
1848 Clouds 13 999 54 10000 7.7 270 12:29 16.09.2019
1849 Clouds 13 999 50 10000 8.7 290 11:58 16.09.2019
1850 Clouds 13 998 54 10000 8.7 290 11:40 16.09.2019
1851 Clouds 13 998 54 10000 8.7 290 11:21 16.09.2019
1852 Clear 13 998 54 10000 8.2 280 10:40 16.09.2019
1853 Clear 13 998 54 10000 8.2 280 10:40 16.09.2019
1854 Clear 13 998 54 10000 8.2 280 10:21 16.09.2019
1855 Clear 12 998 58 10000 9.3 280 09:58 16.09.2019
1856 Clear 12 998 58 10000 9.8 280 09:40 16.09.2019
1857 Clear 12 998 58 10000 9.8 280 09:40 16.09.2019
1858 Clear 12 998 58 10000 9.8 280 09:20 16.09.2019
1859 Clear 12 997 62 10000 7.2 280 08:47 16.09.2019
1860 Clear 11 997 62 10000 7.2 280 08:28 16.09.2019
1861 Clear 11 997 62 10000 7.2 270 07:57 16.09.2019
1862 Clear 11 997 66 10000 7.2 270 07:38 16.09.2019
1863 Clear 11 996 62 10000 6.7 260 07:20 16.09.2019
1864 Clouds 11 996 62 10000 6.7 270 06:46 16.09.2019
1865 Clouds 11 996 62 10000 6.7 270 06:46 16.09.2019
1866 Clouds 11 996 62 10000 6.7 270 06:28 16.09.2019
1867 Clouds 11 996 62 10000 6.2 270 05:53 16.09.2019
1868 Clouds 11 996 62 10000 6.7 270 05:32 16.09.2019
1869 Clouds 11 996 62 10000 6.2 270 04:55 16.09.2019
1870 Clouds 12 995 62 10000 6.2 270 03:31 16.09.2019
1871 Clear 12 994 71 10000 7.2 250 00:44 16.09.2019
1872 Clear 12 994 71 10000 7.2 250 00:26 16.09.2019
1873 Clear 13 994 71 10000 7.7 260 23:45 15.09.2019
1874 Clear 13 994 71 10000 7.7 260 23:22 15.09.2019
1875 Clear 12 994 66 10000 8.7 250 22:59 15.09.2019
1876 Clear 13 994 66 10000 8.7 250 22:38 15.09.2019
1877 Clear 13 994 66 10000 6.7 260 22:18 15.09.2019
1878 Clear 13 994 66 10000 6.7 260 21:56 15.09.2019
1879 Clear 13 994 62 10000 7.7 260 21:37 15.09.2019
1880 Clear 13 994 62 10000 7.7 260 21:37 15.09.2019
1881 Clear 13 994 62 10000 7.7 260 21:19 15.09.2019
1882 Clear 13 994 58 10000 7.7 260 20:44 15.09.2019
1883 Clear 13 994 58 10000 7.7 260 20:26 15.09.2019
1884 Clear 14 994 54 10000 8.7 260 19:47 15.09.2019
1885 Clear 14 994 54 10000 8.7 260 19:27 15.09.2019
1886 Clear 14 994 51 10000 9.8 260 18:56 15.09.2019
1887 Clear 14 994 54 10000 9.3 260 18:38 15.09.2019
1888 Clear 15 994 54 10000 9.3 260 18:20 15.09.2019
1889 Clear 15 995 48 10000 10.8 260 17:43 15.09.2019
1890 Clear 16 995 48 10000 10.8 260 17:22 15.09.2019
1891 Clear 16 995 48 10000 10.3 260 16:58 15.09.2019
1892 Clear 16 995 48 10000 10.3 270 16:40 15.09.2019
1893 Clear 16 995 48 10000 10.3 270 16:21 15.09.2019
1894 -273 0 0 0 0 0 15:56 15.09.2019
1895 Clouds 16 994 55 10000 10.3 250 15:37 15.09.2019
1896 Clouds 16 994 55 10000 10.3 250 15:18 15.09.2019
1897 Clear 16 995 51 10000 10.3 260 14:43 15.09.2019
1898 Clear 16 995 51 10000 10.3 260 14:24 15.09.2019
1899 Clouds 16 995 51 10000 11.3 260 13:55 15.09.2019
1900 Clouds 16 995 51 10000 10.8 260 13:37 15.09.2019
1901 Clouds 16 995 51 10000 10.8 260 13:19 15.09.2019
1902 Clouds 16 994 55 10000 10.3 260 12:42 15.09.2019
1903 Clouds 16 994 55 10000 10.3 260 12:23 15.09.2019
1904 Clouds 15 994 59 10000 10.3 250 11:56 15.09.2019
1905 Rain 14 995 72 10000 9.8 250 11:38 15.09.2019
1906 Rain 14 995 72 10000 9.8 250 11:38 15.09.2019
1907 Rain 14 995 72 10000 9.8 250 11:19 15.09.2019
1908 Rain 14 995 87 10000 5.7 230 10:42 15.09.2019
1909 Rain 14 995 87 10000 5.7 230 10:22 15.09.2019
1910 Drizzle 13 996 93 10000 5.1 220 09:57 15.09.2019
1911 Rain 13 997 87 10000 5.1 220 09:37 15.09.2019
1912 Rain 13 997 87 10000 5.1 220 09:18 15.09.2019
1913 Rain 13 998 87 10000 6.2 220 08:44 15.09.2019
1914 Rain 12 998 87 10000 6.2 220 08:25 15.09.2019
1915 Rain 12 999 87 10000 6.2 220 07:48 15.09.2019
1916 Drizzle 11 1000 93 10000 7.2 220 07:25 15.09.2019
1917 Drizzle 11 1001 93 10000 6.2 210 06:33 15.09.2019
1918 Rain 11 1007 93 10000 5.1 210 03:25 15.09.2019
1919 Rain 11 1009 87 10000 5.7 190 02:32 15.09.2019
1920 Rain 11 1011 81 10000 4.1 210 01:39 15.09.2019
1921 Drizzle 12 1012 76 10000 5.7 220 00:58 15.09.2019
1922 Drizzle 12 1013 76 10000 4.1 220 00:39 15.09.2019
1923 Drizzle 12 1013 76 10000 4.1 220 00:20 15.09.2019
1924 Drizzle 12 1014 87 10000 3.1 220 23:57 14.09.2019
1925 Drizzle 12 1014 87 10000 4.1 230 23:39 14.09.2019
1926 Drizzle 12 1014 87 10000 4.1 230 23:21 14.09.2019
1927 Clouds 12 1015 87 10000 5.7 230 22:58 14.09.2019
1928 Drizzle 12 1016 81 10000 4.1 210 22:39 14.09.2019
1929 Drizzle 12 1016 81 10000 4.1 210 22:19 14.09.2019
1930 Rain 13 1017 66 10000 3.6 210 21:40 14.09.2019
1931 Rain 13 1017 66 10000 3.6 210 21:22 14.09.2019
1932 Clouds 13 1017 58 10000 2.6 220 20:59 14.09.2019
1933 Clouds 13 1017 62 10000 2.1 200 20:40 14.09.2019
1934 Clouds 13 1017 62 10000 2.1 200 20:22 14.09.2019
1935 Clouds 13 1018 54 10000 4.1 240 19:51 14.09.2019
1936 Clouds 14 1018 54 10000 4.1 240 19:23 14.09.2019
1937 Clouds 14 1018 54 10000 5.1 250 18:59 14.09.2019
1938 Clouds 14 1019 51 10000 4.6 260 18:40 14.09.2019
1939 Clouds 14 1019 51 10000 4.6 260 18:21 14.09.2019
1940 Clouds 15 1019 47 10000 6.2 250 17:57 14.09.2019
1941 Clear 15 1019 48 10000 4.6 260 17:39 14.09.2019
1942 Clear 15 1019 48 10000 4.6 260 17:20 14.09.2019
1943 Clear 15 1020 44 10000 6.7 260 16:43 14.09.2019
1944 Clear 16 1020 44 10000 6.7 260 16:21 14.09.2019
1945 Clear 15 1020 44 10000 7.2 250 15:43 14.09.2019
1946 Clear 15 1020 44 10000 7.2 250 15:24 14.09.2019
1947 Clear 15 1020 44 10000 7.7 270 14:59 14.09.2019
1948 Clear 15 1021 44 10000 6.2 250 14:40 14.09.2019
1949 Clear 15 1021 44 10000 6.2 250 14:18 14.09.2019
1950 Clear 15 1021 51 10000 6.2 240 13:47 14.09.2019
1951 Clear 15 1021 51 10000 6.2 240 13:47 14.09.2019
1952 Clear 15 1021 51 10000 6.2 240 13:22 14.09.2019
1953 Clear 15 1021 51 10000 6.2 240 13:22 14.09.2019
1954 Clear 14 1021 58 10000 5.7 250 12:48 14.09.2019
1955 Clear 14 1021 58 10000 5.7 250 12:26 14.09.2019
1956 Clear 13 1021 54 10000 4.6 280 11:42 14.09.2019
1957 Clear 13 1021 54 10000 4.6 280 11:42 14.09.2019
1958 Clear 13 1021 54 10000 4.6 280 11:21 14.09.2019
1959 Clear 12 1021 58 10000 5.1 280 10:57 14.09.2019
1960 Clear 12 1021 62 10000 6.2 290 10:36 14.09.2019
1961 Clear 12 1021 62 10000 6.2 290 10:18 14.09.2019
1962 Clear 11 1021 62 10000 6.2 290 09:56 14.09.2019
1963 Clear 12 1021 62 10000 5.1 280 09:37 14.09.2019
1964 Clear 11 1020 66 10000 5.1 280 09:18 14.09.2019
1965 Clear 10 1020 66 10000 6.2 280 08:41 14.09.2019
1966 Clear 10 1020 66 10000 6.2 280 08:23 14.09.2019
1967 Clear 9 1020 71 10000 4.1 270 07:44 14.09.2019
1968 Clear 9 1020 71 10000 4.1 270 07:44 14.09.2019
1969 Clear 9 1020 71 10000 4.1 270 07:26 14.09.2019
1970 Clear 9 1020 71 10000 5.7 270 06:38 14.09.2019
1971 Clear 9 1019 71 10000 4.6 260 05:57 14.09.2019
1972 Clear 10 1019 71 10000 3.6 250 04:44 14.09.2019
1973 Clear 10 1019 76 10000 3.1 230 03:33 14.09.2019
1974 Clear 10 1019 76 10000 2.6 240 02:51 14.09.2019
1975 Clear 11 1018 71 10000 2.6 250 01:46 14.09.2019
1976 Clear 11 1018 66 10000 3.6 260 01:21 14.09.2019
1977 Clear 11 1018 62 10000 4.6 260 00:55 14.09.2019
1978 Clear 12 1018 62 10000 4.6 260 00:36 14.09.2019
1979 Rain 12 1018 62 10000 4.1 260 00:18 14.09.2019
1980 Rain 12 1018 62 10000 4.1 260 00:18 14.09.2019
1981 Rain 12 1018 62 10000 3.1 250 23:37 13.09.2019
1982 Rain 11 1018 62 10000 3.1 250 23:18 13.09.2019
1983 Rain 12 1018 62 10000 3.1 250 22:56 13.09.2019
1984 Rain 12 1018 62 10000 3.1 250 22:56 13.09.2019
1985 Clear 12 1017 58 10000 4.1 260 22:37 13.09.2019
1986 Clear 12 1017 58 10000 4.1 260 22:37 13.09.2019
1987 Clear 12 1017 58 10000 4.1 260 22:19 13.09.2019
1988 Clear 13 1017 58 10000 3.6 260 21:40 13.09.2019
1989 Clear 13 1017 58 10000 3.6 260 21:19 13.09.2019
1990 Clear 13 1017 51 10000 4.1 260 20:58 13.09.2019
1991 Clear 13 1017 51 10000 5.1 260 20:38 13.09.2019
1992 Clear 13 1017 51 10000 5.1 260 20:20 13.09.2019
1993 Clear 14 1016 44 10000 6.2 270 19:55 13.09.2019
1994 Clear 15 1016 48 10000 5.7 270 19:37 13.09.2019
1995 Rain 15 1015 42 10000 6.7 270 19:18 13.09.2019
1996 Rain 15 1015 42 10000 6.7 270 19:18 13.09.2019
1997 Rain 16 1015 42 10000 7.7 280 18:38 13.09.2019
1998 Rain 16 1015 42 10000 7.7 280 18:20 13.09.2019
1999 Rain 16 1015 39 10000 7.7 280 17:58 13.09.2019
2000 Rain 16 1015 42 10000 7.7 290 17:37 13.09.2019
2001 Rain 16 1015 42 10000 7.7 290 17:18 13.09.2019
2002 Rain 16 1015 42 10000 7.7 290 17:18 13.09.2019
2003 Clouds 17 1014 51 10000 7.2 280 16:40 13.09.2019
2004 Clouds 17 1014 51 10000 7.2 280 16:20 13.09.2019
2005 Clouds 16 1014 55 10000 7.7 290 15:45 13.09.2019
2006 Rain 16 1013 51 10000 8.7 290 15:27 13.09.2019
2007 Clouds 15 1013 55 10000 7.7 290 14:57 13.09.2019
2008 Rain 16 1013 59 10000 7.7 280 14:38 13.09.2019
2009 Rain 16 1013 59 10000 7.7 280 14:19 13.09.2019
2010 Clouds 16 1012 63 10000 7.7 260 13:45 13.09.2019
2011 Clouds 16 1012 63 10000 7.7 260 13:22 13.09.2019
2012 Clouds 16 1012 63 10000 8.2 280 12:54 13.09.2019
2013 Clouds 16 1012 72 10000 6.7 280 12:36 13.09.2019
2014 Clouds 16 1011 72 10000 6.7 270 12:18 13.09.2019
2015 Clouds 16 1011 72 10000 6.7 270 11:54 13.09.2019
2016 Clouds 15 1011 67 10000 5.7 250 11:18 13.09.2019
2017 Clouds 15 1011 82 10000 5.1 260 10:37 13.09.2019
2018 Clouds 15 1011 82 10000 5.1 260 10:19 13.09.2019
2019 Clouds 14 1011 82 10000 5.7 240 09:44 13.09.2019
2020 Clouds 14 1011 82 10000 5.7 240 09:44 13.09.2019
2021 Clouds 14 1011 82 10000 5.7 240 09:23 13.09.2019
2022 Clouds 13 1011 87 10000 5.1 240 08:58 13.09.2019
2023 Clouds 13 1011 87 10000 5.1 230 08:40 13.09.2019
2024 Clouds 13 1011 87 10000 5.1 230 08:20 13.09.2019
2025 Clouds 13 1011 87 10000 5.1 230 08:20 13.09.2019
2026 Clear 13 1011 82 10000 4.1 240 07:44 13.09.2019
2027 Clear 13 1011 82 10000 4.1 240 07:26 13.09.2019
2028 Rain 13 1011 82 10000 5.7 230 06:41 13.09.2019
2029 Rain 13 1011 76 10000 4.6 230 05:43 13.09.2019
2030 Rain 13 1011 76 10000 5.1 230 04:51 13.09.2019
2031 Rain 14 1012 76 10000 5.7 220 03:38 13.09.2019
2032 Clouds 14 1012 72 10000 5.1 230 02:20 13.09.2019
2033 Clouds 15 1012 72 10000 4.6 230 01:42 13.09.2019
2034 Clouds 15 1012 72 10000 4.6 230 01:21 13.09.2019
2035 Clouds 15 1013 72 10000 5.1 230 00:37 13.09.2019
2036 Clouds 15 1013 72 10000 5.7 230 23:57 12.09.2019
2037 Clouds 15 1013 63 10000 5.7 240 23:35 12.09.2019
2038 Clouds 15 1013 63 10000 6.2 240 22:59 12.09.2019
2039 Clear 15 1013 67 10000 5.1 230 22:40 12.09.2019
2040 Clear 15 1013 67 10000 5.1 230 22:22 12.09.2019
2041 Clear 15 1013 63 10000 5.7 230 21:56 12.09.2019
2042 Clear 15 1013 63 10000 6.7 230 21:37 12.09.2019
2043 Clear 15 1013 63 10000 6.7 230 21:19 12.09.2019
2044 Clouds 16 1013 63 10000 5.1 240 20:55 12.09.2019
2045 Clouds 16 1013 63 10000 5.1 240 20:55 12.09.2019
2046 Clouds 16 1013 63 10000 5.1 240 20:55 12.09.2019
2047 Clear 16 1013 63 10000 5.1 240 20:36 12.09.2019
2048 Clear 16 1013 63 10000 5.1 240 20:18 12.09.2019
2049 Clouds 16 1013 63 10000 6.7 230 19:41 12.09.2019
2050 Clouds 16 1013 63 10000 6.7 230 19:41 12.09.2019
2051 Clear 17 1013 63 10000 6.2 230 19:20 12.09.2019
2052 Clear 17 1013 63 10000 6.2 230 18:58 12.09.2019
2053 Clear 17 1013 63 10000 6.2 230 18:58 12.09.2019
2054 Clear 17 1013 55 10000 6.7 250 18:37 12.09.2019
2055 Clear 17 1013 55 10000 6.7 250 18:18 12.09.2019
2056 Clear 18 1013 52 10000 6.7 250 17:41 12.09.2019
2057 Clear 18 1013 52 10000 6.7 250 17:22 12.09.2019
2058 Clear 18 1013 55 10000 7.7 250 16:58 12.09.2019
2059 Clear 18 1013 55 10000 7.7 250 16:58 12.09.2019
2060 Clear 18 1013 55 10000 7.7 250 16:58 12.09.2019
2061 Clear 18 1013 55 10000 7.7 250 16:58 12.09.2019
2062 Clear 18 1012 52 10000 7.7 250 16:40 12.09.2019
2063 Clear 18 1012 52 10000 7.7 250 16:20 12.09.2019
2064 Clear 19 1012 55 10000 7.7 240 15:42 12.09.2019
2065 Clear 19 1012 55 10000 7.7 240 15:42 12.09.2019
2066 Clear 19 1012 55 10000 7.7 240 15:42 12.09.2019
2067 Clear 19 1012 55 10000 7.7 240 15:24 12.09.2019
2068 Clear 19 1012 55 10000 9.3 250 14:55 12.09.2019
2069 Clouds 19 1012 55 10000 7.7 250 14:37 12.09.2019
2070 Clouds 18 1012 55 10000 7.7 250 14:19 12.09.2019
2071 Clouds 18 1012 59 10000 8.2 250 13:39 12.09.2019
2072 Clouds 18 1012 59 10000 8.2 250 13:20 12.09.2019
2073 Clouds 18 1012 59 10000 7.2 250 12:49 12.09.2019
2074 Clouds 18 1012 59 10000 7.2 250 12:49 12.09.2019
2075 Clouds 18 1012 59 10000 7.2 250 12:49 12.09.2019
2076 Clouds 17 1012 63 10000 8.2 240 12:19 12.09.2019
2077 Clouds 17 1011 67 10000 6.7 240 11:58 12.09.2019
2078 Clouds 17 1011 67 10000 6.7 240 11:58 12.09.2019
2079 Clouds 17 1011 72 10000 8.7 250 11:40 12.09.2019
2080 Clouds 17 1011 72 10000 8.7 250 11:21 12.09.2019
2081 Clouds 16 1011 72 10000 6.7 250 10:49 12.09.2019
2082 Clouds 16 1011 77 10000 7.2 240 10:28 12.09.2019
2083 Clouds 16 1010 77 10000 6.7 240 09:57 12.09.2019
2084 Clouds 15 1010 77 10000 6.7 240 09:39 12.09.2019
2085 Clouds 15 1010 77 10000 6.7 240 09:19 12.09.2019
2086 Clouds 15 1009 77 10000 5.1 220 08:44 12.09.2019
2087 Clouds 15 1009 77 10000 5.1 220 08:23 12.09.2019
2088 Rain 15 1009 77 10000 5.1 220 07:54 12.09.2019
2089 Rain 15 1009 77 10000 6.2 230 07:36 12.09.2019
2090 Clouds 15 1009 82 10000 5.1 210 07:18 12.09.2019
2091 Rain 14 1008 82 10000 5.1 210 06:44 12.09.2019
2092 Rain 14 1008 82 10000 5.1 200 05:59 12.09.2019
2093 Rain 14 1008 82 10000 4.6 200 05:39 12.09.2019
2094 Rain 14 1008 82 10000 4.6 200 04:47 12.09.2019
2095 Rain 14 1008 87 10000 5.7 200 03:46 12.09.2019
2096 Drizzle 14 1009 93 10000 5.1 180 01:43 12.09.2019
2097 Rain 14 1009 93 10000 5.1 180 01:24 12.09.2019
2098 Rain 14 1009 87 10000 6.2 180 00:48 12.09.2019
2099 Rain 15 1010 82 10000 7.2 180 00:29 12.09.2019
2100 Rain 16 1010 72 10000 6.7 190 23:44 11.09.2019
2101 Rain 16 1010 72 10000 6.7 190 23:25 11.09.2019
2102 Rain 16 1010 67 10000 6.2 180 22:58 11.09.2019
2103 Clear 16 1011 63 10000 4.6 180 22:38 11.09.2019
2104 Clear 16 1011 63 10000 4.6 180 22:20 11.09.2019
2105 Clear 15 1011 63 10000 4.6 190 21:59 11.09.2019
2106 Clear 15 1011 67 10000 3.6 180 21:41 11.09.2019
2107 Clear 15 1011 67 10000 3.6 180 21:22 11.09.2019
2108 Clear 15 1011 72 10000 3.1 180 20:56 11.09.2019
2109 Clear 15 1011 72 10000 2.1 180 20:37 11.09.2019
2110 Clear 15 1011 72 10000 2.1 180 20:18 11.09.2019
2111 Clear 15 1011 67 10000 3.1 200 19:56 11.09.2019
2112 Clear 15 1011 67 10000 3.6 220 19:37 11.09.2019
2113 Clear 15 1011 67 10000 3.6 220 19:37 11.09.2019
2114 Clouds 16 1011 63 10000 4.6 220 19:19 11.09.2019
2115 Clouds 16 1011 63 10000 4.1 230 18:43 11.09.2019
2116 Clouds 17 1011 63 10000 4.1 230 18:24 11.09.2019
2117 Clouds 17 1010 67 10000 5.7 240 17:59 11.09.2019
2118 Clouds 17 1010 72 10000 6.2 240 17:41 11.09.2019
2119 Clouds 17 1010 72 10000 6.2 240 17:21 11.09.2019
2120 Clouds 17 1010 77 10000 5.7 250 16:56 11.09.2019
2121 Clouds 17 1010 77 10000 5.7 250 16:56 11.09.2019
2122 Rain 17 1010 93 10000 3.6 240 16:37 11.09.2019
2123 Rain 16 1010 93 10000 3.6 240 16:19 11.09.2019
2124 Rain 17 1010 87 10000 5.7 260 15:46 11.09.2019
2125 Rain 17 1010 87 10000 5.7 260 15:46 11.09.2019
2126 Rain 18 1009 68 10000 5.1 230 15:23 11.09.2019
2127 Clouds 19 1009 72 10000 3.6 230 14:58 11.09.2019
2128 Clouds 19 1009 72 10000 4.6 230 14:38 11.09.2019
2129 Clouds 19 1009 72 10000 4.6 230 14:20 11.09.2019
2130 Clouds 18 1009 72 10000 5.7 210 13:57 11.09.2019
2131 Clouds 18 1009 77 10000 4.6 260 13:36 11.09.2019
2132 Clouds 18 1009 77 10000 4.6 260 13:18 11.09.2019
2133 Clouds 17 1008 82 10000 4.1 240 12:41 11.09.2019
2134 Clouds 17 1008 82 10000 4.1 240 12:21 11.09.2019
2135 Clouds 16 1008 93 10000 5.1 250 11:56 11.09.2019
2136 Clouds 16 1007 87 10000 5.1 260 11:37 11.09.2019
2137 Clouds 16 1007 87 10000 5.1 260 11:18 11.09.2019
2138 Drizzle 15 1007 100 6000 5.1 280 10:40 11.09.2019
2139 Rain 15 1007 100 6000 5.1 280 10:22 11.09.2019
2140 Rain 15 1007 93 6000 4.6 260 09:56 11.09.2019
2141 Rain 15 1006 93 10000 3.6 270 09:36 11.09.2019
2142 Rain 14 1006 100 10000 2.6 260 09:18 11.09.2019
2143 Rain 15 1006 93 10000 2.6 310 08:40 11.09.2019
2144 Rain 15 1006 93 10000 2.6 310 08:21 11.09.2019
2145 Rain 15 1006 100 10000 2.6 340 07:49 11.09.2019
2146 Rain 14 1006 100 10000 2.6 340 07:23 11.09.2019
2147 Drizzle 14 1006 100 10000 3.1 320 06:54 11.09.2019
2148 Rain 14 1006 93 10000 3.1 350 06:35 11.09.2019
2149 Rain 15 1006 100 9000 3.1 350 05:50 11.09.2019
2150 Rain 14 1006 100 9000 2.1 350 05:30 11.09.2019
2151 Rain 14 1007 100 8000 3.1 20 04:51 11.09.2019
2152 Rain 15 1008 93 3500 3.6 40 03:40 11.09.2019
2153 Rain 14 1009 100 10000 2.6 20 02:58 11.09.2019
2154 Rain 15 1009 93 10000 2.1 20 02:28 11.09.2019
2155 Rain 14 1010 93 10000 3.1 100 01:21 11.09.2019
2156 Rain 14 1010 93 10000 1.5 0 00:31 11.09.2019
2157 Mist 14 1011 93 10000 2.1 70 23:58 10.09.2019
2158 Clouds 15 1011 93 10000 2.1 70 23:39 10.09.2019
2159 Clouds 15 1011 93 10000 2.1 70 23:20 10.09.2019
2160 Clear 15 1011 82 10000 2.6 70 22:41 10.09.2019
2161 Clear 15 1011 82 10000 2.6 70 22:21 10.09.2019
2162 Clear 15 1012 82 10000 2.1 80 21:57 10.09.2019
2163 Clear 16 1012 82 10000 3.1 90 21:38 10.09.2019
2164 Clear 16 1012 82 10000 3.1 90 21:20 10.09.2019
2165 Clear 16 1012 82 10000 2.6 90 20:58 10.09.2019
2166 Clear 16 1012 82 10000 2.1 80 20:40 10.09.2019
2167 Clear 16 1012 82 10000 2.1 80 20:22 10.09.2019
2168 -273 0 0 0 0 0 19:57 10.09.2019
2169 Clear 17 1012 77 10000 4.6 120 19:38 10.09.2019
2170 Clear 17 1012 77 10000 4.6 120 19:19 10.09.2019
2171 Clear 18 1012 77 10000 4.6 120 18:58 10.09.2019
2172 Clear 18 1012 77 10000 5.1 130 18:39 10.09.2019
2173 Clear 18 1012 77 10000 5.1 130 18:21 10.09.2019
2174 Clear 18 1012 77 10000 4.6 130 17:54 10.09.2019
2175 Clear 19 1012 68 10000 6.2 130 17:36 10.09.2019
2176 Clear 19 1012 68 10000 6.2 130 17:36 10.09.2019
2177 Clear 19 1012 68 10000 6.2 130 17:18 10.09.2019
2178 Clear 19 1012 68 10000 6.7 130 16:55 10.09.2019
2179 Clear 19 1012 68 10000 6.7 130 16:55 10.09.2019
2180 Clear 19 1012 68 10000 6.7 130 16:55 10.09.2019
2181 Clear 19 1012 68 10000 6.2 130 16:36 10.09.2019
2182 Clear 19 1012 68 10000 6.2 130 16:18 10.09.2019
2183 Clear 19 1012 68 10000 6.2 130 16:18 10.09.2019
2184 Clear 20 1012 72 10000 6.7 110 15:42 10.09.2019
2185 Clear 20 1012 72 10000 6.7 110 15:21 10.09.2019
2186 Clear 21 1012 68 10000 5.1 90 14:43 10.09.2019
2187 Clear 21 1012 68 10000 5.1 90 14:43 10.09.2019
2188 Clear 22 1012 68 10000 5.1 90 14:25 10.09.2019
2189 Clear 22 1012 68 10000 6.2 100 13:59 10.09.2019
2190 Clear 22 1012 60 10000 6.2 110 13:40 10.09.2019
2191 Clear 22 1012 60 10000 6.2 110 13:40 10.09.2019
2192 Clear 22 1012 60 10000 6.2 110 13:22 10.09.2019
2193 Clear 22 1012 60 10000 6.2 110 13:22 10.09.2019
2194 Clear 22 1012 56 10000 5.1 90 12:49 10.09.2019
2195 Clear 22 1012 64 10000 4.1 70 12:27 10.09.2019
2196 Clear 21 1012 64 10000 4.1 90 11:57 10.09.2019
2197 Clear 21 1013 68 10000 4.6 80 11:39 10.09.2019
2198 Clear 20 1013 68 10000 3.6 90 11:20 10.09.2019
2199 Clear 20 1013 77 10000 3.1 80 10:42 10.09.2019
2200 Clear 19 1013 82 10000 3.6 80 10:19 10.09.2019
2201 Clear 19 1013 82 10000 3.6 80 09:57 10.09.2019
2202 Clear 18 1013 88 10000 3.1 80 09:39 10.09.2019
2203 Clear 18 1013 88 10000 3.1 80 09:19 10.09.2019
2204 Clear 17 1013 93 10000 3.1 70 08:45 10.09.2019
2205 Clear 17 1013 93 10000 3.1 70 08:27 10.09.2019
2206 Mist 16 1013 93 10000 3.1 80 07:46 10.09.2019
2207 Mist 16 1013 93 10000 3.1 80 07:27 10.09.2019
2208 Mist 15 1013 93 10000 3.1 70 06:56 10.09.2019
2209 Mist 15 1013 93 10000 3.6 80 06:36 10.09.2019
2210 Mist 16 1014 93 10000 3.6 70 05:48 10.09.2019
2211 Mist 15 1015 93 10000 3.1 50 03:58 10.09.2019
2212 Mist 15 1016 100 10000 4.1 70 02:24 10.09.2019
2213 Mist 15 1016 100 10000 4.1 70 02:24 10.09.2019
2214 Mist 15 1016 100 10000 2.6 60 01:59 10.09.2019
2215 Mist 15 1016 100 10000 2.6 60 01:59 10.09.2019
2216 Mist 15 1016 100 10000 2.6 60 01:59 10.09.2019
2217 Mist 15 1016 100 10000 2.6 60 01:41 10.09.2019
2218 Mist 15 1017 100 10000 3.1 60 01:21 10.09.2019
2219 Mist 15 1017 100 10000 3.1 60 01:21 10.09.2019
2220 Fog 15 1017 93 10000 1.5 40 00:28 10.09.2019
2221 Fog 15 1017 93 10000 2.6 70 23:48 09.09.2019
2222 Mist 15 1017 93 10000 3.6 110 23:20 09.09.2019
2223 Mist 15 1017 93 10000 3.6 110 23:20 09.09.2019
2224 Mist 15 1017 93 10000 3.6 110 22:57 09.09.2019
2225 Mist 15 1017 100 10000 2.1 100 22:39 09.09.2019
2226 Mist 15 1017 93 10000 2.6 90 22:21 09.09.2019
2227 Clouds 15 1017 93 10000 2.6 90 21:58 09.09.2019
2228 Clouds 15 1017 93 10000 3.1 110 21:40 09.09.2019
2229 Fog 15 1017 93 10000 2.1 100 21:20 09.09.2019
2230 Fog 15 1017 93 10000 2.1 100 20:57 09.09.2019
2231 Fog 15 1017 87 10000 1 110 20:37 09.09.2019
2232 Fog 16 1017 88 10000 2.1 140 20:19 09.09.2019
2233 Clear 16 1017 88 10000 2.1 140 19:58 09.09.2019
2234 Clear 16 1017 88 10000 2.1 140 19:39 09.09.2019
2235 Clouds 17 1017 88 10000 3.1 140 19:19 09.09.2019
2236 Clouds 17 1017 88 10000 3.1 140 18:58 09.09.2019
2237 Clouds 17 1016 88 10000 2.6 140 18:40 09.09.2019
2238 Clouds 18 1016 82 10000 2.6 160 18:21 09.09.2019
2239 Clouds 18 1016 82 10000 2.6 160 18:21 09.09.2019
2240 Clouds 18 1016 82 10000 2.6 160 17:58 09.09.2019
2241 Clouds 18 1016 82 10000 3.1 140 17:40 09.09.2019
2242 Clouds 18 1016 82 10000 3.1 140 17:21 09.09.2019
2243 Clouds 18 1016 82 10000 1 0 16:56 09.09.2019
2244 Rain 18 1016 88 10000 1 0 16:38 09.09.2019
2245 Clouds 18 1016 82 10000 2.1 210 16:19 09.09.2019
2246 Clouds 18 1016 82 10000 2.1 210 15:56 09.09.2019
2247 Clouds 18 1016 82 10000 2.1 210 15:56 09.09.2019
2248 Mist 18 1016 82 10000 2.1 190 15:37 09.09.2019
2249 Drizzle 18 1016 88 10000 1.5 220 15:18 09.09.2019
2250 Drizzle 18 1016 88 10000 1.5 220 14:55 09.09.2019
2251 Clouds 18 1016 88 10000 2.1 200 14:37 09.09.2019
2252 Clouds 18 1016 88 10000 2.1 200 14:37 09.09.2019
2253 Clouds 18 1016 88 10000 1.5 0 14:18 09.09.2019
2254 Clouds 17 1016 93 10000 2.1 210 13:44 09.09.2019
2255 Clouds 17 1016 93 10000 1.5 200 13:20 09.09.2019
2256 Clouds 17 1016 93 10000 1.5 200 12:57 09.09.2019
2257 Mist 17 1016 93 10000 1.5 0 12:38 09.09.2019
2258 Drizzle 17 1016 93 10000 1 0 12:19 09.09.2019
2259 Rain 17 1016 100 10000 2.25 181.78 11:46 09.09.2019
2260 Rain 17 1016 100 10000 2.25 181.78 11:22 09.09.2019
2261 Rain 17 1016 100 10000 2.25 181.78 11:22 09.09.2019
2262 Drizzle 17 1016 93 10000 1.5 170 10:58 09.09.2019
2263 Drizzle 16 1016 93 10000 0.5 0 10:39 09.09.2019
2264 Drizzle 16 1016 93 10000 2.25 181.78 10:20 09.09.2019
2265 Drizzle 16 1016 93 10000 2.25 181.78 09:56 09.09.2019
2266 Drizzle 16 1016 100 8000 0.5 0 09:37 09.09.2019
2267 Drizzle 15 1015 100 7000 2.1 350 09:18 09.09.2019
2268 Mist 15 1015 93 4200 3.6 340 08:38 09.09.2019
2269 Drizzle 15 1015 100 10000 2.6 340 08:19 09.09.2019
2270 Rain 15 1016 100 10000 2.1 330 07:45 09.09.2019
2271 Drizzle 15 1016 100 9000 2.1 350 07:22 09.09.2019
2272 Rain 15 1016 100 10000 2.1 340 06:56 09.09.2019
2273 Rain 15 1016 100 10000 2.1 340 06:31 09.09.2019
2274 Rain 14 1017 100 10000 2.6 20 04:54 09.09.2019
2275 Rain 14 1018 93 10000 3.6 20 02:43 09.09.2019
2276 Rain 14 1018 100 8000 3.6 20 02:19 09.09.2019
2277 Rain 14 1019 93 4700 4.1 20 00:39 09.09.2019
2278 Rain 14 1019 93 6000 3.6 30 00:21 09.09.2019
2279 Rain 14 1020 93 5000 3.6 30 23:44 08.09.2019
2280 Rain 14 1020 93 5000 3.6 30 23:23 08.09.2019
2281 Rain 14 1020 93 10000 3.1 20 22:55 08.09.2019
2282 Drizzle 14 1020 93 5000 3.6 30 22:36 08.09.2019
2283 Drizzle 14 1020 93 5000 3.6 30 22:36 08.09.2019
2284 Clouds 14 1021 93 10000 4.1 30 22:18 08.09.2019
2285 Clouds 14 1021 82 10000 3.6 40 21:41 08.09.2019
2286 Drizzle 14 1021 82 10000 5.1 50 21:22 08.09.2019
2287 Drizzle 14 1021 82 10000 5.1 50 20:57 08.09.2019
2288 Rain 14 1021 82 10000 4.6 40 20:38 08.09.2019
2289 Drizzle 14 1021 82 10000 3.6 50 20:20 08.09.2019
2290 Drizzle 15 1021 82 10000 3.6 50 19:57 08.09.2019
2291 Clouds 15 1021 82 10000 4.6 60 19:37 08.09.2019
2292 Clouds 15 1022 77 10000 5.1 60 19:19 08.09.2019
2293 Clouds 15 1022 77 10000 5.1 60 18:56 08.09.2019
2294 Clouds 15 1022 77 10000 5.1 60 18:37 08.09.2019
2295 Clouds 16 1022 77 10000 5.1 60 18:18 08.09.2019
2296 Clouds 16 1022 77 10000 5.1 60 17:54 08.09.2019
2297 Clouds 16 1022 72 10000 4.6 50 17:36 08.09.2019
2298 Clouds 16 1022 72 10000 5.1 70 17:18 08.09.2019
2299 Clouds 16 1022 72 10000 4.6 70 16:42 08.09.2019
2300 Rain 17 1022 67 10000 4.1 70 16:21 08.09.2019
2301 Rain 17 1022 67 10000 4.1 70 15:58 08.09.2019
2302 Clouds 17 1021 63 10000 4.1 80 15:40 08.09.2019
2303 Clouds 17 1021 63 10000 4.1 80 15:21 08.09.2019
2304 Clear 17 1022 59 10000 4.1 60 14:55 08.09.2019
2305 Clear 18 1022 55 10000 5.1 60 14:36 08.09.2019
2306 Rain 17 1022 68 10000 4.1 80 14:18 08.09.2019
2307 Rain 17 1022 68 10000 4.1 80 13:55 08.09.2019
2308 Clouds 17 1022 72 10000 3.6 90 13:36 08.09.2019
2309 Clouds 17 1022 77 10000 2.6 80 13:18 08.09.2019
2310 Clouds 18 1022 72 10000 2.1 90 12:41 08.09.2019
2311 Clouds 17 1022 72 10000 2.1 90 12:23 08.09.2019
2312 Clear 17 1022 82 10000 2.1 70 11:58 08.09.2019
2313 Clouds 17 1022 82 10000 1.5 60 11:38 08.09.2019
2314 Clouds 16 1022 87 10000 1.5 60 11:19 08.09.2019
2315 Clouds 16 1022 87 10000 1.5 60 10:55 08.09.2019
2316 Clouds 16 1022 93 10000 1.5 60 10:37 08.09.2019
2317 Clouds 15 1022 100 10000 1 0 10:18 08.09.2019
2318 Fog 14 1022 100 10000 0.5 0 09:38 08.09.2019
2319 Fog 13 1022 100 8000 0.5 0 09:20 08.09.2019
2320 Fog 13 1022 100 8000 0.5 0 08:56 08.09.2019
2321 Fog 12 1022 100 2900 1.93 55.676 08:37 08.09.2019
2322 Fog 11 1021 100 150 0.5 0 08:18 08.09.2019
2323 Fog 11 1021 100 700 1.93 55.676 07:39 08.09.2019
2324 Fog 10 1021 100 6000 1 320 07:20 08.09.2019
2325 Fog 10 1021 100 4200 0.5 300 06:47 08.09.2019
2326 Mist 10 1021 100 7000 1.5 0 06:18 08.09.2019
2327 Fog 10 1021 100 10000 1.78 47.363 05:36 08.09.2019
2328 Mist 10 1020 100 10000 1.78 47.363 03:53 08.09.2019
2329 -273 0 0 0 0 0 02:55 08.09.2019
2330 Clouds 10 1020 93 10000 0.75 13.276 02:26 08.09.2019
2331 Fog 10 1020 100 10000 0.75 13.276 01:39 08.09.2019
2332 Mist 10 1019 93 10000 0.88 6.577 01:18 08.09.2019
2333 Fog 11 1019 100 10000 0.88 6.577 00:42 08.09.2019
2334 Fog 11 1019 100 10000 1 110 00:23 08.09.2019
2335 Mist 12 1019 100 10000 1 160 23:38 07.09.2019
2336 Clouds 12 1019 93 10000 1 170 23:19 07.09.2019
2337 Clouds 12 1019 93 10000 1.5 180 22:57 07.09.2019
2338 Clouds 12 1019 93 10000 1.5 180 22:38 07.09.2019
2339 Clouds 12 1018 87 10000 2.1 160 22:19 07.09.2019
2340 Clouds 13 1018 82 10000 2.1 150 21:41 07.09.2019
2341 Rain 14 1018 82 10000 2.1 160 21:23 07.09.2019
2342 Rain 14 1018 82 10000 2.1 160 20:54 07.09.2019
2343 Rain 14 1018 87 10000 2.6 160 20:36 07.09.2019
2344 Rain 15 1017 82 10000 3.1 150 20:18 07.09.2019
2345 Rain 15 1017 82 10000 3.1 150 19:54 07.09.2019
2346 Rain 15 1017 72 10000 3.6 160 19:36 07.09.2019
2347 Rain 16 1017 67 10000 3.6 180 19:18 07.09.2019
2348 Rain 16 1017 72 10000 4.6 190 18:54 07.09.2019
2349 Rain 16 1017 72 10000 4.6 190 18:36 07.09.2019
2350 Rain 17 1016 59 10000 4.6 180 18:18 07.09.2019
2351 Clouds 17 1016 67 10000 4.6 190 17:41 07.09.2019
2352 Clouds 17 1016 63 10000 5.1 190 17:19 07.09.2019
2353 Clouds 17 1016 63 10000 5.1 190 16:59 07.09.2019
2354 Clouds 17 1016 63 10000 5.1 170 16:41 07.09.2019
2355 Clouds 17 1016 63 10000 3.6 190 16:20 07.09.2019
2356 Clouds 17 1015 63 10000 4.1 200 15:48 07.09.2019
2357 Clouds 17 1015 63 10000 4.1 200 15:26 07.09.2019
2358 Clouds 17 1015 63 10000 4.1 200 15:26 07.09.2019
2359 Clouds 17 1016 67 10000 5.1 180 14:58 07.09.2019
2360 Clouds 16 1015 77 10000 3.6 170 14:37 07.09.2019
2361 Clouds 16 1015 77 10000 5.1 150 14:19 07.09.2019
2362 Clouds 16 1015 77 10000 5.1 150 13:58 07.09.2019
2363 Rain 16 1015 82 10000 4.1 160 13:40 07.09.2019
2364 Rain 16 1015 82 10000 4.1 160 13:40 07.09.2019
2365 Clouds 15 1015 82 10000 6.7 150 13:22 07.09.2019
2366 Rain 15 1016 93 10000 3.6 190 12:45 07.09.2019
2367 Rain 15 1016 93 10000 3.6 190 12:26 07.09.2019
2368 Rain 15 1016 77 10000 6.7 160 11:58 07.09.2019
2369 Clouds 15 1016 72 10000 4.6 170 11:39 07.09.2019
2370 Clear 15 1016 77 10000 4.6 160 11:19 07.09.2019
2371 Clear 15 1016 76 10000 4.1 160 10:41 07.09.2019
2372 Clear 15 1016 76 10000 4.1 160 10:41 07.09.2019
2373 Rain 14 1016 76 10000 4.6 160 10:22 07.09.2019
2374 Clouds 14 1016 76 10000 4.6 160 09:56 07.09.2019
2375 Rain 14 1016 82 10000 4.6 170 09:38 07.09.2019
2376 Drizzle 13 1016 82 10000 3.6 180 09:20 07.09.2019
2377 Drizzle 13 1016 82 10000 3.6 180 09:20 07.09.2019
2378 Drizzle 13 1016 82 10000 3.6 170 08:44 07.09.2019
2379 Drizzle 13 1016 82 10000 3.6 170 08:26 07.09.2019
2380 Drizzle 13 1015 82 10000 3.1 180 07:47 07.09.2019
2381 Drizzle 13 1015 82 10000 3.1 180 07:28 07.09.2019
2382 Drizzle 13 1015 82 10000 3.6 180 06:52 07.09.2019
2383 Drizzle 13 1015 82 10000 4.1 170 06:20 07.09.2019
2384 Clouds 13 1015 82 10000 3.1 170 05:31 07.09.2019
2385 Clouds 13 1015 82 10000 2.6 150 04:23 07.09.2019
2386 Clouds 13 1015 81 10000 2.6 130 02:50 07.09.2019
2387 Clouds 12 1015 81 10000 2.1 150 02:20 07.09.2019
2388 Clouds 12 1015 81 10000 1.5 160 01:26 07.09.2019
2389 Clouds 13 1016 76 10000 1.5 160 00:42 07.09.2019
2390 Clouds 13 1016 76 10000 2.1 160 00:19 07.09.2019
2391 Clouds 13 1015 76 10000 2.1 160 23:41 06.09.2019
2392 Clouds 13 1015 76 10000 2.6 160 23:22 06.09.2019
2393 Clouds 13 1015 76 10000 2.6 160 22:58 06.09.2019
2394 Clear 13 1015 71 10000 2.1 160 22:38 06.09.2019
2395 Clouds 13 1015 67 10000 2.6 170 22:19 06.09.2019
2396 Clouds 13 1015 67 10000 2.6 170 21:58 06.09.2019
2397 Clouds 13 1015 67 10000 2.6 170 21:58 06.09.2019
2398 Clear 14 1015 67 10000 2.1 160 21:39 06.09.2019
2399 Clear 13 1015 67 10000 2.1 160 21:21 06.09.2019
2400 Clear 13 1015 67 10000 2.1 180 20:58 06.09.2019
2401 Clear 14 1015 67 10000 3.1 210 20:39 06.09.2019
2402 Clear 14 1015 67 10000 3.1 210 20:21 06.09.2019
2403 Clear 14 1015 62 10000 3.1 210 20:21 06.09.2019
2404 Clear 14 1015 62 10000 3.1 210 19:57 06.09.2019
2405 Clear 14 1015 62 10000 3.1 230 19:39 06.09.2019
2406 Clear 15 1015 62 10000 3.1 230 19:20 06.09.2019
2407 Clouds 15 1014 55 10000 4.6 230 18:46 06.09.2019
2408 Clouds 15 1014 55 10000 4.6 230 18:25 06.09.2019
2409 Clouds 16 1014 63 10000 3.6 250 17:59 06.09.2019
2410 Clouds 16 1014 63 10000 3.6 250 17:59 06.09.2019
2411 Clouds 16 1014 59 10000 4.1 260 17:38 06.09.2019
2412 Clouds 16 1014 51 10000 3.6 210 17:19 06.09.2019
2413 Clear 16 1014 45 10000 4.1 210 16:41 06.09.2019
2414 Clouds 17 1014 48 10000 4.1 230 16:19 06.09.2019
2415 Clouds 17 1013 48 10000 3.1 230 15:44 06.09.2019
2416 Clouds 17 1013 48 10000 3.1 230 15:26 06.09.2019
2417 Clear 17 1013 48 10000 3.6 240 14:59 06.09.2019
2418 Clear 17 1014 51 10000 4.6 270 14:39 06.09.2019
2419 Clear 16 1014 51 10000 4.6 250 14:18 06.09.2019
2420 Clear 16 1013 54 10000 4.1 270 13:43 06.09.2019
2421 Clear 16 1013 54 10000 4.1 270 13:22 06.09.2019
2422 Clear 15 1013 62 10000 4.1 240 12:39 06.09.2019
2423 Clear 15 1013 67 10000 5.1 270 12:21 06.09.2019
2424 Clear 15 1013 67 10000 5.1 270 11:57 06.09.2019
2425 Clear 14 1012 71 10000 5.1 250 11:39 06.09.2019
2426 Clear 14 1012 71 10000 5.1 250 11:39 06.09.2019
2427 Clear 14 1012 71 10000 5.1 270 11:20 06.09.2019
2428 Clear 13 1012 71 10000 3.6 260 10:42 06.09.2019
2429 Clear 13 1012 71 10000 3.6 260 10:22 06.09.2019
2430 Clear 12 1011 71 10000 5.1 270 09:58 06.09.2019
2431 Clear 12 1011 76 10000 4.1 270 09:37 06.09.2019
2432 Clear 11 1010 81 10000 4.6 290 09:19 06.09.2019
2433 Clear 11 1010 81 10000 4.1 280 08:44 06.09.2019
2434 Clear 10 1010 81 10000 4.1 280 08:26 06.09.2019
2435 Clear 10 1009 87 10000 2.1 260 07:51 06.09.2019
2436 Clear 10 1009 87 10000 2.1 260 07:28 06.09.2019
2437 Clear 9 1009 93 10000 3.1 260 06:59 06.09.2019
2438 Clear 9 1009 93 10000 3.1 260 06:33 06.09.2019
2439 Clear 10 1007 87 10000 3.1 270 05:45 06.09.2019
2440 Clear 11 1007 93 10000 2.1 230 04:55 06.09.2019
2441 Clear 11 1007 87 10000 1.5 230 04:25 06.09.2019
2442 Clouds 11 1006 93 10000 2.6 240 02:46 06.09.2019
2443 Clouds 11 1005 93 10000 2.6 210 00:58 06.09.2019
2444 Rain 11 1005 93 10000 2.1 200 00:22 06.09.2019
2445 Rain 12 1005 93 10000 2.1 200 23:41 05.09.2019
2446 Rain 12 1005 93 10000 2.1 200 23:22 05.09.2019
2447 Clear 12 1005 87 10000 3.6 210 22:46 05.09.2019
2448 Clear 13 1005 87 10000 3.6 210 22:26 05.09.2019
2449 Clear 12 1005 87 10000 3.6 210 21:57 05.09.2019
2450 Clear 13 1004 87 10000 3.1 210 21:39 05.09.2019
2451 Clear 13 1004 87 10000 3.1 210 21:39 05.09.2019
2452 Clear 13 1004 87 10000 2.1 180 21:20 05.09.2019
2453 Clear 13 1004 87 10000 2.1 180 20:58 05.09.2019
2454 Clouds 13 1004 87 10000 1.5 180 20:38 05.09.2019
2455 Drizzle 14 1004 87 10000 3.1 210 20:20 05.09.2019
2456 Rain 14 1004 87 10000 3.1 210 19:57 05.09.2019
2457 Drizzle 15 1004 87 10000 3.1 210 19:39 05.09.2019
2458 Rain 15 1004 76 10000 5.1 230 19:20 05.09.2019
2459 Rain 16 1003 55 10000 8.7 220 18:43 05.09.2019
2460 Rain 16 1003 55 10000 8.7 220 18:43 05.09.2019
2461 Drizzle 17 1004 63 10000 6.2 240 18:25 05.09.2019
2462 Drizzle 17 1004 63 10000 6.2 240 17:59 05.09.2019
2463 Clear 18 1003 45 10000 4.1 220 17:39 05.09.2019
2464 Clear 18 1003 48 10000 4.6 220 17:21 05.09.2019
2465 Clear 18 1003 48 10000 4.6 220 16:57 05.09.2019
2466 Clear 18 1003 45 10000 6.2 230 16:39 05.09.2019
2467 Clear 18 1003 48 10000 5.7 220 16:18 05.09.2019
2468 Clouds 19 1003 52 10000 5.7 230 15:40 05.09.2019
2469 Clouds 19 1003 52 10000 5.7 230 15:40 05.09.2019
2470 Clouds 18 1003 48 10000 5.7 220 15:19 05.09.2019
2471 Clouds 18 1003 48 10000 5.7 220 15:19 05.09.2019
2472 Clouds 18 1003 48 10000 5.7 220 14:57 05.09.2019
2473 Clouds 18 1003 48 10000 5.7 220 14:57 05.09.2019
2474 Clouds 19 1003 55 10000 5.7 220 14:38 05.09.2019
2475 Clouds 18 1002 55 10000 5.7 230 14:18 05.09.2019
2476 Clouds 18 1002 59 10000 5.1 230 13:43 05.09.2019
2477 Clouds 17 1002 63 10000 5.7 220 13:20 05.09.2019
2478 Clouds 17 1002 72 10000 4.6 220 12:45 05.09.2019
2479 Clouds 17 1002 72 10000 4.6 220 12:26 05.09.2019
2480 Clouds 17 1002 72 10000 4.6 220 12:26 05.09.2019
2481 Clouds 17 1002 82 10000 4.1 200 11:58 05.09.2019
2482 Clouds 17 1002 77 10000 4.1 210 11:39 05.09.2019
2483 Clouds 17 1002 87 10000 4.6 210 11:18 05.09.2019
2484 Clouds 17 1002 87 10000 3.6 220 10:42 05.09.2019
2485 Clouds 16 1002 93 10000 3.1 220 10:22 05.09.2019
2486 Clouds 16 1002 93 10000 3.1 220 09:58 05.09.2019
2487 Clouds 15 1002 93 10000 3.6 220 09:39 05.09.2019
2488 Clouds 15 1001 93 10000 3.6 190 09:18 05.09.2019
2489 Clouds 15 1001 93 10000 3.6 190 09:18 05.09.2019
2490 Clouds 15 1001 93 10000 3.6 190 09:18 05.09.2019
2491 Clouds 15 1001 93 10000 3.6 190 09:18 05.09.2019
2492 Clouds 15 1001 93 10000 2.1 180 08:45 05.09.2019
2493 Clouds 15 1001 93 10000 2.1 180 08:26 05.09.2019
2494 Drizzle 15 1002 93 10000 3.6 220 07:46 05.09.2019
2495 Rain 15 1002 93 10000 3.6 220 07:27 05.09.2019
2496 Rain 15 1002 93 10000 3.6 220 06:57 05.09.2019
2497 Rain 15 1002 100 10000 2.1 170 06:31 05.09.2019
2498 Rain 15 1002 77 10000 5.1 160 05:50 05.09.2019
2499 Rain 15 1002 77 10000 5.1 160 05:30 05.09.2019
2500 Rain 16 1003 77 10000 4.6 180 04:50 05.09.2019
2501 Rain 16 1003 77 10000 4.6 180 04:25 05.09.2019
2502 Rain 16 1004 77 10000 4.6 170 03:38 05.09.2019
2503 Rain 16 1005 82 10000 3.6 160 02:46 05.09.2019
2504 Rain 16 1005 82 10000 3.6 160 02:26 05.09.2019
2505 Rain 16 1006 87 10000 3.6 150 01:37 05.09.2019
2506 Rain 15 1007 93 10000 4.1 140 00:44 05.09.2019
2507 Clouds 15 1007 93 10000 4.1 140 00:21 05.09.2019
2508 Clouds 15 1007 93 10000 4.1 140 23:55 04.09.2019
2509 Clouds 14 1007 87 10000 4.6 130 23:36 04.09.2019
2510 Clouds 14 1008 87 10000 4.6 130 23:18 04.09.2019
2511 Clear 14 1008 82 10000 4.1 130 22:40 04.09.2019
2512 Drizzle 14 1009 82 10000 3.6 130 22:19 04.09.2019
2513 Drizzle 14 1009 76 10000 3.6 130 21:40 04.09.2019
2514 Clear 14 1010 76 10000 3.1 130 21:20 04.09.2019
2515 Clear 14 1010 76 10000 3.1 130 20:57 04.09.2019
2516 Clear 14 1010 76 10000 3.1 150 20:39 04.09.2019
2517 Clear 14 1010 76 10000 3.6 150 20:19 04.09.2019
2518 Clear 14 1010 76 10000 3.6 150 19:56 04.09.2019
2519 Clear 14 1010 76 10000 3.6 150 19:38 04.09.2019
2520 Clear 15 1010 72 10000 3.6 150 19:19 04.09.2019
2521 Clear 15 1010 72 10000 4.1 160 18:38 04.09.2019
2522 Clear 15 1010 63 10000 2.6 150 18:20 04.09.2019
2523 Clear 16 1011 63 10000 2.1 190 17:42 04.09.2019
2524 Clear 16 1011 63 10000 2.1 190 17:24 04.09.2019
2525 Clear 16 1011 59 10000 2.6 170 16:58 04.09.2019
2526 Clear 17 1011 59 10000 2.1 200 16:40 04.09.2019
2527 Clear 17 1011 59 10000 2.1 200 16:22 04.09.2019
2528 Clear 17 1012 59 10000 2.1 230 15:56 04.09.2019
2529 Clear 17 1012 59 10000 2.1 230 15:55 04.09.2019
2530 Clouds 16 1011 63 10000 2.1 190 15:37 04.09.2019
2531 Clouds 17 1011 63 10000 2.1 220 15:19 04.09.2019
2532 Clouds 16 1011 63 10000 2.1 220 14:55 04.09.2019
2533 Clouds 16 1012 63 10000 2.1 170 14:36 04.09.2019
2534 Clouds 16 1012 63 10000 2.1 190 14:18 04.09.2019
2535 Clouds 16 1012 67 10000 1 0 13:40 04.09.2019
2536 Clouds 15 1012 71 10000 1.5 290 13:21 04.09.2019
2537 Clouds 15 1012 71 10000 1.5 290 12:56 04.09.2019
2538 Clouds 15 1012 62 10000 2.1 300 12:37 04.09.2019
2539 Clouds 15 1012 62 10000 2.1 300 12:37 04.09.2019
2540 Clouds 15 1012 76 10000 2.6 330 12:18 04.09.2019
2541 Clouds 14 1012 76 10000 3.1 330 11:41 04.09.2019
2542 Clouds 13 1012 81 10000 3.6 290 11:21 04.09.2019
2543 Clouds 13 1012 81 10000 3.6 290 10:59 04.09.2019
2544 Clouds 13 1012 87 10000 4.1 310 10:40 04.09.2019
2545 Clouds 13 1011 87 10000 4.1 290 10:21 04.09.2019
2546 Clouds 13 1011 93 10000 4.1 290 09:46 04.09.2019
2547 Clouds 13 1011 87 10000 4.1 290 09:22 04.09.2019
2548 Clouds 13 1011 87 10000 4.1 290 08:58 04.09.2019
2549 Clouds 13 1010 82 10000 5.1 300 08:39 04.09.2019
2550 Clouds 13 1010 87 10000 4.1 290 08:19 04.09.2019
2551 Clouds 13 1010 87 10000 5.1 280 07:46 04.09.2019
2552 Clouds 13 1010 87 10000 5.1 280 07:28 04.09.2019
2553 Clouds 14 1009 87 10000 3.1 260 06:39 04.09.2019
2554 Clouds 14 1009 87 10000 3.1 230 04:57 04.09.2019
2555 Clouds 14 1009 87 10000 3.1 230 04:25 04.09.2019
2556 Clouds 13 1009 87 10000 3.1 220 03:45 04.09.2019
2557 Clouds 14 1009 87 10000 3.1 220 01:22 04.09.2019
2558 Clouds 14 1009 87 10000 2.6 210 00:50 04.09.2019
2559 Clouds 15 1009 87 10000 2.6 210 00:31 04.09.2019
2560 Clouds 15 1010 77 10000 3.6 210 23:54 03.09.2019
2561 Clouds 15 1010 77 10000 3.6 210 23:28 03.09.2019
2562 Clouds 16 1010 77 10000 3.6 200 22:58 03.09.2019
2563 Clouds 15 1010 77 10000 4.1 200 22:39 03.09.2019
2564 Clouds 16 1010 82 10000 2.6 160 22:21 03.09.2019
2565 Clouds 15 1010 82 10000 2.6 160 21:56 03.09.2019
2566 Rain 16 1010 82 10000 3.1 160 21:36 03.09.2019
2567 Rain 15 1010 77 10000 4.1 160 21:18 03.09.2019
2568 Rain 15 1011 77 10000 4.1 170 20:42 03.09.2019
2569 Rain 16 1011 77 10000 4.1 170 20:24 03.09.2019
2570 Rain 16 1011 72 10000 4.6 170 19:56 03.09.2019
2571 Rain 16 1011 72 10000 4.6 170 19:38 03.09.2019
2572 Clouds 16 1011 72 10000 4.1 180 19:18 03.09.2019
2573 Drizzle 16 1011 72 10000 3.6 170 18:44 03.09.2019
2574 Rain 16 1011 72 10000 4.6 170 18:26 03.09.2019
2575 Rain 16 1011 72 10000 4.6 170 17:59 03.09.2019
2576 Clouds 17 1012 63 10000 5.1 160 17:40 03.09.2019
2577 Clouds 17 1012 55 10000 6.2 170 17:19 03.09.2019
2578 Clouds 17 1012 55 10000 6.2 170 16:58 03.09.2019
2579 Clouds 18 1012 55 10000 5.7 180 16:38 03.09.2019
2580 Clouds 17 1012 55 10000 5.1 180 16:19 03.09.2019
2581 Clouds 18 1013 55 10000 5.1 170 15:40 03.09.2019
2582 Clouds 18 1013 55 10000 5.1 170 15:40 03.09.2019
2583 Clouds 18 1013 55 10000 4.6 180 15:21 03.09.2019
2584 Clouds 18 1013 55 10000 4.6 180 14:58 03.09.2019
2585 Clouds 18 1013 55 10000 4.1 170 14:40 03.09.2019
2586 Clouds 18 1013 55 10000 3.6 170 14:20 03.09.2019
2587 Clouds 18 1013 55 10000 3.6 170 14:20 03.09.2019
2588 Clouds 18 1013 55 10000 3.6 170 13:56 03.09.2019
2589 Clouds 18 1013 55 10000 3.6 170 13:56 03.09.2019
2590 Clouds 17 1014 52 10000 5.1 200 13:37 03.09.2019
2591 Clouds 17 1014 52 10000 5.1 200 13:19 03.09.2019
2592 Clouds 17 1014 51 10000 5.1 190 12:48 03.09.2019
2593 Clouds 17 1014 51 10000 5.1 190 12:30 03.09.2019
2594 Clouds 16 1014 55 10000 4.6 190 11:59 03.09.2019
2595 Clear 16 1014 55 10000 4.6 200 11:38 03.09.2019
2596 Clear 16 1015 63 10000 4.1 220 11:19 03.09.2019
2597 Clear 16 1015 63 10000 4.1 220 10:55 03.09.2019
2598 Clear 15 1015 67 10000 4.1 230 10:36 03.09.2019
2599 Clear 15 1015 76 10000 3.1 220 10:18 03.09.2019
2600 Clear 14 1015 76 10000 3.1 220 09:42 03.09.2019
2601 Clear 14 1014 76 10000 3.6 220 09:24 03.09.2019
2602 Clear 12 1014 81 10000 3.6 220 08:41 03.09.2019
2603 Clear 12 1014 81 10000 3.6 220 08:22 03.09.2019
2604 Clear 12 1014 81 10000 3.6 220 07:58 03.09.2019
2605 Clear 11 1014 87 10000 3.1 220 07:37 03.09.2019
2606 Clouds 11 1014 93 10000 2.1 220 07:19 03.09.2019
2607 Clouds 10 1014 93 10000 2.1 220 06:43 03.09.2019
2608 Clouds 11 1015 87 10000 2.1 190 04:41 03.09.2019
2609 Clouds 11 1014 81 10000 2.1 230 03:33 03.09.2019
2610 Clear 11 1014 81 10000 3.6 230 02:40 03.09.2019
2611 Clear 12 1014 76 10000 4.1 240 02:22 03.09.2019
2612 Clear 11 1014 76 10000 4.1 240 01:46 03.09.2019
2613 Clear 12 1014 76 10000 3.6 230 01:25 03.09.2019
2614 Clear 11 1014 76 10000 3.1 210 00:37 03.09.2019
2615 Clear 12 1013 71 10000 3.1 230 23:59 02.09.2019
2616 Clear 13 1013 71 10000 3.6 240 23:38 02.09.2019
2617 Clear 13 1013 67 10000 4.6 250 23:19 02.09.2019
2618 Clear 14 1013 67 10000 4.6 240 22:56 02.09.2019
2619 Clear 13 1013 67 10000 4.6 250 22:56 02.09.2019
2620 Clear 14 1013 67 10000 4.6 240 22:37 02.09.2019
2621 Clear 14 1012 62 10000 4.1 240 22:18 02.09.2019
2622 Clear 14 1012 62 10000 4.1 240 22:18 02.09.2019
2623 Clear 14 1012 62 10000 4.1 240 21:56 02.09.2019
2624 Clear 15 1012 59 10000 4.6 240 21:37 02.09.2019
2625 Clear 15 1012 59 10000 5.1 250 21:19 02.09.2019
2626 Clear 15 1011 55 10000 3.6 250 20:42 02.09.2019
2627 Clear 16 1011 55 10000 3.6 250 20:23 02.09.2019
2628 Clear 16 1011 55 10000 3.6 250 19:59 02.09.2019
2629 Clouds 16 1011 55 10000 4.1 270 19:41 02.09.2019
2630 Clear 16 1011 63 10000 4.6 260 19:22 02.09.2019
2631 Clear 17 1011 55 10000 4.6 260 18:57 02.09.2019
2632 Clear 18 1011 55 10000 4.6 260 18:37 02.09.2019
2633 Clear 18 1011 55 10000 4.6 260 18:37 02.09.2019
2634 Clear 18 1011 48 10000 4.6 230 18:18 02.09.2019
2635 Clear 18 1011 48 10000 4.6 230 17:54 02.09.2019
2636 Clear 18 1010 48 10000 5.1 220 17:54 02.09.2019
2637 Clear 18 1010 48 10000 5.1 220 17:36 02.09.2019
2638 Clear 19 1010 45 10000 6.2 240 17:18 02.09.2019
2639 Clear 19 1010 45 10000 6.2 240 17:18 02.09.2019
2640 Clouds 19 1010 52 10000 5.7 230 16:40 02.09.2019
2641 Clear 19 1010 48 10000 5.1 240 16:20 02.09.2019
2642 Clear 19 1010 48 10000 5.1 240 15:52 02.09.2019
2643 Clear 19 1010 48 10000 5.7 220 15:31 02.09.2019
2644 Clouds 19 1010 48 10000 5.1 240 14:59 02.09.2019
2645 Clear 19 1010 49 10000 5.1 240 14:41 02.09.2019
2646 Clear 19 1010 49 10000 5.1 240 14:22 02.09.2019
2647 Clear 19 1010 55 10000 5.7 250 13:59 02.09.2019
2648 Clouds 19 1010 59 10000 5.7 250 13:41 02.09.2019
2649 Clouds 18 1010 59 10000 5.7 250 13:22 02.09.2019
2650 Clear 18 1010 63 10000 4.6 230 12:45 02.09.2019
2651 Clear 17 1010 67 10000 5.7 260 12:26 02.09.2019
2652 Clear 17 1010 67 10000 5.7 260 11:59 02.09.2019
2653 Clouds 17 1010 72 10000 5.1 250 11:40 02.09.2019
2654 Clouds 17 1010 82 10000 4.1 250 11:21 02.09.2019
2655 Clouds 16 1010 82 10000 4.1 250 10:58 02.09.2019
2656 Clouds 16 1010 82 10000 4.1 250 10:39 02.09.2019
2657 Clouds 16 1010 82 10000 4.1 250 10:20 02.09.2019
2658 Clouds 15 1009 87 10000 3.6 250 09:57 02.09.2019
2659 Clouds 15 1009 87 10000 4.1 240 09:37 02.09.2019
2660 Clouds 15 1009 93 10000 3.1 240 09:18 02.09.2019
2661 Clouds 14 1009 93 10000 2.6 230 08:39 02.09.2019
2662 Clear 14 1009 87 10000 2.6 250 08:18 02.09.2019
2663 Clear 14 1009 87 10000 2.1 240 07:41 02.09.2019
2664 Clear 14 1008 93 10000 2.6 240 07:21 02.09.2019
2665 Clear 14 1009 87 10000 2.6 240 06:48 02.09.2019
2666 Clear 14 1009 87 10000 2.6 240 06:29 02.09.2019
2667 Clouds 14 1009 87 10000 3.1 260 05:49 02.09.2019
2668 Clouds 14 1009 82 10000 2.6 260 05:19 02.09.2019
2669 Clouds 14 1008 82 10000 2.1 280 04:21 02.09.2019
2670 Clouds 15 1008 82 10000 4.1 280 01:48 02.09.2019
2671 Rain 17 1008 77 10000 5.1 280 00:49 02.09.2019
2672 Rain 17 1008 77 10000 5.1 280 00:31 02.09.2019
2673 Rain 18 1008 93 10000 2.6 250 23:46 01.09.2019
2674 Rain 18 1008 93 10000 2.6 250 23:23 01.09.2019
2675 Rain 18 1007 93 10000 3.1 240 22:59 01.09.2019
2676 Mist 19 1007 100 7000 1.5 220 22:40 01.09.2019
2677 Mist 19 1007 100 9000 2.1 220 22:19 01.09.2019
2678 Mist 19 1007 100 9000 2.1 220 21:57 01.09.2019
2679 Drizzle 19 1007 100 8000 2.6 180 21:39 01.09.2019
2680 Rain 19 1007 94 10000 2.1 170 21:20 01.09.2019
2681 Rain 19 1007 94 10000 2.1 170 20:57 01.09.2019
2682 Rain 19 1007 94 10000 2.6 170 20:38 01.09.2019
2683 Rain 19 1007 94 10000 2.6 170 20:38 01.09.2019
2684 Rain 19 1007 94 10000 2.6 170 20:38 01.09.2019
2685 Rain 19 1007 94 10000 2.6 170 20:18 01.09.2019
2686 Rain 19 1007 94 10000 2.6 170 20:18 01.09.2019
2687 Rain 19 1007 94 10000 2.6 170 19:58 01.09.2019
2688 Rain 19 1007 94 10000 2.6 170 19:58 01.09.2019
2689 Rain 20 1006 94 10000 3.1 150 19:37 01.09.2019
2690 Rain 20 1006 83 10000 4.1 160 19:19 01.09.2019
2691 Rain 20 1007 83 10000 3.6 170 18:43 01.09.2019
2692 Rain 21 1007 83 10000 4.6 170 18:25 01.09.2019
2693 Clouds 21 1007 83 10000 3.6 160 17:56 01.09.2019
2694 Clouds 21 1007 83 10000 3.6 160 17:38 01.09.2019
2695 Rain 21 1007 83 10000 5.1 140 17:19 01.09.2019
2696 Rain 21 1007 83 10000 5.1 140 17:19 01.09.2019
2697 Rain 22 1007 73 10000 7.2 140 16:41 01.09.2019
2698 Clear 23 1007 69 10000 7.2 140 16:19 01.09.2019
2699 Clear 24 1007 65 10000 8.2 150 15:48 01.09.2019
2700 Clear 24 1007 65 10000 8.2 150 15:29 01.09.2019
2701 Clear 24 1007 61 10000 8.7 140 14:59 01.09.2019
2702 Clear 25 1007 65 10000 7.2 150 14:40 01.09.2019
2703 Clear 25 1008 65 10000 6.7 150 14:20 01.09.2019
2704 Clear 25 1008 65 10000 6.7 150 13:54 01.09.2019
2705 Clear 24 1008 65 10000 7.2 150 13:36 01.09.2019
2706 Clear 24 1008 65 10000 7.7 150 13:18 01.09.2019
2707 Clear 24 1008 69 10000 8.2 140 12:41 01.09.2019
2708 Clear 23 1008 73 10000 7.7 150 12:22 01.09.2019
2709 Rain 23 1009 73 10000 7.2 150 11:41 01.09.2019
2710 Rain 23 1009 73 10000 6.7 150 11:20 01.09.2019
2711 Rain 23 1009 73 10000 6.7 150 10:59 01.09.2019
2712 Rain 22 1009 78 10000 7.7 140 10:41 01.09.2019
2713 Rain 22 1009 78 10000 6.2 140 10:21 01.09.2019
2714 Rain 21 1010 83 10000 6.2 140 09:43 01.09.2019
2715 -273 0 0 0 0 0 09:25 01.09.2019
2716 Rain 20 1010 82 10000 5.1 130 08:44 01.09.2019
2717 Drizzle 20 1011 82 10000 4.6 140 08:24 01.09.2019
2718 Drizzle 19 1011 82 10000 4.6 140 07:51 01.09.2019
2719 Rain 19 1011 82 10000 5.1 140 07:33 01.09.2019
2720 Rain 18 1011 88 10000 5.1 130 06:47 01.09.2019
2721 Clouds 18 1011 88 10000 5.1 130 06:26 01.09.2019
2722 Clouds 18 1011 88 10000 5.1 140 05:56 01.09.2019
2723 Clouds 18 1011 88 10000 5.1 140 05:56 01.09.2019
2724 Clouds 18 1013 88 10000 4.6 140 04:32 01.09.2019
2725 Clouds 17 1013 88 10000 5.1 140 03:42 01.09.2019
2726 Clouds 17 1013 93 10000 4.1 140 02:58 01.09.2019
2727 Clouds 17 1014 88 10000 4.1 140 02:28 01.09.2019
2728 Clouds 18 1014 93 10000 3.1 140 01:50 01.09.2019
2729 Clouds 17 1015 93 10000 3.1 150 01:23 01.09.2019
2730 Clouds 17 1015 93 10000 3.1 150 00:46 01.09.2019
2731 Clouds 17 1015 88 10000 3.1 140 00:22 01.09.2019
2732 Clouds 18 1015 88 10000 3.1 150 23:54 31.08.2019
2733 Clouds 18 1015 88 10000 3.1 150 23:36 31.08.2019
2734 Clouds 18 1016 88 10000 3.1 150 23:18 31.08.2019
2735 Clouds 18 1016 88 10000 3.1 150 23:18 31.08.2019
2736 Clouds 18 1016 88 10000 3.1 150 22:43 31.08.2019
2737 Clouds 18 1016 88 10000 3.1 150 22:25 31.08.2019
2738 Clouds 18 1016 88 10000 3.1 150 21:57 31.08.2019
2739 Clouds 18 1016 82 10000 3.1 150 21:38 31.08.2019
2740 Clouds 19 1016 82 10000 3.1 150 21:19 31.08.2019
2741 Clouds 19 1016 77 10000 3.1 160 20:47 31.08.2019
2742 Clouds 19 1016 77 10000 3.1 160 20:28 31.08.2019
2743 Clouds 20 1016 77 10000 3.1 170 19:56 31.08.2019
2744 Clouds 20 1016 73 10000 4.1 190 19:38 31.08.2019
2745 Clouds 21 1016 73 10000 4.1 190 19:20 31.08.2019
2746 Clouds 21 1016 68 10000 4.1 180 18:40 31.08.2019
2747 Clouds 22 1017 64 10000 5.1 190 18:20 31.08.2019
2748 Clouds 22 1017 64 10000 5.1 190 17:57 31.08.2019
2749 Clear 23 1017 60 10000 5.1 170 17:37 31.08.2019
2750 Clouds 23 1017 60 10000 4.6 180 17:18 31.08.2019
2751 Clouds 22 1017 60 10000 4.6 180 16:57 31.08.2019
2752 Clouds 22 1017 64 10000 4.6 190 16:39 31.08.2019
2753 Clouds 22 1018 60 10000 4.1 210 16:20 31.08.2019
2754 Clouds 23 1018 60 10000 4.1 210 15:55 31.08.2019
2755 Clouds 23 1018 60 10000 4.1 190 15:36 31.08.2019
2756 Clouds 22 1018 56 10000 4.6 190 15:18 31.08.2019
2757 Clouds 22 1018 56 10000 4.1 200 14:41 31.08.2019
2758 Clouds 22 1018 56 10000 4.1 200 14:41 31.08.2019
2759 Clouds 22 1018 53 10000 4.1 190 14:22 31.08.2019
2760 Clouds 22 1018 56 10000 4.6 200 13:41 31.08.2019
2761 Clouds 22 1018 56 10000 3.6 210 13:23 31.08.2019
2762 Clouds 22 1018 56 10000 3.6 210 12:59 31.08.2019
2763 Clouds 22 1018 56 10000 3.6 210 12:59 31.08.2019
2764 Clouds 22 1019 60 10000 4.6 210 12:39 31.08.2019
2765 Clouds 21 1019 64 10000 4.1 200 12:20 31.08.2019
2766 Clouds 21 1019 64 10000 4.1 200 11:55 31.08.2019
2767 Clear 21 1019 64 10000 4.1 190 11:36 31.08.2019
2768 Clear 20 1019 68 10000 3.6 210 11:18 31.08.2019
2769 Clear 20 1019 72 10000 3.6 190 10:41 31.08.2019
2770 Clear 19 1019 72 10000 3.6 190 10:19 31.08.2019
2771 Clear 19 1019 72 10000 3.6 190 09:56 31.08.2019
2772 Clear 18 1019 77 10000 3.6 190 09:37 31.08.2019
2773 Clear 18 1019 77 10000 3.6 200 09:19 31.08.2019
2774 Clouds 17 1019 82 10000 2.6 200 08:42 31.08.2019
2775 Clouds 17 1019 82 10000 2.6 200 08:42 31.08.2019
2776 Clouds 16 1019 82 10000 2.6 200 08:23 31.08.2019
2777 Clouds 14 1019 93 10000 1.5 170 07:40 31.08.2019
2778 Clouds 14 1019 93 10000 1.5 170 07:22 31.08.2019
2779 Clouds 13 1019 93 10000 1 210 06:28 31.08.2019
2780 Clouds 13 1019 93 10000 1 210 05:59 31.08.2019
2781 Clouds 13 1019 93 10000 2.1 220 05:32 31.08.2019
2782 Clouds 14 1019 82 10000 2.1 220 04:34 31.08.2019
2783 Clouds 14 1019 77 10000 2.6 220 03:44 31.08.2019
2784 Clouds 14 1019 77 10000 2.1 210 02:36 31.08.2019
2785 Clouds 14 1019 77 10000 2.6 200 01:53 31.08.2019
2786 Clouds 14 1019 77 10000 2.6 200 01:33 31.08.2019
2787 Clouds 14 1019 82 10000 1.5 170 00:50 31.08.2019
2788 Clouds 14 1019 82 10000 1.5 170 00:30 31.08.2019
2789 Clouds 14 1019 87 10000 1.5 180 23:57 30.08.2019
2790 Clouds 15 1019 82 10000 1.5 170 23:38 30.08.2019
2791 Clouds 15 1019 82 10000 1.5 200 23:18 30.08.2019
2792 Clear 15 1019 77 10000 2.1 220 22:42 30.08.2019
2793 Clear 16 1019 72 10000 2.1 220 22:22 30.08.2019
2794 Clear 16 1019 72 10000 2.1 220 21:58 30.08.2019
2795 Clear 17 1019 67 10000 2.1 220 21:38 30.08.2019
2796 Clear 17 1019 63 10000 2.6 220 21:19 30.08.2019
2797 Clear 17 1019 63 10000 2.6 220 21:19 30.08.2019
2798 Clear 17 1019 63 10000 2.6 220 20:58 30.08.2019
2799 Clear 18 1019 63 10000 2.6 220 20:39 30.08.2019
2800 Clear 18 1019 59 10000 3.1 220 20:20 30.08.2019
2801 Clear 18 1019 59 10000 3.1 220 19:57 30.08.2019
2802 Clear 19 1019 59 10000 3.1 220 19:39 30.08.2019
2803 Clear 19 1019 59 10000 2.6 230 19:19 30.08.2019
2804 Clear 19 1019 56 10000 4.1 240 18:49 30.08.2019
2805 Clear 19 1019 56 10000 4.1 240 18:25 30.08.2019
2806 Clear 20 1019 56 10000 4.1 250 17:59 30.08.2019
2807 Clear 20 1019 56 10000 4.1 250 17:40 30.08.2019
2808 Clear 20 1019 52 10000 5.1 250 17:19 30.08.2019
2809 Clear 20 1019 52 10000 5.1 250 16:59 30.08.2019
2810 Clear 20 1019 60 10000 4.1 250 16:40 30.08.2019
2811 Clear 20 1019 60 10000 4.1 250 16:22 30.08.2019
2812 Clear 20 1019 60 10000 4.6 240 15:43 30.08.2019
2813 Clear 20 1018 60 10000 5.1 250 15:23 30.08.2019
2814 Clear 20 1018 60 10000 5.1 250 14:55 30.08.2019
2815 Clear 20 1018 56 10000 5.7 260 14:36 30.08.2019
2816 Clear 20 1018 56 10000 5.7 250 14:18 30.08.2019
2817 Clear 20 1018 60 10000 5.7 250 13:41 30.08.2019
2818 Clear 20 1018 64 10000 5.1 240 13:22 30.08.2019
2819 Clear 20 1018 68 10000 5.7 250 12:55 30.08.2019
2820 Clear 20 1018 68 10000 5.7 250 12:36 30.08.2019
2821 Clear 20 1018 68 10000 5.7 270 12:18 30.08.2019
2822 Clear 19 1018 72 10000 5.1 250 11:41 30.08.2019
2823 Clear 19 1018 72 10000 5.1 250 11:23 30.08.2019
2824 Clouds 18 1018 82 10000 5.7 250 10:39 30.08.2019
2825 Clouds 18 1017 82 10000 5.1 250 10:20 30.08.2019
2826 Clouds 17 1017 82 10000 5.1 250 09:57 30.08.2019
2827 Clouds 17 1017 87 10000 5.1 240 09:37 30.08.2019
2828 Clouds 17 1017 87 10000 5.1 250 09:18 30.08.2019
2829 Clouds 16 1017 93 10000 4.1 250 08:44 30.08.2019
2830 Clouds 16 1017 93 10000 4.1 250 08:44 30.08.2019
2831 Clouds 16 1017 93 10000 4.1 250 08:25 30.08.2019
2832 Clouds 16 1016 87 10000 3.6 240 07:57 30.08.2019
2833 Clouds 15 1016 93 10000 3.6 240 07:37 30.08.2019
2834 Clouds 15 1016 93 10000 3.6 240 07:37 30.08.2019
2835 Clouds 15 1016 93 10000 2.6 230 07:19 30.08.2019
2836 Clouds 15 1015 93 10000 2.1 230 06:40 30.08.2019
2837 Clouds 15 1015 100 10000 2.1 230 06:22 30.08.2019
2838 Clouds 15 1015 100 10000 3.1 230 05:40 30.08.2019
2839 Clouds 16 1015 93 10000 2.1 230 03:58 30.08.2019
2840 Clouds 16 1015 93 10000 2.6 240 03:37 30.08.2019
2841 Clouds 16 1014 93 10000 2.6 250 02:45 30.08.2019
2842 Clouds 17 1014 93 10000 2.6 250 02:45 30.08.2019
2843 Clouds 17 1014 93 10000 3.1 260 02:19 30.08.2019
2844 Clouds 18 1014 88 10000 3.1 260 00:58 30.08.2019
2845 Mist 18 1014 93 10000 3.6 240 00:26 30.08.2019
2846 Mist 19 1013 93 10000 3.6 240 23:56 29.08.2019
2847 Mist 19 1013 93 9000 1.5 230 23:37 29.08.2019
2848 Mist 19 1013 93 9000 1.5 0 23:19 29.08.2019
2849 Clear 19 1013 100 10000 1.5 0 22:42 29.08.2019
2850 Clear 19 1013 100 10000 1.5 0 22:23 29.08.2019
2851 Drizzle 19 1013 94 9000 1.5 280 22:23 29.08.2019
2852 Clouds 19 1013 94 10000 1.5 0 21:42 29.08.2019
2853 Clouds 19 1013 94 10000 1.5 0 21:22 29.08.2019
2854 Rain 20 1013 94 8000 2.1 160 20:59 29.08.2019
2855 Rain 20 1012 88 10000 3.6 150 20:41 29.08.2019
2856 Rain 20 1012 88 10000 3.6 150 20:20 29.08.2019
2857 Clouds 20 1012 88 10000 3.6 160 19:58 29.08.2019
2858 Clouds 20 1012 83 10000 3.1 150 19:39 29.08.2019
2859 Clouds 21 1012 83 10000 3.1 150 19:21 29.08.2019
2860 Clear 21 1012 83 10000 2.6 140 18:42 29.08.2019
2861 Rain 21 1012 83 10000 2.6 140 18:20 29.08.2019
2862 Clear 22 1012 83 10000 3.1 130 17:56 29.08.2019
2863 Rain 22 1012 83 10000 3.1 150 17:38 29.08.2019
2864 Rain 22 1012 83 10000 3.1 150 17:19 29.08.2019
2865 Clear 22 1012 78 10000 4.1 130 16:55 29.08.2019
2866 Clear 22 1013 83 10000 4.6 140 16:36 29.08.2019
2867 Clear 22 1013 83 10000 4.6 140 16:18 29.08.2019
2868 Clear 22 1013 88 10000 3.1 120 15:38 29.08.2019
2869 Clouds 22 1013 83 10000 4.6 140 15:20 29.08.2019
2870 Clouds 21 1013 88 10000 3.6 150 14:50 29.08.2019
2871 Clear 22 1013 83 10000 3.1 140 14:23 29.08.2019
2872 Clear 22 1013 83 10000 3.1 140 13:59 29.08.2019
2873 Clear 22 1013 83 10000 3.6 120 13:39 29.08.2019
2874 Clear 22 1013 83 10000 3.6 130 13:20 29.08.2019
2875 Clear 22 1013 83 10000 3.6 130 12:59 29.08.2019
2876 Clear 22 1013 83 10000 4.1 120 12:39 29.08.2019
2877 Clear 22 1013 88 10000 3.6 130 12:21 29.08.2019
2878 Clear 22 1013 88 10000 3.6 130 11:59 29.08.2019
2879 Clear 21 1013 88 10000 4.1 130 11:39 29.08.2019
2880 Clear 21 1013 88 10000 2.6 140 11:19 29.08.2019
2881 Clear 21 1013 88 10000 2.6 140 10:45 29.08.2019
2882 Clear 21 1014 94 10000 3.6 120 10:25 29.08.2019
2883 Clear 21 1014 94 10000 3.6 120 09:56 29.08.2019
2884 Clear 20 1014 88 10000 3.6 130 09:38 29.08.2019
2885 Clear 20 1014 93 10000 3.1 100 09:18 29.08.2019
2886 Rain 19 1014 93 10000 1.5 0 08:41 29.08.2019
2887 Rain 19 1014 93 10000 3.1 120 08:22 29.08.2019
2888 Clear 19 1014 93 10000 1.5 100 07:51 29.08.2019
2889 Clear 19 1014 93 10000 1.5 100 07:29 29.08.2019
2890 Clouds 18 1014 93 10000 2.6 120 06:54 29.08.2019
2891 Clouds 18 1014 93 10000 2.6 120 06:33 29.08.2019
2892 Rain 19 1015 93 10000 4.1 130 05:48 29.08.2019
2893 Clouds 19 1015 88 10000 2.6 130 04:51 29.08.2019
2894 Rain 19 1015 88 10000 2.6 130 04:30 29.08.2019
2895 Clouds 19 1016 88 10000 2.6 130 03:35 29.08.2019
2896 Clear 19 1016 88 10000 2.6 120 01:53 29.08.2019
2897 Rain 19 1016 88 10000 2.6 120 01:34 29.08.2019
2898 Rain 19 1016 88 10000 2.6 120 01:34 29.08.2019
2899 Rain 20 1016 82 10000 2.6 130 00:46 29.08.2019
2900 Clear 19 1016 82 10000 4.1 130 00:21 29.08.2019
2901 Clear 19 1016 82 10000 4.1 130 23:57 28.08.2019
2902 Clear 19 1016 88 10000 3.6 120 23:38 28.08.2019
2903 Clear 19 1016 82 10000 3.6 140 23:19 28.08.2019
2904 Clear 19 1017 82 10000 4.6 140 22:39 28.08.2019
2905 Clear 20 1017 82 10000 3.1 140 22:19 28.08.2019
2906 Clear 19 1017 82 10000 3.1 140 21:59 28.08.2019
2907 Clear 20 1017 77 10000 4.1 150 21:41 28.08.2019
2908 Clear 20 1017 68 10000 5.1 150 21:21 28.08.2019
2909 Clear 21 1017 68 10000 5.1 150 20:56 28.08.2019
2910 Clear 21 1017 68 10000 4.6 130 20:38 28.08.2019
2911 Clear 22 1017 60 10000 4.6 120 20:19 28.08.2019
2912 Clear 22 1017 60 10000 4.6 120 19:42 28.08.2019
2913 Clear 23 1017 57 10000 5.7 130 19:21 28.08.2019
2914 Clear 23 1017 57 10000 5.7 130 18:57 28.08.2019
2915 Clear 23 1017 57 10000 7.2 130 18:37 28.08.2019
2916 Clear 24 1018 57 10000 6.7 140 18:18 28.08.2019
2917 Clear 25 1018 53 10000 7.2 150 17:38 28.08.2019
2918 Clear 25 1018 50 10000 7.7 150 17:19 28.08.2019
2919 Clear 26 1018 54 10000 7.2 140 16:45 28.08.2019
2920 Clear 26 1019 47 10000 7.2 140 16:23 28.08.2019
2921 Clear 26 1019 47 10000 7.2 140 15:59 28.08.2019
2922 Clear 26 1019 47 10000 7.7 140 15:38 28.08.2019
2923 Clear 26 1019 47 10000 8.2 130 15:19 28.08.2019
2924 Clear 26 1019 47 10000 8.2 130 14:57 28.08.2019
2925 Clear 26 1019 50 10000 7.7 140 14:38 28.08.2019
2926 Clear 27 1020 51 10000 6.7 140 14:20 28.08.2019
2927 Clear 27 1020 51 10000 6.7 140 13:58 28.08.2019
2928 Clear 27 1020 51 10000 6.7 140 13:38 28.08.2019
2929 Clear 26 1020 57 10000 5.7 120 13:19 28.08.2019
2930 Clear 26 1020 57 10000 5.1 130 12:42 28.08.2019
2931 Clear 26 1020 57 10000 5.1 120 12:23 28.08.2019
2932 -273 0 0 0 0 0 11:56 28.08.2019
2933 Clear 25 1020 57 10000 5.1 120 11:56 28.08.2019
2934 Clear 25 1020 57 10000 5.1 120 11:37 28.08.2019
2935 Clear 24 1021 57 10000 3.6 110 11:18 28.08.2019
2936 Clear 24 1021 64 10000 2.6 110 10:41 28.08.2019
2937 Clear 22 1021 73 10000 2.6 130 10:22 28.08.2019
2938 Clear 22 1021 73 10000 2.6 130 09:59 28.08.2019
2939 Clear 21 1021 77 10000 2.6 120 09:41 28.08.2019
2940 Clear 20 1021 82 10000 2.6 120 09:19 28.08.2019
2941 Clear 19 1021 88 10000 2.1 0 08:39 28.08.2019
2942 Clear 19 1022 93 10000 1 100 08:20 28.08.2019
2943 Mist 17 1022 93 10000 1.5 100 07:43 28.08.2019
2944 Mist 16 1022 93 10000 1.5 100 07:24 28.08.2019
2945 Mist 15 1022 100 10000 1 90 06:56 28.08.2019
2946 Clear 16 1022 100 10000 1 100 06:37 28.08.2019
2947 Mist 15 1022 100 6000 1.85 147.617 05:44 28.08.2019
2948 Clear 16 1023 93 10000 1.5 130 03:32 28.08.2019
2949 Clear 17 1023 93 10000 2.6 130 01:37 28.08.2019
2950 Clear 17 1023 93 10000 2.6 130 01:18 28.08.2019
2951 Clear 17 1023 93 10000 2.1 140 00:41 28.08.2019
2952 Clear 18 1023 88 10000 2.1 140 23:59 27.08.2019
2953 Clear 18 1023 82 10000 1.5 150 23:40 27.08.2019
2954 Clear 18 1023 82 10000 1.5 150 23:40 27.08.2019
2955 Clear 18 1023 82 10000 1.5 150 23:21 27.08.2019
2956 Clear 18 1023 82 10000 2.1 130 22:54 27.08.2019
2957 Clear 18 1023 77 10000 2.1 130 22:36 27.08.2019
2958 Clear 18 1023 72 10000 2.6 140 22:18 27.08.2019
2959 Clear 19 1023 64 10000 2.6 140 21:54 27.08.2019
2960 Clear 19 1023 64 10000 2.6 140 21:36 27.08.2019
2961 Clear 20 1023 64 10000 2.6 150 21:18 27.08.2019
2962 Clear 20 1023 64 10000 3.1 140 20:41 27.08.2019
2963 Clear 21 1023 64 10000 3.1 140 20:21 27.08.2019
2964 Clear 21 1023 60 10000 2.6 150 19:58 27.08.2019
2965 Clear 22 1023 60 10000 2.6 150 19:39 27.08.2019
2966 Clear 23 1023 53 10000 3.6 160 19:21 27.08.2019
2967 Clear 24 1023 53 10000 4.6 150 18:43 27.08.2019
2968 Clear 25 1023 50 10000 4.6 160 18:19 27.08.2019
2969 Clear 25 1023 50 10000 4.6 160 17:59 27.08.2019
2970 Clear 25 1023 47 10000 5.1 200 17:41 27.08.2019
2971 Clear 26 1023 47 10000 5.1 200 17:22 27.08.2019
2972 Clear 26 1024 39 10000 5.1 200 16:47 27.08.2019
2973 Clear 26 1024 39 10000 5.1 200 16:28 27.08.2019
2974 Clear 26 1024 41 10000 4.6 210 15:58 27.08.2019
2975 Clear 26 1024 41 10000 4.1 230 15:39 27.08.2019
2976 Clear 26 1024 41 10000 4.1 230 15:21 27.08.2019
2977 Clear 26 1024 39 10000 4.6 200 14:55 27.08.2019
2978 Clear 26 1024 41 10000 4.6 200 14:37 27.08.2019
2979 Clear 26 1025 41 10000 4.1 200 14:18 27.08.2019
2980 Clear 25 1025 41 10000 4.6 200 13:41 27.08.2019
2981 Clear 25 1025 47 10000 4.6 200 13:21 27.08.2019
2982 Clear 25 1025 47 10000 3.6 200 12:42 27.08.2019
2983 Clear 25 1025 50 10000 3.1 210 12:21 27.08.2019
2984 Clear 24 1025 50 10000 3.1 210 11:57 27.08.2019
2985 Clear 24 1025 50 10000 3.6 190 11:37 27.08.2019
2986 Clear 23 1025 53 10000 2.6 200 11:19 27.08.2019
2987 Clear 23 1025 57 10000 2.1 200 10:41 27.08.2019
2988 Clear 22 1024 68 10000 1.5 170 10:20 27.08.2019
2989 Clear 21 1024 68 10000 1.5 170 09:56 27.08.2019
2990 Clear 20 1024 73 10000 1.5 0 09:37 27.08.2019
2991 Clear 20 1024 77 10000 1.5 0 09:19 27.08.2019
2992 Clear 18 1024 88 10000 1.5 140 08:45 27.08.2019
2993 Clear 18 1024 88 10000 1.5 140 08:24 27.08.2019
2994 Clear 17 1024 93 10000 1.5 0 07:55 27.08.2019
2995 Clear 16 1024 100 10000 1.8 188.618 07:36 27.08.2019
2996 Clear 16 1024 100 10000 1.8 188.618 07:36 27.08.2019
2997 Clear 15 1024 100 10000 1.8 188.618 07:18 27.08.2019
2998 Fog 14 1024 100 100 1.8 188.618 06:44 27.08.2019
2999 Fog 13 1024 100 3000 1.73 196.114 06:19 27.08.2019
3000 Fog 13 1024 100 3000 1.73 196.114 06:19 27.08.2019
3001 Mist 13 1024 100 5000 1.73 196.114 05:26 27.08.2019
3002 Clouds 14 1024 93 10000 1.73 196.114 03:43 27.08.2019
3003 Clouds 15 1024 93 10000 1.58 199.48 02:40 27.08.2019
3004 Clouds 14 1024 93 10000 1.58 199.48 01:46 27.08.2019
3005 Clouds 14 1024 93 10000 1.63 181.756 01:24 27.08.2019
3006 Clouds 15 1024 93 10000 1.63 181.756 00:49 27.08.2019
3007 Clouds 15 1024 93 10000 1.63 181.756 00:28 27.08.2019
3008 Clouds 16 1023 82 10000 1.5 130 23:40 26.08.2019
3009 Clouds 17 1023 82 10000 1 0 23:22 26.08.2019
3010 Clouds 16 1023 82 10000 1 0 22:58 26.08.2019
3011 Clear 18 1023 77 10000 1.5 0 22:37 26.08.2019
3012 Clear 18 1023 77 10000 1.5 0 22:18 26.08.2019
3013 Clear 18 1023 72 10000 1.5 170 21:39 26.08.2019
3014 Clear 19 1023 72 10000 2.1 180 21:21 26.08.2019
3015 Clear 19 1023 72 10000 1 160 20:58 26.08.2019
3016 Clear 19 1023 72 10000 1 160 20:58 26.08.2019
3017 Clear 20 1023 72 10000 1 160 20:39 26.08.2019
3018 Clear 21 1023 64 10000 1.5 170 20:19 26.08.2019
3019 Clear 22 1023 60 10000 2.1 190 19:56 26.08.2019
3020 Clear 23 1023 60 10000 2.1 210 19:38 26.08.2019
3021 Clear 24 1023 60 10000 2.1 210 19:18 26.08.2019
3022 Clear 25 1023 50 10000 3.1 200 18:39 26.08.2019
3023 Clear 25 1023 50 10000 3.1 200 18:20 26.08.2019
3024 Clear 25 1023 50 10000 3.1 200 18:20 26.08.2019
3025 Clear 25 1023 39 10000 3.6 280 17:56 26.08.2019
3026 Clear 26 1023 39 10000 3.6 270 17:38 26.08.2019
3027 Clear 25 1023 38 10000 5.7 250 17:18 26.08.2019
3028 Clear 26 1023 39 10000 4.1 280 16:56 26.08.2019
3029 Clear 26 1023 39 10000 3.6 260 16:38 26.08.2019
3030 Clear 26 1023 39 10000 3.6 260 16:38 26.08.2019
3031 Clear 26 1023 39 10000 3.6 260 16:18 26.08.2019
3032 Clear 26 1024 41 10000 5.1 260 15:42 26.08.2019
3033 Clear 26 1024 41 10000 5.1 260 15:21 26.08.2019
3034 Clear 25 1024 44 10000 5.1 260 14:56 26.08.2019
3035 Clear 25 1024 44 10000 4.6 260 14:37 26.08.2019
3036 Clear 25 1024 44 10000 4.6 260 14:18 26.08.2019
3037 Clear 25 1024 50 10000 5.7 260 13:40 26.08.2019
3038 Clear 25 1024 50 10000 5.1 260 13:21 26.08.2019
3039 Clear 24 1024 53 10000 4.6 260 12:43 26.08.2019
3040 Clear 24 1024 53 10000 4.6 260 12:25 26.08.2019
3041 Clear 23 1024 56 10000 3.6 240 11:56 26.08.2019
3042 Clear 23 1024 60 10000 4.1 250 11:37 26.08.2019
3043 Clear 23 1024 60 10000 4.1 250 11:18 26.08.2019
3044 Clear 22 1024 64 10000 3.6 250 10:44 26.08.2019
3045 Clear 21 1024 73 10000 3.1 260 10:22 26.08.2019
3046 Clear 21 1024 73 10000 3.1 260 10:22 26.08.2019
3047 Clear 21 1024 77 10000 2.6 250 09:57 26.08.2019
3048 Clear 20 1024 82 10000 2.1 270 09:39 26.08.2019
3049 Clear 19 1024 82 10000 2.1 270 09:19 26.08.2019
3050 Clear 18 1024 82 10000 1 0 08:42 26.08.2019
3051 Clear 17 1024 93 10000 2.16 272.841 08:24 26.08.2019
3052 Clear 17 1024 100 10000 2.16 272.841 07:59 26.08.2019
3053 Clear 16 1024 100 10000 2.16 272.841 07:41 26.08.2019
3054 Clear 15 1024 100 10000 2.16 272.841 07:22 26.08.2019
3055 Fog 15 1024 100 10000 0.5 0 06:45 26.08.2019
3056 Fog 14 1024 100 400 1.87 243.49 06:24 26.08.2019
3057 Fog 14 1024 100 100 1.87 243.49 05:49 26.08.2019
3058 Fog 14 1024 100 3600 1.87 243.49 04:31 26.08.2019
3059 Mist 15 1024 100 7000 1 150 02:56 26.08.2019
3060 Clouds 16 1024 100 10000 1 190 01:40 26.08.2019
3061 Clouds 16 1024 93 10000 0.5 0 01:21 26.08.2019
3062 Clouds 16 1024 93 10000 1.5 0 00:38 26.08.2019
3063 Clouds 16 1024 93 10000 1.5 0 00:19 26.08.2019
3064 Clouds 16 1024 93 10000 1.5 0 23:42 25.08.2019
3065 Clouds 17 1024 93 10000 1.5 0 23:19 25.08.2019
3066 Clouds 17 1024 93 10000 1.5 190 22:56 25.08.2019
3067 Clear 17 1024 82 10000 2.6 190 22:38 25.08.2019
3068 Clear 17 1024 82 10000 2.6 190 22:19 25.08.2019
3069 Clear 17 1024 82 10000 2.6 180 21:56 25.08.2019
3070 Clear 18 1024 82 10000 2.6 180 21:37 25.08.2019
3071 Clear 18 1024 82 10000 2.6 180 21:18 25.08.2019
3072 Clear 18 1024 77 10000 2.1 160 20:40 25.08.2019
3073 Clear 19 1024 77 10000 2.1 160 20:20 25.08.2019
3074 Clear 19 1024 72 10000 3.1 180 19:58 25.08.2019
3075 Clear 20 1024 68 10000 3.6 190 19:38 25.08.2019
3076 Clear 20 1024 68 10000 3.6 190 19:19 25.08.2019
3077 Clear 21 1024 64 10000 4.1 190 18:57 25.08.2019
3078 Clear 22 1024 64 10000 4.1 190 18:39 25.08.2019
3079 Clear 22 1024 64 10000 4.1 190 18:19 25.08.2019
3080 Clear 22 1024 64 10000 4.1 200 17:42 25.08.2019
3081 Clear 23 1024 64 10000 5.1 200 17:24 25.08.2019
3082 Clear 23 1025 64 10000 4.1 200 16:45 25.08.2019
3083 Clear 23 1025 60 10000 4.6 190 16:25 25.08.2019
3084 Clear 23 1025 64 10000 4.6 180 15:59 25.08.2019
3085 Clear 23 1025 64 10000 4.6 180 15:41 25.08.2019
3086 Clouds 23 1025 64 10000 4.6 180 15:23 25.08.2019
3087 Clouds 23 1025 60 10000 4.6 210 14:42 25.08.2019
3088 Clouds 23 1025 60 10000 4.6 210 14:24 25.08.2019
3089 Clouds 23 1025 60 10000 4.6 190 13:56 25.08.2019
3090 Clouds 22 1026 60 10000 4.1 170 13:37 25.08.2019
3091 Clouds 22 1026 60 10000 4.1 170 13:18 25.08.2019
3092 Clouds 21 1026 73 10000 3.6 170 12:41 25.08.2019
3093 Clouds 21 1026 73 10000 3.6 170 12:23 25.08.2019
3094 Clouds 20 1026 77 10000 4.1 150 11:57 25.08.2019
3095 Clouds 20 1026 82 10000 4.1 150 11:37 25.08.2019
3096 Clouds 19 1026 82 10000 4.1 150 11:19 25.08.2019
3097 Clouds 19 1027 88 10000 4.1 180 10:56 25.08.2019
3098 Clouds 19 1027 88 10000 3.6 160 10:37 25.08.2019
3099 Clouds 19 1027 88 10000 3.6 160 10:19 25.08.2019
3100 Clouds 18 1027 93 10000 3.6 180 09:42 25.08.2019
3101 Clouds 17 1027 93 10000 3.6 170 09:24 25.08.2019
3102 Clouds 17 1027 100 10000 2.6 160 08:47 25.08.2019
3103 Mist 16 1027 100 2800 3.1 160 08:29 25.08.2019
3104 Mist 16 1027 100 7000 2.6 140 07:54 25.08.2019
3105 Clouds 16 1027 100 1800 2.1 140 07:32 25.08.2019
3106 Fog 15 1027 100 650 2.1 140 06:39 25.08.2019
3107 Fog 15 1027 100 550 1.5 160 05:27 25.08.2019
3108 Fog 14 1027 100 900 1.5 150 03:45 25.08.2019
3109 Mist 14 1027 100 800 2.1 140 02:43 25.08.2019
3110 Clouds 14 1027 100 10000 2.1 130 01:54 25.08.2019
3111 Clear 14 1027 93 10000 1.5 140 00:55 25.08.2019
3112 Clear 14 1027 93 10000 1.5 120 00:24 25.08.2019
3113 Clear 14 1027 93 10000 1.5 130 23:58 24.08.2019
3114 Clear 15 1027 93 10000 1.5 140 23:40 24.08.2019
3115 Clear 15 1027 93 10000 1.5 140 23:22 24.08.2019
3116 Clear 15 1027 93 10000 2.1 130 22:54 24.08.2019
3117 Clear 15 1026 93 10000 2.6 120 22:36 24.08.2019
3118 Clear 15 1026 93 10000 2.6 120 22:18 24.08.2019
3119 Clear 15 1026 93 10000 1.5 140 21:42 24.08.2019
3120 Clear 15 1026 93 10000 1.5 140 21:42 24.08.2019
3121 Clear 15 1026 93 10000 1.5 140 21:42 24.08.2019
3122 Clouds 16 1026 88 10000 1.5 160 21:23 24.08.2019
3123 Clouds 17 1026 82 10000 1.5 150 20:58 24.08.2019
3124 Clouds 17 1026 82 10000 1.5 150 20:40 24.08.2019
3125 Clouds 18 1026 77 10000 2.1 140 20:20 24.08.2019
3126 Clouds 18 1026 68 10000 0.5 150 19:58 24.08.2019
3127 Clouds 19 1026 60 10000 2.52 130.946 19:39 24.08.2019
3128 Clouds 20 1026 60 10000 2.52 130.946 19:21 24.08.2019
3129 Clouds 21 1026 60 10000 1 0 18:46 24.08.2019
3130 Clouds 21 1026 60 10000 1 0 18:25 24.08.2019
3131 Clouds 22 1026 56 10000 1.5 0 17:57 24.08.2019
3132 Clouds 22 1026 64 10000 1.5 0 17:39 24.08.2019
3133 Clouds 22 1026 64 10000 1.5 0 17:21 24.08.2019
3134 Clouds 22 1026 68 10000 1.5 210 16:40 24.08.2019
3135 Clouds 21 1026 68 10000 1.5 210 16:19 24.08.2019
3136 Clouds 21 1026 68 10000 1.5 0 15:44 24.08.2019
3137 Clouds 21 1026 68 10000 1.5 230 15:26 24.08.2019
3138 Clouds 21 1026 77 10000 2.1 270 14:59 24.08.2019
3139 Clouds 20 1026 77 10000 2.1 270 14:40 24.08.2019
3140 Clouds 20 1026 72 10000 2.1 300 14:18 24.08.2019
3141 Clouds 20 1026 77 10000 1.5 260 13:54 24.08.2019
3142 Clouds 20 1025 77 10000 2.1 240 13:36 24.08.2019
3143 Clouds 20 1025 77 10000 2.1 240 13:18 24.08.2019
3144 Clouds 19 1025 82 10000 1.5 0 12:41 24.08.2019
3145 Clouds 19 1025 82 10000 1.5 0 12:22 24.08.2019
3146 Clouds 19 1025 82 10000 1.5 250 11:54 24.08.2019
3147 Clouds 19 1025 82 10000 2.1 230 11:36 24.08.2019
3148 Clouds 18 1025 82 10000 2.1 230 11:18 24.08.2019
3149 Clouds 18 1025 88 10000 1 0 10:40 24.08.2019
3150 Clouds 17 1024 88 10000 1.5 240 10:21 24.08.2019
3151 Clouds 17 1024 88 10000 1.5 270 09:43 24.08.2019
3152 Clouds 16 1024 93 10000 2.6 270 09:19 24.08.2019
3153 Clouds 16 1024 93 10000 3.1 290 08:43 24.08.2019
3154 Clouds 16 1023 93 10000 3.1 270 08:25 24.08.2019
3155 Mist 16 1023 93 10000 3.6 270 07:53 24.08.2019
3156 Mist 15 1023 100 10000 3.6 270 07:31 24.08.2019
3157 Fog 15 1023 100 10000 2.6 280 06:53 24.08.2019
3158 Fog 15 1023 100 10000 1.5 250 06:23 24.08.2019
3159 Mist 14 1022 100 9000 1.5 230 05:39 24.08.2019
3160 Mist 14 1021 93 10000 2.6 250 03:50 24.08.2019
3161 Clouds 15 1021 93 10000 2.1 240 03:31 24.08.2019
3162 Clouds 15 1020 100 10000 2.6 260 02:23 24.08.2019
3163 Clouds 15 1020 93 10000 3.6 270 01:29 24.08.2019
3164 Clouds 15 1020 100 10000 3.1 260 00:49 24.08.2019
3165 Clouds 15 1020 93 10000 2.6 250 00:24 24.08.2019
3166 Clouds 16 1020 93 10000 3.1 260 23:47 23.08.2019
3167 Clouds 16 1019 93 10000 4.1 260 23:23 23.08.2019
3168 Clouds 16 1019 93 10000 3.6 250 22:58 23.08.2019
3169 Clear 16 1019 88 10000 4.6 260 22:40 23.08.2019
3170 Clear 16 1019 88 10000 4.6 260 22:20 23.08.2019
3171 Clouds 16 1018 93 10000 4.6 260 21:37 23.08.2019
3172 Clouds 17 1018 93 10000 4.6 260 21:19 23.08.2019
3173 Clouds 17 1018 93 10000 6.2 250 20:53 23.08.2019
3174 Rain 17 1017 88 10000 6.2 240 20:35 23.08.2019
3175 Rain 17 1017 93 10000 4.1 230 19:54 23.08.2019
3176 Rain 17 1017 93 10000 4.1 230 19:54 23.08.2019
3177 Clouds 18 1017 93 10000 3.6 240 19:36 23.08.2019
3178 Clouds 18 1017 93 10000 3.6 240 19:18 23.08.2019
3179 Clouds 18 1017 93 10000 3.6 240 19:18 23.08.2019
3180 Clouds 18 1017 93 10000 4.6 230 18:42 23.08.2019
3181 Clouds 18 1017 93 10000 4.6 230 18:24 23.08.2019
3182 Clouds 17 1017 93 10000 4.6 220 17:46 23.08.2019
3183 Rain 17 1017 100 8000 3.1 230 17:28 23.08.2019
3184 Rain 17 1017 93 10000 1.5 200 16:59 23.08.2019
3185 Rain 17 1017 93 7000 3.6 210 16:40 23.08.2019
3186 Rain 17 1017 93 7000 3.6 210 16:22 23.08.2019
3187 Rain 17 1018 93 10000 4.1 210 15:41 23.08.2019
3188 Rain 17 1018 93 10000 4.1 210 15:22 23.08.2019
3189 Rain 16 1018 100 10000 4.1 200 14:58 23.08.2019
3190 Rain 16 1018 93 10000 4.1 210 14:39 23.08.2019
3191 Rain 16 1018 93 10000 4.1 210 14:20 23.08.2019
3192 Rain 16 1018 93 10000 4.1 210 13:56 23.08.2019
3193 Rain 15 1018 93 10000 4.6 190 13:37 23.08.2019
3194 Rain 15 1018 93 10000 4.6 190 13:19 23.08.2019
3195 Rain 15 1019 100 8000 3.6 160 12:42 23.08.2019
3196 Rain 15 1019 100 8000 3.6 160 12:24 23.08.2019
3197 Rain 15 1019 100 6000 4.1 180 11:59 23.08.2019
3198 Rain 15 1019 100 6000 4.1 180 11:40 23.08.2019
3199 Rain 15 1019 87 9000 3.1 170 11:20 23.08.2019
3200 Rain 16 1019 82 10000 4.1 200 10:57 23.08.2019
3201 Rain 16 1019 82 10000 4.1 200 10:39 23.08.2019
3202 Rain 17 1019 72 10000 4.1 200 10:20 23.08.2019
3203 Clear 17 1019 72 10000 4.1 190 09:44 23.08.2019
3204 Clear 16 1019 77 10000 3.1 190 09:25 23.08.2019
3205 Clear 16 1020 77 10000 3.1 190 08:57 23.08.2019
3206 Clear 16 1020 77 10000 2.6 180 08:37 23.08.2019
3207 Clear 15 1020 77 10000 2.6 180 08:18 23.08.2019
3208 Clear 15 1020 82 10000 2.6 190 07:41 23.08.2019
3209 Clear 15 1020 82 10000 2.6 180 07:23 23.08.2019
3210 Clear 14 1020 87 10000 2.1 170 06:43 23.08.2019
3211 Clouds 14 1020 87 10000 2.6 210 06:23 23.08.2019
3212 Clouds 13 1020 87 10000 2.1 180 05:46 23.08.2019
3213 Clouds 14 1020 87 10000 2.6 220 05:26 23.08.2019
3214 Clouds 14 1020 87 10000 2.6 200 03:59 23.08.2019
3215 Drizzle 15 1021 87 10000 3.6 190 02:39 23.08.2019
3216 Drizzle 15 1021 87 10000 3.6 190 02:21 23.08.2019
3217 Drizzle 15 1021 100 10000 1.5 190 01:36 23.08.2019
3218 Rain 15 1021 93 10000 1 0 00:43 23.08.2019
3219 Rain 15 1021 93 10000 2.96 181.394 00:18 23.08.2019
3220 Rain 15 1022 93 10000 1.5 0 23:43 22.08.2019
3221 Rain 15 1022 93 10000 1.5 320 23:22 22.08.2019
3222 Rain 15 1022 93 10000 1 280 22:44 22.08.2019
3223 Rain 15 1022 93 10000 1.5 0 22:24 22.08.2019
3224 Drizzle 15 1022 87 10000 1.5 0 21:59 22.08.2019
3225 Drizzle 15 1022 87 10000 1.5 0 21:59 22.08.2019
3226 Rain 16 1023 82 10000 2.6 210 21:41 22.08.2019
3227 Rain 16 1023 82 10000 2.6 210 21:23 22.08.2019
3228 Drizzle 16 1022 77 10000 2.1 210 20:59 22.08.2019
3229 Drizzle 16 1022 77 10000 2.1 210 20:59 22.08.2019
3230 Rain 17 1022 72 10000 2.6 190 20:40 22.08.2019
3231 Rain 17 1022 72 10000 2.6 190 20:20 22.08.2019
3232 Rain 17 1022 72 10000 3.6 190 19:58 22.08.2019
3233 Rain 18 1022 72 10000 3.6 180 19:39 22.08.2019
3234 Rain 18 1022 72 10000 3.6 180 19:21 22.08.2019
3235 Clear 18 1022 63 10000 3.6 180 18:58 22.08.2019
3236 Clear 18 1023 63 10000 4.1 180 18:40 22.08.2019
3237 Clear 18 1023 63 10000 4.1 180 18:20 22.08.2019
3238 Clear 18 1023 63 10000 4.1 180 18:20 22.08.2019
3239 Clear 19 1023 63 10000 4.1 180 17:57 22.08.2019
3240 Clear 19 1023 63 10000 4.1 180 17:38 22.08.2019
3241 Clear 19 1023 63 10000 5.1 180 17:19 22.08.2019
3242 Clear 19 1023 63 10000 5.1 180 16:56 22.08.2019
3243 Clear 19 1023 49 10000 4.6 230 16:37 22.08.2019
3244 Clear 19 1023 49 10000 4.6 230 16:19 22.08.2019
3245 Clear 19 1023 49 10000 4.6 230 16:19 22.08.2019
3246 Clear 20 1023 46 10000 4.1 220 15:42 22.08.2019
3247 Clear 20 1023 46 10000 4.1 220 15:42 22.08.2019
3248 Clear 20 1023 46 10000 4.1 220 15:42 22.08.2019
3249 Clouds 20 1023 52 10000 4.6 220 15:23 22.08.2019
3250 Clouds 20 1023 46 10000 4.6 200 14:58 22.08.2019
3251 Clouds 20 1023 46 10000 4.6 200 14:58 22.08.2019
3252 Clouds 20 1024 46 10000 5.1 230 14:40 22.08.2019
3253 Clouds 20 1024 46 10000 5.1 230 14:21 22.08.2019
3254 Clouds 20 1024 52 10000 4.6 230 13:57 22.08.2019
3255 Clouds 20 1024 59 10000 4.6 230 13:39 22.08.2019
3256 Clouds 19 1024 59 10000 4.6 230 13:19 22.08.2019
3257 Clouds 19 1024 59 10000 4.1 250 12:41 22.08.2019
3258 Clouds 19 1024 59 10000 4.1 250 12:23 22.08.2019
3259 Clear 18 1024 63 10000 4.1 220 11:58 22.08.2019
3260 Clouds 18 1024 67 10000 3.6 230 11:40 22.08.2019
3261 Clouds 18 1024 67 10000 3.6 230 11:20 22.08.2019
3262 Clouds 17 1024 72 10000 3.6 230 10:58 22.08.2019
3263 Clouds 17 1024 72 10000 4.1 240 10:38 22.08.2019
3264 Clouds 16 1024 72 10000 4.1 240 10:20 22.08.2019
3265 Clouds 16 1024 82 10000 3.1 220 09:56 22.08.2019
3266 Clouds 15 1024 82 10000 2.6 230 09:37 22.08.2019
3267 Clouds 15 1024 82 10000 2.6 230 09:19 22.08.2019
3268 Clouds 14 1024 82 10000 3.6 230 08:41 22.08.2019
3269 Clear 14 1024 82 10000 4.1 230 08:22 22.08.2019
3270 Clear 13 1024 87 10000 2.6 230 07:58 22.08.2019
3271 Clear 13 1024 87 10000 2.6 230 07:38 22.08.2019
3272 Clear 12 1024 87 10000 2.6 230 07:19 22.08.2019
3273 Clear 12 1023 93 10000 3.6 230 06:46 22.08.2019
3274 Clear 12 1023 93 10000 2.6 250 06:21 22.08.2019
3275 Clear 12 1023 87 10000 3.1 240 05:29 22.08.2019
3276 Clear 13 1022 82 10000 3.6 240 03:44 22.08.2019
3277 Clear 14 1022 77 10000 3.6 240 02:36 22.08.2019
3278 Clear 14 1022 76 10000 2.6 240 01:39 22.08.2019
3279 Clear 13 1022 82 10000 2.6 220 00:57 22.08.2019
3280 Clear 14 1021 76 10000 2.6 220 00:39 22.08.2019
3281 Clear 14 1021 76 10000 2.6 220 00:20 22.08.2019
3282 Clear 13 1021 82 10000 2.6 230 23:42 21.08.2019
3283 Clear 13 1021 87 10000 2.6 220 23:24 21.08.2019
3284 Clear 13 1021 93 10000 2.1 220 22:58 21.08.2019
3285 Clear 13 1021 87 10000 2.1 220 22:40 21.08.2019
3286 Clear 14 1021 87 10000 2.1 220 22:20 21.08.2019
3287 Clear 14 1020 87 10000 1.5 230 21:56 21.08.2019
3288 Clear 14 1020 82 10000 1.5 220 21:38 21.08.2019
3289 Clear 14 1020 82 10000 1.5 220 21:38 21.08.2019
3290 Clear 14 1020 82 10000 1.5 220 21:19 21.08.2019
3291 Clear 15 1020 77 10000 2.1 240 20:56 21.08.2019
3292 Clear 16 1020 67 10000 2.6 260 20:38 21.08.2019
3293 Clear 17 1020 67 10000 2.6 260 20:20 21.08.2019
3294 Clear 18 1020 68 10000 2.1 230 19:43 21.08.2019
3295 Rain 18 1020 63 10000 2.1 240 19:24 21.08.2019
3296 Rain 18 1020 77 10000 1.5 250 18:58 21.08.2019
3297 Rain 18 1020 72 10000 4.6 260 18:39 21.08.2019
3298 Rain 18 1020 72 10000 4.6 260 18:20 21.08.2019
3299 Rain 19 1020 59 10000 4.1 270 17:45 21.08.2019
3300 Clouds 19 1020 59 10000 3.1 250 17:23 21.08.2019
3301 Clouds 18 1020 55 10000 5.7 240 16:58 21.08.2019
3302 Clouds 18 1020 59 10000 5.1 250 16:40 21.08.2019
3303 Clouds 19 1020 56 10000 5.1 250 16:20 21.08.2019
3304 Clouds 19 1020 56 10000 5.1 250 15:58 21.08.2019
3305 Clouds 19 1020 59 10000 5.1 270 15:38 21.08.2019
3306 Clouds 19 1020 59 10000 5.1 270 15:19 21.08.2019
3307 Clouds 19 1020 59 10000 4.1 270 14:56 21.08.2019
3308 Clouds 20 1020 59 10000 3.6 250 14:38 21.08.2019
3309 Clouds 20 1020 59 10000 3.6 250 14:19 21.08.2019
3310 Clouds 19 1020 59 10000 4.1 270 13:43 21.08.2019
3311 Clouds 19 1020 59 10000 4.1 270 13:21 21.08.2019
3312 Clouds 19 1020 59 10000 4.1 240 12:58 21.08.2019
3313 Clouds 18 1020 63 10000 4.1 260 12:40 21.08.2019
3314 Clouds 19 1020 63 10000 4.1 260 12:20 21.08.2019
3315 Clouds 19 1020 63 10000 3.1 230 11:54 21.08.2019
3316 Clouds 18 1020 68 10000 4.6 250 11:36 21.08.2019
3317 Clouds 18 1020 68 10000 4.6 250 11:18 21.08.2019
3318 Clouds 18 1020 68 10000 4.6 250 11:18 21.08.2019
3319 Clouds 18 1020 68 10000 3.6 220 10:55 21.08.2019
3320 Clear 17 1021 72 10000 3.6 220 10:37 21.08.2019
3321 Clear 17 1021 72 10000 3.6 220 10:18 21.08.2019
3322 Clear 17 1021 82 10000 2.6 200 09:41 21.08.2019
3323 Clear 16 1021 82 10000 2.6 200 09:23 21.08.2019
3324 Clear 15 1021 87 10000 2.6 210 08:56 21.08.2019
3325 Clear 15 1021 87 10000 2.1 220 08:37 21.08.2019
3326 Clear 14 1021 87 10000 2.1 220 08:19 21.08.2019
3327 Clear 13 1020 100 10000 1.5 0 07:39 21.08.2019
3328 Clear 13 1020 100 10000 1.5 0 07:20 21.08.2019
3329 Clear 12 1020 100 10000 1 0 06:46 21.08.2019
3330 Clear 11 1020 100 10000 1 190 06:20 21.08.2019
3331 Clear 11 1020 93 10000 1.5 200 05:31 21.08.2019
3332 Clear 11 1020 100 10000 2.29 228.868 04:59 21.08.2019
3333 Clear 12 1019 100 10000 1.5 220 02:55 21.08.2019
3334 Clear 13 1018 93 10000 1.5 200 01:42 21.08.2019
3335 Clear 13 1018 100 10000 1.5 230 00:43 21.08.2019
3336 Clear 14 1018 100 10000 1.5 230 00:22 21.08.2019
3337 Clear 13 1018 93 10000 1.5 220 23:55 20.08.2019
3338 Clear 14 1018 93 10000 1.5 190 23:36 20.08.2019
3339 Clear 14 1018 93 10000 1.5 190 23:18 20.08.2019
3340 Clear 14 1018 87 10000 1.5 160 22:54 20.08.2019
3341 Clear 15 1018 87 10000 1 190 22:36 20.08.2019
3342 Clear 15 1018 87 10000 1 190 22:18 20.08.2019
3343 Clear 15 1018 82 10000 1.5 220 21:56 20.08.2019
3344 Rain 16 1018 77 10000 2.6 240 21:37 20.08.2019
3345 Rain 16 1018 77 10000 2.6 240 21:18 20.08.2019
3346 Rain 17 1017 72 10000 3.1 180 20:42 20.08.2019
3347 Rain 18 1017 68 10000 4.1 190 20:23 20.08.2019
3348 Rain 18 1017 63 10000 4.1 180 19:42 20.08.2019
3349 Rain 19 1017 68 10000 4.6 170 19:23 20.08.2019
3350 Rain 19 1017 68 10000 4.6 190 18:59 20.08.2019
3351 Clear 19 1016 64 10000 4.6 170 18:41 20.08.2019
3352 Clear 19 1016 64 10000 4.6 170 18:41 20.08.2019
3353 Clear 20 1016 64 10000 4.6 170 18:21 20.08.2019
3354 Clear 20 1016 64 10000 4.6 170 17:59 20.08.2019
3355 Clear 20 1016 60 10000 3.6 200 17:39 20.08.2019
3356 Clouds 20 1016 60 10000 4.1 190 17:20 20.08.2019
3357 Clouds 21 1016 60 10000 4.6 200 16:47 20.08.2019
3358 Clouds 21 1016 60 10000 4.6 200 16:28 20.08.2019
3359 Clouds 20 1016 60 10000 5.7 190 15:59 20.08.2019
3360 Clouds 21 1016 56 10000 4.1 200 15:40 20.08.2019
3361 Clouds 20 1016 52 10000 4.6 230 15:18 20.08.2019
3362 Clouds 20 1016 56 10000 5.1 230 14:44 20.08.2019
3363 Clouds 20 1016 49 10000 6.2 240 14:22 20.08.2019
3364 Clouds 20 1016 49 10000 6.2 240 13:59 20.08.2019
3365 Clouds 20 1015 56 10000 6.2 210 13:40 20.08.2019
3366 Clouds 19 1015 60 10000 5.7 210 13:21 20.08.2019
3367 Clouds 19 1016 63 10000 6.2 200 12:55 20.08.2019
3368 Clouds 19 1016 63 10000 6.2 200 12:36 20.08.2019
3369 Clouds 19 1015 72 10000 5.7 220 12:18 20.08.2019
3370 Clouds 18 1015 68 10000 4.6 220 11:42 20.08.2019
3371 Clouds 18 1015 68 10000 4.6 220 11:22 20.08.2019
3372 Clouds 18 1014 72 10000 6.2 230 10:58 20.08.2019
3373 Clouds 18 1015 72 10000 4.6 220 10:39 20.08.2019
3374 Clouds 17 1015 77 10000 5.1 200 10:21 20.08.2019
3375 Clouds 17 1015 77 10000 5.1 200 09:58 20.08.2019
3376 Clouds 17 1015 82 10000 5.1 210 09:40 20.08.2019
3377 Clouds 17 1015 82 10000 5.1 210 09:40 20.08.2019
3378 Clouds 17 1015 82 10000 4.1 210 09:21 20.08.2019
3379 Clouds 17 1015 82 10000 4.1 210 09:21 20.08.2019
3380 Clear 16 1014 82 10000 3.6 210 08:42 20.08.2019
3381 Clear 16 1014 82 10000 3.6 210 08:23 20.08.2019
3382 Clear 15 1014 87 10000 2.6 210 07:57 20.08.2019
3383 Clear 15 1014 87 10000 2.6 210 07:57 20.08.2019
3384 Clear 15 1014 87 10000 2.6 210 07:57 20.08.2019
3385 Clear 14 1014 87 10000 3.1 210 07:38 20.08.2019
3386 Clear 14 1014 87 10000 2.6 200 07:20 20.08.2019
3387 Clear 13 1014 93 10000 3.6 210 06:43 20.08.2019
3388 Clear 13 1013 93 10000 3.1 210 06:20 20.08.2019
3389 Clear 13 1013 93 10000 3.1 210 05:42 20.08.2019
3390 Clear 14 1013 87 10000 2.6 230 04:26 20.08.2019
3391 Clear 14 1012 87 10000 3.1 220 02:50 20.08.2019
3392 Clear 14 1012 100 10000 2.1 200 01:53 20.08.2019
3393 Clear 14 1011 100 10000 1.5 190 01:21 20.08.2019
3394 Clear 14 1011 100 10000 1.5 180 00:45 20.08.2019
3395 Clear 15 1011 93 10000 0.5 0 00:24 20.08.2019
3396 Clear 15 1011 87 10000 2.1 200 23:45 19.08.2019
3397 Clear 15 1011 87 10000 2.1 180 23:19 19.08.2019
3398 Clear 15 1011 87 10000 2.1 180 22:58 19.08.2019
3399 Clear 15 1010 82 10000 2.1 170 22:40 19.08.2019
3400 Clear 16 1010 82 10000 2.6 180 22:20 19.08.2019
3401 Clear 16 1010 82 10000 2.6 180 21:57 19.08.2019
3402 Clear 16 1010 82 10000 3.6 200 21:38 19.08.2019
3403 Rain 17 1010 82 10000 1.5 170 21:19 19.08.2019
3404 Rain 17 1010 82 10000 1.5 170 20:54 19.08.2019
3405 Rain 17 1010 87 10000 1 0 20:36 19.08.2019
3406 Rain 17 1010 77 10000 3.1 270 20:18 19.08.2019
3407 Rain 17 1010 77 10000 3.1 270 19:54 19.08.2019
3408 Rain 18 1010 77 10000 3.1 270 19:36 19.08.2019
3409 Rain 18 1010 77 10000 3.1 270 19:36 19.08.2019
3410 Rain 18 1009 59 10000 3.6 180 19:18 19.08.2019
3411 Rain 19 1009 60 10000 4.6 180 18:40 19.08.2019
3412 Rain 19 1009 60 10000 4.6 180 18:40 19.08.2019
3413 Clear 20 1009 46 10000 5.1 220 18:21 19.08.2019
3414 Clear 20 1009 46 10000 5.1 220 17:56 19.08.2019
3415 Clear 20 1009 49 10000 5.1 210 17:37 19.08.2019
3416 Clear 21 1008 49 10000 5.7 210 17:19 19.08.2019
3417 Clear 21 1008 49 10000 5.7 210 16:54 19.08.2019
3418 Clear 21 1008 49 10000 5.7 210 16:36 19.08.2019
3419 Clouds 21 1008 49 10000 5.1 220 16:18 19.08.2019
3420 Clouds 21 1008 49 10000 5.1 220 16:18 19.08.2019
3421 Clouds 20 1008 52 10000 5.1 230 15:43 19.08.2019
3422 Clouds 20 1008 52 10000 5.1 200 15:19 19.08.2019
3423 Clouds 20 1008 56 10000 5.1 240 14:44 19.08.2019
3424 Clouds 20 1007 60 10000 5.1 230 14:24 19.08.2019
3425 Clouds 19 1007 60 10000 5.7 230 13:58 19.08.2019
3426 Clouds 19 1007 60 10000 5.7 230 13:40 19.08.2019
3427 Clouds 19 1007 60 10000 6.2 240 13:20 19.08.2019
3428 Clouds 19 1007 60 10000 6.2 240 13:20 19.08.2019
3429 Clouds 19 1007 68 10000 5.1 240 12:58 19.08.2019
3430 Clouds 18 1006 68 10000 5.1 240 12:40 19.08.2019
3431 Clouds 18 1006 68 10000 5.1 240 12:20 19.08.2019
3432 Clouds 18 1006 72 10000 5.7 250 11:41 19.08.2019
3433 Clouds 18 1006 72 10000 5.7 250 11:23 19.08.2019
3434 Clouds 18 1006 77 10000 6.2 240 10:58 19.08.2019
3435 Clouds 17 1005 82 10000 5.7 240 10:39 19.08.2019
3436 Clouds 17 1005 82 10000 5.7 240 10:19 19.08.2019
3437 Clouds 16 1005 87 10000 5.1 240 09:54 19.08.2019
3438 Clouds 16 1004 87 10000 4.6 240 09:36 19.08.2019
3439 Clouds 16 1004 87 10000 4.6 240 09:18 19.08.2019
3440 Clouds 15 1004 93 10000 4.1 230 08:41 19.08.2019
3441 Clouds 15 1004 93 10000 4.1 230 08:20 19.08.2019
3442 Clouds 15 1003 93 10000 4.1 220 07:52 19.08.2019
3443 Clouds 14 1003 100 10000 3.1 220 07:32 19.08.2019
3444 Clouds 14 1003 93 10000 3.1 220 06:59 19.08.2019
3445 Clouds 14 1002 100 10000 2.6 220 06:36 19.08.2019
3446 Clouds 14 1002 100 10000 2.1 240 05:26 19.08.2019
3447 Drizzle 14 1001 100 10000 0.5 0 04:33 19.08.2019
3448 Rain 14 1001 100 8000 2.6 270 03:25 19.08.2019
3449 Rain 14 1001 100 8000 2.6 260 02:30 19.08.2019
3450 Rain 14 1001 100 2200 1 310 01:36 19.08.2019
3451 Rain 15 1001 100 10000 2.91 222.616 00:44 19.08.2019
3452 Rain 15 1002 93 7000 1 310 00:23 19.08.2019
3453 Rain 15 1003 100 5000 2.6 220 23:43 18.08.2019
3454 Rain 15 1003 100 5000 2.6 220 23:22 18.08.2019
3455 Rain 15 1003 93 5000 1.5 0 22:59 18.08.2019
3456 Rain 16 1003 93 4000 1 0 22:39 18.08.2019
3457 Rain 16 1003 93 4000 1 0 22:21 18.08.2019
3458 Rain 17 1003 93 7000 1.5 150 21:56 18.08.2019
3459 Rain 16 1003 100 10000 1 0 21:37 18.08.2019
3460 Rain 16 1003 100 10000 1 0 21:19 18.08.2019
3461 Rain 16 1004 93 10000 2.1 170 20:44 18.08.2019
3462 Rain 17 1004 82 10000 3.1 170 20:26 18.08.2019
3463 Rain 17 1004 82 10000 3.1 170 20:26 18.08.2019
3464 Clouds 17 1003 82 10000 3.1 170 19:56 18.08.2019
3465 Clear 17 1003 77 10000 3.1 170 19:38 18.08.2019
3466 Clear 17 1003 77 10000 3.1 170 19:19 18.08.2019
3467 Clouds 17 1003 77 10000 4.1 180 18:54 18.08.2019
3468 Rain 19 1003 77 10000 4.6 180 18:36 18.08.2019
3469 Rain 20 1003 77 10000 4.6 180 18:18 18.08.2019
3470 Clouds 20 1004 77 10000 5.1 150 17:42 18.08.2019
3471 Clouds 20 1004 77 10000 5.1 150 17:19 18.08.2019
3472 Clouds 20 1004 77 10000 5.1 150 16:58 18.08.2019
3473 Clouds 20 1003 77 10000 6.2 140 16:38 18.08.2019
3474 Clouds 20 1003 77 10000 6.2 140 16:20 18.08.2019
3475 Rain 20 1004 77 10000 5.7 130 15:57 18.08.2019
3476 Rain 20 1004 73 10000 5.1 140 15:38 18.08.2019
3477 Rain 21 1004 73 10000 5.1 140 15:20 18.08.2019
3478 Clouds 21 1004 73 10000 5.1 150 14:54 18.08.2019
3479 Clouds 21 1004 73 10000 5.7 150 14:36 18.08.2019
3480 Clouds 21 1004 73 10000 5.7 150 14:18 18.08.2019
3481 Clouds 21 1005 73 10000 3.6 140 13:42 18.08.2019
3482 Clouds 20 1005 73 10000 3.6 140 13:24 18.08.2019
3483 Clouds 20 1005 73 10000 2.6 160 12:58 18.08.2019
3484 Clouds 19 1005 77 10000 4.1 140 12:39 18.08.2019
3485 Clouds 19 1005 77 10000 4.1 140 12:21 18.08.2019
3486 Clouds 19 1005 77 10000 3.1 160 11:44 18.08.2019
3487 Rain 19 1005 77 10000 2.6 160 11:23 18.08.2019
3488 Rain 18 1006 88 10000 3.6 170 10:59 18.08.2019
3489 Rain 18 1005 88 10000 3.6 170 10:40 18.08.2019
3490 Rain 18 1005 93 10000 2.6 170 10:19 18.08.2019
3491 Rain 17 1005 93 10000 3.1 160 09:44 18.08.2019
3492 Rain 17 1005 93 10000 3.1 160 09:21 18.08.2019
3493 Rain 17 1005 93 10000 2.6 150 08:44 18.08.2019
3494 Rain 17 1005 93 10000 3.1 150 08:25 18.08.2019
3495 Rain 17 1005 93 10000 3.1 150 08:25 18.08.2019
3496 Rain 16 1006 93 10000 4.1 150 07:59 18.08.2019
3497 Rain 16 1006 93 10000 4.1 150 07:41 18.08.2019
3498 Drizzle 16 1006 93 10000 3.6 150 07:22 18.08.2019
3499 Drizzle 16 1006 93 10000 4.1 160 05:45 18.08.2019
3500 Drizzle 16 1006 93 10000 3.1 150 04:44 18.08.2019
3501 Rain 16 1006 88 10000 3.6 160 03:22 18.08.2019
3502 Rain 16 1007 93 10000 4.1 150 02:45 18.08.2019
3503 Drizzle 16 1007 93 10000 4.1 140 02:18 18.08.2019
3504 Rain 15 1007 93 10000 4.1 160 01:29 18.08.2019
3505 Rain 15 1007 93 7000 4.6 160 00:43 18.08.2019
3506 Rain 15 1007 93 10000 5.1 160 00:24 18.08.2019
3507 Rain 16 1007 87 10000 3.6 160 23:58 17.08.2019
3508 Rain 16 1007 87 10000 3.6 160 23:58 17.08.2019
3509 Rain 17 1007 72 10000 6.7 160 23:39 17.08.2019
3510 Rain 17 1007 72 10000 6.7 160 23:21 17.08.2019
3511 Rain 17 1007 72 10000 4.6 150 22:59 17.08.2019
3512 Rain 17 1007 72 10000 4.6 150 22:41 17.08.2019
3513 Rain 17 1007 77 10000 5.7 140 22:23 17.08.2019
3514 Rain 17 1007 72 10000 4.6 150 21:55 17.08.2019
3515 Drizzle 17 1008 77 10000 5.7 140 21:37 17.08.2019
3516 Drizzle 17 1008 77 10000 5.7 140 21:19 17.08.2019
3517 Rain 17 1008 87 10000 5.1 160 20:39 17.08.2019
3518 Rain 18 1008 82 10000 4.6 160 20:20 17.08.2019
3519 Drizzle 18 1008 77 10000 5.1 160 19:56 17.08.2019
3520 Rain 18 1008 68 10000 3.6 150 19:38 17.08.2019
3521 Rain 18 1008 68 10000 3.6 150 19:19 17.08.2019
3522 Rain 19 1008 63 10000 5.1 160 18:41 17.08.2019
3523 Clouds 19 1008 63 10000 5.1 160 18:19 17.08.2019
3524 Clouds 19 1008 60 10000 5.1 160 17:56 17.08.2019
3525 Clear 19 1009 56 10000 5.1 180 17:38 17.08.2019
3526 Clear 19 1009 56 10000 5.1 180 17:20 17.08.2019
3527 Clouds 20 1009 60 10000 5.1 170 16:44 17.08.2019
3528 Clouds 20 1009 60 10000 5.1 180 16:26 17.08.2019
3529 Clouds 20 1009 56 10000 5.7 170 15:58 17.08.2019
3530 Clear 20 1009 52 10000 5.1 200 15:39 17.08.2019
3531 Clear 20 1009 52 10000 5.1 200 15:20 17.08.2019
3532 Clear 20 1009 52 10000 5.1 200 15:20 17.08.2019
3533 Clouds 21 1009 56 10000 6.2 180 14:41 17.08.2019
3534 Clouds 21 1009 56 10000 6.2 180 14:41 17.08.2019
3535 Clouds 21 1009 56 10000 6.2 180 14:41 17.08.2019
3536 Clouds 20 1009 56 10000 6.2 180 14:23 17.08.2019
3537 Clouds 21 1009 49 10000 5.7 170 13:49 17.08.2019
3538 Clear 20 1010 52 10000 5.1 180 13:23 17.08.2019
3539 Clouds 20 1010 59 10000 5.7 180 12:59 17.08.2019
3540 Clouds 20 1010 59 10000 5.7 180 12:41 17.08.2019
3541 Clouds 20 1010 56 10000 5.7 180 12:19 17.08.2019
3542 Clouds 19 1010 52 10000 6.2 180 11:56 17.08.2019
3543 Clouds 19 1010 56 10000 4.6 200 11:36 17.08.2019
3544 Clouds 20 1010 56 10000 4.6 200 11:18 17.08.2019
3545 Clouds 19 1010 68 10000 5.1 180 10:39 17.08.2019
3546 Clouds 19 1010 68 10000 5.1 180 10:19 17.08.2019
3547 Clouds 18 1010 77 10000 4.1 190 09:49 17.08.2019
3548 Clouds 18 1010 77 10000 3.1 160 09:30 17.08.2019
3549 Clouds 17 1010 82 10000 3.1 190 08:54 17.08.2019
3550 Clouds 17 1010 82 10000 2.1 190 08:25 17.08.2019
3551 Clouds 17 1010 87 10000 0.5 150 07:52 17.08.2019
3552 Clouds 16 1010 87 10000 1 0 07:22 17.08.2019
3553 Clouds 16 1010 87 10000 2.1 220 06:54 17.08.2019
3554 Clouds 16 1010 87 10000 1.5 210 05:55 17.08.2019
3555 Clouds 17 1010 88 10000 2.6 240 04:30 17.08.2019
3556 Clouds 17 1010 93 10000 2.1 220 03:35 17.08.2019
3557 Clouds 17 1009 93 10000 2.1 150 01:48 17.08.2019
3558 Mist 16 1009 93 10000 2.1 140 01:29 17.08.2019
3559 Clouds 16 1010 93 10000 2.6 150 00:55 17.08.2019
3560 Clouds 17 1010 100 10000 3.1 150 00:31 17.08.2019
3561 Clouds 16 1010 93 10000 2.1 130 23:52 16.08.2019
3562 Clouds 16 1010 100 10000 1.5 130 23:30 16.08.2019
3563 Clouds 17 1010 93 10000 2.6 130 22:58 16.08.2019
3564 Mist 16 1010 93 10000 3.1 140 22:39 16.08.2019
3565 Clear 17 1010 93 10000 3.1 140 22:19 16.08.2019
3566 Clear 17 1010 93 10000 3.1 140 22:19 16.08.2019
3567 Clouds 17 1009 88 0 2.6 150 21:41 16.08.2019
3568 Clouds 18 1010 88 10000 2.6 150 21:21 16.08.2019
3569 Clouds 18 1009 82 10000 3.6 140 20:56 16.08.2019
3570 Clear 19 1009 72 10000 3.1 160 20:38 16.08.2019
3571 Clear 19 1009 72 10000 3.1 160 20:18 16.08.2019
3572 Clear 19 1009 72 10000 3.1 170 19:44 16.08.2019
3573 Clear 19 1009 72 10000 3.1 170 19:23 16.08.2019
3574 Rain 20 1009 68 10000 3.6 160 18:54 16.08.2019
3575 Clear 20 1009 72 10000 3.1 200 18:36 16.08.2019
3576 Clear 20 1009 72 10000 3.1 200 18:18 16.08.2019
3577 Rain 20 1009 64 10000 3.6 200 17:43 16.08.2019
3578 Clear 21 1009 60 10000 3.6 190 17:24 16.08.2019
3579 Clear 21 1009 56 10000 5.1 200 16:56 16.08.2019
3580 Clouds 21 1009 64 10000 4.1 160 16:37 16.08.2019
3581 Clouds 21 1009 64 10000 4.1 160 16:18 16.08.2019
3582 Rain 21 1009 60 10000 3.6 180 15:40 16.08.2019
3583 Rain 21 1009 60 10000 3.6 180 15:21 16.08.2019
3584 Rain 21 1009 60 10000 3.6 180 15:21 16.08.2019
3585 Rain 21 1009 60 10000 3.6 180 15:21 16.08.2019
3586 Rain 21 1009 60 10000 5.1 140 14:58 16.08.2019
3587 Clouds 20 1010 68 10000 4.6 150 14:39 16.08.2019
3588 Clouds 20 1010 68 10000 4.6 150 14:19 16.08.2019
3589 Clouds 20 1010 68 10000 6.2 150 13:57 16.08.2019
3590 Clouds 20 1010 64 10000 5.7 150 13:37 16.08.2019
3591 Clouds 20 1010 64 10000 5.7 150 13:18 16.08.2019
3592 Rain 20 1010 77 10000 5.1 140 12:38 16.08.2019
3593 Rain 19 1010 77 10000 5.1 140 12:20 16.08.2019
3594 Rain 18 1010 82 10000 4.6 150 11:42 16.08.2019
3595 Rain 19 1010 82 10000 4.1 140 11:24 16.08.2019
3596 Clouds 18 1010 88 10000 3.6 140 10:45 16.08.2019
3597 Clouds 18 1010 72 10000 5.7 160 10:27 16.08.2019
3598 Clouds 18 1010 72 10000 5.1 150 09:58 16.08.2019
3599 Clear 18 1010 72 10000 4.6 150 09:37 16.08.2019
3600 Clear 18 1010 72 10000 4.6 150 09:18 16.08.2019
3601 Clear 17 1010 77 10000 4.1 110 08:42 16.08.2019
3602 Clear 17 1010 77 10000 4.1 110 08:21 16.08.2019
3603 Clear 16 1010 77 10000 3.1 0 07:59 16.08.2019
3604 Clear 16 1010 77 10000 3.1 0 07:41 16.08.2019
3605 Clear 15 1010 82 10000 2.1 110 07:21 16.08.2019
3606 Clouds 15 1011 82 10000 1.5 130 06:33 16.08.2019
3607 Clear 14 1011 87 10000 1 150 05:43 16.08.2019
3608 Clear 13 1011 100 10000 1 150 04:33 16.08.2019
3609 Clouds 13 1011 100 10000 1 140 03:18 16.08.2019
3610 Clouds 14 1011 87 10000 1.5 170 01:43 16.08.2019
3611 Clouds 15 1011 77 10000 1 180 01:21 16.08.2019
3612 Clouds 16 1011 72 10000 1.5 0 00:43 16.08.2019
3613 Clouds 16 1011 72 10000 1.5 0 00:22 16.08.2019
3614 Clouds 16 1011 67 10000 2.6 200 23:45 15.08.2019
3615 Clouds 16 1011 67 10000 3.6 210 23:22 15.08.2019
3616 Clouds 16 1011 67 10000 3.1 190 22:58 15.08.2019
3617 Clear 16 1010 63 10000 3.1 190 22:40 15.08.2019
3618 Clear 16 1010 63 10000 3.1 190 22:21 15.08.2019
3619 Clear 16 1010 63 10000 2.1 190 21:56 15.08.2019
3620 Clear 16 1010 67 10000 2.1 160 21:38 15.08.2019
3621 Clear 16 1010 67 10000 2.1 160 21:18 15.08.2019
3622 Clear 17 1010 63 10000 2.1 160 20:43 15.08.2019
3623 Clear 17 1010 59 10000 3.1 190 20:22 15.08.2019
3624 Clear 18 1010 59 10000 3.6 190 19:58 15.08.2019
3625 Clear 19 1010 59 10000 4.1 200 19:39 15.08.2019
3626 Clear 19 1010 59 10000 4.1 200 19:21 15.08.2019
3627 Clear 19 1010 59 10000 4.1 200 19:21 15.08.2019
3628 Clear 19 1010 59 10000 4.6 180 18:47 15.08.2019
3629 Clear 19 1010 55 10000 4.1 200 18:23 15.08.2019
3630 Clear 19 1009 52 10000 2.6 190 17:58 15.08.2019
3631 Clear 20 1009 49 10000 3.6 200 17:38 15.08.2019
3632 Clear 20 1009 49 10000 3.6 200 17:19 15.08.2019
3633 Clear 20 1009 43 10000 3.1 210 16:56 15.08.2019
3634 Clear 20 1009 43 10000 2.6 210 16:38 15.08.2019
3635 Clear 20 1009 43 10000 2.6 210 16:20 15.08.2019
3636 Clear 19 1009 40 10000 2.6 240 15:38 15.08.2019
3637 Clear 19 1009 40 10000 2.6 240 15:20 15.08.2019
3638 Clear 19 1009 49 10000 2.6 270 14:56 15.08.2019
3639 Clouds 19 1010 45 10000 4.1 250 14:37 15.08.2019
3640 Clouds 19 1010 45 10000 4.1 250 14:18 15.08.2019
3641 Rain 19 1010 52 10000 3.6 290 13:55 15.08.2019
3642 Rain 19 1010 52 10000 3.6 290 13:55 15.08.2019
3643 Rain 18 1010 55 10000 4.1 260 13:37 15.08.2019
3644 Rain 18 1010 55 10000 4.1 260 13:18 15.08.2019
3645 Clouds 18 1010 55 10000 3.6 250 12:40 15.08.2019
3646 Clear 18 1010 63 10000 3.6 260 12:20 15.08.2019
3647 Clouds 18 1010 67 10000 3.6 260 11:57 15.08.2019
3648 Clouds 18 1010 67 10000 3.6 260 11:57 15.08.2019
3649 Clouds 18 1010 72 10000 3.6 260 11:38 15.08.2019
3650 Clouds 18 1010 72 10000 3.6 260 11:19 15.08.2019
3651 Clouds 17 1010 67 10000 4.1 280 10:58 15.08.2019
3652 Clouds 17 1010 77 10000 3.6 240 10:37 15.08.2019
3653 Clouds 17 1010 77 10000 3.6 240 10:37 15.08.2019
3654 Clouds 17 1010 77 10000 3.6 240 10:18 15.08.2019
3655 Clouds 16 1010 82 10000 3.1 260 09:44 15.08.2019
3656 Clouds 16 1010 82 10000 4.1 250 09:22 15.08.2019
3657 Fog 14 1009 87 10000 3.1 260 08:39 15.08.2019
3658 Fog 14 1009 87 10000 3.1 260 08:21 15.08.2019
3659 Clouds 13 1009 87 10000 2.1 250 07:59 15.08.2019
3660 Clouds 13 1009 93 10000 2.6 250 07:40 15.08.2019
3661 Clouds 13 1009 93 10000 2.6 250 07:21 15.08.2019
3662 Clouds 12 1009 93 10000 2.6 230 06:48 15.08.2019
3663 Clouds 12 1009 93 10000 2.1 240 06:26 15.08.2019
3664 Clouds 12 1009 93 10000 2.6 240 05:31 15.08.2019
3665 Clouds 12 1009 100 10000 3.1 240 04:58 15.08.2019
3666 Clouds 12 1009 100 10000 2.1 230 04:27 15.08.2019
3667 Clouds 12 1008 93 10000 2.1 240 03:26 15.08.2019
3668 Clouds 12 1008 93 10000 2.6 240 02:35 15.08.2019
3669 Clouds 12 1008 93 10000 2.1 260 01:45 15.08.2019
3670 Clouds 12 1008 93 10000 2.1 240 01:23 15.08.2019
3671 Clouds 12 1008 87 10000 2.6 230 00:38 15.08.2019
3672 Clouds 13 1008 87 10000 2.6 230 00:19 15.08.2019
3673 Clouds 12 1008 87 10000 3.1 230 23:57 14.08.2019
3674 Clouds 12 1008 87 10000 2.6 230 23:37 14.08.2019
3675 Clouds 12 1008 87 10000 2.6 230 23:19 14.08.2019
3676 Clouds 13 1008 82 10000 2.6 220 22:42 14.08.2019
3677 Rain 13 1008 82 10000 2.1 220 22:23 14.08.2019
3678 Rain 13 1008 76 10000 3.1 240 21:58 14.08.2019
3679 Rain 13 1008 76 10000 2.6 240 21:40 14.08.2019
3680 Rain 13 1008 76 10000 2.6 240 21:21 14.08.2019
3681 Rain 14 1008 76 10000 3.1 240 20:59 14.08.2019
3682 Rain 14 1008 76 10000 3.1 220 20:41 14.08.2019
3683 Rain 14 1008 76 10000 3.1 220 20:19 14.08.2019
3684 Clear 14 1007 76 10000 2.6 280 19:55 14.08.2019
3685 Rain 14 1007 77 10000 4.6 280 19:37 14.08.2019
3686 Rain 14 1007 67 10000 7.2 290 19:18 14.08.2019
3687 Rain 14 1007 67 10000 7.2 290 18:55 14.08.2019
3688 Rain 14 1007 59 10000 2.6 230 18:37 14.08.2019
3689 Rain 14 1007 59 10000 2.6 230 18:18 14.08.2019
3690 Rain 15 1007 62 10000 5.1 270 17:54 14.08.2019
3691 Rain 18 1006 45 10000 4.6 250 17:36 14.08.2019
3692 Rain 18 1006 45 10000 4.6 250 17:18 14.08.2019
3693 Rain 18 1006 59 10000 8.2 260 16:39 14.08.2019
3694 Rain 18 1006 59 10000 8.2 260 16:20 14.08.2019
3695 Rain 18 1006 59 10000 8.2 260 16:20 14.08.2019
3696 Clear 18 1006 45 10000 5.1 250 15:44 14.08.2019
3697 Clear 18 1006 48 10000 5.1 250 15:20 14.08.2019
3698 Clear 18 1006 48 10000 5.7 250 14:59 14.08.2019
3699 Clear 18 1006 48 10000 5.1 250 14:39 14.08.2019
3700 Clear 18 1006 48 10000 5.1 250 14:19 14.08.2019
3701 Clear 18 1006 48 10000 5.1 250 14:19 14.08.2019
3702 Clouds 18 1006 48 10000 6.2 250 13:55 14.08.2019
3703 Clouds 18 1006 48 10000 5.1 220 13:37 14.08.2019
3704 Clouds 18 1006 48 10000 5.1 220 13:18 14.08.2019
3705 Clouds 18 1006 48 10000 5.7 250 12:55 14.08.2019
3706 Clouds 17 1006 52 10000 5.1 230 12:36 14.08.2019
3707 Clouds 17 1006 52 10000 5.1 230 12:18 14.08.2019
3708 Clouds 16 1006 55 10000 5.1 240 11:43 14.08.2019
3709 Clouds 16 1006 55 10000 5.7 250 11:22 14.08.2019
3710 Clouds 16 1006 55 10000 5.7 250 10:46 14.08.2019
3711 Clouds 16 1006 59 10000 6.2 240 10:25 14.08.2019
3712 Clouds 15 1006 63 10000 6.7 250 09:59 14.08.2019
3713 Clouds 15 1006 63 10000 6.7 250 09:41 14.08.2019
3714 Clouds 15 1006 67 10000 5.1 240 09:20 14.08.2019
3715 Clear 14 1006 77 10000 3.6 220 08:43 14.08.2019
3716 Clear 14 1006 77 10000 3.6 220 08:25 14.08.2019
3717 Clear 13 1006 82 10000 3.6 220 07:56 14.08.2019
3718 Clear 13 1005 76 10000 3.1 230 07:35 14.08.2019
3719 Clear 13 1006 76 10000 3.6 220 06:50 14.08.2019
3720 Clouds 12 1006 76 10000 3.6 220 06:25 14.08.2019
3721 Clouds 12 1006 76 10000 4.1 230 05:32 14.08.2019
3722 Clouds 13 1006 71 10000 3.6 240 03:41 14.08.2019
3723 Clouds 13 1005 67 10000 3.6 240 02:37 14.08.2019
3724 Clouds 14 1006 72 10000 3.6 240 01:59 14.08.2019
3725 Clouds 14 1005 67 10000 2.6 230 01:30 14.08.2019
3726 Clouds 14 1005 67 10000 2.6 230 00:31 14.08.2019
3727 Clouds 16 1005 63 10000 2.6 230 23:43 13.08.2019
3728 Clouds 16 1005 72 10000 2.1 210 23:20 13.08.2019
3729 Clouds 16 1005 67 10000 1.5 210 22:56 13.08.2019
3730 Clear 17 1005 59 10000 2.1 240 22:38 13.08.2019
3731 Clear 16 1005 59 10000 2.1 240 22:19 13.08.2019
3732 Clear 17 1005 52 10000 2.6 250 21:55 13.08.2019
3733 Clear 17 1005 55 10000 2.6 260 21:36 13.08.2019
3734 Clear 18 1005 48 10000 4.1 260 21:18 13.08.2019
3735 Clear 18 1005 48 10000 4.1 260 20:42 13.08.2019
3736 Clear 19 1004 49 10000 4.6 230 20:20 13.08.2019
3737 Clear 19 1004 49 10000 3.6 240 19:56 13.08.2019
3738 Clear 19 1005 49 10000 4.1 200 19:38 13.08.2019
3739 Clear 19 1005 49 10000 4.1 200 19:20 13.08.2019
3740 Clear 19 1005 49 10000 3.6 230 18:42 13.08.2019
3741 Clear 19 1005 49 10000 3.6 230 18:22 13.08.2019
3742 Clear 20 1004 49 10000 5.1 240 17:56 13.08.2019
3743 Clear 20 1004 52 10000 4.1 210 17:38 13.08.2019
3744 Clear 20 1004 52 10000 4.1 210 17:18 13.08.2019
3745 Clouds 21 1004 49 10000 5.1 240 16:55 13.08.2019
3746 Clear 21 1004 49 10000 4.1 210 16:36 13.08.2019
3747 Clear 21 1004 49 10000 4.1 210 16:18 13.08.2019
3748 Clouds 21 1005 49 10000 5.7 240 15:38 13.08.2019
3749 Clouds 20 1005 52 10000 4.6 240 15:20 13.08.2019
3750 Clouds 20 1005 52 10000 4.6 240 14:55 13.08.2019
3751 Clear 20 1005 56 10000 3.6 210 14:37 13.08.2019
3752 Clear 20 1005 56 10000 3.6 210 14:18 13.08.2019
3753 Clouds 20 1005 56 10000 5.7 210 13:41 13.08.2019
3754 Clouds 20 1005 56 10000 5.7 210 13:21 13.08.2019
3755 Clouds 20 1005 59 10000 5.7 210 12:57 13.08.2019
3756 Clouds 19 1005 59 10000 5.1 240 12:39 13.08.2019
3757 Clouds 19 1005 59 10000 5.1 210 12:21 13.08.2019
3758 Clouds 19 1005 59 10000 5.1 210 11:43 13.08.2019
3759 Clouds 19 1005 63 10000 4.1 230 11:23 13.08.2019
3760 Clouds 18 1005 63 10000 5.1 230 10:59 13.08.2019
3761 Clouds 19 1005 68 10000 4.6 220 10:39 13.08.2019
3762 Clouds 18 1006 72 10000 4.6 220 10:20 13.08.2019
3763 Clouds 18 1006 72 10000 4.6 220 09:59 13.08.2019
3764 Clouds 17 1006 72 10000 3.6 210 09:40 13.08.2019
3765 Clouds 17 1006 72 10000 3.6 210 09:22 13.08.2019
3766 Clouds 16 1006 82 0 4.1 210 08:42 13.08.2019
3767 Clouds 16 1006 82 0 4.1 210 08:22 13.08.2019
3768 Clear 16 1006 82 10000 4.1 210 07:56 13.08.2019
3769 Clear 15 1006 87 10000 3.6 210 07:32 13.08.2019
3770 Clear 15 1006 87 10000 3.6 210 06:46 13.08.2019
3771 Clear 14 1006 93 10000 2.6 180 06:23 13.08.2019
3772 Clear 14 1006 87 10000 2.6 210 05:33 13.08.2019
3773 Clear 15 1006 82 10000 3.1 210 02:37 13.08.2019
3774 Clear 16 1007 77 10000 3.6 220 01:58 13.08.2019
3775 Clear 16 1007 77 10000 3.1 190 00:55 13.08.2019
3776 Clear 16 1006 82 10000 2.6 200 00:36 13.08.2019
3777 Clear 16 1006 82 10000 2.1 190 23:49 12.08.2019
3778 Clear 16 1006 82 10000 2.1 190 23:24 12.08.2019
3779 Rain 16 1006 87 10000 2.6 160 22:57 12.08.2019
3780 Rain 16 1006 82 10000 2.1 160 22:38 12.08.2019
3781 Rain 17 1006 82 10000 2.1 160 22:19 12.08.2019
3782 Rain 16 1006 82 10000 2.1 180 21:55 12.08.2019
3783 Clear 17 1006 77 10000 3.1 190 21:36 12.08.2019
3784 Clear 17 1006 77 10000 3.1 190 21:18 12.08.2019
3785 Clear 17 1006 72 10000 3.1 190 20:55 12.08.2019
3786 Rain 18 1006 68 10000 4.6 180 20:36 12.08.2019
3787 Rain 18 1006 68 10000 4.6 180 20:18 12.08.2019
3788 Clear 19 1006 68 10000 4.6 190 19:54 12.08.2019
3789 Clear 19 1006 68 10000 4.6 180 19:36 12.08.2019
3790 Clear 19 1006 68 10000 4.6 180 19:18 12.08.2019
3791 Rain 19 1006 63 10000 4.6 180 18:41 12.08.2019
3792 Clear 19 1006 68 10000 4.6 170 18:21 12.08.2019
3793 Rain 20 1006 72 10000 4.6 180 17:56 12.08.2019
3794 Rain 20 1006 72 10000 4.6 180 17:56 12.08.2019
3795 Clear 19 1007 68 10000 4.6 190 17:38 12.08.2019
3796 Clear 19 1007 68 10000 4.6 190 17:20 12.08.2019
3797 Clear 19 1006 64 10000 4.1 180 16:55 12.08.2019
3798 Clear 19 1006 64 10000 4.1 180 16:55 12.08.2019
3799 Rain 19 1007 72 10000 3.6 180 16:37 12.08.2019
3800 Clouds 19 1007 72 10000 3.6 180 16:18 12.08.2019
3801 Clouds 19 1007 72 10000 3.6 180 16:18 12.08.2019
3802 Rain 20 1007 72 10000 3.6 210 15:42 12.08.2019
3803 Rain 20 1007 68 10000 3.6 190 15:41 12.08.2019
3804 Rain 20 1007 72 10000 3.6 210 15:21 12.08.2019
3805 Clouds 21 1007 68 10000 4.1 200 14:57 12.08.2019
3806 -273 0 0 0 0 0 14:57 12.08.2019
3807 -273 0 0 0 0 0 14:39 12.08.2019
3808 -273 0 0 0 0 0 14:39 12.08.2019
3809 Rain 20 1006 64 10000 5.7 180 14:20 12.08.2019
3810 Rain 20 1006 64 10000 5.7 180 14:20 12.08.2019
3811 Clouds 21 1007 53 10000 5.7 230 13:47 12.08.2019
3812 Rain 21 1006 56 10000 4.6 220 13:47 12.08.2019
3813 Clouds 21 1007 53 10000 5.7 230 13:24 12.08.2019
3814 Clouds 21 1007 56 10000 5.1 210 12:59 12.08.2019
3815 Clouds 21 1007 64 10000 3.6 210 12:40 12.08.2019
3816 Clouds 20 1007 64 10000 3.6 210 12:18 12.08.2019
3817 Clouds 20 1007 64 10000 3.6 210 12:18 12.08.2019
3818 Clear 20 1007 68 10000 4.1 210 11:42 12.08.2019
3819 Clear 20 1007 68 10000 4.1 210 11:42 12.08.2019
3820 Clear 20 1007 68 10000 4.1 210 11:23 12.08.2019
3821 Clear 19 1007 68 10000 3.6 200 10:43 12.08.2019
3822 Clear 18 1007 77 10000 4.1 200 10:23 12.08.2019
3823 Clear 18 1007 72 10000 4.1 200 09:56 12.08.2019
3824 Clear 18 1007 77 10000 3.6 200 09:38 12.08.2019
3825 Clear 18 1007 77 10000 3.6 200 09:38 12.08.2019
3826 Clear 17 1007 77 10000 3.6 200 09:19 12.08.2019
3827 Clear 17 1007 77 10000 3.6 200 09:19 12.08.2019
3828 -273 0 0 0 0 0 08:58 12.08.2019
3829 Clear 17 1007 77 10000 4.1 200 08:38 12.08.2019
3830 Clear 17 1007 77 10000 4.1 200 08:19 12.08.2019
3831 Clear 17 1008 82 10000 3.6 180 07:52 12.08.2019
3832 Clear 16 1008 82 10000 3.6 180 07:27 12.08.2019
3833 Clear 16 1008 82 10000 3.6 180 06:52 12.08.2019
3834 Clouds 16 1008 82 10000 2.6 200 05:40 12.08.2019
3835 Clear 16 1008 77 10000 3.6 210 02:44 12.08.2019
3836 Clear 16 1008 87 10000 3.1 200 01:55 12.08.2019
3837 Clear 16 1008 87 10000 3.1 200 01:21 12.08.2019
3838 Clear 16 1008 87 10000 3.6 190 00:58 12.08.2019
3839 Clear 16 1008 87 10000 2.6 190 00:38 12.08.2019
3840 Clear 16 1008 87 10000 2.6 190 00:19 12.08.2019
3841 Clear 16 1008 82 10000 2.6 190 23:55 11.08.2019
3842 Clear 16 1008 82 10000 3.1 210 23:37 11.08.2019
3843 Clear 16 1008 82 10000 3.1 210 23:18 11.08.2019
3844 Drizzle 17 1007 88 10000 3.6 220 22:40 11.08.2019
3845 Drizzle 17 1007 88 10000 3.6 220 22:20 11.08.2019
3846 Clouds 17 1007 82 10000 3.6 230 21:59 11.08.2019
3847 Rain 17 1007 82 10000 3.1 220 21:41 11.08.2019
3848 Rain 17 1007 82 10000 3.1 220 21:21 11.08.2019
3849 Rain 17 1007 82 10000 4.1 230 20:57 11.08.2019
3850 Rain 18 1006 88 10000 4.6 210 20:39 11.08.2019
3851 Rain 18 1006 88 10000 4.6 210 20:20 11.08.2019
3852 Clouds 19 1006 77 10000 2.6 190 19:44 11.08.2019
3853 Clouds 19 1005 82 10000 2.6 160 19:19 11.08.2019
3854 Clear 19 1005 82 10000 2.6 170 18:42 11.08.2019
3855 Clear 19 1005 82 10000 2.6 170 18:23 11.08.2019
3856 Clear 19 1005 93 10000 1.5 180 17:59 11.08.2019
3857 Rain 19 1005 93 10000 1.5 180 17:41 11.08.2019
3858 Rain 18 1005 93 10000 1.5 190 17:20 11.08.2019
3859 Rain 17 1006 88 10000 5.1 250 16:57 11.08.2019
3860 Rain 18 1005 88 8000 4.6 180 16:38 11.08.2019
3861 Rain 18 1005 88 8000 4.6 180 16:20 11.08.2019
3862 Rain 19 1005 77 10000 3.6 160 15:44 11.08.2019
3863 Rain 20 1004 73 10000 3.1 190 15:25 11.08.2019
3864 Rain 20 1005 82 10000 3.1 200 14:59 11.08.2019
3865 Rain 20 1005 72 10000 5.1 210 14:39 11.08.2019
3866 Rain 20 1005 72 10000 5.1 210 14:20 11.08.2019
3867 Rain 20 1004 73 10000 5.7 240 13:44 11.08.2019
3868 Rain 20 1004 73 10000 4.6 220 13:26 11.08.2019
3869 Rain 20 1005 82 10000 4.1 210 12:56 11.08.2019
3870 Rain 19 1004 82 10000 3.1 200 12:37 11.08.2019
3871 Rain 19 1004 82 10000 3.1 200 12:18 11.08.2019
3872 Clouds 19 1004 88 10000 4.1 210 11:39 11.08.2019
3873 Rain 19 1004 88 10000 4.1 210 11:21 11.08.2019
3874 Drizzle 18 1004 88 10000 4.6 210 10:55 11.08.2019
3875 Clouds 19 1004 82 10000 4.6 210 10:37 11.08.2019
3876 Clouds 19 1004 82 10000 4.6 210 10:18 11.08.2019
3877 Clouds 18 1004 88 10000 3.1 200 09:42 11.08.2019
3878 Clouds 18 1004 88 10000 3.1 200 09:23 11.08.2019
3879 Clouds 18 1004 88 10000 3.1 200 08:49 11.08.2019
3880 Clouds 17 1004 93 10000 3.1 190 08:29 11.08.2019
3881 Clouds 17 1004 93 10000 3.6 200 07:59 11.08.2019
3882 Clouds 17 1004 93 10000 3.1 200 07:31 11.08.2019
3883 Clouds 17 1004 93 10000 1.5 200 06:46 11.08.2019
3884 Rain 17 1004 93 10000 3.1 210 06:28 11.08.2019
3885 Rain 17 1004 100 10000 1.5 160 04:40 11.08.2019
3886 Rain 17 1004 100 10000 2.6 140 02:50 11.08.2019
3887 Rain 17 1005 93 3700 2.6 140 01:56 11.08.2019
3888 Rain 17 1005 93 9000 4.1 120 01:30 11.08.2019
3889 Rain 16 1005 93 10000 4.1 130 00:56 11.08.2019
3890 Rain 16 1005 93 10000 4.1 130 00:56 11.08.2019
3891 Rain 17 1006 93 10000 5.1 140 00:34 11.08.2019
3892 Mist 16 1006 93 8000 4.6 130 23:49 10.08.2019
3893 Mist 17 1006 93 10000 5.1 130 23:29 10.08.2019
3894 Rain 17 1006 93 10000 4.6 130 22:54 10.08.2019
3895 Rain 17 1007 93 10000 5.1 120 22:36 10.08.2019
3896 Rain 17 1007 93 10000 5.1 120 22:18 10.08.2019
3897 Rain 17 1007 93 10000 4.1 130 21:40 10.08.2019
3898 Rain 17 1007 93 10000 4.1 130 21:21 10.08.2019
3899 Rain 16 1007 93 10000 3.1 130 20:57 10.08.2019
3900 Drizzle 16 1007 93 10000 3.1 130 20:39 10.08.2019
3901 Drizzle 16 1007 93 10000 3.1 130 20:19 10.08.2019
3902 Rain 17 1008 100 10000 3.6 140 19:43 10.08.2019
3903 Rain 17 1008 100 10000 4.6 120 19:24 10.08.2019
3904 Rain 17 1008 93 10000 3.1 140 18:43 10.08.2019
3905 Rain 18 1008 72 10000 5.1 140 18:25 10.08.2019
3906 Rain 18 1008 72 10000 5.1 140 17:57 10.08.2019
3907 Rain 18 1008 77 10000 3.1 140 17:38 10.08.2019
3908 Rain 19 1008 77 10000 3.1 140 17:19 10.08.2019
3909 Rain 19 1008 77 10000 4.1 140 16:43 10.08.2019
3910 Rain 19 1009 77 10000 3.6 160 16:24 10.08.2019
3911 Clouds 19 1008 68 10000 5.1 140 15:48 10.08.2019
3912 Clouds 20 1008 68 10000 5.1 140 15:22 10.08.2019
3913 Clouds 20 1009 72 10000 5.1 140 14:44 10.08.2019
3914 Clouds 20 1009 77 10000 5.1 130 14:21 10.08.2019
3915 Clouds 20 1010 72 10000 5.1 130 13:41 10.08.2019
3916 Clouds 20 1010 77 10000 4.6 140 13:20 10.08.2019
3917 Clouds 19 1011 77 10000 4.1 140 12:55 10.08.2019
3918 Clouds 19 1011 72 10000 5.1 140 12:37 10.08.2019
3919 Clouds 19 1011 72 10000 5.1 140 12:19 10.08.2019
3920 Clouds 19 1011 77 10000 4.6 140 11:42 10.08.2019
3921 Clouds 19 1011 77 10000 4.6 140 11:22 10.08.2019
3922 Clouds 19 1011 77 10000 5.1 140 10:56 10.08.2019
3923 Clouds 18 1011 82 10000 4.1 130 10:37 10.08.2019
3924 Clouds 18 1011 82 10000 4.1 130 10:19 10.08.2019
3925 Clouds 18 1011 88 10000 3.6 120 09:43 10.08.2019
3926 Mist 17 1011 88 10000 3.6 120 09:23 10.08.2019
3927 Mist 16 1011 88 10000 4.1 110 08:42 10.08.2019
3928 Clouds 16 1011 93 10000 3.6 110 08:22 10.08.2019
3929 Fog 15 1012 93 10000 3.1 110 07:54 10.08.2019
3930 Fog 15 1012 93 10000 2.1 110 07:29 10.08.2019
3931 Fog 14 1012 100 10000 2.1 80 06:52 10.08.2019
3932 Fog 14 1011 100 9000 1 80 06:30 10.08.2019
3933 Fog 12 1012 100 1700 2.21 102.746 05:44 10.08.2019
3934 Fog 12 1012 100 1700 2.21 102.746 05:44 10.08.2019
3935 Fog 12 1012 100 250 2.21 102.746 05:18 10.08.2019
3936 Fog 12 1012 100 4600 2.21 102.746 03:32 10.08.2019
3937 Fog 12 1013 100 7000 1.54 86.435 02:32 10.08.2019
3938 Mist 12 1013 100 9000 0.5 0 01:44 10.08.2019
3939 Mist 12 1013 100 5000 1.06 81.509 01:23 10.08.2019
3940 Fog 13 1012 100 10000 1.06 81.509 00:58 10.08.2019
3941 Fog 13 1012 93 10000 1 70 00:39 10.08.2019
3942 Fog 13 1012 93 10000 1 70 00:18 10.08.2019
3943 Clear 14 1012 82 10000 1.5 60 23:38 09.08.2019
3944 Clear 14 1012 82 10000 1.5 60 23:20 09.08.2019
3945 Clear 15 1012 82 10000 1 0 22:54 09.08.2019
3946 Clear 15 1012 88 10000 1.82 93.85 22:36 09.08.2019
3947 Clear 15 1012 88 10000 1.82 93.85 22:18 09.08.2019
3948 Clear 16 1012 93 10000 1 0 21:40 09.08.2019
3949 Clear 17 1011 82 10000 2.1 40 21:21 09.08.2019
3950 Clear 17 1011 88 10000 1.5 360 20:57 09.08.2019
3951 Clear 18 1011 93 10000 0.5 20 20:38 09.08.2019
3952 Clear 18 1011 93 10000 0.5 20 20:18 09.08.2019
3953 Clouds 19 1011 82 10000 0.5 0 19:43 09.08.2019
3954 Clouds 20 1010 72 10000 1 250 19:22 09.08.2019
3955 Clouds 20 1010 82 10000 1.63 74.989 18:58 09.08.2019
3956 Clouds 20 1010 82 10000 0.5 0 18:38 09.08.2019
3957 Clouds 20 1010 82 10000 0.5 0 18:19 09.08.2019
3958 Clouds 20 1010 72 10000 1.5 110 17:43 09.08.2019
3959 Clouds 20 1010 72 10000 1.5 110 17:43 09.08.2019
3960 Clouds 20 1010 77 10000 1.5 0 17:24 09.08.2019
3961 -273 0 0 0 0 0 16:55 09.08.2019
3962 Clouds 20 1009 72 10000 1.5 100 16:37 09.08.2019
3963 Clouds 20 1009 72 10000 1.5 100 16:18 09.08.2019
3964 Clouds 20 1009 77 10000 1 0 15:42 09.08.2019
3965 Rain 20 1009 72 10000 1 0 15:21 09.08.2019
3966 Rain 20 1009 77 10000 1 0 14:58 09.08.2019
3967 Rain 20 1009 82 10000 1.5 0 14:38 09.08.2019
3968 -273 0 0 0 0 0 14:20 09.08.2019
3969 Clouds 20 1008 82 10000 2.1 240 13:46 09.08.2019
3970 Rain 19 1008 93 10000 1.5 300 13:21 09.08.2019
3971 Rain 19 1008 63 10000 4.6 10 12:56 09.08.2019
3972 Rain 19 1008 88 10000 2.1 250 12:37 09.08.2019
3973 Rain 18 1008 88 10000 2.1 250 12:18 09.08.2019
3974 Rain 19 1007 93 10000 3.6 250 11:41 09.08.2019
3975 Rain 19 1007 77 10000 1.5 0 11:21 09.08.2019
3976 Rain 19 1007 82 10000 2.6 330 10:54 09.08.2019
3977 Rain 18 1007 88 10000 2.6 320 10:36 09.08.2019
3978 Rain 18 1007 88 10000 2.6 320 10:18 09.08.2019
3979 Clouds 18 1006 93 10000 2.6 320 09:41 09.08.2019
3980 Mist 17 1006 93 10000 2.6 320 09:19 09.08.2019
3981 Mist 16 1006 87 10000 2.1 310 08:45 09.08.2019
3982 Mist 16 1006 87 10000 2.1 330 08:25 09.08.2019
3983 Fog 15 1005 100 10000 1 290 07:56 09.08.2019
3984 Mist 15 1005 100 10000 1.5 280 07:37 09.08.2019
3985 Mist 14 1005 100 10000 1.5 280 07:19 09.08.2019
3986 Mist 14 1005 93 10000 1.62 324.236 06:44 09.08.2019
3987 Mist 13 1005 100 10000 0.5 0 06:21 09.08.2019
3988 Mist 13 1005 100 10000 1.66 301.521 05:31 09.08.2019
3989 Fog 13 1004 93 10000 1.79 270.415 02:28 09.08.2019
3990 Fog 14 1004 100 10000 1.49 276.561 01:24 09.08.2019
3991 Fog 14 1003 93 10000 1 0 00:42 09.08.2019
3992 Mist 14 1003 93 10000 1 0 00:23 09.08.2019
3993 Mist 14 1003 100 10000 1.7 269.798 23:57 08.08.2019
3994 Mist 14 1003 93 10000 1 290 23:37 08.08.2019
3995 Mist 14 1003 93 10000 1 290 23:19 08.08.2019
3996 Clouds 14 1003 100 10000 1.7 269.798 22:54 08.08.2019
3997 Rain 15 1003 100 10000 1 150 22:36 08.08.2019
3998 Rain 15 1003 100 10000 1 150 22:18 08.08.2019
3999 Rain 15 1003 100 10000 1 150 22:18 08.08.2019
4000 Clear 15 1003 87 10000 1.7 269.798 21:42 08.08.2019
4001 Clear 15 1003 87 10000 1.29 232.051 21:23 08.08.2019
4002 Clear 16 1003 88 10000 1.5 50 20:57 08.08.2019
4003 Clouds 16 1003 88 10000 0.47 267.946 20:39 08.08.2019
4004 Clouds 16 1003 88 10000 0.47 267.946 20:39 08.08.2019
4005 Clouds 17 1003 88 10000 0.47 267.946 20:19 08.08.2019
4006 Rain 17 1002 82 10000 1.5 230 19:48 08.08.2019
4007 Rain 17 1002 82 10000 1.5 230 19:29 08.08.2019
4008 Rain 17 1002 77 10000 1.5 180 18:57 08.08.2019
4009 Thunderstorm 19 1002 72 10000 3.1 180 18:36 08.08.2019
4010 Thunderstorm 19 1002 72 10000 3.1 180 18:18 08.08.2019
4011 Clear 20 1002 77 10000 2.6 160 18:18 08.08.2019
4012 Clouds 20 1002 72 10000 2.6 160 17:42 08.08.2019
4013 Rain 20 1002 72 10000 2.6 160 17:24 08.08.2019
4014 Clouds 19 1002 68 10000 2.6 140 16:57 08.08.2019
4015 Clouds 20 1002 68 10000 1.5 0 16:39 08.08.2019
4016 Clouds 20 1002 68 10000 1.5 0 16:20 08.08.2019
4017 Rain 20 1002 72 10000 1.5 250 15:57 08.08.2019
4018 Clear 20 1002 64 10000 1.5 0 15:37 08.08.2019
4019 Clear 20 1002 64 10000 1.5 0 15:19 08.08.2019
4020 Rain 20 1002 68 10000 3.1 250 14:38 08.08.2019
4021 Rain 20 1002 68 10000 3.1 250 14:18 08.08.2019
4022 Clear 21 1002 64 10000 2.6 260 13:42 08.08.2019
4023 Rain 21 1002 64 10000 2.6 260 13:23 08.08.2019
4024 Clear 20 1002 68 10000 1.5 240 12:57 08.08.2019
4025 Clear 21 1002 72 10000 2.1 250 12:38 08.08.2019
4026 Clear 20 1002 72 10000 2.1 250 12:18 08.08.2019
4027 Clear 20 1002 77 10000 2.6 210 11:42 08.08.2019
4028 Clear 19 1002 77 10000 2.1 250 11:23 08.08.2019
4029 Clouds 18 1002 88 0 1 0 10:41 08.08.2019
4030 Clouds 18 1002 88 0 1 0 10:22 08.08.2019
4031 Clear 17 1002 93 10000 1.5 210 09:58 08.08.2019
4032 Clear 17 1002 100 10000 1 0 09:39 08.08.2019
4033 Clear 17 1002 100 10000 1 0 09:20 08.08.2019
4034 Clear 16 1002 100 10000 0.5 242.199 08:40 08.08.2019
4035 Clear 16 1002 100 10000 0.5 242.199 08:21 08.08.2019
4036 Clear 16 1002 100 10000 0.5 242.199 07:42 08.08.2019
4037 Clear 15 1002 100 10000 0.5 242.199 07:21 08.08.2019
4038 Clear 15 1002 100 10000 0.5 242.199 06:59 08.08.2019
4039 Mist 15 1002 100 7000 0.5 242.199 06:41 08.08.2019
4040 Mist 15 1002 93 5000 0.44 155.642 05:55 08.08.2019
4041 Mist 15 1002 93 2600 0.44 155.642 05:28 08.08.2019
4042 Rain 15 1003 100 10000 2.1 210 03:57 08.08.2019
4043 Rain 15 1002 93 10000 1 0 03:35 08.08.2019
4044 Clear 15 1002 93 10000 1 120 01:42 08.08.2019
4045 Drizzle 15 1003 87 10000 1 140 00:57 08.08.2019
4046 Clouds 16 1003 93 10000 1 130 00:21 08.08.2019
4047 Clouds 16 1002 93 10000 0.5 0 23:23 07.08.2019
4048 Clouds 17 1002 87 10000 0.5 120 23:00 07.08.2019
4049 Clouds 17 1002 87 10000 0.5 120 22:41 07.08.2019
4050 Clear 17 1002 87 10000 1 150 22:21 07.08.2019
4051 Clear 18 1002 77 10000 1.5 190 21:57 07.08.2019
4052 Clear 19 1002 68 10000 2.1 200 21:39 07.08.2019
4053 Clear 19 1002 68 10000 2.1 200 21:20 07.08.2019
4054 Clear 19 1002 68 10000 3.1 190 20:59 07.08.2019
4055 Clear 20 1002 64 10000 3.1 200 20:40 07.08.2019
4056 Clear 20 1002 64 10000 3.1 200 20:20 07.08.2019
4057 Clear 20 1002 64 10000 3.1 200 20:20 07.08.2019
4058 Clear 20 1002 60 10000 3.6 200 19:55 07.08.2019
4059 Clear 21 1002 60 10000 4.6 200 19:36 07.08.2019
4060 Clear 21 1002 56 10000 4.6 190 19:18 07.08.2019
4061 Clear 22 1002 64 10000 4.6 190 18:40 07.08.2019
4062 Clear 22 1002 60 10000 5.1 200 18:20 07.08.2019
4063 Clear 22 1002 60 10000 5.1 200 17:55 07.08.2019
4064 Clear 22 1002 60 10000 5.1 200 17:55 07.08.2019
4065 Clear 22 1003 60 10000 6.2 210 17:37 07.08.2019
4066 Clear 22 1003 56 10000 5.1 190 17:19 07.08.2019
4067 Clear 22 1003 56 10000 5.1 190 16:56 07.08.2019
4068 Clear 22 1002 49 10000 4.6 200 16:38 07.08.2019
4069 Clear 23 1002 49 10000 4.6 200 16:19 07.08.2019
4070 Clouds 22 1002 41 10000 3.1 230 15:43 07.08.2019
4071 Clouds 22 1002 44 10000 3.6 230 15:21 07.08.2019
4072 Clouds 22 1003 43 10000 3.6 220 14:50 07.08.2019
4073 Clouds 22 1003 46 10000 4.6 250 14:31 07.08.2019
4074 Clouds 22 1003 53 10000 4.1 220 13:59 07.08.2019
4075 Clouds 21 1003 53 10000 4.1 220 13:59 07.08.2019
4076 Clouds 21 1003 56 10000 3.6 270 13:40 07.08.2019
4077 Clouds 21 1002 60 10000 4.1 240 13:19 07.08.2019
4078 Clouds 21 1003 60 10000 4.6 260 12:57 07.08.2019
4079 Clouds 21 1003 60 10000 4.1 260 12:38 07.08.2019
4080 Clouds 21 1003 60 10000 4.1 260 12:38 07.08.2019
4081 Clouds 21 1003 60 10000 4.1 260 12:19 07.08.2019
4082 Clouds 20 1003 64 10000 3.6 240 11:57 07.08.2019
4083 Clouds 20 1003 68 10000 3.6 270 11:39 07.08.2019
4084 Clouds 20 1003 68 10000 3.6 270 11:18 07.08.2019
4085 Clouds 19 1003 82 10000 3.1 260 10:40 07.08.2019
4086 Clouds 19 1003 82 10000 3.1 260 10:20 07.08.2019
4087 Clouds 18 1002 82 10000 2.6 250 09:55 07.08.2019
4088 Clouds 18 1002 88 10000 3.6 240 09:37 07.08.2019
4089 Clouds 17 1002 88 10000 3.6 240 09:18 07.08.2019
4090 Clouds 17 1002 93 10000 2.6 240 08:45 07.08.2019
4091 Clouds 16 1002 100 10000 2.6 240 08:24 07.08.2019
4092 Clouds 16 1002 100 10000 2.6 240 07:50 07.08.2019
4093 Clouds 15 1002 100 10000 2.1 230 07:30 07.08.2019
4094 Clouds 15 1002 100 10000 2.6 220 06:47 07.08.2019
4095 Rain 14 1002 100 10000 1.5 0 06:22 07.08.2019
4096 Rain 14 1002 100 6000 1 220 05:42 07.08.2019
4097 Rain 15 1002 93 2300 2.4 260.016 04:37 07.08.2019
4098 Rain 16 1002 100 10000 1 180 02:55 07.08.2019
4099 Rain 16 996 93 0 0.25 68.492 02:36 07.08.2019
4100 Rain 16 1005 83 0 0.25 68.492 01:51 07.08.2019
4101 Rain 16 1003 78 0 1.4 129.068 00:57 07.08.2019
4102 Rain 16 998 91 0 1.21 166.746 00:24 07.08.2019
4103 Rain 16 998 89 0 1.21 166.746 23:58 06.08.2019
4104 Rain 17 998 86 0 0.89 148 23:37 06.08.2019
4105 Rain 17 998 83 0 1.21 166.746 23:18 06.08.2019
4106 Rain 17 998 82 0 0.89 175 22:40 06.08.2019
4107 Rain 16 1002 100 10000 2.1 140 22:21 06.08.2019
4108 Rain 16 1002 100 10000 2.1 140 21:57 06.08.2019
4109 Rain 17 1002 100 10000 2.1 140 21:38 06.08.2019
4110 Clear 19 1002 68 10000 1.5 170 21:19 06.08.2019
4111 Clear 19 1002 68 10000 1.5 170 20:46 06.08.2019
4112 Clear 19 1002 68 10000 1.5 170 20:27 06.08.2019
4113 Clear 19 1002 64 10000 3.1 180 19:57 06.08.2019
4114 Clear 20 1002 64 10000 2.1 190 19:38 06.08.2019
4115 Clear 20 1002 64 10000 2.1 180 19:19 06.08.2019
4116 Clear 21 1002 64 10000 2.1 180 18:41 06.08.2019
4117 Clear 21 1003 68 10000 1.5 0 18:23 06.08.2019
4118 Clear 21 1003 68 10000 2.1 170 17:58 06.08.2019
4119 Clear 21 1003 68 10000 2.1 170 17:37 06.08.2019
4120 Clear 21 1003 68 10000 2.1 170 17:37 06.08.2019
4121 Clear 21 1003 68 10000 2.1 170 17:19 06.08.2019
4122 Clear 21 1003 68 10000 2.1 170 16:47 06.08.2019
4123 Clear 21 1003 64 10000 2.6 170 16:25 06.08.2019
4124 Clear 20 1004 72 10000 3.1 150 15:59 06.08.2019
4125 Rain 20 1004 77 10000 2.6 180 15:41 06.08.2019
4126 Rain 20 1004 77 10000 2.6 180 15:22 06.08.2019
4127 Rain 20 1004 82 10000 2.6 170 14:59 06.08.2019
4128 Rain 20 1004 88 10000 1.5 120 14:38 06.08.2019
4129 Rain 19 1004 88 10000 1.5 120 14:20 06.08.2019
4130 Rain 20 1004 88 10000 0.5 0 13:55 06.08.2019
4131 Rain 21 1004 88 9000 3.1 170 13:36 06.08.2019
4132 Rain 21 1004 88 9000 3.1 170 13:18 06.08.2019
4133 Rain 20 1004 77 10000 2.1 110 12:40 06.08.2019
4134 Rain 20 1004 77 10000 2.1 110 12:22 06.08.2019
4135 Rain 20 1004 77 10000 2.6 150 11:46 06.08.2019
4136 Clear 20 1004 82 10000 1.5 130 11:21 06.08.2019
4137 Clear 20 1004 82 10000 1.5 0 10:59 06.08.2019
4138 Clouds 19 1004 82 10000 1.5 140 10:40 06.08.2019
4139 Clouds 19 1004 82 10000 1.5 140 10:21 06.08.2019
4140 Clouds 19 1004 77 10000 1.08 208.755 09:43 06.08.2019
4141 Clouds 19 1005 88 10000 1.5 130 09:23 06.08.2019
4142 Clouds 17 1005 93 10000 1 0 08:55 06.08.2019
4143 Clouds 17 1005 93 10000 1.27 282.436 08:36 06.08.2019
4144 Clouds 16 1005 93 10000 1.27 282.436 08:18 06.08.2019
4145 Mist 15 1005 93 10000 1.27 282.436 07:31 06.08.2019
4146 Rain 15 1005 100 9000 1.27 282.436 06:45 06.08.2019
4147 Rain 14 1005 100 10000 0.5 300 06:24 06.08.2019
4148 Rain 14 1005 100 8000 1.25 277.561 05:46 06.08.2019
4149 Mist 13 1006 100 3200 0.89 271.218 02:59 06.08.2019
4150 Clouds 13 1006 100 10000 1.38 236.621 01:36 06.08.2019
4151 Clouds 14 1006 93 10000 1.38 236.621 00:59 06.08.2019
4152 Clear 14 1006 93 10000 1.5 200 00:23 06.08.2019
4153 Clear 15 1007 87 10000 1 180 23:21 05.08.2019
4154 Clear 16 1007 88 10000 2.1 190 22:59 05.08.2019
4155 Mist 16 1007 88 10000 2.1 190 22:40 05.08.2019
4156 Mist 16 1007 88 10000 2.1 190 22:22 05.08.2019
4157 Clouds 18 1007 77 10000 2.1 200 21:43 05.08.2019
4158 Clouds 18 1007 77 10000 2.1 200 21:21 05.08.2019
4159 Clouds 19 1007 77 10000 2.1 180 20:58 05.08.2019
4160 Clouds 19 1007 77 10000 3.1 180 20:40 05.08.2019
4161 Clouds 19 1007 77 10000 3.1 180 20:22 05.08.2019
4162 Clouds 20 1007 77 10000 2.6 180 19:59 05.08.2019
4163 Clouds 20 1007 72 10000 3.6 180 19:38 05.08.2019
4164 Clouds 20 1007 72 10000 3.6 180 19:20 05.08.2019
4165 Clouds 20 1007 72 10000 4.1 170 18:42 05.08.2019
4166 Clouds 21 1007 72 10000 4.1 170 18:21 05.08.2019
4167 Clouds 21 1007 77 10000 5.1 160 17:56 05.08.2019
4168 Clear 21 1008 77 10000 4.6 170 17:38 05.08.2019
4169 Clear 21 1008 77 10000 4.6 170 17:20 05.08.2019
4170 Clear 21 1008 73 10000 4.6 200 16:42 05.08.2019
4171 Rain 21 1008 77 10000 4.6 190 16:23 05.08.2019
4172 Rain 21 1008 68 10000 5.1 170 15:43 05.08.2019
4173 Rain 21 1008 68 10000 5.1 170 15:20 05.08.2019
4174 Clouds 21 1008 68 10000 4.1 190 14:42 05.08.2019
4175 Clouds 21 1009 64 10000 4.1 230 14:23 05.08.2019
4176 Clouds 21 1009 64 10000 4.1 230 14:23 05.08.2019
4177 Clouds 21 1009 64 10000 2.1 180 13:57 05.08.2019
4178 Clouds 21 1009 64 10000 3.6 240 13:38 05.08.2019
4179 Clouds 21 1009 64 10000 3.6 240 13:18 05.08.2019
4180 Clouds 21 1009 64 10000 2.6 210 12:42 05.08.2019
4181 Clouds 20 1009 64 10000 3.1 220 12:19 05.08.2019
4182 Clouds 20 1009 68 10000 3.1 210 11:43 05.08.2019
4183 Clouds 20 1010 64 10000 3.6 180 11:25 05.08.2019
4184 Clouds 19 1010 68 10000 3.1 200 10:48 05.08.2019
4185 Clouds 19 1010 72 10000 4.1 200 10:30 05.08.2019
4186 Clouds 19 1010 77 10000 3.6 220 09:57 05.08.2019
4187 Clouds 18 1010 72 10000 4.6 200 09:37 05.08.2019
4188 Clouds 18 1010 72 10000 4.6 200 09:19 05.08.2019
4189 Clouds 17 1011 77 10000 3.6 200 08:44 05.08.2019
4190 Clouds 16 1011 82 10000 2.1 210 08:24 05.08.2019
4191 Clear 15 1011 87 10000 1 0 07:48 05.08.2019
4192 Clear 15 1011 93 10000 2.36 216.239 07:28 05.08.2019
4193 Clear 14 1011 93 10000 2.36 216.239 06:56 05.08.2019
4194 Clear 13 1011 93 10000 1 150 06:24 05.08.2019
4195 Clear 12 1011 93 10000 1 130 05:31 05.08.2019
4196 Clear 12 1012 93 10000 1.56 220.079 04:50 05.08.2019
4197 Clear 10 1012 100 10000 1.56 220.079 03:50 05.08.2019
4198 Clear 10 1012 100 10000 1.59 205.369 02:46 05.08.2019
4199 Clear 10 1012 100 10000 1 180 01:55 05.08.2019
4200 Clear 10 1012 93 10000 1.5 170 01:22 05.08.2019
4201 Clear 11 1012 93 10000 1.5 150 00:40 05.08.2019
4202 Clear 11 1012 93 10000 1.5 150 00:19 05.08.2019
4203 Clear 11 1012 87 10000 1.5 120 23:43 04.08.2019
4204 Clear 12 1012 82 10000 1.5 140 23:23 04.08.2019
4205 Clear 13 1012 76 10000 2.1 140 22:57 04.08.2019
4206 Clear 13 1012 72 10000 3.1 160 22:38 04.08.2019
4207 Clear 13 1012 72 10000 3.1 160 22:19 04.08.2019
4208 Clear 13 1012 67 10000 3.6 150 21:46 04.08.2019
4209 Clouds 15 1012 67 10000 2.1 140 21:24 04.08.2019
4210 Clouds 15 1012 59 10000 3.6 110 20:59 04.08.2019
4211 Clouds 16 1012 59 10000 3.6 110 20:41 04.08.2019
4212 Clouds 16 1012 51 10000 2.6 80 20:19 04.08.2019
4213 Clear 16 1012 48 10000 2.1 80 19:49 04.08.2019
4214 Clear 17 1012 48 10000 1.5 70 19:28 04.08.2019
4215 Clear 18 1012 48 10000 1 0 18:58 04.08.2019
4216 Clear 18 1013 45 10000 1.5 0 18:40 04.08.2019
4217 Clear 18 1013 45 10000 1.5 0 18:20 04.08.2019
4218 Clear 18 1013 42 10000 1.5 0 17:43 04.08.2019
4219 Clear 18 1013 42 10000 2.1 10 17:24 04.08.2019
4220 Clear 18 1013 45 10000 2.1 20 16:46 04.08.2019
4221 Clear 18 1013 48 10000 2.1 80 16:27 04.08.2019
4222 Clear 18 1013 48 10000 2.6 40 15:56 04.08.2019
4223 Clear 18 1013 45 10000 1.5 0 15:37 04.08.2019
4224 Clear 18 1013 45 10000 1.5 0 15:19 04.08.2019
4225 Clear 18 1014 55 10000 2.6 0 14:42 04.08.2019
4226 Clear 18 1014 55 10000 2.6 0 14:22 04.08.2019
4227 Clouds 17 1014 63 10000 0.5 0 13:44 04.08.2019
4228 Clear 18 1014 67 10000 1.5 320 13:24 04.08.2019
4229 Clouds 17 1014 67 10000 1.5 0 12:57 04.08.2019
4230 Clouds 17 1014 72 10000 1.5 0 12:39 04.08.2019
4231 Clouds 17 1014 72 10000 1.5 0 12:21 04.08.2019
4232 Clouds 16 1014 72 10000 1.5 20 11:46 04.08.2019
4233 Clouds 16 1014 76 10000 1.5 20 11:23 04.08.2019
4234 Rain 15 1014 76 10000 1.5 30 10:48 04.08.2019
4235 Rain 15 1014 76 10000 1.5 30 10:22 04.08.2019
4236 Clouds 14 1014 82 10000 1.5 0 09:46 04.08.2019
4237 Rain 14 1014 87 10000 1.5 0 09:26 04.08.2019
4238 Rain 13 1014 87 10000 1.5 360 08:58 04.08.2019
4239 Rain 12 1014 93 10000 1.5 340 08:34 04.08.2019
4240 Rain 12 1014 87 10000 2.1 340 07:55 04.08.2019
4241 Rain 12 1014 93 10000 2.1 350 07:28 04.08.2019
4242 Rain 12 1014 87 10000 1.5 30 06:40 04.08.2019
4243 Rain 12 1014 87 10000 1.5 30 06:18 04.08.2019
4244 Rain 12 1014 71 10000 3.1 30 03:36 04.08.2019
4245 Rain 12 1014 66 10000 1.5 60 01:52 04.08.2019
4246 Rain 12 1014 66 10000 2.1 50 01:32 04.08.2019
4247 Clouds 12 1014 62 10000 2.6 60 00:42 04.08.2019
4248 Clouds 12 1014 62 10000 2.6 60 00:23 04.08.2019
4249 Clouds 13 1014 62 10000 1.5 0 23:42 03.08.2019
4250 Clouds 13 1014 62 10000 1.5 0 23:19 03.08.2019
4251 Clouds 13 1014 62 10000 3.1 40 22:59 03.08.2019
4252 Clouds 13 1014 62 10000 2.6 60 22:39 03.08.2019
4253 Clouds 14 1014 59 10000 3.1 40 22:19 03.08.2019
4254 Clouds 14 1014 59 10000 3.6 30 21:39 03.08.2019
4255 Clouds 14 1014 59 10000 3.6 30 21:39 03.08.2019
4256 Clouds 14 1014 59 10000 3.6 30 21:20 03.08.2019
4257 Clouds 15 1014 55 10000 3.6 40 20:45 03.08.2019
4258 Clouds 15 1014 55 10000 3.6 40 20:45 03.08.2019
4259 Clouds 16 1014 55 10000 3.6 20 20:24 03.08.2019
4260 Clouds 17 1014 52 10000 2.6 30 19:55 03.08.2019
4261 Clouds 17 1014 48 10000 3.1 30 19:36 03.08.2019
4262 Clouds 18 1014 48 10000 3.1 30 19:18 03.08.2019
4263 Clouds 18 1014 45 10000 3.6 350 18:40 03.08.2019
4264 Clouds 19 1014 45 10000 3.6 350 18:21 03.08.2019
4265 Clear 19 1014 42 10000 3.6 10 17:42 03.08.2019
4266 Clear 19 1014 40 10000 3.6 10 17:19 03.08.2019
4267 Clear 19 1014 40 10000 4.1 30 16:38 03.08.2019
4268 Clear 20 1014 40 10000 4.6 350 16:20 03.08.2019
4269 Clear 20 1014 40 10000 4.6 350 15:46 03.08.2019
4270 Clear 19 1014 37 10000 4.6 10 15:25 03.08.2019
4271 Clear 19 1014 37 10000 6.2 10 14:48 03.08.2019
4272 Clear 19 1014 37 10000 6.2 10 14:24 03.08.2019
4273 Clear 19 1014 40 10000 5.1 360 13:57 03.08.2019
4274 Clear 19 1014 42 10000 5.1 340 13:37 03.08.2019
4275 Clear 19 1014 42 10000 5.1 340 13:37 03.08.2019
4276 Clear 19 1014 42 10000 5.1 340 13:19 03.08.2019
4277 Clear 19 1014 42 10000 4.6 20 12:42 03.08.2019
4278 Clear 19 1014 42 10000 4.6 20 12:23 03.08.2019
4279 Clear 18 1014 45 10000 4.6 350 11:55 03.08.2019
4280 Clear 18 1014 48 10000 4.6 20 11:35 03.08.2019
4281 Clear 17 1014 48 10000 4.6 360 10:47 03.08.2019
4282 Clear 17 1014 51 10000 4.6 50 10:25 03.08.2019
4283 Clear 16 1014 63 10000 4.1 10 09:46 03.08.2019
4284 Clear 16 1014 63 10000 4.6 30 09:24 03.08.2019
4285 Clear 15 1014 72 10000 3.6 30 08:57 03.08.2019
4286 Clouds 15 1014 72 10000 3.6 30 08:25 03.08.2019
4287 Clouds 14 1014 82 10000 2.6 10 07:38 03.08.2019
4288 Clouds 13 1014 82 10000 3.6 360 06:47 03.08.2019
4289 Clouds 12 1014 82 10000 2.6 350 06:18 03.08.2019
4290 Clouds 13 1014 82 10000 2.6 30 02:59 03.08.2019
4291 Clouds 14 1014 77 10000 3.1 40 02:23 03.08.2019
4292 Clouds 15 1013 77 10000 3.1 70 00:58 03.08.2019
4293 Clouds 15 1013 82 10000 3.1 70 00:32 03.08.2019
4294 Rain 15 1013 82 10000 2.1 120 23:42 02.08.2019
4295 Rain 16 1013 82 10000 2.1 120 23:20 02.08.2019
4296 Drizzle 16 1013 82 10000 2.6 130 22:58 02.08.2019
4297 Rain 16 1013 82 10000 2.6 130 22:40 02.08.2019
4298 Rain 17 1013 77 10000 1.5 140 22:21 02.08.2019
4299 Clear 17 1012 59 10000 2.1 150 21:56 02.08.2019
4300 Clear 18 1012 59 10000 3.6 160 21:37 02.08.2019
4301 Clear 18 1012 59 10000 3.6 160 21:18 02.08.2019
4302 Clear 19 1012 56 10000 3.1 180 20:42 02.08.2019
4303 Clear 19 1012 56 10000 3.1 180 20:22 02.08.2019
4304 Clear 20 1012 52 10000 3.6 180 19:50 02.08.2019
4305 Clear 20 1012 52 10000 3.6 180 19:50 02.08.2019
4306 Clear 21 1012 49 10000 4.1 200 19:30 02.08.2019
4307 Clear 22 1012 46 10000 4.6 200 18:50 02.08.2019
4308 Clear 22 1012 44 10000 4.6 170 18:32 02.08.2019
4309 Clear 24 1012 47 10000 5.7 120 17:56 02.08.2019
4310 Clear 24 1012 26 10000 2.6 210 17:38 02.08.2019
4311 Clear 24 1012 26 10000 2.6 210 17:19 02.08.2019
4312 Clear 24 1012 29 10000 3.1 280 16:39 02.08.2019
4313 Clear 24 1012 29 10000 3.1 280 16:20 02.08.2019
4314 Clear 24 1012 33 10000 1.5 220 15:47 02.08.2019
4315 Clear 24 1013 36 10000 2.1 120 15:21 02.08.2019
4316 Clear 24 1013 36 10000 2.1 250 14:59 02.08.2019
4317 Clear 24 1013 36 10000 2.1 250 14:40 02.08.2019
4318 Clear 23 1013 38 10000 3.1 130 14:18 02.08.2019
4319 Clear 23 1013 38 10000 2.6 140 13:45 02.08.2019
4320 Clear 24 1013 36 10000 1.5 0 13:20 02.08.2019
4321 Clear 23 1013 40 10000 1 0 12:43 02.08.2019
4322 Clear 22 1013 40 10000 1 0 12:19 02.08.2019
4323 Clear 21 1013 46 10000 1.5 170 11:41 02.08.2019
4324 Clear 21 1013 46 10000 1.5 170 11:22 02.08.2019
4325 Clear 20 1013 43 10000 1.5 210 10:45 02.08.2019
4326 Clear 19 1013 48 10000 1 0 10:24 02.08.2019
4327 Clear 18 1013 52 10000 0.5 0 09:55 02.08.2019
4328 Clear 17 1013 55 10000 1 0 09:37 02.08.2019
4329 Clear 17 1013 55 10000 1 0 09:18 02.08.2019
4330 Clear 16 1013 67 10000 1 0 08:40 02.08.2019
4331 Clear 15 1013 67 10000 1 0 08:18 02.08.2019
4332 Clear 13 1014 82 10000 0.35 125.845 07:40 02.08.2019
4333 Clear 13 1014 82 10000 0.35 125.845 07:21 02.08.2019
4334 Clouds 11 1014 87 10000 0.35 125.845 06:31 02.08.2019
4335 Clouds 9 1014 93 10000 0.5 340 05:43 02.08.2019
4336 Clouds 9 1014 93 10000 1 330 03:34 02.08.2019
4337 Clouds 10 1014 81 10000 2.1 60 02:38 02.08.2019
4338 Clouds 10 1014 71 10000 2.6 50 01:36 02.08.2019
4339 Clouds 10 1014 81 10000 1.27 28.603 00:32 02.08.2019
4340 Clouds 11 1014 81 10000 0.69 27.716 23:44 01.08.2019
4341 Clouds 11 1014 76 10000 0.69 27.716 23:26 01.08.2019
4342 Clouds 11 1014 71 10000 0.69 27.716 22:45 01.08.2019
4343 Clear 12 1014 62 10000 1 10 22:25 01.08.2019
4344 Clear 13 1015 55 10000 1.5 20 21:57 01.08.2019
4345 Clear 14 1015 55 10000 1.5 20 21:39 01.08.2019
4346 Clear 15 1015 52 10000 2.1 30 21:21 01.08.2019
4347 Clear 17 1015 52 10000 2.6 10 20:46 01.08.2019
4348 Clear 18 1015 48 10000 2.6 20 20:23 01.08.2019
4349 Clear 18 1015 45 10000 3.6 350 19:58 01.08.2019
4350 Clear 18 1015 45 10000 3.1 10 19:37 01.08.2019
4351 Clear 19 1015 45 10000 3.1 10 19:18 01.08.2019
4352 Clear 20 1015 45 10000 4.1 10 18:42 01.08.2019
4353 Clear 20 1015 45 10000 4.1 10 18:23 01.08.2019
4354 Clear 20 1015 40 10000 4.1 360 17:47 01.08.2019
4355 Clear 20 1015 40 10000 3.6 360 17:29 01.08.2019
4356 Clear 20 1015 40 10000 5.1 330 16:45 01.08.2019
4357 Clear 20 1015 40 10000 5.1 330 16:45 01.08.2019
4358 Clear 20 1015 45 10000 5.7 320 16:23 01.08.2019
4359 Clear 20 1016 45 10000 5.7 340 15:46 01.08.2019
4360 Clear 20 1016 45 10000 5.7 340 15:22 01.08.2019
4361 Clear 20 1016 45 10000 5.7 340 15:22 01.08.2019
4362 Clouds 19 1016 46 10000 4.6 330 14:59 01.08.2019
4363 Clouds 19 1016 45 10000 5.1 320 14:41 01.08.2019
4364 Clouds 19 1016 45 10000 5.1 320 14:18 01.08.2019
4365 -273 0 0 0 0 0 13:56 01.08.2019
4366 Clouds 19 1016 48 10000 4.6 330 13:38 01.08.2019
4367 Clouds 18 1017 52 10000 5.1 330 13:20 01.08.2019
4368 Clouds 18 1017 52 10000 5.1 350 12:41 01.08.2019
4369 Clouds 18 1017 52 10000 5.1 350 12:22 01.08.2019
4370 Clouds 17 1017 59 10000 4.6 360 11:43 01.08.2019
4371 -273 0 0 0 0 0 11:24 01.08.2019
4372 Clouds 16 1017 59 10000 5.1 330 10:46 01.08.2019
4373 Clouds 16 1017 59 10000 4.6 360 10:28 01.08.2019
4374 Clouds 15 1018 71 10000 4.1 330 09:59 01.08.2019
4375 Clouds 15 1018 67 10000 4.6 10 09:41 01.08.2019
4376 Clouds 15 1018 67 10000 4.6 10 09:41 01.08.2019
4377 Clouds 14 1018 67 10000 4.6 10 09:22 01.08.2019
4378 Clouds 14 1018 71 10000 5.1 360 08:45 01.08.2019
4379 Clouds 13 1018 71 10000 5.7 340 08:20 01.08.2019
4380 Clouds 13 1018 76 10000 4.1 350 07:50 01.08.2019
4381 Clouds 12 1018 81 10000 4.1 340 07:25 01.08.2019
4382 Clouds 12 1018 76 10000 3.6 340 06:49 01.08.2019
4383 Clouds 12 1018 81 10000 3.1 330 05:51 01.08.2019
4384 Clouds 11 1018 81 10000 3.1 340 04:24 01.08.2019
4385 Clouds 12 1019 76 10000 3.6 340 02:35 01.08.2019
4386 Clouds 13 1019 67 10000 3.6 350 00:46 01.08.2019
4387 Clouds 13 1019 67 10000 3.6 350 00:25 01.08.2019
4388 Clouds 13 1019 67 10000 3.6 340 23:43 31.07.2019
4389 Clouds 13 1019 67 10000 3.6 340 23:43 31.07.2019
4390 Clouds 13 1019 67 10000 3.6 340 23:21 31.07.2019
4391 Clouds 13 1018 67 10000 3.6 340 22:58 31.07.2019
4392 Clouds 13 1018 67 10000 3.6 340 22:40 31.07.2019
4393 Clear 13 1018 67 10000 3.6 350 22:21 31.07.2019
4394 Clear 14 1019 62 10000 3.1 350 21:39 31.07.2019
4395 Clear 14 1019 62 10000 3.1 350 21:39 31.07.2019
4396 Clear 14 1019 62 10000 3.1 350 21:20 31.07.2019
4397 Clouds 14 1019 62 10000 4.1 350 20:48 31.07.2019
4398 Clouds 15 1018 62 10000 4.6 360 20:22 31.07.2019
4399 Clouds 15 1018 59 10000 3.6 360 19:43 31.07.2019
4400 Clouds 15 1018 59 10000 3.6 360 19:24 31.07.2019
4401 Clouds 15 1018 59 10000 5.1 350 18:55 31.07.2019
4402 Clouds 16 1018 59 10000 5.1 350 18:37 31.07.2019
4403 Clouds 16 1018 59 10000 5.1 350 18:18 31.07.2019
4404 Clouds 16 1018 59 10000 4.6 350 17:42 31.07.2019
4405 Clouds 16 1018 55 10000 4.6 360 17:20 31.07.2019
4406 Clouds 16 1018 55 10000 5.1 340 16:46 31.07.2019
4407 Clouds 17 1019 59 10000 4.1 340 16:20 31.07.2019
4408 Clouds 16 1019 59 10000 5.1 350 15:46 31.07.2019
4409 Clouds 16 1019 63 10000 4.1 360 15:26 31.07.2019
4410 Clouds 16 1019 63 10000 4.6 20 14:59 31.07.2019
4411 Clouds 16 1019 63 10000 4.6 20 14:40 31.07.2019
4412 Clouds 16 1019 63 10000 4.1 10 14:18 31.07.2019
4413 Clouds 16 1018 59 10000 3.6 10 13:45 31.07.2019
4414 Clouds 16 1018 59 10000 3.6 10 13:26 31.07.2019
4415 Clouds 16 1018 67 10000 3.6 330 12:57 31.07.2019
4416 Clouds 16 1018 67 10000 4.1 320 12:38 31.07.2019
4417 Clouds 16 1018 67 10000 4.1 320 12:18 31.07.2019
4418 Clouds 15 1018 59 10000 4.1 350 11:39 31.07.2019
4419 Clouds 16 1018 59 10000 4.1 350 11:20 31.07.2019
4420 Clouds 15 1018 67 10000 5.1 340 10:44 31.07.2019
4421 Clouds 15 1018 67 10000 5.1 340 10:21 31.07.2019
4422 Clouds 15 1018 67 10000 4.1 350 09:57 31.07.2019
4423 Clouds 15 1018 71 10000 4.1 340 09:38 31.07.2019
4424 Clouds 15 1018 71 10000 4.1 340 09:20 31.07.2019
4425 Clouds 14 1018 71 10000 4.1 340 08:41 31.07.2019
4426 Clouds 14 1018 76 10000 4.6 340 08:21 31.07.2019
4427 Clouds 13 1018 81 10000 3.1 300 07:35 31.07.2019
4428 Clouds 12 1018 81 10000 2.6 290 06:44 31.07.2019
4429 Clouds 11 1018 81 10000 2.6 310 04:56 31.07.2019
4430 Clouds 11 1018 76 10000 3.1 310 03:25 31.07.2019
4431 Clouds 12 1018 71 10000 4.1 350 00:20 31.07.2019
4432 Clouds 12 1018 76 10000 4.1 350 23:40 30.07.2019
4433 Clouds 12 1018 76 10000 4.1 350 23:19 30.07.2019
4434 Clouds 12 1018 66 10000 4.6 350 22:46 30.07.2019
4435 Clouds 12 1018 66 10000 4.6 350 22:46 30.07.2019
4436 Clouds 12 1018 71 10000 4.6 340 22:25 30.07.2019
4437 Clouds 13 1018 62 10000 4.1 360 21:57 30.07.2019
4438 Clouds 13 1018 62 10000 5.1 350 21:36 30.07.2019
4439 Clouds 13 1018 62 10000 5.1 350 21:18 30.07.2019
4440 Clouds 14 1017 62 10000 5.1 360 20:43 30.07.2019
4441 Clouds 14 1017 54 10000 5.7 350 20:24 30.07.2019
4442 Clouds 14 1017 54 10000 5.1 10 19:59 30.07.2019
4443 Clouds 15 1017 51 10000 5.1 10 19:39 30.07.2019
4444 Clouds 15 1017 48 10000 4.6 340 18:58 30.07.2019
4445 Clouds 15 1017 48 10000 5.7 360 18:39 30.07.2019
4446 Clouds 15 1017 48 10000 5.7 360 18:19 30.07.2019
4447 Clouds 16 1017 45 10000 5.1 20 17:42 30.07.2019
4448 Clouds 16 1017 45 10000 5.1 20 17:19 30.07.2019
4449 Clouds 17 1017 45 10000 6.2 30 16:52 30.07.2019
4450 Clouds 17 1017 45 10000 6.2 20 16:21 30.07.2019
4451 Clouds 17 1017 45 10000 6.2 360 15:58 30.07.2019
4452 Clear 17 1017 45 10000 6.2 30 15:38 30.07.2019
4453 Clear 17 1017 45 10000 6.2 30 15:19 30.07.2019
4454 Clear 17 1017 42 10000 6.2 10 14:42 30.07.2019
4455 Clear 17 1017 42 10000 6.2 10 14:21 30.07.2019
4456 Clear 17 1016 42 10000 7.2 30 13:47 30.07.2019
4457 Clouds 16 1016 42 10000 6.7 50 13:29 30.07.2019
4458 Clear 16 1016 41 10000 6.2 30 12:59 30.07.2019
4459 Clear 16 1016 41 10000 6.2 30 12:59 30.07.2019
4460 Clouds 17 1016 45 10000 6.7 40 12:40 30.07.2019
4461 Clouds 16 1016 45 10000 6.7 40 12:22 30.07.2019
4462 Clouds 16 1016 51 10000 6.7 20 11:40 30.07.2019
4463 Clouds 15 1016 51 10000 6.7 20 11:20 30.07.2019
4464 Clouds 15 1015 54 10000 6.2 20 10:46 30.07.2019
4465 Clouds 15 1015 62 10000 6.7 10 10:27 30.07.2019
4466 Clouds 14 1015 71 10000 5.1 20 09:55 30.07.2019
4467 Clouds 14 1015 82 10000 5.1 10 09:37 30.07.2019
4468 Clouds 14 1015 82 10000 5.1 10 09:18 30.07.2019
4469 Clouds 13 1014 93 10000 4.1 350 08:32 30.07.2019
4470 Rain 13 1014 93 10000 4.6 330 07:50 30.07.2019
4471 Rain 12 1014 100 10000 5.1 330 07:31 30.07.2019
4472 Rain 12 1014 93 10000 5.1 340 06:48 30.07.2019
4473 Rain 12 1014 100 10000 4.6 320 06:28 30.07.2019
4474 Rain 12 1014 87 10000 3.6 350 05:34 30.07.2019
4475 Rain 14 1014 67 10000 5.1 350 03:28 30.07.2019
4476 Clouds 15 1014 63 10000 3.6 20 01:22 30.07.2019
4477 Clouds 16 1014 67 10000 4.1 20 00:25 30.07.2019
4478 Clouds 16 1014 67 10000 4.1 30 23:47 29.07.2019
4479 Clouds 16 1013 67 10000 4.6 20 23:28 29.07.2019
4480 Clouds 17 1013 63 10000 4.1 30 22:58 29.07.2019
4481 Clouds 17 1013 63 10000 4.1 30 22:58 29.07.2019
4482 Clouds 17 1013 68 10000 5.1 30 22:39 29.07.2019
4483 Clouds 17 1013 68 10000 5.1 30 22:20 29.07.2019
4484 Clouds 18 1013 63 10000 4.1 20 21:59 29.07.2019
4485 Clouds 18 1013 56 10000 5.1 30 21:41 29.07.2019
4486 Clouds 18 1013 56 10000 5.1 30 21:22 29.07.2019
4487 Clouds 19 1012 56 10000 5.1 10 20:55 29.07.2019
4488 Clouds 19 1012 64 10000 4.6 10 20:37 29.07.2019
4489 Clouds 20 1012 64 10000 4.6 10 20:19 29.07.2019
4490 Clouds 20 1012 53 10000 3.6 70 19:42 29.07.2019
4491 Clouds 21 1012 56 10000 2.6 50 19:21 29.07.2019
4492 Clouds 21 1012 56 10000 3.1 80 18:43 29.07.2019
4493 Clouds 23 1012 53 10000 3.1 90 18:23 29.07.2019
4494 Clouds 23 1012 56 10000 4.1 80 17:57 29.07.2019
4495 Clouds 24 1012 53 10000 4.6 80 17:39 29.07.2019
4496 Clouds 24 1012 53 10000 4.6 80 17:20 29.07.2019
4497 Clouds 24 1012 53 10000 4.1 80 16:43 29.07.2019
4498 Clouds 24 1013 57 10000 5.1 80 16:23 29.07.2019
4499 Clouds 24 1013 57 10000 5.1 80 15:54 29.07.2019
4500 Clouds 24 1013 57 10000 5.1 80 15:54 29.07.2019
4501 Clouds 24 1012 60 10000 4.6 70 15:35 29.07.2019
4502 Clouds 24 1013 54 10000 4.6 90 14:57 29.07.2019
4503 Clouds 25 1012 57 10000 4.1 90 14:39 29.07.2019
4504 Clouds 25 1012 57 10000 4.1 90 14:20 29.07.2019
4505 Clouds 25 1012 57 10000 4.1 90 14:20 29.07.2019
4506 Clouds 25 1012 57 10000 4.1 70 13:43 29.07.2019
4507 Clouds 25 1012 61 10000 4.1 70 13:23 29.07.2019
4508 Clouds 25 1012 61 10000 4.1 70 12:43 29.07.2019
4509 Clouds 24 1012 61 10000 4.1 50 12:25 29.07.2019
4510 Clouds 24 1012 65 10000 5.1 70 11:45 29.07.2019
4511 Clouds 24 1012 65 10000 4.6 50 11:24 29.07.2019
4512 Clouds 24 1012 65 10000 4.6 50 10:57 29.07.2019
4513 Clouds 24 1012 65 10000 4.6 50 10:57 29.07.2019
4514 Clouds 24 1012 69 10000 4.1 20 10:39 29.07.2019
4515 Clouds 23 1012 69 10000 4.1 20 10:20 29.07.2019
4516 Clear 23 1012 78 10000 4.1 20 09:40 29.07.2019
4517 Clear 23 1012 78 10000 4.1 20 09:19 29.07.2019
4518 Clouds 22 1012 83 10000 3.1 340 08:41 29.07.2019
4519 Clouds 21 1012 82 10000 3.6 350 08:20 29.07.2019
4520 Clouds 20 1012 88 10000 3.6 350 07:45 29.07.2019
4521 Clouds 20 1012 88 10000 3.1 350 07:23 29.07.2019
4522 Clear 18 1012 88 10000 2.6 340 05:52 29.07.2019
4523 Clear 18 1012 88 10000 2.1 310 04:59 29.07.2019
4524 Clear 19 1013 93 10000 3.1 320 02:28 29.07.2019
4525 Clear 19 1013 88 10000 3.1 340 01:46 29.07.2019
4526 Clear 20 1013 88 10000 3.1 340 01:24 29.07.2019
4527 Clear 20 1013 83 10000 3.6 360 00:50 29.07.2019
4528 Clear 20 1013 88 10000 4.1 350 00:22 29.07.2019
4529 Clear 21 1012 83 10000 2.6 350 23:41 28.07.2019
4530 Clear 21 1012 73 10000 2.6 10 23:19 28.07.2019
4531 Clear 21 1012 73 10000 2.6 10 23:19 28.07.2019
4532 Clear 21 1013 93 10000 4.6 10 22:41 28.07.2019
4533 Clear 22 1012 57 10000 3.1 20 22:22 28.07.2019
4534 Clear 23 1012 50 10000 3.1 20 21:49 28.07.2019
4535 Clear 24 1012 44 10000 3.6 20 21:19 28.07.2019
4536 Clear 26 1012 42 10000 3.6 20 20:48 28.07.2019
4537 Clear 26 1012 51 10000 3.6 70 20:29 28.07.2019
4538 Clear 26 1012 47 10000 7.2 30 19:56 28.07.2019
4539 Clear 27 1012 39 10000 4.6 70 19:38 28.07.2019
4540 Clear 28 1012 39 10000 4.6 70 19:19 28.07.2019
4541 Clear 28 1012 37 10000 4.6 80 18:43 28.07.2019
4542 Clear 29 1012 40 10000 5.1 90 18:24 28.07.2019
4543 Clear 30 1012 37 10000 5.1 60 17:43 28.07.2019
4544 Clear 30 1012 40 10000 5.1 80 17:22 28.07.2019
4545 Clear 30 1012 38 10000 4.6 70 16:59 28.07.2019
4546 Clear 30 1012 38 10000 5.1 60 16:40 28.07.2019
4547 Clear 30 1012 38 10000 5.1 60 16:22 28.07.2019
4548 Clear 30 1012 35 10000 5.1 60 15:43 28.07.2019
4549 Clear 30 1013 35 10000 5.1 60 15:22 28.07.2019
4550 Clear 30 1013 40 10000 4.1 90 14:38 28.07.2019
4551 Clear 30 1013 40 10000 4.1 90 14:20 28.07.2019
4552 Clear 30 1013 37 10000 4.6 60 13:55 28.07.2019
4553 Clear 30 1013 37 10000 4.6 60 13:36 28.07.2019
4554 Clear 30 1013 37 10000 4.6 60 13:18 28.07.2019
4555 Clear 29 1014 42 10000 3.6 50 12:41 28.07.2019
4556 Clear 29 1014 42 10000 3.6 50 12:23 28.07.2019
4557 Clear 29 1014 45 10000 3.6 60 11:48 28.07.2019
4558 Clear 28 1014 51 10000 3.1 70 11:27 28.07.2019
4559 Clear 27 1014 54 10000 3.1 70 10:42 28.07.2019
4560 Clear 27 1014 57 10000 3.1 50 10:23 28.07.2019
4561 Clear 27 1014 57 10000 3.1 50 10:23 28.07.2019
4562 Clear 26 1014 57 10000 2.6 40 09:57 28.07.2019
4563 Clear 25 1014 65 10000 3.1 60 09:38 28.07.2019
4564 Clear 25 1014 65 10000 3.1 60 09:19 28.07.2019
4565 Clear 24 1014 69 10000 3.1 50 08:41 28.07.2019
4566 Clear 23 1014 73 10000 3.1 60 08:21 28.07.2019
4567 Clear 22 1015 83 10000 1.5 50 07:39 28.07.2019
4568 Mist 21 1015 77 10000 1 0 06:47 28.07.2019
4569 Fog 19 1015 88 10000 1 0 05:59 28.07.2019
4570 Fog 18 1015 88 10000 1.5 0 04:37 28.07.2019
4571 Mist 19 1016 82 10000 1.5 10 02:24 28.07.2019
4572 Clear 19 1016 73 10000 2.1 10 01:25 28.07.2019
4573 Clear 20 1017 77 10000 1.5 360 00:49 28.07.2019
4574 Clear 20 1017 68 10000 2.1 30 00:24 28.07.2019
4575 Clear 21 1017 68 10000 2.6 20 23:48 27.07.2019
4576 Clear 21 1017 69 10000 3.6 40 23:26 27.07.2019
4577 Clear 21 1017 73 10000 4.1 30 22:43 27.07.2019
4578 Clear 21 1017 73 10000 4.1 50 22:23 27.07.2019
4579 Clear 22 1017 64 10000 5.1 50 21:45 27.07.2019
4580 Clear 23 1017 54 10000 3.1 70 21:23 27.07.2019
4581 Clear 24 1017 54 10000 3.6 50 20:55 27.07.2019
4582 Clear 25 1017 57 10000 3.6 70 20:32 27.07.2019
4583 Clear 26 1017 51 10000 4.6 70 19:59 27.07.2019
4584 Clear 27 1017 51 10000 4.1 70 19:39 27.07.2019
4585 Clear 27 1017 51 10000 4.1 70 19:19 27.07.2019
4586 Clear 27 1017 54 10000 4.6 70 18:46 27.07.2019
4587 Clear 28 1018 48 10000 5.1 50 18:28 27.07.2019
4588 Clouds 28 1018 48 10000 5.1 60 17:50 27.07.2019
4589 Clear 28 1018 45 10000 5.1 80 17:31 27.07.2019
4590 Clear 28 1018 45 10000 5.1 80 16:54 27.07.2019
4591 Clear 28 1018 45 10000 5.1 70 16:34 27.07.2019
4592 Clear 28 1019 48 10000 5.1 80 15:56 27.07.2019
4593 Clear 28 1019 45 10000 5.1 80 15:28 27.07.2019
4594 Clear 28 1019 48 10000 5.1 80 14:59 27.07.2019
4595 Clear 28 1019 51 10000 5.7 60 14:41 27.07.2019
4596 Clear 28 1019 51 10000 5.7 60 14:21 27.07.2019
4597 Clear 28 1020 51 10000 4.6 80 13:46 27.07.2019
4598 Clear 28 1020 54 10000 4.6 60 13:22 27.07.2019
4599 Clear 27 1020 54 10000 4.6 90 12:49 27.07.2019
4600 Clear 27 1020 54 10000 4.1 60 12:26 27.07.2019
4601 Clear 27 1020 51 10000 3.6 70 11:54 27.07.2019
4602 Clear 27 1020 61 10000 4.1 60 11:36 27.07.2019
4603 Clear 26 1020 61 10000 4.1 60 11:18 27.07.2019
4604 Clear 25 1020 57 10000 3.1 60 10:40 27.07.2019
4605 Clear 25 1020 65 10000 3.1 40 10:20 27.07.2019
4606 Clear 24 1021 78 10000 3.6 60 09:40 27.07.2019
4607 Clear 24 1021 78 10000 3.6 60 09:22 27.07.2019
4608 Clear 23 1021 83 10000 3.1 60 08:48 27.07.2019
4609 Clouds 22 1021 78 10000 3.1 50 08:29 27.07.2019
4610 Clouds 21 1020 83 10000 2.6 60 07:50 27.07.2019
4611 Clouds 21 1021 83 10000 2.1 60 07:27 27.07.2019
4612 Clouds 20 1021 82 10000 2.1 60 06:56 27.07.2019
4613 Clouds 19 1021 88 10000 2.1 30 06:30 27.07.2019
4614 Clouds 17 1021 93 10000 2.1 30 05:49 27.07.2019
4615 Clouds 17 1021 100 10000 1 10 05:18 27.07.2019
4616 Clouds 17 1020 93 10000 1 0 04:30 27.07.2019
4617 Clouds 17 1021 93 10000 1 30 02:58 27.07.2019
4618 Clouds 17 1021 93 10000 1.5 50 02:31 27.07.2019
4619 Clouds 18 1021 88 10000 2.1 70 01:44 27.07.2019
4620 Clear 18 1021 88 10000 2.1 80 00:59 27.07.2019
4621 Clear 18 1021 82 10000 2.1 80 00:32 27.07.2019
4622 Clear 19 1021 82 10000 2.6 70 23:53 26.07.2019
4623 Clear 19 1021 77 10000 2.6 90 23:32 26.07.2019
4624 Clear 20 1021 68 10000 3.1 70 22:56 26.07.2019
4625 Clear 20 1021 60 10000 2.6 60 22:38 26.07.2019
4626 Clear 20 1021 60 10000 2.6 60 22:20 26.07.2019
4627 Clear 21 1021 56 10000 2.1 80 21:44 26.07.2019
4628 Clear 21 1021 56 10000 2.1 80 21:44 26.07.2019
4629 Clear 22 1020 53 10000 2.6 70 21:19 26.07.2019
4630 Clear 23 1020 53 10000 2.6 60 20:42 26.07.2019
4631 Clear 24 1020 47 10000 4.1 60 20:22 26.07.2019
4632 Clear 24 1020 44 10000 4.1 60 19:43 26.07.2019
4633 Clear 25 1020 44 10000 3.6 80 19:24 26.07.2019
4634 Clear 25 1020 41 10000 4.1 110 18:57 26.07.2019
4635 Clear 25 1020 44 10000 4.6 110 18:37 26.07.2019
4636 Clear 26 1020 44 10000 4.6 110 18:19 26.07.2019
4637 Clear 27 1020 47 10000 5.1 110 17:44 26.07.2019
4638 Clear 27 1020 47 10000 4.6 110 17:19 26.07.2019
4639 Clear 27 1020 45 10000 5.1 90 16:57 26.07.2019
4640 Clear 28 1020 45 10000 5.1 70 16:38 26.07.2019
4641 Clear 28 1020 45 10000 5.1 70 16:19 26.07.2019
4642 Clear 28 1020 45 10000 4.6 60 15:55 26.07.2019
4643 Clear 28 1020 39 10000 4.6 70 15:36 26.07.2019
4644 Clear 28 1020 39 10000 4.6 70 15:18 26.07.2019
4645 Clear 28 1020 48 10000 5.1 100 14:42 26.07.2019
4646 Clear 28 1020 48 10000 3.6 80 14:22 26.07.2019
4647 Clear 29 1020 45 10000 3.6 110 13:42 26.07.2019
4648 Clear 29 1020 51 10000 4.6 110 13:24 26.07.2019
4649 Clear 28 1020 51 10000 3.1 80 12:49 26.07.2019
4650 Clear 28 1021 48 10000 2.6 40 12:20 26.07.2019
4651 Clear 28 1021 48 10000 2.1 40 11:47 26.07.2019
4652 Clear 27 1021 51 10000 2.6 80 11:22 26.07.2019
4653 Clear 26 1021 51 10000 2.6 80 10:58 26.07.2019
4654 Clear 26 1021 51 10000 2.1 30 10:38 26.07.2019
4655 Clear 26 1021 54 10000 2.1 70 09:59 26.07.2019
4656 Clear 25 1021 57 10000 2.1 80 09:41 26.07.2019
4657 Clear 24 1021 57 10000 2.1 80 09:21 26.07.2019
4658 Clear 24 1021 61 10000 1.5 0 08:40 26.07.2019
4659 Clear 23 1021 64 10000 1.5 40 08:20 26.07.2019
4660 Clear 22 1021 69 10000 0.82 43.463 07:36 26.07.2019
4661 Clear 19 1021 82 10000 0.82 43.463 06:58 26.07.2019
4662 Clouds 16 1020 100 10000 0.4 136.705 05:23 26.07.2019
4663 Clouds 16 1020 88 10000 0.4 136.705 04:29 26.07.2019
4664 Clouds 17 1020 93 10000 0.4 136.705 03:44 26.07.2019
4665 Clouds 18 1020 88 10000 1.09 144.901 01:45 26.07.2019
4666 Clouds 19 1020 82 10000 0.5 0 00:50 26.07.2019
4667 Clear 19 1020 77 10000 0.5 0 00:25 26.07.2019
4668 Clear 20 1020 73 10000 1.44 159.877 23:26 25.07.2019
4669 Clear 21 1020 68 10000 1.5 140 22:59 25.07.2019
4670 Clear 22 1019 60 10000 2.1 140 22:41 25.07.2019
4671 Clear 22 1019 60 10000 2.1 140 22:21 25.07.2019
4672 Clear 22 1019 60 10000 2.1 140 22:21 25.07.2019
4673 Clear 23 1019 64 10000 1.5 0 21:47 25.07.2019
4674 Clear 24 1019 54 10000 2.1 160 21:23 25.07.2019
4675 Clear 26 1019 54 10000 2.6 160 20:49 25.07.2019
4676 Clear 26 1019 51 10000 3.6 140 20:31 25.07.2019
4677 Clear 27 1019 48 10000 3.6 140 19:55 25.07.2019
4678 Clear 27 1019 48 10000 4.1 120 19:37 25.07.2019
4679 Clear 28 1019 48 10000 4.1 120 19:19 25.07.2019
4680 Clear 28 1019 48 10000 3.6 130 18:40 25.07.2019
4681 Clear 29 1019 48 10000 3.6 130 18:22 25.07.2019
4682 Clear 28 1019 48 10000 3.1 160 17:48 25.07.2019
4683 Clear 29 1019 48 10000 3.1 150 17:30 25.07.2019
4684 Clear 29 1019 51 10000 5.1 140 16:56 25.07.2019
4685 Clear 29 1019 45 10000 2.6 140 16:37 25.07.2019
4686 Clear 29 1019 45 10000 2.6 140 16:18 25.07.2019
4687 Clear 29 1019 42 10000 2.1 330 15:38 25.07.2019
4688 Clear 29 1019 42 10000 2.1 330 15:19 25.07.2019
4689 Clear 30 1019 42 10000 2.6 330 14:42 25.07.2019
4690 Clear 30 1019 42 10000 2.6 310 14:22 25.07.2019
4691 Clear 30 1019 45 10000 2.6 350 13:44 25.07.2019
4692 Clear 29 1019 48 10000 2.1 300 13:26 25.07.2019
4693 Clear 29 1019 45 10000 3.1 300 12:57 25.07.2019
4694 Clear 28 1019 51 10000 4.1 290 12:28 25.07.2019
4695 Clear 28 1019 48 10000 4.1 260 11:46 25.07.2019
4696 Clear 28 1019 45 10000 2.6 330 11:25 25.07.2019
4697 Clear 27 1019 48 10000 1.5 0 10:55 25.07.2019
4698 Clear 27 1019 54 10000 1.5 310 10:36 25.07.2019
4699 Clear 27 1019 54 10000 1.5 310 10:18 25.07.2019
4700 Clear 25 1019 54 10000 2.1 290 09:40 25.07.2019
4701 Clear 24 1019 57 10000 1.5 360 09:18 25.07.2019
4702 Clear 23 1020 64 10000 3.1 300 08:42 25.07.2019
4703 Clear 22 1019 69 10000 0.5 0 07:56 25.07.2019
4704 Clear 21 1019 77 10000 0.5 0 07:34 25.07.2019
4705 Clear 19 1019 77 10000 1.7 318.658 06:43 25.07.2019
4706 Fog 16 1019 93 10000 0.5 290 05:37 25.07.2019
4707 Fog 16 1019 93 10000 0.5 290 05:18 25.07.2019
4708 Clear 16 1019 93 10000 1.96 291.937 04:36 25.07.2019
4709 Clear 17 1019 93 10000 2.11 262.576 01:45 25.07.2019
4710 Clear 17 1019 88 10000 2.2 258.516 01:18 25.07.2019
4711 Clear 18 1019 88 10000 1 0 00:20 25.07.2019
4712 Clear 19 1019 82 10000 2.16 221.662 23:46 24.07.2019
4713 Clear 19 1019 82 10000 0.5 0 23:27 24.07.2019
4714 Clear 20 1019 77 10000 1 200 22:55 24.07.2019
4715 Clear 20 1019 68 10000 1.5 170 22:36 24.07.2019
4716 Clear 20 1019 68 10000 1.5 170 22:18 24.07.2019
4717 Clear 22 1018 60 10000 2.6 190 21:42 24.07.2019
4718 Clear 22 1018 60 10000 2.6 190 21:21 24.07.2019
4719 Clear 22 1018 60 10000 2.6 190 21:21 24.07.2019
4720 Clear 23 1018 60 10000 3.6 200 20:55 24.07.2019
4721 Clear 24 1018 57 10000 3.6 200 20:37 24.07.2019
4722 Clear 24 1018 57 10000 3.6 200 20:19 24.07.2019
4723 Clear 25 1018 54 10000 4.1 200 19:42 24.07.2019
4724 Clear 25 1018 54 10000 4.1 200 19:22 24.07.2019
4725 Clear 25 1018 54 10000 3.6 150 18:45 24.07.2019
4726 Clear 26 1018 57 10000 3.6 150 18:25 24.07.2019
4727 Clear 26 1018 57 10000 3.6 160 17:56 24.07.2019
4728 Clear 26 1018 54 10000 2.1 160 17:37 24.07.2019
4729 Clear 26 1018 54 10000 2.1 160 17:18 24.07.2019
4730 Clear 26 1018 44 10000 1.5 200 16:40 24.07.2019
4731 Clear 26 1018 44 10000 1.5 200 16:21 24.07.2019
4732 Clear 26 1018 44 10000 1.5 250 15:39 24.07.2019
4733 Clear 26 1018 44 10000 1.5 250 15:21 24.07.2019
4734 Clear 26 1019 50 10000 2.6 310 14:47 24.07.2019
4735 Clear 26 1019 47 10000 2.1 270 14:23 24.07.2019
4736 Clouds 26 1019 53 10000 1.5 300 13:58 24.07.2019
4737 Clouds 26 1019 50 10000 2.6 270 13:36 24.07.2019
4738 Clouds 26 1019 50 10000 2.6 270 13:18 24.07.2019
4739 Clouds 25 1019 53 10000 2.6 250 12:46 24.07.2019
4740 Clouds 25 1019 53 10000 2.6 300 12:23 24.07.2019
4741 Clouds 24 1019 57 10000 1.5 0 11:37 24.07.2019
4742 Clouds 24 1019 57 10000 1.5 0 11:19 24.07.2019
4743 Clear 23 1019 60 10000 2.1 290 10:43 24.07.2019
4744 Clear 23 1019 60 10000 1.5 0 10:24 24.07.2019
4745 Clear 22 1019 64 10000 1.5 320 09:44 24.07.2019
4746 Clear 22 1019 64 10000 1.5 320 09:44 24.07.2019
4747 Clear 22 1019 68 10000 1.5 0 09:24 24.07.2019
4748 Clear 21 1019 68 10000 1.5 330 08:55 24.07.2019
4749 Clear 20 1019 73 10000 1.5 0 08:30 24.07.2019
4750 Clear 20 1019 82 10000 2.1 290 07:51 24.07.2019
4751 Clear 18 1018 88 10000 1 280 07:23 24.07.2019
4752 Clear 16 1018 100 10000 1.25 284.739 06:28 24.07.2019
4753 Clear 16 1018 100 10000 1.25 284.739 06:28 24.07.2019
4754 Fog 15 1018 100 10000 0.5 0 05:33 24.07.2019
4755 Clouds 16 1018 93 10000 1 260 01:59 24.07.2019
4756 Clear 16 1018 93 10000 1 270 01:29 24.07.2019
4757 Clear 16 1018 93 10000 1.59 257.686 00:57 24.07.2019
4758 Clear 16 1018 100 10000 1 280 00:22 24.07.2019
4759 Clear 16 1017 93 10000 1 0 23:42 23.07.2019
4760 Clear 17 1017 88 10000 0.5 240 23:23 23.07.2019
4761 Clear 18 1017 77 10000 1.5 250 22:39 23.07.2019
4762 Clear 18 1017 77 10000 1.5 250 22:19 23.07.2019
4763 Clear 19 1017 72 10000 2.6 270 21:58 23.07.2019
4764 Clear 19 1017 72 10000 2.6 270 21:58 23.07.2019
4765 Clear 19 1017 77 10000 3.1 290 21:40 23.07.2019
4766 Clear 19 1017 77 10000 3.1 290 21:40 23.07.2019
4767 Clear 20 1017 77 10000 3.1 290 21:21 23.07.2019
4768 Clear 20 1017 73 10000 3.1 290 20:44 23.07.2019
4769 Clear 21 1017 64 10000 3.1 270 20:21 23.07.2019
4770 Clear 21 1016 64 10000 2.6 250 19:42 23.07.2019
4771 Clear 21 1016 68 10000 3.6 260 19:19 23.07.2019
4772 Clear 21 1016 64 10000 3.1 250 18:47 23.07.2019
4773 Clear 21 1016 64 10000 3.6 250 18:23 23.07.2019
4774 Clear 22 1016 64 10000 3.1 240 17:45 23.07.2019
4775 Clear 22 1016 64 10000 3.6 260 17:25 23.07.2019
4776 Clear 22 1016 60 10000 3.1 250 16:57 23.07.2019
4777 Clear 22 1016 60 10000 3.1 250 16:39 23.07.2019
4778 Clear 22 1016 60 10000 3.1 250 16:18 23.07.2019
4779 Clear 22 1016 60 10000 3.1 280 15:43 23.07.2019
4780 Clear 22 1016 60 10000 2.6 270 15:23 23.07.2019
4781 Clouds 22 1016 56 10000 2.6 230 14:39 23.07.2019
4782 Clouds 23 1016 56 10000 2.6 230 14:20 23.07.2019
4783 Clouds 22 1016 56 10000 2.1 0 13:57 23.07.2019
4784 Clouds 22 1016 56 10000 2.6 230 13:38 23.07.2019
4785 Clouds 22 1016 56 10000 2.6 230 13:20 23.07.2019
4786 Clouds 22 1016 60 10000 3.1 280 12:45 23.07.2019
4787 Clouds 22 1016 64 10000 2.6 0 12:25 23.07.2019
4788 Clouds 22 1016 64 10000 2.6 240 11:46 23.07.2019
4789 Clouds 21 1016 64 10000 2.1 0 11:27 23.07.2019
4790 Clear 21 1016 64 10000 2.6 230 10:54 23.07.2019
4791 Clear 21 1016 68 10000 2.1 230 10:36 23.07.2019
4792 Clear 20 1016 68 10000 2.1 230 10:18 23.07.2019
4793 Clear 20 1016 77 10000 2.6 260 09:40 23.07.2019
4794 Clear 19 1016 77 10000 2.6 260 09:18 23.07.2019
4795 Clear 18 1015 77 10000 3.6 260 08:40 23.07.2019
4796 Clear 18 1015 77 10000 3.6 260 08:19 23.07.2019
4797 Clear 17 1015 82 10000 3.6 260 07:53 23.07.2019
4798 Clear 17 1015 82 10000 3.1 250 07:33 23.07.2019
4799 Clear 17 1015 82 10000 2.6 260 06:38 23.07.2019
4800 Clouds 15 1015 87 10000 2.1 260 05:51 23.07.2019
4801 Clouds 16 1015 77 10000 2.6 250 01:58 23.07.2019
4802 Clouds 16 1015 77 10000 2.6 260 01:27 23.07.2019
4803 Clouds 17 1015 72 10000 3.6 250 00:30 23.07.2019
4804 Clouds 18 1015 72 10000 2.6 240 23:41 22.07.2019
4805 Clouds 18 1015 72 10000 2.6 240 23:21 22.07.2019
4806 Clouds 18 1014 72 10000 2.6 250 22:58 22.07.2019
4807 Clouds 18 1014 72 10000 2.6 250 22:40 22.07.2019
4808 Clear 18 1014 68 10000 1.5 230 22:20 22.07.2019
4809 Clear 18 1014 68 10000 1.5 230 22:20 22.07.2019
4810 Clear 19 1014 64 10000 2.1 260 21:42 22.07.2019
4811 Clear 19 1014 64 10000 2.1 260 21:21 22.07.2019
4812 Clear 20 1014 60 10000 3.1 260 20:48 22.07.2019
4813 Clear 20 1014 60 10000 4.6 260 20:29 22.07.2019
4814 Clouds 21 1014 56 10000 4.1 260 19:54 22.07.2019
4815 Clouds 21 1013 56 10000 3.1 250 19:36 22.07.2019
4816 Clouds 22 1013 56 10000 3.1 250 19:18 22.07.2019
4817 Clouds 22 1014 60 10000 4.6 260 18:40 22.07.2019
4818 Clouds 22 1014 60 10000 4.6 260 18:22 22.07.2019
4819 Clouds 22 1014 60 10000 5.7 240 17:42 22.07.2019
4820 Clouds 22 1013 60 10000 6.2 240 17:23 22.07.2019
4821 Rain 22 1013 56 10000 5.1 250 16:42 22.07.2019
4822 Rain 22 1013 56 10000 5.1 250 16:21 22.07.2019
4823 Clouds 22 1013 64 10000 4.6 240 15:59 22.07.2019
4824 Rain 22 1014 64 10000 5.1 250 15:37 22.07.2019
4825 Rain 22 1014 64 10000 5.1 250 15:18 22.07.2019
4826 Clouds 21 1014 64 10000 5.7 270 14:43 22.07.2019
4827 Clouds 21 1014 64 10000 5.7 270 14:20 22.07.2019
4828 Clouds 21 1014 77 10000 4.1 270 13:47 22.07.2019
4829 Clouds 21 1014 82 10000 4.6 270 13:28 22.07.2019
4830 Clouds 20 1014 77 10000 5.1 260 12:46 22.07.2019
4831 Clouds 20 1013 82 10000 4.6 280 12:27 22.07.2019
4832 Clouds 19 1013 88 10000 5.1 270 11:45 22.07.2019
4833 Clouds 19 1013 93 10000 3.6 260 11:25 22.07.2019
4834 Mist 18 1013 100 8000 2.1 260 10:53 22.07.2019
4835 Drizzle 18 1013 93 8000 2.6 250 10:30 22.07.2019
4836 Clouds 17 1013 93 10000 1.5 290 09:45 22.07.2019
4837 Clouds 17 1013 93 10000 3.1 280 09:25 22.07.2019
4838 Clouds 17 1013 88 10000 2.1 270 08:47 22.07.2019
4839 Mist 17 1013 93 10000 2.1 280 08:26 22.07.2019
4840 Mist 16 1013 93 10000 2.6 280 07:59 22.07.2019
4841 Mist 16 1012 100 10000 1 250 07:40 22.07.2019
4842 Mist 16 1012 100 10000 1 250 07:21 22.07.2019
4843 Mist 16 1013 100 5000 1 250 03:59 22.07.2019
4844 Mist 16 1013 100 6000 0.5 280 02:45 22.07.2019
4845 Rain 16 1013 100 10000 1.5 250 00:58 22.07.2019
4846 Drizzle 16 1013 100 5000 0.5 240 00:38 22.07.2019
4847 Drizzle 16 1013 100 5000 0.5 240 00:18 22.07.2019
4848 Mist 16 1013 100 6000 0.5 0 23:42 21.07.2019
4849 Rain 16 1013 100 6000 1.43 22.952 22:56 21.07.2019
4850 Rain 17 1013 93 10000 1 0 22:37 21.07.2019
4851 Rain 17 1013 93 10000 1 0 22:19 21.07.2019
4852 Rain 17 1013 93 9000 2.1 110 21:47 21.07.2019
4853 Rain 17 1013 93 10000 1.5 0 21:25 21.07.2019
4854 Rain 17 1013 93 10000 1 0 20:56 21.07.2019
4855 Rain 17 1013 93 8000 1.5 130 20:38 21.07.2019
4856 Rain 18 1013 93 8000 1.5 130 20:19 21.07.2019
4857 Rain 18 1013 88 10000 2.1 90 19:47 21.07.2019
4858 Rain 18 1013 93 10000 1 0 19:26 21.07.2019
4859 Rain 18 1013 88 10000 1.5 190 18:48 21.07.2019
4860 Rain 19 1013 88 10000 1 0 18:26 21.07.2019
4861 Rain 19 1013 72 10000 2.1 280 17:44 21.07.2019
4862 Clouds 20 1013 72 10000 3.1 270 17:21 21.07.2019
4863 Clear 20 1013 60 10000 2.6 210 16:59 21.07.2019
4864 Clear 21 1013 60 10000 2.6 210 16:40 21.07.2019
4865 Clear 21 1013 60 10000 2.6 210 16:20 21.07.2019
4866 Clear 22 1013 53 10000 3.6 170 15:39 21.07.2019
4867 Clear 23 1013 53 10000 3.6 170 15:19 21.07.2019
4868 Clear 23 1013 49 10000 4.6 160 14:42 21.07.2019
4869 Clear 24 1013 50 10000 5.1 150 14:23 21.07.2019
4870 Clear 24 1013 50 10000 4.1 150 13:53 21.07.2019
4871 Clear 24 1013 46 10000 5.7 140 13:32 21.07.2019
4872 Clear 24 1013 50 10000 5.1 110 12:46 21.07.2019
4873 Clear 24 1013 53 10000 5.7 120 12:28 21.07.2019
4874 Clear 24 1013 53 10000 5.1 110 11:55 21.07.2019
4875 Clear 23 1013 49 10000 5.1 130 11:37 21.07.2019
4876 Clear 23 1013 49 10000 5.1 130 11:18 21.07.2019
4877 Clouds 22 1013 60 10000 4.6 100 10:41 21.07.2019
4878 Clouds 22 1013 60 10000 4.6 110 10:22 21.07.2019
4879 Clouds 21 1014 56 10000 5.1 120 09:42 21.07.2019
4880 Clouds 21 1014 60 10000 4.6 130 09:24 21.07.2019
4881 Clouds 20 1014 68 10000 4.6 110 08:45 21.07.2019
4882 Clouds 20 1014 68 10000 4.6 110 08:45 21.07.2019
4883 Clouds 19 1014 72 10000 4.1 120 08:26 21.07.2019
4884 Clouds 18 1014 88 10000 3.6 110 07:39 21.07.2019
4885 Clouds 17 1014 93 10000 3.6 120 06:52 21.07.2019
4886 Clouds 15 1015 93 10000 2.6 140 05:43 21.07.2019
4887 Clear 14 1015 93 10000 1.5 130 02:53 21.07.2019
4888 Clear 15 1016 82 10000 1.5 130 01:19 21.07.2019
4889 Clear 16 1016 77 10000 1.5 150 00:41 21.07.2019
4890 Clear 16 1016 77 10000 1.5 150 00:18 21.07.2019
4891 Clear 17 1016 63 10000 2.6 140 23:41 20.07.2019
4892 Clear 17 1016 63 10000 2.6 140 23:21 20.07.2019
4893 Clear 17 1016 63 10000 3.6 140 22:45 20.07.2019
4894 Clear 18 1015 59 10000 3.1 140 22:22 20.07.2019
4895 Clear 19 1015 59 10000 3.6 150 21:56 20.07.2019
4896 Clear 20 1015 49 10000 4.6 140 21:37 20.07.2019
4897 Clear 19 1015 49 10000 4.6 140 21:18 20.07.2019
4898 Clear 21 1015 49 10000 4.1 140 20:40 20.07.2019
4899 Clear 21 1015 46 10000 4.6 150 20:19 20.07.2019
4900 Clear 23 1015 40 10000 4.1 150 19:45 20.07.2019
4901 Clear 23 1015 35 10000 4.1 160 19:20 20.07.2019
4902 Clear 23 1015 29 10000 5.1 140 18:42 20.07.2019
4903 Clear 24 1015 29 10000 5.1 140 18:20 20.07.2019
4904 Clear 24 1015 29 10000 5.1 140 17:53 20.07.2019
4905 Clear 24 1015 31 10000 5.7 140 17:23 20.07.2019
4906 Clear 24 1015 41 10000 5.7 140 16:44 20.07.2019
4907 Clear 24 1015 44 10000 6.2 140 16:26 20.07.2019
4908 Clear 25 1015 44 10000 6.2 130 15:58 20.07.2019
4909 Clear 25 1015 36 10000 5.1 140 15:38 20.07.2019
4910 Clear 25 1015 36 10000 5.1 140 15:20 20.07.2019
4911 Clear 25 1015 36 10000 5.7 130 14:47 20.07.2019
4912 Clear 25 1015 41 10000 4.6 140 14:24 20.07.2019
4913 Clear 25 1015 38 10000 3.1 230 13:39 20.07.2019
4914 Clear 25 1015 38 10000 3.1 230 13:20 20.07.2019
4915 Clear 25 1015 36 10000 3.6 190 12:57 20.07.2019
4916 Clear 25 1015 38 10000 3.6 150 12:26 20.07.2019
4917 Clear 23 1015 41 10000 4.1 140 11:57 20.07.2019
4918 Clear 23 1015 44 10000 3.6 150 11:27 20.07.2019
4919 Clear 23 1015 46 10000 3.1 130 10:58 20.07.2019
4920 Clear 23 1015 46 10000 4.1 130 10:37 20.07.2019
4921 Clear 22 1015 46 10000 4.1 130 10:18 20.07.2019
4922 Clear 22 1015 46 10000 4.1 130 10:18 20.07.2019
4923 Clear 22 1015 46 10000 4.1 130 10:18 20.07.2019
4924 Clear 22 1015 53 10000 2.1 0 09:45 20.07.2019
4925 Clear 21 1015 56 10000 2.1 120 09:22 20.07.2019
4926 Clear 20 1015 64 10000 1 0 08:45 20.07.2019
4927 Clouds 19 1015 72 10000 1.5 130 08:20 20.07.2019
4928 Clouds 17 1014 77 10000 0.5 0 07:21 20.07.2019
4929 Clouds 16 1014 87 10000 0.5 0 06:42 20.07.2019
4930 Clouds 12 1014 93 10000 1.06 200.118 04:57 20.07.2019
4931 Clouds 12 1014 93 10000 1.06 200.118 04:29 20.07.2019
4932 Fog 14 1014 82 10000 1 200 01:21 20.07.2019
4933 Fog 14 1014 82 10000 1.5 200 00:47 20.07.2019
4934 Mist 14 1014 87 10000 1.83 227.367 00:23 20.07.2019
4935 Clouds 15 1014 82 10000 1 170 23:45 19.07.2019
4936 Clouds 16 1013 77 10000 1 170 23:26 19.07.2019
4937 Clouds 16 1013 82 10000 1.5 180 22:51 19.07.2019
4938 Clear 17 1013 72 10000 1.5 160 22:26 19.07.2019
4939 Clear 18 1013 68 10000 1.5 150 21:59 19.07.2019
4940 Clear 19 1013 60 10000 1.5 180 21:39 19.07.2019
4941 Clear 19 1013 60 10000 1.5 180 21:21 19.07.2019
4942 Clear 20 1013 68 10000 1.5 160 20:42 19.07.2019
4943 Clear 20 1013 68 10000 1.5 160 20:23 19.07.2019
4944 Clear 22 1013 64 10000 2.6 50 19:37 19.07.2019
4945 Rain 21 1013 68 10000 2.1 20 18:47 19.07.2019
4946 Rain 22 1013 64 10000 3.6 360 18:25 19.07.2019
4947 Clear 22 1012 56 10000 2.6 0 17:58 19.07.2019
4948 Rain 22 1012 53 10000 2.6 80 17:40 19.07.2019
4949 Rain 22 1012 53 10000 2.6 80 17:21 19.07.2019
4950 Thunderstorm 23 1012 39 10000 2.1 200 16:42 19.07.2019
4951 Thunderstorm 23 1012 39 10000 2.1 200 16:18 19.07.2019
4952 Thunderstorm 24 1012 41 10000 1.5 360 15:47 19.07.2019
4953 Thunderstorm 25 1012 41 10000 2.1 40 15:29 19.07.2019
4954 Clear 24 1012 44 10000 1.5 360 14:47 19.07.2019
4955 Rain 23 1012 44 10000 2.1 360 14:27 19.07.2019
4956 Clear 24 1013 41 10000 1.5 0 13:58 19.07.2019
4957 Clear 25 1013 44 10000 2.1 200 13:39 19.07.2019
4958 Clear 24 1013 44 10000 2.1 200 13:20 19.07.2019
4959 Clear 24 1013 47 10000 1.5 0 12:45 19.07.2019
4960 Clear 24 1013 47 10000 1.5 0 12:26 19.07.2019
4961 Clear 24 1013 47 10000 1.5 0 11:46 19.07.2019
4962 Clear 23 1013 47 10000 2.1 300 11:19 19.07.2019
4963 Clear 23 1013 46 10000 0.5 0 10:56 19.07.2019
4964 Clear 23 1013 43 10000 1 0 10:37 19.07.2019
4965 Clear 22 1013 43 10000 1 0 10:18 19.07.2019
4966 Clear 22 1013 46 10000 1.5 0 09:43 19.07.2019
4967 Clear 20 1013 52 10000 0.91 225 09:22 19.07.2019
4968 Clear 20 1013 52 10000 0.91 225 09:22 19.07.2019
4969 Clear 20 1013 64 10000 0.5 0 08:50 19.07.2019
4970 Clear 18 1013 68 10000 0.77 174.772 08:27 19.07.2019
4971 Clear 16 1013 87 10000 1 130 07:32 19.07.2019
4972 Clear 14 1013 93 10000 0.77 174.772 06:33 19.07.2019
4973 Clouds 12 1013 93 10000 0.81 230.701 02:58 19.07.2019
4974 Clouds 13 1013 93 10000 0.81 230.701 01:42 19.07.2019
4975 Clouds 14 1013 87 10000 1.34 226.787 00:47 19.07.2019
4976 Clouds 15 1013 82 10000 1 140 23:59 18.07.2019
4977 Clouds 15 1013 82 10000 1 160 23:40 18.07.2019
4978 Clouds 15 1013 82 10000 1 160 23:22 18.07.2019
4979 Clouds 16 1013 77 10000 1.5 160 22:44 18.07.2019
4980 Clear 18 1013 68 10000 2.1 190 22:20 18.07.2019
4981 Clear 18 1012 63 10000 2.1 190 21:56 18.07.2019
4982 Clear 19 1012 64 10000 2.6 210 21:37 18.07.2019
4983 Clear 19 1012 64 10000 2.6 210 21:18 18.07.2019
4984 Clear 21 1012 56 10000 2.6 200 20:42 18.07.2019
4985 Clear 21 1012 56 10000 2.6 200 20:23 18.07.2019
4986 Clear 22 1012 53 10000 3.1 200 19:47 18.07.2019
4987 Clear 22 1012 56 10000 2.6 160 19:27 18.07.2019
4988 Clear 21 1012 64 10000 3.1 150 18:50 18.07.2019
4989 Clear 23 1012 60 10000 4.1 150 18:22 18.07.2019
4990 Clear 22 1012 60 10000 3.6 150 17:56 18.07.2019
4991 Clouds 22 1012 56 10000 3.1 160 17:37 18.07.2019
4992 Clouds 22 1012 56 10000 3.1 160 17:19 18.07.2019
4993 Clear 22 1012 56 10000 2.6 140 16:49 18.07.2019
4994 Clear 21 1012 56 10000 3.1 150 16:25 18.07.2019
4995 Clear 22 1012 53 10000 2.6 140 15:55 18.07.2019
4996 Clear 22 1012 43 10000 1 0 15:36 18.07.2019
4997 Clear 22 1012 43 10000 1.5 90 14:56 18.07.2019
4998 Clear 22 1012 40 10000 1.5 0 14:37 18.07.2019
4999 Clear 22 1012 40 10000 1.5 0 14:37 18.07.2019
5000 Clear 22 1012 43 10000 1.5 150 13:59 18.07.2019
5001 Clear 22 1012 43 10000 0.5 0 13:37 18.07.2019
5002 Clear 23 1012 43 10000 1.5 230 13:18 18.07.2019
5003 Clear 22 1012 52 10000 1 0 12:44 18.07.2019
5004 Clear 22 1012 52 10000 1 0 12:20 18.07.2019
5005 Clear 22 1012 52 10000 0.3 297.857 11:50 18.07.2019
5006 Clear 21 1013 52 10000 1.5 0 11:32 18.07.2019
5007 Clear 20 1012 52 10000 1.5 0 10:52 18.07.2019
5008 Clear 20 1012 60 10000 1 0 10:23 18.07.2019
5009 Clear 19 1012 72 10000 0.3 297.857 09:44 18.07.2019
5010 Clear 18 1012 72 10000 0.36 258.565 09:23 18.07.2019
5011 Clear 17 1012 77 10000 0.5 0 08:46 18.07.2019
5012 Clear 17 1012 77 10000 0.5 0 08:19 18.07.2019
5013 Clear 15 1012 82 10000 0.42 134.709 07:37 18.07.2019
5014 Clear 13 1012 93 10000 0.42 134.709 07:19 18.07.2019
5015 Fog 13 1012 93 10000 0.42 134.709 06:36 18.07.2019
5016 Fog 10 1012 93 7000 0.28 121.143 04:21 18.07.2019
5017 Fog 11 1012 100 10000 1.11 128.418 02:52 18.07.2019
5018 Clouds 12 1012 100 10000 1 185.733 01:38 18.07.2019
5019 Clouds 12 1012 87 10000 1.5 130 00:28 18.07.2019
5020 Clouds 13 1012 93 10000 1.5 130 23:49 17.07.2019
5021 Clouds 13 1012 93 10000 1.41 140.048 23:19 17.07.2019
5022 Clear 14 1012 77 10000 1 0 22:44 17.07.2019
5023 Clear 15 1012 77 10000 1 0 22:23 17.07.2019
5024 Clear 16 1012 72 10000 1 0 21:59 17.07.2019
5025 Clear 16 1011 63 10000 1.5 360 21:41 17.07.2019
5026 Clear 17 1011 63 10000 1.5 360 21:21 17.07.2019
5027 Clear 18 1011 63 10000 1.5 330 20:58 17.07.2019
5028 Clear 19 1011 60 10000 2.1 340 20:39 17.07.2019
5029 Clear 19 1011 60 10000 2.1 340 20:20 17.07.2019
5030 Clouds 20 1011 56 10000 2.6 40 19:43 17.07.2019
5031 Clouds 20 1011 56 10000 1.5 310 19:22 17.07.2019
5032 Clouds 19 1011 56 10000 1.5 310 18:58 17.07.2019
5033 Clouds 20 1011 56 10000 1.5 0 18:39 17.07.2019
5034 Rain 20 1011 60 10000 1.5 10 18:20 17.07.2019
5035 Clouds 20 1011 56 10000 2.6 310 17:46 17.07.2019
5036 Clouds 20 1011 56 10000 2.6 310 17:24 17.07.2019
5037 Clouds 20 1011 56 10000 3.1 290 16:43 17.07.2019
5038 Clouds 20 1011 56 10000 3.1 290 16:23 17.07.2019
5039 Clouds 19 1011 63 10000 2.1 290 15:52 17.07.2019
5040 Clouds 20 1011 59 10000 3.1 340 15:32 17.07.2019
5041 Clouds 20 1011 59 10000 2.6 320 14:58 17.07.2019
5042 Clouds 20 1011 52 10000 1 0 14:40 17.07.2019
5043 Clouds 20 1011 52 10000 1 0 14:21 17.07.2019
5044 Clouds 20 1011 55 10000 1.5 90 13:57 17.07.2019
5045 Clouds 19 1011 59 10000 1.5 0 13:36 17.07.2019
5046 Clouds 19 1011 63 10000 2.6 0 13:18 17.07.2019
5047 Clouds 19 1011 68 10000 2.1 340 12:39 17.07.2019
5048 Clouds 18 1011 68 10000 1.5 0 12:20 17.07.2019
5049 Clouds 18 1011 77 10000 1.5 0 11:44 17.07.2019
5050 Clouds 18 1011 82 10000 2.1 290 11:20 17.07.2019
5051 Clouds 17 1011 82 10000 2.1 290 10:50 17.07.2019
5052 Clouds 16 1011 93 10000 2.1 280 10:25 17.07.2019
5053 Clouds 16 1011 93 10000 2.1 300 09:46 17.07.2019
5054 Clouds 15 1011 93 10000 2.1 300 09:28 17.07.2019
5055 Drizzle 15 1011 93 10000 2.1 320 08:58 17.07.2019
5056 Rain 15 1010 93 10000 2.1 310 08:39 17.07.2019
5057 Rain 15 1010 93 10000 2.1 310 08:21 17.07.2019
5058 Clouds 14 1010 93 10000 1.5 310 07:41 17.07.2019
5059 Rain 14 1010 93 10000 1.5 310 07:22 17.07.2019
5060 Clouds 14 1010 93 10000 1.5 310 07:22 17.07.2019
5061 Clouds 14 1010 93 10000 2.1 320 06:46 17.07.2019
5062 Clouds 14 1010 93 10000 2.1 320 06:46 17.07.2019
5063 Clouds 14 1010 93 10000 2.1 320 06:28 17.07.2019
5064 Clouds 13 1010 100 10000 2.1 320 05:42 17.07.2019
5065 Rain 13 1010 100 10000 2.1 310 05:20 17.07.2019
5066 Clouds 13 1010 100 10000 2.1 320 04:29 17.07.2019
5067 Clouds 13 1010 100 10000 1.5 310 02:47 17.07.2019
5068 Clouds 13 1010 100 10000 1.5 300 01:58 17.07.2019
5069 Mist 13 1010 93 7000 1.5 290 01:24 17.07.2019
5070 Drizzle 13 1009 93 10000 1 300 00:44 17.07.2019
5071 Drizzle 13 1009 93 10000 1 300 00:23 17.07.2019
5072 Drizzle 13 1009 100 10000 1.5 290 23:49 16.07.2019
5073 Drizzle 13 1009 100 10000 1.5 290 23:28 16.07.2019
5074 Rain 13 1009 93 10000 1 0 22:57 16.07.2019
5075 Rain 13 1009 93 10000 1 0 22:39 16.07.2019
5076 Clouds 13 1009 93 10000 1 270 22:19 16.07.2019
5077 Clouds 13 1009 93 10000 1 270 22:19 16.07.2019
5078 Clouds 13 1009 93 10000 1 0 21:43 16.07.2019
5079 Clouds 13 1009 93 10000 1 0 21:20 16.07.2019
5080 Clouds 14 1009 87 10000 1 0 20:56 16.07.2019
5081 Clouds 14 1008 87 10000 1.5 0 20:38 16.07.2019
5082 Clouds 15 1008 82 10000 1 360 20:19 16.07.2019
5083 Clouds 15 1008 82 10000 1 0 19:44 16.07.2019
5084 Clouds 15 1008 82 10000 1 0 19:26 16.07.2019
5085 Clouds 15 1007 87 10000 2.1 360 18:45 16.07.2019
5086 Rain 15 1007 82 10000 3.1 340 18:21 16.07.2019
5087 Rain 15 1007 82 10000 3.1 340 17:58 16.07.2019
5088 Rain 15 1007 77 10000 2.1 350 17:38 16.07.2019
5089 Clouds 16 1007 77 10000 2.6 310 17:20 16.07.2019
5090 Rain 16 1006 87 10000 1.5 30 16:40 16.07.2019
5091 Rain 16 1006 87 10000 1.5 30 16:19 16.07.2019
5092 Clouds 15 1006 77 10000 1.5 0 15:41 16.07.2019
5093 Clouds 15 1006 76 10000 2.1 300 15:21 16.07.2019
5094 Clouds 15 1006 76 10000 2.1 300 14:58 16.07.2019
5095 Rain 14 1005 82 10000 1.5 290 14:39 16.07.2019
5096 Rain 14 1005 82 10000 1.5 290 14:20 16.07.2019
5097 Rain 14 1005 93 10000 3.1 260 13:45 16.07.2019
5098 Rain 15 1005 93 10000 3.1 260 13:24 16.07.2019
5099 Rain 14 1005 76 10000 1.5 0 12:45 16.07.2019
5100 Drizzle 14 1004 71 10000 3.1 250 12:21 16.07.2019
5101 Drizzle 14 1004 71 10000 3.1 250 11:58 16.07.2019
5102 Rain 14 1004 71 10000 3.6 240 11:40 16.07.2019
5103 Rain 14 1004 71 10000 3.6 240 11:40 16.07.2019
5104 Rain 14 1004 71 10000 3.6 240 11:22 16.07.2019
5105 Rain 14 1004 76 10000 3.6 260 10:47 16.07.2019
5106 Rain 13 1004 76 10000 3.6 260 10:22 16.07.2019
5107 Clouds 13 1004 71 10000 4.1 290 09:58 16.07.2019
5108 Clouds 13 1004 76 10000 4.1 270 09:40 16.07.2019
5109 Clouds 13 1004 76 10000 4.6 280 09:19 16.07.2019
5110 Clouds 13 1004 76 10000 3.6 300 08:42 16.07.2019
5111 Clear 12 1005 81 10000 4.1 290 08:20 16.07.2019
5112 Clear 12 1005 81 10000 3.1 280 07:42 16.07.2019
5113 Clear 12 1005 87 10000 2.6 280 07:24 16.07.2019
5114 Clouds 11 1005 87 10000 3.1 290 06:47 16.07.2019
5115 Clouds 11 1005 87 10000 3.1 290 06:26 16.07.2019
5116 Clouds 10 1005 93 10000 2.6 270 05:37 16.07.2019
5117 Clouds 10 1006 100 10000 2.1 270 05:18 16.07.2019
5118 Clouds 9 1006 93 10000 1.5 260 03:57 16.07.2019
5119 Clouds 9 1006 100 10000 1.5 270 03:20 16.07.2019
5120 Clouds 10 1006 93 8000 1 280 02:30 16.07.2019
5121 Clouds 10 1007 93 10000 1.5 280 01:44 16.07.2019
5122 Clouds 11 1007 93 10000 2.1 280 00:47 16.07.2019
5123 Clouds 11 1007 93 10000 2.1 290 00:20 16.07.2019
5124 Clouds 11 1007 93 10000 2.6 280 23:47 15.07.2019
5125 Clouds 11 1007 93 10000 2.6 280 23:29 15.07.2019
5126 Clear 11 1007 87 10000 2.6 290 22:48 15.07.2019
5127 Clear 11 1007 87 10000 2.6 290 22:22 15.07.2019
5128 Clouds 11 1007 93 10000 3.1 300 21:59 15.07.2019
5129 Clouds 11 1007 87 10000 3.1 310 21:40 15.07.2019
5130 Clouds 12 1007 87 10000 3.6 310 21:20 15.07.2019
5131 Clouds 12 1007 87 10000 3.6 310 20:56 15.07.2019
5132 Clouds 12 1007 93 10000 3.6 310 20:38 15.07.2019
5133 Clouds 12 1008 93 10000 4.6 320 20:19 15.07.2019
5134 Clouds 12 1008 93 10000 3.1 330 19:40 15.07.2019
5135 Clouds 12 1008 93 10000 4.6 320 19:20 15.07.2019
5136 Clouds 12 1008 93 10000 4.6 320 18:55 15.07.2019
5137 Clouds 12 1008 93 10000 4.6 330 18:36 15.07.2019
5138 Clouds 12 1007 93 10000 3.1 360 18:18 15.07.2019
5139 Rain 12 1008 100 7000 5.7 320 17:42 15.07.2019
5140 Rain 12 1008 93 10000 4.1 340 17:23 15.07.2019
5141 Rain 12 1008 93 10000 4.1 340 16:59 15.07.2019
5142 Rain 12 1008 93 10000 5.1 340 16:38 15.07.2019
5143 Rain 13 1008 100 10000 4.1 350 16:20 15.07.2019
5144 Rain 13 1008 100 10000 4.1 350 15:54 15.07.2019
5145 Rain 13 1008 93 9000 2.6 10 15:36 15.07.2019
5146 Rain 13 1008 93 10000 3.1 360 15:18 15.07.2019
5147 Rain 14 1008 100 9000 2.6 350 14:41 15.07.2019
5148 Rain 14 1008 100 9000 2.6 350 14:22 15.07.2019
5149 Rain 14 1008 87 9000 4.1 330 13:49 15.07.2019
5150 Rain 14 1008 87 9000 4.1 330 13:21 15.07.2019
5151 Rain 15 1008 72 10000 3.6 340 12:58 15.07.2019
5152 Rain 15 1008 68 10000 2.1 330 12:39 15.07.2019
5153 Rain 17 1008 63 10000 2.6 280 12:20 15.07.2019
5154 Rain 17 1008 68 10000 3.1 320 11:41 15.07.2019
5155 Rain 17 1008 68 10000 3.1 320 11:41 15.07.2019
5156 Rain 17 1009 68 10000 2.6 290 11:22 15.07.2019
5157 Rain 18 1009 72 10000 2.6 270 10:45 15.07.2019
5158 Rain 18 1009 72 10000 2.6 270 10:25 15.07.2019
5159 Clear 17 1009 82 10000 2.1 280 09:47 15.07.2019
5160 Clear 17 1009 82 10000 2.1 280 09:25 15.07.2019
5161 Clear 17 1010 82 10000 1.5 270 08:49 15.07.2019
5162 Clear 16 1010 82 10000 1.5 270 08:27 15.07.2019
5163 Clear 16 1010 82 10000 1.5 0 07:58 15.07.2019
5164 Clear 16 1010 87 10000 1 0 07:36 15.07.2019
5165 Clear 15 1010 87 10000 1.5 0 06:51 15.07.2019
5166 Rain 14 1010 93 10000 2.1 270 06:32 15.07.2019
5167 Fog 13 1011 93 10000 1.5 220 05:44 15.07.2019
5168 Fog 12 1011 93 10000 0.5 0 05:19 15.07.2019
5169 Fog 12 1011 100 10000 1.1 264.631 04:41 15.07.2019
5170 Rain 13 1011 93 10000 1.1 264.631 03:33 15.07.2019
5171 Mist 13 1011 93 10000 1.5 260 02:30 15.07.2019
5172 Mist 14 1011 82 10000 2.1 270 01:39 15.07.2019
5173 Rain 14 1011 82 10000 0.3 159.24 01:20 15.07.2019
5174 Rain 14 1011 77 10000 0.3 159.24 00:46 15.07.2019
5175 Rain 15 1012 72 10000 1.5 260 00:19 15.07.2019
5176 Rain 15 1012 63 10000 1 0 23:41 14.07.2019
5177 Rain 15 1012 63 10000 1 0 23:21 14.07.2019
5178 Rain 16 1012 63 10000 1 0 22:58 14.07.2019
5179 Clear 17 1012 55 10000 3.1 220 22:39 14.07.2019
5180 Rain 17 1011 48 10000 3.1 220 22:21 14.07.2019
5181 Rain 18 1011 48 10000 3.1 220 21:54 14.07.2019
5182 Rain 18 1012 45 10000 3.1 220 21:36 14.07.2019
5183 Rain 19 1012 43 10000 3.1 210 21:18 14.07.2019
5184 Rain 20 1012 40 10000 3.1 220 20:39 14.07.2019
5185 Rain 21 1011 35 10000 3.1 200 20:21 14.07.2019
5186 Rain 20 1012 40 10000 3.1 220 20:21 14.07.2019
5187 Rain 21 1011 35 10000 3.1 200 19:57 14.07.2019
5188 Clear 21 1012 31 10000 3.6 220 19:38 14.07.2019
5189 Clear 22 1011 31 10000 4.6 200 19:19 14.07.2019
5190 Clear 23 1011 29 10000 4.1 210 18:42 14.07.2019
5191 Clear 24 1011 23 10000 3.6 260 18:22 14.07.2019
5192 Clear 24 1011 23 10000 3.6 260 17:58 14.07.2019
5193 Clear 24 1012 25 10000 3.1 250 17:36 14.07.2019
5194 Clear 24 1012 25 10000 4.6 250 17:18 14.07.2019
5195 Clear 24 1012 29 10000 3.1 270 16:42 14.07.2019
5196 Clear 24 1012 31 10000 2.6 270 16:21 14.07.2019
5197 Clear 23 1013 31 10000 2.6 260 15:43 14.07.2019
5198 Clear 23 1013 31 10000 2.6 260 15:23 14.07.2019
5199 Clear 23 1013 31 10000 1.5 0 14:47 14.07.2019
5200 Clear 23 1013 31 10000 1.5 0 14:20 14.07.2019
5201 Clear 23 1013 33 10000 3.1 310 13:47 14.07.2019
5202 Clear 23 1013 33 10000 3.1 310 13:25 14.07.2019
5203 Clear 23 1013 33 10000 3.1 300 12:57 14.07.2019
5204 Clear 22 1013 33 10000 3.6 270 12:39 14.07.2019
5205 Clear 22 1013 30 10000 3.6 280 12:19 14.07.2019
5206 Clear 21 1014 30 10000 3.6 260 11:49 14.07.2019
5207 Clear 21 1014 30 10000 3.6 260 11:49 14.07.2019
5208 Clear 21 1014 30 10000 2.1 0 11:20 14.07.2019
5209 Clear 20 1014 34 10000 2.1 340 10:45 14.07.2019
5210 Clear 20 1014 37 10000 2.1 320 10:21 14.07.2019
5211 Clear 20 1014 37 10000 2.1 320 10:21 14.07.2019
5212 Clear 19 1014 42 10000 1.5 0 09:48 14.07.2019
5213 Clear 19 1014 42 10000 1.5 0 09:30 14.07.2019
5214 Clouds 16 1014 55 10000 1 0 08:47 14.07.2019
5215 Clouds 16 1014 55 10000 1 0 08:29 14.07.2019
5216 Clouds 15 1013 67 10000 1 270 07:43 14.07.2019
5217 Clouds 14 1013 71 10000 1.74 355.879 07:20 14.07.2019
5218 Clouds 9 1013 100 10000 1 270 05:46 14.07.2019
5219 Clouds 9 1013 100 10000 1 270 05:46 14.07.2019
5220 Clouds 8 1013 93 10000 2.11 352.574 03:53 14.07.2019
5221 Clouds 8 1013 100 10000 1 270 03:34 14.07.2019
5222 Clouds 8 1013 100 10000 1 280 02:52 14.07.2019
5223 Clouds 9 1013 100 10000 0.5 290 02:23 14.07.2019
5224 Clouds 9 1013 93 10000 2.08 7.787 01:45 14.07.2019
5225 Clouds 9 1013 93 10000 1.74 353.117 01:24 14.07.2019
5226 Clouds 10 1013 93 10000 1 260 00:41 14.07.2019
5227 Clouds 11 1013 87 10000 1 330 00:20 14.07.2019
5228 Clouds 11 1013 87 10000 1 330 23:56 13.07.2019
5229 Clouds 12 1013 54 10000 2.6 20 23:37 13.07.2019
5230 Clouds 13 1013 54 10000 2.6 20 23:19 13.07.2019
5231 Clouds 13 1012 72 10000 2.1 330 22:41 13.07.2019
5232 Clouds 14 1012 77 10000 2.1 280 22:21 13.07.2019
5233 Clouds 15 1012 87 10000 1 0 21:45 13.07.2019
5234 Clouds 16 1012 82 10000 1.5 220 21:20 13.07.2019
5235 Clouds 17 1012 93 10000 2.6 230 20:51 13.07.2019
5236 Clouds 17 1012 93 10000 2.6 230 20:32 13.07.2019
5237 Rain 18 1011 77 10000 3.1 140 19:50 13.07.2019
5238 Clouds 19 1011 77 10000 3.1 140 19:29 13.07.2019
5239 Clouds 19 1011 46 10000 1.5 0 18:46 13.07.2019
5240 Clouds 20 1011 46 10000 1.5 0 18:24 13.07.2019
5241 Rain 20 1011 59 10000 2.1 190 17:56 13.07.2019
5242 Rain 20 1011 59 10000 2.1 190 17:56 13.07.2019
5243 Rain 20 1011 72 10000 2.1 230 17:37 13.07.2019
5244 Rain 20 1012 59 10000 6.7 10 17:18 13.07.2019
5245 Clear 20 1011 43 10000 2.1 240 16:42 13.07.2019
5246 Rain 21 1011 43 10000 2.1 240 16:23 13.07.2019
5247 Clear 21 1011 43 10000 3.1 300 15:46 13.07.2019
5248 Clear 21 1011 43 10000 3.1 300 15:23 13.07.2019
5249 Clear 21 1011 45 10000 1 0 14:46 13.07.2019
5250 Clear 21 1011 45 10000 1 0 14:26 13.07.2019
5251 Clear 21 1011 40 10000 1.5 0 13:56 13.07.2019
5252 Clouds 21 1011 37 10000 2.1 80 13:37 13.07.2019
5253 Clear 21 1011 37 10000 1.5 20 13:18 13.07.2019
5254 Clear 21 1011 34 10000 3.1 100 12:40 13.07.2019
5255 Clear 21 1011 34 10000 3.1 100 12:40 13.07.2019
5256 Clear 21 1011 42 10000 1 0 12:22 13.07.2019
5257 Clear 21 1011 42 10000 1 0 12:22 13.07.2019
5258 Clear 20 1011 42 10000 1 0 11:52 13.07.2019
5259 Clear 19 1012 52 10000 1 0 11:20 13.07.2019
5260 Clear 18 1011 59 10000 1 0 10:46 13.07.2019
5261 Clear 18 1011 59 10000 1 0 10:25 13.07.2019
5262 Clear 18 1011 59 10000 1.5 0 09:59 13.07.2019
5263 Clear 17 1011 72 10000 1 0 09:41 13.07.2019
5264 Clear 17 1011 77 10000 1 0 09:18 13.07.2019
5265 Clouds 15 1011 82 10000 1.5 0 08:41 13.07.2019
5266 Clouds 15 1011 82 10000 1.5 0 08:22 13.07.2019
5267 Fog 14 1011 87 10000 1.43 349.727 07:30 13.07.2019
5268 Fog 12 1011 100 10000 1.43 349.727 06:50 13.07.2019
5269 Fog 11 1011 100 10000 0.96 341.019 06:22 13.07.2019
5270 Mist 10 1011 100 7000 0.96 341.019 05:33 13.07.2019
5271 Mist 9 1011 100 7000 0.96 341.019 04:24 13.07.2019
5272 Mist 9 1011 100 6000 0.96 341.019 03:57 13.07.2019
5273 Mist 9 1011 100 7000 0.96 341.019 03:39 13.07.2019
5274 Fog 9 1012 100 10000 1 270 02:18 13.07.2019
5275 Clouds 9 1011 100 9000 0.28 339.684 01:41 13.07.2019
5276 Fog 10 1011 100 9000 0.35 62.854 01:19 13.07.2019
5277 Fog 10 1011 100 9000 0.35 62.854 00:54 13.07.2019
5278 Clouds 11 1011 93 10000 0.82 90.633 00:20 13.07.2019
5279 Clouds 11 1011 100 10000 0.82 90.633 23:48 12.07.2019
5280 Clouds 11 1011 100 10000 0.82 90.633 23:29 12.07.2019
5281 Clear 12 1011 93 10000 1.5 0 22:46 12.07.2019
5282 Clear 13 1011 93 10000 1.5 0 22:24 12.07.2019
5283 Clear 14 1011 82 10000 2.1 240 21:44 12.07.2019
5284 Clear 15 1011 77 10000 2.1 240 21:23 12.07.2019
5285 Clear 15 1011 77 10000 2.1 240 20:57 12.07.2019
5286 Clear 16 1011 77 10000 2.1 220 20:39 12.07.2019
5287 Clear 16 1011 77 10000 2.1 240 20:21 12.07.2019
5288 Clear 17 1011 72 10000 1.5 0 19:42 12.07.2019
5289 Clear 17 1011 72 10000 1.5 0 19:24 12.07.2019
5290 Clear 16 1011 72 10000 2.1 200 18:46 12.07.2019
5291 Clear 17 1011 77 10000 2.1 150 18:22 12.07.2019
5292 Clear 16 1011 77 10000 2.1 150 17:55 12.07.2019
5293 Clear 16 1011 87 10000 2.1 140 17:30 12.07.2019
5294 Rain 15 1011 93 10000 2.6 140 16:52 12.07.2019
5295 Rain 15 1012 93 10000 1.5 110 16:25 12.07.2019
5296 Rain 14 1012 82 10000 1 120 15:56 12.07.2019
5297 Rain 14 1012 77 10000 1.5 40 15:36 12.07.2019
5298 Rain 15 1012 67 10000 2.6 50 15:18 12.07.2019
5299 Rain 15 1011 52 10000 1.5 0 14:43 12.07.2019
5300 Rain 16 1011 48 10000 1.5 70 14:20 12.07.2019
5301 Rain 17 1011 52 10000 2.1 50 13:43 12.07.2019
5302 Rain 17 1011 52 10000 2.1 50 13:21 12.07.2019
5303 Rain 17 1011 42 10000 1.5 120 12:41 12.07.2019
5304 Rain 18 1011 39 10000 1.5 0 12:23 12.07.2019
5305 Clear 18 1011 45 10000 2.1 80 11:46 12.07.2019
5306 Clear 18 1011 45 10000 2.1 80 11:24 12.07.2019
5307 Clear 17 1011 48 10000 2.1 30 10:55 12.07.2019
5308 Clear 17 1011 45 10000 1.5 0 10:37 12.07.2019
5309 Clear 17 1011 45 10000 1 0 10:19 12.07.2019
5310 Clear 16 1011 51 10000 1 0 09:51 12.07.2019
5311 Clear 16 1011 51 10000 1 0 09:24 12.07.2019
5312 Clear 14 1011 62 10000 1 0 08:45 12.07.2019
5313 Clear 14 1011 62 10000 1 0 08:22 12.07.2019
5314 Clear 13 1011 71 10000 0.89 331.882 07:47 12.07.2019
5315 Clear 13 1011 71 10000 0.89 331.882 07:29 12.07.2019
5316 Clouds 10 1011 87 10000 0.89 331.882 06:29 12.07.2019
5317 Mist 9 1011 93 10000 1.54 6.751 05:50 12.07.2019
5318 Mist 8 1011 93 10000 0.5 270 04:25 12.07.2019
5319 Clouds 10 1011 81 10000 1.5 0 01:51 12.07.2019
5320 Clouds 10 1011 81 10000 1.5 360 01:32 12.07.2019
5321 Clouds 11 1011 76 10000 2.1 350 00:35 12.07.2019
5322 -273 0 0 0 0 0 23:57 11.07.2019
5323 Clear 12 1011 71 10000 2.6 30 23:38 11.07.2019
5324 Rain 13 1011 67 10000 3.6 10 23:19 11.07.2019
5325 Clear 14 1011 67 10000 3.1 20 22:43 11.07.2019
5326 Clear 13 1011 67 10000 3.1 20 22:23 11.07.2019
5327 Clear 15 1011 63 10000 4.1 360 21:44 11.07.2019
5328 Clear 15 1011 63 10000 4.1 360 21:20 11.07.2019
5329 Clear 15 1010 59 10000 4.1 360 20:59 11.07.2019
5330 Clear 16 1010 55 10000 4.1 10 20:41 11.07.2019
5331 Clear 16 1010 55 10000 5.1 340 20:22 11.07.2019
5332 Clear 17 1010 55 10000 5.1 340 19:54 11.07.2019
5333 Clear 17 1010 55 10000 5.1 350 19:36 11.07.2019
5334 Clear 17 1010 52 10000 4.6 350 19:18 11.07.2019
5335 Clear 18 1010 52 10000 4.6 10 18:39 11.07.2019
5336 Clear 18 1010 55 10000 5.1 20 18:21 11.07.2019
5337 Clear 19 1010 55 10000 5.1 20 17:46 11.07.2019
5338 Clear 19 1010 55 10000 5.1 20 17:28 11.07.2019
5339 Clear 20 1010 43 10000 4.6 30 16:52 11.07.2019
5340 Clear 20 1009 40 10000 4.1 10 16:24 11.07.2019
5341 Clear 20 1009 40 10000 4.6 330 15:55 11.07.2019
5342 Clear 20 1009 45 10000 4.6 350 15:37 11.07.2019
5343 Clear 20 1009 45 10000 3.6 340 15:18 11.07.2019
5344 Clear 20 1010 48 10000 4.6 320 14:43 11.07.2019
5345 Clear 19 1010 48 10000 4.1 320 14:22 11.07.2019
5346 Clear 19 1010 52 10000 4.6 320 13:47 11.07.2019
5347 Clear 19 1010 52 10000 4.6 320 13:28 11.07.2019
5348 Clear 18 1010 51 10000 4.6 320 12:47 11.07.2019
5349 Clear 18 1010 51 10000 4.6 320 12:28 11.07.2019
5350 Clear 17 1010 48 10000 5.7 330 11:59 11.07.2019
5351 Clear 17 1010 59 10000 4.1 320 11:41 11.07.2019
5352 Clear 17 1010 55 10000 3.6 340 11:22 11.07.2019
5353 Clear 17 1010 59 10000 4.1 350 10:46 11.07.2019
5354 Clear 17 1010 55 10000 4.1 340 10:19 11.07.2019
5355 Clear 16 1010 59 10000 4.6 340 09:48 11.07.2019
5356 Clear 16 1010 59 10000 4.6 340 09:29 11.07.2019
5357 Clear 15 1010 71 10000 3.1 330 08:53 11.07.2019
5358 Clear 15 1010 71 10000 3.1 330 08:27 11.07.2019
5359 Clear 14 1010 71 10000 2.6 320 07:55 11.07.2019
5360 Clear 14 1010 71 10000 2.6 320 07:36 11.07.2019
5361 Clouds 13 1010 71 10000 1.5 0 06:41 11.07.2019
5362 Clouds 13 1010 76 10000 1.5 330 05:53 11.07.2019
5363 Clouds 13 1010 67 10000 1.5 300 05:30 11.07.2019
5364 Clouds 13 1010 71 10000 1.5 330 04:55 11.07.2019
5365 Clouds 13 1010 76 10000 0.5 280 02:41 11.07.2019
5366 Clouds 13 1011 58 10000 1 0 01:38 11.07.2019
5367 Clouds 13 1011 54 10000 1.5 10 00:29 11.07.2019
5368 Clouds 14 1011 42 10000 2.1 10 23:38 10.07.2019
5369 Clouds 15 1011 42 10000 2.1 10 23:20 10.07.2019
5370 Clear 15 1011 42 10000 2.1 320 22:48 10.07.2019
5371 Clear 16 1011 42 10000 2.1 320 22:22 10.07.2019
5372 Clear 18 1010 34 10000 4.1 330 21:48 10.07.2019
5373 Clear 19 1010 34 10000 4.1 330 21:28 10.07.2019
5374 Clear 19 1011 32 10000 4.1 320 20:58 10.07.2019
5375 Clear 20 1011 35 10000 3.6 320 20:39 10.07.2019
5376 Clear 20 1011 35 10000 4.6 320 20:19 10.07.2019
5377 Clear 21 1011 32 10000 3.6 20 19:53 10.07.2019
5378 Clear 21 1011 32 10000 3.6 20 19:22 10.07.2019
5379 Clear 21 1011 35 10000 3.6 360 18:58 10.07.2019
5380 Clear 21 1011 30 10000 4.1 360 18:39 10.07.2019
5381 Clear 21 1011 33 10000 5.1 350 18:21 10.07.2019
5382 Clouds 21 1011 33 10000 4.6 360 17:42 10.07.2019
5383 Clear 21 1011 33 10000 5.1 340 17:21 10.07.2019
5384 Clear 21 1011 35 10000 5.1 330 16:38 10.07.2019
5385 Clear 21 1011 35 10000 4.6 350 16:18 10.07.2019
5386 Clear 21 1011 35 10000 5.1 350 15:45 10.07.2019
5387 Clear 21 1011 40 10000 5.1 330 15:21 10.07.2019
5388 Clear 21 1011 37 10000 5.1 350 14:41 10.07.2019
5389 Clear 21 1011 40 10000 5.7 350 14:23 10.07.2019
5390 Clouds 20 1011 45 10000 4.6 350 13:52 10.07.2019
5391 Clouds 20 1011 52 10000 4.6 330 13:19 10.07.2019
5392 Clouds 20 1011 55 10000 4.1 340 12:58 10.07.2019
5393 Clouds 19 1011 55 10000 4.1 340 12:38 10.07.2019
5394 Clouds 19 1011 52 10000 5.1 10 12:19 10.07.2019
5395 Clouds 18 1011 55 10000 5.1 330 11:47 10.07.2019
5396 Clouds 18 1011 55 10000 5.1 330 11:21 10.07.2019
5397 Clouds 18 1011 55 10000 4.1 350 10:50 10.07.2019
5398 Clouds 17 1011 63 10000 4.1 330 10:23 10.07.2019
5399 Clear 16 1011 67 10000 4.1 340 09:44 10.07.2019
5400 Clear 16 1011 67 10000 4.1 340 09:21 10.07.2019
5401 Clear 15 1011 71 10000 4.1 350 08:55 10.07.2019
5402 Clear 14 1010 76 10000 4.6 350 08:36 10.07.2019
5403 Clear 14 1010 76 10000 4.1 330 08:18 10.07.2019
5404 Clear 13 1010 81 10000 3.6 330 07:42 10.07.2019
5405 Clear 12 1010 81 10000 3.6 350 07:20 10.07.2019
5406 Clouds 10 1011 93 10000 3.6 330 05:59 10.07.2019
5407 Clouds 10 1011 87 10000 3.6 320 05:39 10.07.2019
5408 Clouds 9 1011 93 10000 3.1 310 04:28 10.07.2019
5409 Clouds 8 1012 87 10000 2.6 310 00:49 10.07.2019
5410 Clouds 8 1012 87 10000 2.6 310 00:29 10.07.2019
5411 Clouds 9 1012 81 10000 2.1 330 23:42 09.07.2019
5412 Clouds 9 1012 81 10000 2.1 330 23:22 09.07.2019
5413 Clouds 10 1012 71 10000 2.6 350 22:43 09.07.2019
5414 Clouds 10 1012 71 10000 2.6 350 22:24 09.07.2019
5415 Clouds 11 1011 71 10000 3.1 360 21:59 09.07.2019
5416 Clouds 11 1011 66 10000 4.1 360 21:40 09.07.2019
5417 Clouds 11 1011 66 10000 4.1 360 21:22 09.07.2019
5418 Clouds 12 1011 66 10000 3.6 350 20:43 09.07.2019
5419 Clouds 12 1011 66 10000 3.6 350 20:43 09.07.2019
5420 Clouds 12 1011 66 10000 3.6 350 20:25 09.07.2019
5421 Clouds 13 1011 62 10000 6.2 320 19:43 09.07.2019
5422 Clouds 13 1011 62 10000 6.2 320 19:24 09.07.2019
5423 Clouds 14 1011 71 10000 5.1 330 18:47 09.07.2019
5424 Clouds 14 1011 71 10000 5.1 330 18:26 09.07.2019
5425 Clouds 13 1011 71 10000 5.1 330 18:26 09.07.2019
5426 Clouds 14 1011 71 10000 4.6 330 17:57 09.07.2019
5427 Clouds 14 1011 76 10000 6.2 340 17:39 09.07.2019
5428 Clouds 13 1011 76 10000 4.6 340 17:19 09.07.2019
5429 Clouds 14 1011 76 10000 3.6 340 16:50 09.07.2019
5430 Clouds 14 1011 76 10000 3.6 340 16:25 09.07.2019
5431 Clouds 13 1011 76 10000 5.7 340 15:51 09.07.2019
5432 Clouds 13 1011 76 10000 5.7 340 15:33 09.07.2019
5433 Clouds 14 1011 76 10000 5.7 340 14:58 09.07.2019
5434 Rain 13 1011 76 10000 6.2 330 14:39 09.07.2019
5435 Rain 14 1010 67 10000 5.1 350 14:19 09.07.2019
5436 Rain 14 1010 71 10000 5.1 350 13:45 09.07.2019
5437 Rain 14 1010 71 10000 5.1 350 13:27 09.07.2019
5438 Clouds 14 1010 76 10000 4.6 360 12:42 09.07.2019
5439 Clouds 13 1010 82 10000 5.1 360 12:23 09.07.2019
5440 Clouds 14 1010 82 10000 5.1 360 11:58 09.07.2019
5441 Drizzle 13 1010 82 10000 5.1 340 11:40 09.07.2019
5442 Clouds 14 1010 76 10000 5.1 360 11:21 09.07.2019
5443 Clouds 13 1010 76 10000 5.1 360 10:55 09.07.2019
5444 Drizzle 14 1010 76 10000 4.6 350 10:33 09.07.2019
5445 Clouds 13 1009 76 10000 5.1 360 09:48 09.07.2019
5446 Clouds 13 1009 76 10000 5.1 360 09:29 09.07.2019
5447 Clouds 13 1009 76 10000 4.6 10 08:57 09.07.2019
5448 Drizzle 13 1009 76 10000 4.6 360 08:39 09.07.2019
5449 Rain 8 997 93 10000 8.2 300 04:18 05.07.2019
5450 Rain 8 997 87 10000 8.2 290 03:38 05.07.2019
5451 Rain 9 997 87 10000 8.2 290 03:19 05.07.2019
5452 Rain 9 997 93 10000 7.2 280 02:46 05.07.2019
5453 Rain 9 997 93 10000 7.2 280 01:52 05.07.2019
5454 Rain 9 997 93 10000 6.7 280 01:25 05.07.2019
5455 Drizzle 9 997 93 10000 6.7 280 00:48 05.07.2019
5456 Drizzle 9 997 93 10000 6.7 280 00:25 05.07.2019
5457 Rain 9 998 87 10000 5.7 280 23:23 04.07.2019
5458 Drizzle 9 998 93 10000 5.7 280 22:59 04.07.2019
5459 Rain 9 998 93 10000 4.6 260 22:40 04.07.2019
5460 Rain 10 998 87 10000 6.2 280 22:19 04.07.2019
5461 Rain 10 998 87 10000 5.7 280 21:41 04.07.2019
5462 Rain 10 998 87 10000 5.7 280 21:22 04.07.2019
5463 Drizzle 11 998 93 10000 2.1 310 20:58 04.07.2019
5464 Rain 11 998 87 10000 1.5 290 20:37 04.07.2019
5465 Rain 11 998 87 9000 3.52 230.33 20:18 04.07.2019
5466 Rain 11 999 93 10000 3.52 230.33 19:41 04.07.2019
5467 Rain 12 1000 87 10000 1 0 19:21 04.07.2019
5468 Rain 12 1000 87 10000 1.5 0 18:46 04.07.2019
5469 Rain 12 1000 87 10000 1.5 0 18:27 04.07.2019
5470 Rain 12 1001 87 10000 2.6 130 17:55 04.07.2019
5471 Rain 12 1002 87 7000 2.1 150 17:37 04.07.2019
5472 Rain 12 1002 71 10000 2.1 250 17:18 04.07.2019
5473 Rain 15 1003 42 10000 5.1 230 15:43 04.07.2019
5474 Clear 16 1003 42 10000 5.1 230 15:24 04.07.2019
5475 Clear 16 1004 39 10000 6.2 230 14:59 04.07.2019
5476 Clear 16 1004 39 10000 5.1 230 14:38 04.07.2019
5477 Clear 16 1005 41 10000 6.2 240 14:19 04.07.2019
5478 Clear 16 1005 41 10000 6.2 240 13:56 04.07.2019
5479 Clear 16 1005 39 10000 5.1 240 13:38 04.07.2019
5480 Clouds 15 1005 41 10000 5.7 240 13:18 04.07.2019
5481 Rain 14 1006 47 10000 6.2 250 12:38 04.07.2019
5482 Clouds 15 1006 44 10000 6.2 250 12:19 04.07.2019
5483 Clouds 15 1006 51 10000 4.6 240 11:43 04.07.2019
5484 Clear 16 1006 51 10000 5.1 200 11:20 04.07.2019
5485 Clear 16 1006 51 10000 5.1 200 11:20 04.07.2019
5486 Clear 16 1007 58 10000 3.1 200 10:46 04.07.2019
5487 Clear 16 1007 58 10000 3.1 200 10:27 04.07.2019
5488 Clear 16 1007 54 10000 4.1 220 09:57 04.07.2019
5489 Clear 16 1007 44 10000 3.1 210 09:38 04.07.2019
5490 Clear 15 1008 54 10000 2.1 220 09:19 04.07.2019
5491 Clear 15 1008 58 10000 3.6 240 08:44 04.07.2019
5492 Clear 14 1008 66 10000 3.1 230 08:18 04.07.2019
5493 Clear 13 1008 66 10000 2.6 240 07:39 04.07.2019
5494 Clear 12 1009 71 10000 2.1 220 07:18 04.07.2019
5495 Clouds 11 1009 76 10000 2.6 230 06:30 04.07.2019
5496 Clear 9 1009 81 10000 1 220 05:41 04.07.2019
5497 Clear 8 1009 87 10000 2.1 230 04:18 04.07.2019
5498 Clouds 10 1010 76 10000 2.6 230 01:52 04.07.2019
5499 Clouds 10 1010 81 10000 2.6 230 01:26 04.07.2019
5500 Clouds 10 1010 81 10000 1.5 210 00:41 04.07.2019
5501 Clouds 11 1010 81 10000 1.5 200 23:52 03.07.2019
5502 Clouds 11 1010 76 10000 1 170 23:21 03.07.2019
5503 Clouds 11 1010 76 10000 1 170 22:56 03.07.2019
5504 Clear 12 1010 76 10000 1 0 22:38 03.07.2019
5505 Clear 12 1010 66 10000 1.5 200 22:20 03.07.2019
5506 Clear 12 1010 66 10000 1.5 200 22:20 03.07.2019
5507 Clear 12 1010 66 10000 1.5 200 21:54 03.07.2019
5508 Clear 12 1010 62 10000 1.5 230 21:36 03.07.2019
5509 Clear 13 1010 54 10000 1.5 280 20:49 03.07.2019
5510 Clear 13 1010 54 10000 1.5 280 20:31 03.07.2019
5511 Clear 13 1010 51 10000 2.6 280 19:59 03.07.2019
5512 Clear 13 1010 58 10000 1 0 19:40 03.07.2019
5513 Clear 14 1010 58 10000 2.1 290 19:20 03.07.2019
5514 Clouds 15 1011 58 10000 4.1 310 18:44 03.07.2019
5515 Rain 15 1011 54 10000 5.1 310 18:22 03.07.2019
5516 Clouds 15 1010 54 10000 4.6 290 17:49 03.07.2019
5517 Clouds 14 1010 58 10000 5.1 310 17:19 03.07.2019
5518 Clouds 15 1010 58 10000 5.1 310 16:57 03.07.2019
5519 Rain 14 1010 54 10000 6.2 280 16:39 03.07.2019
5520 Clouds 15 1010 51 10000 6.2 300 16:18 03.07.2019
5521 Clouds 14 1009 51 10000 5.7 300 15:42 03.07.2019
5522 Clouds 15 1009 51 10000 5.7 300 15:24 03.07.2019
5523 Rain 13 1009 62 10000 7.2 270 14:43 03.07.2019
5524 Rain 14 1008 63 10000 3.6 290 14:22 03.07.2019
5525 Clear 16 1008 48 10000 4.1 280 13:46 03.07.2019
5526 Clear 16 1008 48 10000 4.1 280 13:27 03.07.2019
5527 Clear 16 1008 51 10000 4.1 290 12:52 03.07.2019
5528 Clear 16 1008 55 10000 2.1 320 12:19 03.07.2019
5529 Clear 17 1008 59 10000 1.5 280 11:54 03.07.2019
5530 Clear 17 1008 59 10000 1.5 280 11:36 03.07.2019
5531 Clear 16 1008 63 10000 2.6 250 11:18 03.07.2019
5532 Rain 16 1008 67 10000 2.6 240 10:38 03.07.2019
5533 Clear 16 1008 67 10000 2.1 290 10:20 03.07.2019
5534 Clear 15 1008 72 10000 2.1 240 09:41 03.07.2019
5535 Clear 14 1008 71 10000 1.5 280 09:20 03.07.2019
5536 Clear 14 1008 76 10000 2.6 250 08:52 03.07.2019
5537 Clear 14 1008 76 10000 2.6 250 08:31 03.07.2019
5538 Clear 14 1008 76 10000 2.6 250 08:31 03.07.2019
5539 Clear 13 1007 82 10000 1.5 240 07:47 03.07.2019
5540 Clear 13 1007 82 10000 1.5 240 07:28 03.07.2019
5541 Clouds 11 1007 93 10000 0.63 196.446 06:30 03.07.2019
5542 Clouds 10 1007 93 10000 1.43 301.395 05:35 03.07.2019
5543 Clouds 9 1007 93 10000 1.5 250 04:50 03.07.2019
5544 Clouds 9 1007 87 10000 1.86 323.321 03:26 03.07.2019
5545 Clouds 10 1007 76 10000 1.5 260 02:27 03.07.2019
5546 Clouds 11 1007 81 10000 1.5 270 01:21 03.07.2019
5547 Clouds 11 1007 81 10000 2.1 250 00:52 03.07.2019
5548 Clouds 11 1007 81 10000 1.5 250 00:32 03.07.2019
5549 Clouds 11 1007 81 10000 1.85 200.755 23:38 02.07.2019
5550 Clouds 12 1007 81 10000 0.5 0 23:20 02.07.2019
5551 Clouds 12 1007 76 10000 1.5 160 22:57 02.07.2019
5552 Clouds 12 1007 76 10000 1.5 160 22:39 02.07.2019
5553 Clear 13 1007 71 10000 1 130 22:20 02.07.2019
5554 Clear 13 1007 67 10000 1.5 230 21:47 02.07.2019
5555 Clear 14 1007 67 10000 2.6 220 21:25 02.07.2019
5556 Clear 14 1007 67 10000 2.6 220 20:59 02.07.2019
5557 Clear 14 1006 62 10000 2.6 230 20:40 02.07.2019
5558 Clear 15 1006 58 10000 2.6 270 20:22 02.07.2019
5559 Clear 15 1006 54 10000 3.1 300 19:44 02.07.2019
5560 Clear 15 1006 54 10000 2.6 300 19:24 02.07.2019
5561 Clear 15 1006 54 10000 2.6 300 19:24 02.07.2019
5562 Clear 15 1006 51 10000 4.1 310 18:58 02.07.2019
5563 Clouds 15 1006 51 10000 4.1 320 18:37 02.07.2019
5564 Clouds 15 1006 51 10000 4.1 320 18:18 02.07.2019
5565 Clouds 15 1006 54 10000 4.6 330 17:37 02.07.2019
5566 Clouds 14 1006 62 10000 4.6 330 17:19 02.07.2019
5567 Clouds 14 1005 62 10000 5.7 320 16:45 02.07.2019
5568 Clouds 14 1005 62 10000 5.7 320 16:26 02.07.2019
5569 Clouds 13 1005 76 10000 5.1 320 15:42 02.07.2019
5570 Clouds 13 1005 76 10000 5.1 320 15:42 02.07.2019
5571 Clouds 12 1004 81 10000 4.6 320 15:23 02.07.2019
5572 Rain 12 1004 76 10000 4.6 350 14:49 02.07.2019
5573 Rain 12 1004 76 10000 4.6 350 14:30 02.07.2019
5574 Rain 12 1004 81 10000 5.1 350 13:45 02.07.2019
5575 Rain 12 1004 81 10000 3.6 350 13:20 02.07.2019
5576 Rain 12 1003 81 10000 3.6 350 12:46 02.07.2019
5577 Rain 12 1003 93 10000 4.1 330 12:25 02.07.2019
5578 Rain 12 1003 93 9000 4.6 20 11:57 02.07.2019
5579 Rain 12 1003 93 9000 4.6 20 11:39 02.07.2019
5580 Rain 12 1002 93 10000 4.1 360 11:18 02.07.2019
5581 Drizzle 12 1002 87 10000 3.6 10 10:44 02.07.2019
5582 Rain 12 1002 93 10000 4.1 350 10:24 02.07.2019
5583 Rain 12 1001 87 10000 4.1 10 09:44 02.07.2019
5584 Rain 12 1001 82 10000 4.6 360 09:21 02.07.2019
5585 Drizzle 12 1001 82 10000 5.7 10 08:42 02.07.2019
5586 Drizzle 12 1001 82 10000 5.7 10 08:20 02.07.2019
5587 Rain 13 1000 82 10000 5.1 340 07:53 02.07.2019
5588 Rain 14 1000 82 10000 3.6 330 07:21 02.07.2019
5589 Rain 14 1000 82 10000 4.1 300 06:49 02.07.2019
5590 Rain 14 1000 77 10000 4.1 290 06:26 02.07.2019
5591 Clouds 15 1000 82 10000 5.1 260 04:57 02.07.2019
5592 Clear 15 999 67 10000 5.1 250 01:37 02.07.2019
5593 Clear 15 999 72 10000 2.6 220 23:49 01.07.2019
5594 Clear 15 999 67 10000 2.1 230 23:22 01.07.2019
5595 Clear 15 998 63 10000 3.1 250 22:46 01.07.2019
5596 Clear 15 998 63 10000 3.1 250 22:27 01.07.2019
5597 Rain 15 998 72 10000 4.1 280 21:47 01.07.2019
5598 Rain 15 999 67 10000 6.2 290 21:26 01.07.2019
5599 Rain 15 999 67 10000 6.2 290 20:52 01.07.2019
5600 Rain 17 998 59 10000 8.2 270 20:22 01.07.2019
5601 Rain 18 998 46 10000 7.2 270 19:59 01.07.2019
5602 Rain 18 998 46 10000 7.2 270 19:40 01.07.2019
5603 Clouds 19 998 49 10000 5.1 290 19:22 01.07.2019
5604 Rain 18 998 43 10000 7.7 260 18:53 01.07.2019
5605 Rain 19 998 43 10000 7.7 260 18:31 01.07.2019
5606 Clouds 19 997 49 10000 8.7 240 18:00 01.07.2019
5607 Clouds 20 997 52 10000 6.7 240 17:41 01.07.2019
5608 Clouds 21 997 52 10000 6.7 240 17:21 01.07.2019
5609 Rain 21 997 49 10000 8.2 220 16:47 01.07.2019
5610 Rain 21 997 49 10000 8.2 240 16:26 01.07.2019
5611 Clouds 21 998 49 10000 8.2 250 15:55 01.07.2019
5612 Rain 21 998 52 10000 8.2 240 15:36 01.07.2019
5613 Rain 21 998 52 10000 8.2 240 15:18 01.07.2019
5614 Clouds 21 998 60 10000 7.2 250 14:42 01.07.2019
5615 Rain 21 998 60 10000 7.2 250 14:19 01.07.2019
5616 Clouds 20 997 52 10000 10.8 250 13:41 01.07.2019
5617 Clouds 21 998 68 10000 9.8 250 13:22 01.07.2019
5618 Clouds 21 998 52 10000 8.7 260 12:46 01.07.2019
5619 -273 0 0 0 0 0 12:27 01.07.2019
5620 Clouds 21 998 56 10000 8.7 250 11:59 01.07.2019
5621 Clouds 20 998 56 10000 9.3 250 11:39 01.07.2019
5622 Clouds 21 998 56 10000 9.3 250 11:19 01.07.2019
5623 Clouds 20 998 60 10000 8.7 250 10:47 01.07.2019
5624 Clouds 20 998 63 10000 8.7 240 10:22 01.07.2019
5625 Clouds 20 998 63 10000 8.2 250 09:45 01.07.2019
5626 Clouds 19 998 68 10000 7.7 260 09:27 01.07.2019
5627 Clouds 19 998 68 10000 7.2 260 08:59 01.07.2019
5628 Clouds 18 998 68 10000 7.2 250 08:37 01.07.2019
5629 Clear 17 998 72 10000 6.7 250 07:39 01.07.2019
5630 Clear 17 998 72 10000 7.2 250 06:52 01.07.2019
5631 Clear 16 997 72 10000 6.7 250 05:34 01.07.2019
5632 Clear 20 997 56 10000 7.7 250 01:28 01.07.2019
5633 Clear 20 995 68 10000 7.2 250 00:44 01.07.2019
5634 Clear 21 996 53 10000 7.7 250 00:24 01.07.2019
5635 Clear 21 995 72 10000 2.6 220 23:39 30.06.2019
5636 Clear 21 995 72 10000 2.6 220 23:19 30.06.2019
5637 Clear 21 995 68 10000 2.6 160 22:43 30.06.2019
5638 Clear 21 995 68 10000 2.6 160 22:20 30.06.2019
5639 Clear 22 996 56 10000 3.6 140 21:41 30.06.2019
5640 Clear 22 996 56 10000 3.6 140 21:19 30.06.2019
5641 Clear 23 996 50 10000 4.6 140 20:55 30.06.2019
5642 Clear 24 997 41 10000 4.6 140 20:36 30.06.2019
5643 Clear 24 997 36 10000 4.1 160 20:18 30.06.2019
5644 Clear 24 997 36 10000 4.1 160 20:18 30.06.2019
5645 Clear 25 998 39 10000 4.6 160 19:43 30.06.2019
5646 Clear 25 998 39 10000 4.6 160 19:24 30.06.2019
5647 Clear 26 999 50 10000 4.6 150 18:26 30.06.2019
5648 Clear 25 1000 47 10000 4.6 160 17:57 30.06.2019
5649 Clear 25 1000 47 10000 4.6 200 17:38 30.06.2019
5650 Clear 25 1000 47 10000 4.6 200 17:18 30.06.2019
5651 Clear 25 1001 50 10000 5.7 130 16:45 30.06.2019
5652 Clear 26 1001 50 10000 5.7 130 16:25 30.06.2019
5653 Clear 26 1002 50 10000 3.1 100 15:38 30.06.2019
5654 Clear 25 1002 50 10000 3.1 100 15:18 30.06.2019
5655 Clear 24 1003 57 10000 3.1 70 14:50 30.06.2019
5656 Clear 24 1004 57 10000 3.6 70 14:30 30.06.2019
5657 Clear 25 1004 53 10000 4.1 50 13:48 30.06.2019
5658 Clear 24 1005 56 10000 2.6 60 13:29 30.06.2019
5659 Clear 23 1005 56 10000 3.6 60 12:53 30.06.2019
5660 Clear 23 1005 60 10000 2.6 90 12:28 30.06.2019
5661 Clear 23 1006 64 10000 3.1 110 11:58 30.06.2019
5662 Clear 22 1006 64 10000 3.6 90 11:38 30.06.2019
5663 Clear 22 1006 64 10000 3.6 90 11:38 30.06.2019
5664 Clear 22 1006 56 10000 3.1 130 11:19 30.06.2019
5665 Clear 22 1006 60 10000 1.5 0 10:45 30.06.2019
5666 Clear 22 1006 60 10000 1.5 0 10:20 30.06.2019
5667 Clear 21 1007 64 10000 0.5 0 09:57 30.06.2019
5668 Clear 20 1007 68 10000 1.5 0 09:37 30.06.2019
5669 Clouds 20 1007 68 10000 1.5 0 09:19 30.06.2019
5670 Clouds 19 1007 68 10000 2.6 280 08:40 30.06.2019
5671 Clouds 19 1007 68 10000 2.6 280 08:20 30.06.2019
5672 Clouds 18 1006 72 10000 3.1 280 07:41 30.06.2019
5673 Clouds 18 1006 72 10000 3.1 280 07:22 30.06.2019
5674 Clouds 18 1007 72 10000 2.6 270 06:31 30.06.2019
5675 Clouds 16 1007 77 10000 2.1 130 03:32 30.06.2019
5676 Clouds 17 1008 72 10000 1.5 0 01:52 30.06.2019
5677 Clouds 17 1007 68 10000 3.1 130 00:45 30.06.2019
5678 Clear 17 1007 68 10000 3.1 130 00:23 30.06.2019
5679 Clear 17 1008 63 10000 2.1 130 23:43 29.06.2019
5680 Clear 17 1008 63 10000 2.1 130 23:22 29.06.2019
5681 Clear 18 1008 64 10000 2.1 130 22:46 29.06.2019
5682 Clear 19 1009 64 10000 2.1 130 22:22 29.06.2019
5683 Clear 19 1009 64 10000 3.6 130 21:55 29.06.2019
5684 Clouds 20 1009 60 10000 3.6 110 21:25 29.06.2019
5685 Clouds 21 1009 56 10000 2.6 60 20:47 29.06.2019
5686 Clouds 22 1009 56 10000 2.6 70 20:29 29.06.2019
5687 Clouds 23 1009 53 10000 3.6 100 19:59 29.06.2019
5688 Rain 23 1009 44 10000 2.6 40 19:41 29.06.2019
5689 Rain 23 1009 44 10000 2.6 40 19:20 29.06.2019
5690 Clouds 24 1009 41 10000 2.6 20 18:47 29.06.2019
5691 Clouds 25 1009 47 10000 2.6 290 18:24 29.06.2019
5692 Clear 24 1009 41 10000 4.1 280 17:38 29.06.2019
5693 Clear 25 1009 41 10000 4.1 280 17:19 29.06.2019
5694 Clear 25 1009 41 10000 4.1 280 16:43 29.06.2019
5695 Clear 25 1010 44 10000 5.7 300 16:00 29.06.2019
5696 Clear 25 1011 41 10000 6.2 270 15:32 29.06.2019
5697 Clear 25 1010 41 10000 5.7 290 14:46 29.06.2019
5698 Clear 24 1010 44 10000 5.1 280 14:27 29.06.2019
5699 Clear 24 1010 47 10000 5.1 260 13:56 29.06.2019
5700 Clear 23 1010 49 10000 4.6 270 13:37 29.06.2019
5701 Clear 23 1010 49 10000 4.6 270 13:19 29.06.2019
5702 Clear 23 1011 53 10000 4.1 260 12:40 29.06.2019
5703 Clear 23 1011 53 10000 4.1 260 12:22 29.06.2019
5704 Clear 22 1011 56 10000 4.1 250 11:45 29.06.2019
5705 Clear 22 1011 56 10000 3.1 290 11:27 29.06.2019
5706 Clear 21 1012 56 10000 3.6 280 10:51 29.06.2019
5707 Clear 20 1012 60 10000 3.6 270 10:22 29.06.2019
5708 Clear 20 1012 63 10000 3.1 270 09:57 29.06.2019
5709 Clear 18 1012 68 10000 4.6 280 08:55 29.06.2019
5710 Rain 18 1012 68 10000 4.1 270 08:31 29.06.2019
5711 Rain 17 1012 72 10000 1.5 270 07:45 29.06.2019
5712 Rain 16 1013 67 10000 4.1 240 06:57 29.06.2019
5713 Rain 17 1013 67 10000 3.6 240 06:39 29.06.2019
5714 Clouds 17 1013 67 10000 3.6 240 06:19 29.06.2019
5715 Clouds 14 1016 82 10000 1 0 01:54 29.06.2019
5716 Clouds 14 1016 76 10000 1.5 170 00:54 29.06.2019
5717 Clouds 14 1017 76 10000 2.6 140 23:54 28.06.2019
5718 Clouds 15 1017 72 10000 2.1 160 23:22 28.06.2019
5719 Clouds 15 1017 63 10000 4.1 150 22:47 28.06.2019
5720 Clear 15 1017 63 10000 1.5 190 22:22 28.06.2019
5721 Clear 16 1017 52 10000 1.5 240 21:45 28.06.2019
5722 Clear 17 1017 52 10000 1.5 240 21:20 28.06.2019
5723 Clear 19 1018 42 10000 4.1 280 20:43 28.06.2019
5724 Clear 19 1018 42 10000 4.1 280 20:20 28.06.2019
5725 Clear 20 1018 40 10000 5.7 280 19:42 28.06.2019
5726 Clear 20 1018 40 10000 5.7 280 19:24 28.06.2019
5727 Clear 20 1018 37 10000 5.7 280 18:42 28.06.2019
5728 Clear 20 1018 37 10000 5.7 280 18:22 28.06.2019
5729 Clear 20 1018 37 10000 6.2 270 17:54 28.06.2019
5730 Clear 20 1018 37 10000 6.2 270 17:28 28.06.2019
5731 Clear 20 1019 34 10000 6.2 270 16:47 28.06.2019
5732 Clear 20 1019 37 10000 5.7 280 16:20 28.06.2019
5733 Clear 20 1019 37 10000 5.7 280 15:47 28.06.2019
5734 Clear 19 1019 37 10000 6.2 270 15:18 28.06.2019
5735 Clear 19 1019 39 10000 5.7 290 14:42 28.06.2019
5736 Clear 19 1019 39 10000 5.7 290 14:21 28.06.2019
5737 Clear 18 1019 42 10000 5.7 290 13:49 28.06.2019
5738 Clear 19 1019 42 10000 5.7 320 13:29 28.06.2019
5739 Clear 18 1019 42 10000 5.1 290 12:53 28.06.2019
5740 Clear 18 1020 45 10000 4.6 300 12:34 28.06.2019
5741 Clear 17 1020 48 10000 4.6 300 11:46 28.06.2019
5742 Clear 17 1020 44 10000 4.6 300 11:19 28.06.2019
5743 Clear 16 1020 48 10000 4.6 300 10:43 28.06.2019
5744 Clear 16 1020 48 10000 4.6 300 10:20 28.06.2019
5745 Clear 15 1020 47 10000 4.1 310 09:47 28.06.2019
5746 Clear 15 1020 51 10000 4.1 310 09:28 28.06.2019
5747 Clear 14 1020 54 10000 4.6 330 08:43 28.06.2019
5748 Clear 14 1020 54 10000 4.6 330 08:24 28.06.2019
5749 Clear 13 1020 54 10000 5.1 330 07:43 28.06.2019
5750 Clear 12 1020 54 10000 4.6 340 06:57 28.06.2019
5751 Clear 11 1020 66 10000 2.6 310 04:42 28.06.2019
5752 Clear 11 1019 81 10000 1 300 00:48 28.06.2019
5753 Clear 12 1019 81 10000 1.5 290 00:23 28.06.2019
5754 Clear 13 1018 62 10000 1 340 23:47 27.06.2019
5755 Clear 12 1018 62 10000 1 340 23:25 27.06.2019
5756 Clear 15 1018 55 10000 2.1 320 22:44 27.06.2019
5757 Clear 15 1018 55 10000 2.1 320 22:25 27.06.2019
5758 Clear 16 1018 45 10000 3.1 320 21:59 27.06.2019
5759 Clear 17 1018 39 10000 3.6 320 21:41 27.06.2019
5760 Clear 17 1018 39 10000 3.6 320 21:20 27.06.2019
5761 Clear 18 1017 39 10000 5.7 320 20:49 27.06.2019
5762 Clear 18 1017 39 10000 5.1 330 20:31 27.06.2019
5763 Clear 19 1017 45 10000 5.1 320 19:50 27.06.2019
5764 Clear 19 1017 45 10000 5.1 340 19:30 27.06.2019
5765 Clear 19 1017 45 10000 7.2 320 18:55 27.06.2019
5766 Clear 19 1017 45 10000 5.1 330 18:33 27.06.2019
5767 Clear 19 1017 48 10000 5.7 320 17:58 27.06.2019
5768 Clear 19 1017 45 10000 6.2 310 17:37 27.06.2019
5769 Clear 20 1017 45 10000 6.2 310 17:19 27.06.2019
5770 Clear 20 1017 45 10000 6.7 330 16:39 27.06.2019
5771 Clear 20 1017 45 10000 6.7 330 16:19 27.06.2019
5772 Clear 20 1017 45 10000 6.7 330 16:19 27.06.2019
5773 Clear 19 1017 48 10000 5.1 320 15:47 27.06.2019
5774 Clear 20 1017 45 10000 5.1 310 15:26 27.06.2019
5775 Clear 19 1017 48 10000 6.2 320 14:52 27.06.2019
5776 Clear 19 1017 45 10000 5.7 330 14:30 27.06.2019
5777 Clear 19 1017 52 10000 6.2 330 13:56 27.06.2019
5778 Clouds 19 1017 52 10000 5.7 340 13:36 27.06.2019
5779 Clouds 18 1017 52 10000 5.7 340 13:18 27.06.2019
5780 Clouds 18 1017 55 10000 6.2 330 12:40 27.06.2019
5781 Clouds 17 1017 55 10000 6.2 330 12:21 27.06.2019
5782 Clouds 17 1017 55 10000 6.2 330 11:42 27.06.2019
5783 Clouds 17 1017 55 10000 6.2 330 11:21 27.06.2019
5784 Clouds 16 1017 58 10000 5.7 330 10:56 27.06.2019
5785 Clouds 15 1016 67 10000 5.1 320 10:36 27.06.2019
5786 Clouds 15 1016 67 10000 5.1 320 10:18 27.06.2019
5787 Clouds 14 1016 67 10000 5.7 360 09:37 27.06.2019
5788 Clouds 14 1016 67 10000 5.7 360 09:19 27.06.2019
5789 Clouds 14 1016 71 10000 6.7 320 08:45 27.06.2019
5790 Clear 13 1015 76 10000 6.2 320 08:23 27.06.2019
5791 Clear 13 1015 82 10000 5.7 330 07:39 27.06.2019
5792 Clear 13 1015 76 10000 4.6 320 06:55 27.06.2019
5793 Clouds 13 1015 76 10000 5.7 340 06:29 27.06.2019
5794 Clouds 13 1013 93 10000 3.1 320 03:50 27.06.2019
5795 Rain 14 1013 100 10000 3.1 330 02:41 27.06.2019
5796 Mist 15 1013 100 5000 1.5 330 01:18 27.06.2019
5797 Mist 15 1013 93 4800 1 0 00:47 27.06.2019
5798 Fog 15 1013 100 10000 2.1 280 00:25 27.06.2019
5799 Mist 15 1013 100 6000 1.75 293.461 23:45 26.06.2019
5800 Rain 15 1013 100 10000 1.5 290 23:22 26.06.2019
5801 Rain 15 1013 100 10000 1.5 290 23:22 26.06.2019
5802 Rain 15 1013 93 10000 1.5 320 22:55 26.06.2019
5803 Rain 15 1013 100 10000 1.5 280 22:37 26.06.2019
5804 Rain 16 1013 100 10000 1.5 280 22:18 26.06.2019
5805 Clouds 16 1013 93 10000 2.6 300 21:41 26.06.2019
5806 Clouds 16 1013 93 10000 2.6 300 21:19 26.06.2019
5807 Clouds 17 1013 88 10000 1 0 20:50 26.06.2019
5808 Clouds 18 1013 88 10000 0.5 0 20:31 26.06.2019
5809 Clouds 18 1014 93 10000 1.5 270 19:57 26.06.2019
5810 Clouds 17 1014 88 10000 1 0 19:38 26.06.2019
5811 Clouds 17 1014 88 10000 1 0 19:19 26.06.2019
5812 Clouds 17 1015 93 10000 0.5 0 18:44 26.06.2019
5813 Clouds 17 1015 93 10000 0.5 0 18:22 26.06.2019
5814 Rain 17 1015 93 10000 0.5 0 17:53 26.06.2019
5815 Rain 17 1015 88 10000 0.5 0 17:27 26.06.2019
5816 Rain 17 1015 88 10000 0.78 138.725 16:52 26.06.2019
5817 Rain 17 1016 88 10000 0.78 138.725 16:30 26.06.2019
5818 Rain 17 1016 88 10000 0.78 138.725 16:30 26.06.2019
5819 Rain 17 1016 88 10000 1.5 330 15:58 26.06.2019
5820 Drizzle 17 1016 88 10000 0.53 99.782 15:29 26.06.2019
5821 Drizzle 16 1016 88 10000 0.53 99.782 14:57 26.06.2019
5822 Rain 16 1017 93 10000 1 0 14:37 26.06.2019
5823 Rain 16 1017 93 10000 1 0 14:18 26.06.2019
5824 Rain 16 1017 93 10000 1 150 13:39 26.06.2019
5825 Rain 16 1017 93 10000 1 150 13:18 26.06.2019
5826 Rain 16 1018 93 10000 2.6 150 12:40 26.06.2019
5827 Rain 16 1018 93 10000 2.6 150 12:20 26.06.2019
5828 Rain 16 1018 93 10000 2.6 150 12:20 26.06.2019
5829 Rain 16 1018 100 5000 1.5 140 11:42 26.06.2019
5830 Rain 16 1018 100 5000 1.5 140 11:42 26.06.2019
5831 Rain 16 1018 100 7000 2.1 140 11:19 26.06.2019
5832 Rain 16 1019 100 9000 2.1 150 10:39 26.06.2019
5833 Rain 15 1019 100 9000 2.1 150 10:21 26.06.2019
5834 Rain 15 1019 100 6000 1.5 150 09:36 26.06.2019
5835 Rain 15 1019 100 6000 1.5 150 09:18 26.06.2019
5836 Rain 15 1019 100 10000 2.1 100 08:38 26.06.2019
5837 Rain 15 1019 100 10000 2.1 100 08:19 26.06.2019
5838 Rain 15 1019 100 10000 2.1 100 07:41 26.06.2019
5839 Rain 15 1020 100 10000 1.5 0 06:33 26.06.2019
5840 Rain 15 1021 100 10000 1.5 0 03:34 26.06.2019
5841 Rain 15 1023 93 10000 0.5 190 00:45 26.06.2019
5842 Rain 15 1023 87 10000 1.5 140 00:19 26.06.2019
5843 Rain 16 1023 77 10000 2.6 130 23:39 25.06.2019
5844 Rain 16 1023 77 10000 2.6 130 23:20 25.06.2019
5845 Rain 16 1024 72 10000 3.1 120 22:43 25.06.2019
5846 Rain 16 1024 72 10000 3.1 120 22:24 25.06.2019
5847 Clear 17 1024 68 10000 4.1 130 21:51 25.06.2019
5848 Clear 17 1024 68 10000 3.1 0 21:28 25.06.2019
5849 Clear 17 1024 63 10000 4.1 120 20:59 25.06.2019
5850 Clear 18 1024 52 10000 4.6 130 20:37 25.06.2019
5851 Clear 18 1024 52 10000 4.6 130 20:18 25.06.2019
5852 Clear 18 1025 48 10000 3.6 150 19:45 25.06.2019
5853 Clear 19 1025 48 10000 3.6 150 19:22 25.06.2019
5854 Clear 19 1026 42 10000 4.6 130 18:43 25.06.2019
5855 Clear 19 1026 42 10000 4.6 130 18:25 25.06.2019
5856 -273 0 0 0 0 0 17:49 25.06.2019
5857 -273 0 0 0 0 0 17:28 25.06.2019
5858 -273 0 0 0 0 0 17:28 25.06.2019
5859 Clear 20 1026 42 10000 3.1 160 16:55 25.06.2019
5860 Clear 20 1027 45 10000 5.7 140 16:37 25.06.2019
5861 Clear 20 1027 45 10000 5.7 140 16:19 25.06.2019
5862 Clear 20 1027 52 10000 4.6 140 15:40 25.06.2019
5863 Clear 20 1027 52 10000 4.6 140 15:21 25.06.2019
5864 Clear 20 1028 52 10000 5.7 140 14:51 25.06.2019
5865 Clear 20 1028 52 10000 5.7 140 14:51 25.06.2019
5866 Clear 21 1028 49 10000 5.1 130 14:32 25.06.2019
5867 Clear 21 1028 46 10000 5.1 140 13:43 25.06.2019
5868 Clear 21 1028 37 10000 4.6 140 13:24 25.06.2019
5869 Clear 21 1029 43 10000 4.1 140 12:43 25.06.2019
5870 Clear 21 1029 43 10000 4.1 140 12:24 25.06.2019
5871 Clear 21 1029 45 10000 4.1 140 11:46 25.06.2019
5872 Clear 20 1029 45 10000 4.1 140 11:25 25.06.2019
5873 Clear 19 1029 48 10000 3.6 150 10:59 25.06.2019
5874 Clear 19 1029 52 10000 3.1 140 10:38 25.06.2019
5875 Clear 19 1029 52 10000 3.1 140 10:19 25.06.2019
5876 Clear 18 1029 63 10000 2.1 150 09:40 25.06.2019
5877 Clear 18 1029 63 10000 2.1 150 09:22 25.06.2019
5878 Clear 17 1029 67 10000 2.6 150 08:59 25.06.2019
5879 Clear 17 1029 72 10000 2.6 140 08:31 25.06.2019
5880 Clear 16 1030 72 10000 2.6 140 07:51 25.06.2019
5881 Clear 15 1030 77 10000 2.1 130 07:31 25.06.2019
5882 Clear 15 1030 77 10000 1.5 140 06:49 25.06.2019
5883 Clear 14 1030 77 10000 2.1 140 06:23 25.06.2019
5884 Clouds 12 1030 76 10000 1.5 170 02:44 25.06.2019
5885 Clear 13 1030 62 10000 3.1 160 01:19 25.06.2019
5886 Clear 13 1030 62 10000 2.6 150 00:28 25.06.2019
5887 Clear 14 1030 54 10000 4.6 160 23:52 24.06.2019
5888 Clear 14 1030 51 10000 3.1 160 23:33 24.06.2019
5889 Clear 14 1030 51 10000 3.1 130 22:56 24.06.2019
5890 Clear 15 1030 55 10000 2.6 140 22:37 24.06.2019
5891 Clear 15 1030 55 10000 2.6 140 22:18 24.06.2019
5892 Clear 17 1030 48 10000 5.1 120 21:37 24.06.2019
5893 Clear 17 1030 48 10000 5.1 120 21:18 24.06.2019
5894 Clear 18 1030 42 10000 4.6 120 20:43 24.06.2019
5895 Clear 19 1030 42 10000 4.6 120 20:23 24.06.2019
5896 Clear 19 1029 45 10000 5.7 120 19:58 24.06.2019
5897 Clear 20 1029 42 10000 4.6 110 19:39 24.06.2019
5898 Clear 20 1029 42 10000 4.6 110 19:21 24.06.2019
5899 Clear 21 1029 40 10000 4.6 90 18:42 24.06.2019
5900 Clear 21 1029 40 10000 4.6 90 18:23 24.06.2019
5901 Clear 21 1029 37 10000 3.6 50 17:37 24.06.2019
5902 Clear 22 1029 37 10000 3.6 50 17:18 24.06.2019
5903 Clear 21 1030 40 10000 2.6 60 16:45 24.06.2019
5904 Clear 21 1030 40 10000 2.6 60 16:20 24.06.2019
5905 Clear 22 1030 38 10000 3.1 60 15:44 24.06.2019
5906 Clear 22 1030 38 10000 3.1 60 15:25 24.06.2019
5907 Clear 21 1030 43 10000 2.1 40 14:39 24.06.2019
5908 Clear 22 1030 43 10000 2.1 40 14:20 24.06.2019
5909 Clear 21 1030 43 10000 2.1 0 13:35 24.06.2019
5910 Clear 21 1030 45 10000 2.6 70 12:59 24.06.2019
5911 Clear 21 1030 45 10000 2.6 90 12:41 24.06.2019
5912 Clear 20 1030 45 10000 2.6 90 12:20 24.06.2019
5913 Clear 20 1030 45 10000 2.6 70 11:45 24.06.2019
5914 -273 0 0 0 0 0 11:27 24.06.2019
5915 Clear 19 1029 48 10000 3.1 70 10:53 24.06.2019
5916 Clear 19 1029 48 10000 2.6 80 10:34 24.06.2019
5917 Clear 18 1029 48 10000 3.1 70 09:56 24.06.2019
5918 Clear 18 1029 52 10000 3.6 60 09:38 24.06.2019
5919 Clear 18 1029 52 10000 3.6 60 09:18 24.06.2019
5920 Clear 17 1028 55 10000 4.1 40 08:36 24.06.2019
5921 Clear 17 1028 55 10000 4.1 50 07:58 24.06.2019
5922 Clear 16 1028 63 10000 3.1 20 07:40 24.06.2019
5923 Clear 16 1028 63 10000 3.1 20 07:21 24.06.2019
5924 Clouds 14 1027 67 10000 2.1 320 06:23 24.06.2019
5925 Clouds 12 1027 81 10000 2.35 346.61 05:32 24.06.2019
5926 Clouds 10 1026 93 10000 2.35 346.61 04:43 24.06.2019
5927 Clouds 11 1026 87 10000 2.35 346.61 03:48 24.06.2019
5928 Clouds 12 1025 76 10000 1 240 02:36 24.06.2019
5929 Clouds 13 1025 71 10000 1 230 01:55 24.06.2019
5930 Clouds 14 1025 62 10000 1.5 270 01:31 24.06.2019
5931 Clouds 15 1024 55 10000 2.6 260 00:46 24.06.2019
5932 Clouds 16 1024 55 10000 2.6 260 00:20 24.06.2019
5933 Clouds 16 1024 55 10000 2.6 270 23:48 23.06.2019
5934 Clouds 16 1024 55 10000 2.6 270 23:48 23.06.2019
5935 Clouds 16 1024 55 10000 2.6 250 23:28 23.06.2019
5936 Clouds 17 1023 51 10000 2.6 240 22:57 23.06.2019
5937 Clear 17 1023 48 10000 3.1 250 22:39 23.06.2019
5938 Clear 18 1023 48 10000 3.1 250 22:19 23.06.2019
5939 Clear 18 1023 42 10000 4.6 250 21:41 23.06.2019
5940 Clear 18 1023 42 10000 4.6 250 21:41 23.06.2019
5941 Clear 19 1023 42 10000 4.6 250 21:22 23.06.2019
5942 Clear 19 1022 42 10000 4.1 260 20:49 23.06.2019
5943 Clear 19 1022 42 10000 5.1 250 20:29 23.06.2019
5944 Clear 20 1022 30 10000 6.2 270 19:47 23.06.2019
5945 Clear 20 1022 30 10000 6.2 270 19:23 23.06.2019
5946 Clear 20 1022 30 10000 6.2 270 18:55 23.06.2019
5947 Clear 20 1022 28 10000 7.2 270 18:36 23.06.2019
5948 Clear 21 1022 28 10000 7.2 270 18:18 23.06.2019
5949 Clear 21 1022 37 10000 6.7 280 17:39 23.06.2019
5950 Clear 20 1022 37 10000 6.7 280 17:21 23.06.2019
5951 Clear 21 1022 37 10000 5.1 290 16:43 23.06.2019
5952 Clear 21 1022 37 10000 5.1 290 16:24 23.06.2019
5953 Clear 22 1022 31 10000 5.1 260 15:42 23.06.2019
5954 Clear 22 1022 31 10000 5.1 260 15:23 23.06.2019
5955 Clear 21 1022 30 10000 5.1 270 14:56 23.06.2019
5956 Clear 21 1022 30 10000 4.1 270 14:37 23.06.2019
5957 Clear 22 1022 30 10000 4.1 270 14:18 23.06.2019
5958 Clear 21 1022 32 10000 5.1 270 13:42 23.06.2019
5959 Clear 21 1022 32 10000 5.1 270 13:20 23.06.2019
5960 Clear 21 1022 32 10000 5.1 270 12:56 23.06.2019
5961 Clear 21 1022 32 10000 4.6 260 12:37 23.06.2019
5962 Clear 21 1022 32 10000 4.6 250 12:18 23.06.2019
5963 Clouds 21 1022 37 10000 4.1 230 11:44 23.06.2019
5964 Clouds 21 1022 37 10000 4.1 230 11:24 23.06.2019
5965 Clouds 20 1022 42 10000 4.1 220 10:47 23.06.2019
5966 Clouds 20 1023 45 10000 3.1 240 10:20 23.06.2019
5967 Clouds 19 1022 48 10000 2.6 240 09:54 23.06.2019
5968 Clear 18 1022 59 10000 3.1 240 09:22 23.06.2019
5969 Clear 17 1022 63 10000 2.1 260 08:46 23.06.2019
5970 Clouds 16 1023 67 10000 3.6 250 08:27 23.06.2019
5971 Clouds 16 1022 72 10000 3.1 250 07:55 23.06.2019
5972 Clouds 16 1022 72 10000 3.1 250 07:55 23.06.2019
5973 Clouds 15 1022 72 10000 3.6 270 07:25 23.06.2019
5974 Clouds 15 1022 72 10000 3.1 260 06:55 23.06.2019
5975 Clouds 13 1022 71 10000 1.5 240 05:59 23.06.2019
5976 Clouds 12 1022 81 10000 1.5 230 04:38 23.06.2019
5977 Clear 12 1021 66 10000 1.5 220 02:24 23.06.2019
5978 Clear 13 1021 62 10000 2.6 240 01:37 23.06.2019
5979 Clear 15 1020 55 10000 3.1 240 00:37 23.06.2019
5980 Clear 15 1020 55 10000 3.6 240 23:58 22.06.2019
5981 Clear 16 1020 55 10000 2.6 250 23:39 22.06.2019
5982 Clear 16 1020 55 10000 2.6 250 23:20 22.06.2019
5983 Clear 16 1020 51 10000 3.1 240 22:45 22.06.2019
5984 Clear 17 1019 48 10000 3.6 250 22:24 22.06.2019
5985 Clear 18 1019 42 10000 4.1 240 21:41 22.06.2019
5986 Clear 19 1019 42 10000 4.1 240 21:20 22.06.2019
5987 Clear 19 1019 40 10000 4.1 250 20:51 22.06.2019
5988 Clear 20 1019 40 10000 4.6 260 20:26 22.06.2019
5989 Clear 20 1019 37 10000 5.7 260 19:50 22.06.2019
5990 Clear 20 1018 37 10000 6.2 270 19:28 22.06.2019
5991 Clear 21 1018 35 10000 6.2 270 18:56 22.06.2019
5992 Clear 21 1018 35 10000 6.2 240 18:36 22.06.2019
5993 Clear 21 1018 35 10000 6.2 240 18:18 22.06.2019
5994 Clear 21 1018 35 10000 6.7 240 17:38 22.06.2019
5995 Clear 21 1018 35 10000 6.7 240 17:38 22.06.2019
5996 Clear 21 1018 35 10000 6.7 240 17:18 22.06.2019
5997 Clear 21 1018 37 10000 6.7 260 16:39 22.06.2019
5998 Clear 21 1018 37 10000 6.7 260 16:39 22.06.2019
5999 Clear 21 1018 37 10000 6.7 260 16:20 22.06.2019
6000 Clear 21 1018 37 10000 6.7 260 16:20 22.06.2019
6001 Clear 21 1018 40 10000 6.7 260 15:40 22.06.2019
6002 Clear 21 1018 40 10000 6.7 260 15:22 22.06.2019
6003 Clear 21 1017 42 10000 7.2 260 14:41 22.06.2019
6004 Clear 20 1017 42 10000 7.2 260 14:20 22.06.2019
6005 Clear 20 1017 42 10000 7.7 260 13:43 22.06.2019
6006 Clear 20 1017 42 10000 7.7 260 13:25 22.06.2019
6007 Clear 20 1017 42 10000 7.7 270 12:54 22.06.2019
6008 Clear 20 1016 42 10000 8.7 260 12:35 22.06.2019
6009 Clear 19 1016 45 10000 8.7 260 11:59 22.06.2019
6010 Clouds 19 1016 45 10000 8.7 250 11:34 22.06.2019
6011 Clear 18 1015 48 10000 8.2 260 10:54 22.06.2019
6012 Clouds 18 1015 51 10000 8.7 270 10:22 22.06.2019
6013 Clouds 17 1014 59 10000 8.2 250 09:55 22.06.2019
6014 Clouds 16 1014 59 10000 7.7 250 09:27 22.06.2019
6015 Clouds 15 1014 62 10000 7.2 250 08:44 22.06.2019
6016 Clear 15 1014 67 10000 7.7 250 08:25 22.06.2019
6017 Clear 14 1013 71 10000 6.2 240 07:36 22.06.2019
6018 Clear 13 1013 76 10000 7.2 240 06:56 22.06.2019
6019 Clear 13 1013 71 10000 5.7 240 05:31 22.06.2019
6020 Clouds 14 1012 54 10000 5.1 250 02:34 22.06.2019
6021 Clouds 15 1012 51 10000 4.6 260 01:35 22.06.2019
6022 Clouds 15 1012 51 10000 5.1 250 00:47 22.06.2019
6023 Clouds 15 1011 51 10000 3.6 250 00:22 22.06.2019
6024 Clouds 16 1011 51 10000 3.1 260 23:45 21.06.2019
6025 Clouds 16 1011 51 10000 3.1 260 23:22 21.06.2019
6026 Clouds 16 1011 51 10000 4.6 260 22:53 21.06.2019
6027 Clouds 17 1011 48 10000 5.1 280 22:25 21.06.2019
6028 Clouds 18 1010 45 10000 5.7 270 21:55 21.06.2019
6029 Clouds 18 1010 48 10000 5.1 270 21:37 21.06.2019
6030 Clouds 18 1010 48 10000 5.1 270 21:18 21.06.2019
6031 Clouds 20 1010 37 10000 6.2 250 20:44 21.06.2019
6032 Clouds 20 1010 37 10000 6.2 250 20:22 21.06.2019
6033 Clouds 21 1010 40 10000 5.7 240 19:37 21.06.2019
6034 Clouds 21 1010 40 10000 5.1 240 18:54 21.06.2019
6035 Clear 21 1010 35 10000 6.7 260 18:34 21.06.2019
6036 Clear 21 1010 40 10000 5.7 240 17:47 21.06.2019
6037 Clear 22 1010 37 10000 5.7 240 17:29 21.06.2019
6038 Clouds 22 1011 40 10000 6.2 260 16:42 21.06.2019
6039 Clouds 22 1011 40 10000 6.2 260 16:22 21.06.2019
6040 Clear 22 1011 43 10000 6.7 260 15:43 21.06.2019
6041 Clear 22 1011 43 10000 6.7 260 15:23 21.06.2019
6042 Clear 22 1011 46 10000 5.7 260 14:52 21.06.2019
6043 Clear 21 1011 49 10000 6.2 250 14:31 21.06.2019
6044 Clear 21 1010 49 10000 6.2 260 13:57 21.06.2019
6045 Clear 21 1010 43 10000 6.7 260 13:36 21.06.2019
6046 Clear 21 1010 43 10000 6.7 260 13:18 21.06.2019
6047 Clear 21 1010 52 10000 5.7 250 12:39 21.06.2019
6048 Clear 21 1010 52 10000 5.7 250 12:18 21.06.2019
6049 Clouds 20 1010 52 10000 6.7 260 11:47 21.06.2019
6050 Clear 20 1010 59 10000 6.2 260 11:26 21.06.2019
6051 Clear 19 1010 59 10000 7.2 250 10:51 21.06.2019
6052 Clear 19 1010 63 10000 6.2 270 10:22 21.06.2019
6053 Clouds 18 1010 67 10000 5.7 250 09:59 21.06.2019
6054 Clouds 18 1009 67 10000 5.7 250 09:40 21.06.2019
6055 Clouds 18 1009 67 10000 5.7 250 09:19 21.06.2019
6056 Clouds 18 1009 77 10000 5.7 260 08:42 21.06.2019
6057 Clouds 17 1009 77 10000 5.7 260 08:23 21.06.2019
6058 Clouds 17 1009 77 10000 5.1 260 07:51 21.06.2019
6059 Clouds 17 1008 77 10000 5.1 260 07:29 21.06.2019
6060 Clouds 17 1008 82 10000 4.1 270 06:53 21.06.2019
6061 Clouds 17 1008 82 10000 3.6 260 06:21 21.06.2019
6062 Clouds 16 1008 93 10000 4.6 250 05:25 21.06.2019
6063 Clouds 16 1007 93 10000 2.6 250 04:26 21.06.2019
6064 Rain 17 1007 93 10000 2.1 250 03:33 21.06.2019
6065 Rain 17 1007 100 10000 1 0 02:48 21.06.2019
6066 Rain 18 1007 93 10000 1.5 200 01:49 21.06.2019
6067 Rain 18 1006 88 10000 2.6 180 00:55 21.06.2019
6068 Clouds 18 1006 88 10000 1.5 160 00:22 21.06.2019
6069 Clouds 18 1006 88 10000 1.5 220 23:47 20.06.2019
6070 Clouds 19 1006 82 10000 1.5 0 23:23 20.06.2019
6071 Rain 19 1006 73 10000 2.6 190 22:58 20.06.2019
6072 Drizzle 20 1006 73 10000 2.6 190 22:58 20.06.2019
6073 Clear 20 1005 64 10000 2.1 190 22:38 20.06.2019
6074 Clear 20 1005 64 10000 2.1 190 22:20 20.06.2019
6075 Clear 20 1005 64 10000 2.6 190 21:48 20.06.2019
6076 Clear 21 1005 60 10000 3.1 200 21:19 20.06.2019
6077 Clear 22 1005 60 10000 2.6 200 20:48 20.06.2019
6078 Clear 23 1004 53 10000 3.1 200 20:27 20.06.2019
6079 Clear 23 1004 53 10000 4.6 200 19:58 20.06.2019
6080 Clear 23 1004 57 10000 3.1 170 19:39 20.06.2019
6081 Clear 23 1004 57 10000 3.1 170 19:18 20.06.2019
6082 Clear 23 1005 64 10000 1.5 0 18:43 20.06.2019
6083 Clear 23 1005 64 10000 1.5 0 18:23 20.06.2019
6084 Clear 23 1005 64 10000 5.1 200 17:55 20.06.2019
6085 Rain 23 1005 64 10000 5.1 200 17:37 20.06.2019
6086 Clouds 23 1005 61 10000 3.1 180 16:57 20.06.2019
6087 Thunderstorm 24 1006 61 10000 4.6 180 16:39 20.06.2019
6088 Thunderstorm 25 1006 61 10000 4.6 180 16:18 20.06.2019
6089 Clouds 26 1005 51 10000 6.2 160 15:42 20.06.2019
6090 Clouds 27 1005 51 10000 6.2 160 15:22 20.06.2019
6091 Clouds 26 1005 51 10000 6.2 140 14:50 20.06.2019
6092 Clear 27 1006 51 10000 6.7 140 14:24 20.06.2019
6093 Clear 27 1006 47 10000 5.7 150 13:42 20.06.2019
6094 Clear 27 1006 47 10000 5.7 150 13:21 20.06.2019
6095 Clear 26 1006 51 10000 6.7 140 12:54 20.06.2019
6096 Clear 26 1007 50 10000 5.7 150 12:36 20.06.2019
6097 Clear 26 1007 50 10000 6.2 150 12:18 20.06.2019
6098 Clear 26 1007 47 10000 6.7 130 11:39 20.06.2019
6099 Clear 25 1007 47 10000 5.7 140 11:20 20.06.2019
6100 Clear 25 1007 47 10000 5.1 130 10:42 20.06.2019
6101 Clear 25 1007 47 10000 5.1 130 10:23 20.06.2019
6102 Clear 23 1007 53 10000 3.1 120 09:41 20.06.2019
6103 Clear 23 1007 53 10000 3.1 120 09:41 20.06.2019
6104 Clear 23 1007 53 10000 3.1 120 09:23 20.06.2019
6105 Clear 21 1008 60 10000 3.6 120 08:47 20.06.2019
6106 Clear 21 1008 60 10000 3.6 120 08:28 20.06.2019
6107 Clear 20 1008 68 10000 4.1 130 07:55 20.06.2019
6108 Clear 19 1009 68 10000 4.1 130 07:31 20.06.2019
6109 Clear 18 1009 68 10000 3.6 140 06:46 20.06.2019
6110 Clear 17 1009 72 10000 3.1 150 06:18 20.06.2019
6111 Clear 15 1010 67 10000 2.6 150 03:37 20.06.2019
6112 Drizzle 18 1010 68 10000 2.6 140 00:43 20.06.2019
6113 Drizzle 18 1010 68 10000 2.6 140 00:24 20.06.2019
6114 Rain 18 1011 68 10000 1.5 160 23:42 19.06.2019
6115 Rain 18 1011 68 10000 1.5 160 23:23 19.06.2019
6116 Clouds 18 1011 63 10000 2.1 180 22:48 19.06.2019
6117 Drizzle 19 1011 60 10000 3.1 190 22:20 19.06.2019
6118 Clear 19 1011 56 10000 3.6 190 21:54 19.06.2019
6119 Clear 19 1011 56 10000 3.6 190 21:54 19.06.2019
6120 Clear 19 1011 60 10000 3.1 160 21:36 19.06.2019
6121 Clear 19 1011 60 10000 3.1 160 21:18 19.06.2019
6122 Clear 19 1011 60 10000 3.1 160 21:18 19.06.2019
6123 Rain 20 1010 56 10000 3.6 180 20:39 19.06.2019
6124 Rain 20 1010 56 10000 3.6 180 20:20 19.06.2019
6125 Clouds 21 1011 56 10000 2.1 190 19:42 19.06.2019
6126 Clouds 21 1011 56 10000 2.1 190 19:21 19.06.2019
6127 Clouds 22 1011 56 10000 0.5 0 18:51 19.06.2019
6128 Rain 22 1011 53 10000 2.6 260 18:21 19.06.2019
6129 Clear 23 1011 41 10000 5.1 200 17:41 19.06.2019
6130 Clear 24 1011 41 10000 5.1 200 17:23 19.06.2019
6131 Clear 25 1011 44 10000 5.7 200 16:43 19.06.2019
6132 Clear 25 1011 44 10000 5.7 200 16:22 19.06.2019
6133 Clear 25 1011 47 10000 5.1 210 15:58 19.06.2019
6134 Clear 24 1011 47 10000 6.2 200 15:31 19.06.2019
6135 Clear 24 1012 47 10000 6.2 220 14:59 19.06.2019
6136 Clear 25 1012 44 10000 5.7 200 14:41 19.06.2019
6137 Clear 24 1012 44 10000 5.7 200 14:21 19.06.2019
6138 Clear 24 1012 47 10000 5.1 200 13:43 19.06.2019
6139 Clear 24 1012 47 10000 5.1 200 13:25 19.06.2019
6140 Clear 23 1012 47 10000 5.1 190 12:47 19.06.2019
6141 Clear 23 1012 47 10000 5.1 190 12:22 19.06.2019
6142 Clear 23 1012 53 10000 4.1 190 11:57 19.06.2019
6143 Clear 23 1012 60 10000 3.1 210 11:38 19.06.2019
6144 Clear 22 1012 60 10000 3.1 210 11:20 19.06.2019
6145 Clear 22 1012 64 10000 3.6 220 10:45 19.06.2019
6146 Clear 21 1012 64 10000 3.6 220 10:27 19.06.2019
6147 Clear 21 1013 68 10000 4.6 200 09:50 19.06.2019
6148 Clear 20 1013 68 10000 4.1 190 09:23 19.06.2019
6149 Drizzle 19 1013 68 10000 3.6 210 08:55 19.06.2019
6150 Clear 19 1013 72 10000 3.1 200 08:37 19.06.2019
6151 Clear 19 1013 72 10000 3.1 200 08:19 19.06.2019
6152 Rain 18 1013 77 10000 2.1 170 07:42 19.06.2019
6153 Clear 17 1013 82 10000 1.5 140 06:59 19.06.2019
6154 Clear 16 1013 87 10000 2.1 120 06:35 19.06.2019
6155 Rain 16 1013 87 10000 2.1 140 05:50 19.06.2019
6156 Rain 15 1013 93 10000 1.5 0 04:47 19.06.2019
6157 Rain 15 1013 87 10000 2.9 216.632 03:48 19.06.2019
6158 Clouds 15 1013 82 10000 2.6 150 02:34 19.06.2019
6159 Rain 16 1013 82 10000 1 150 01:36 19.06.2019
6160 Rain 16 1014 82 10000 1.5 170 00:53 19.06.2019
6161 Rain 16 1014 77 10000 1.5 180 00:35 19.06.2019
6162 -273 0 0 0 0 0 23:58 18.06.2019
6163 Clouds 16 1014 77 10000 2.6 180 23:58 18.06.2019
6164 Clouds 16 1014 77 10000 2.6 180 23:58 18.06.2019
6165 Clouds 16 1014 72 10000 3.1 160 23:30 18.06.2019
6166 Clouds 17 1014 72 10000 3.1 150 22:55 18.06.2019
6167 Clouds 17 1014 72 10000 3.6 140 22:37 18.06.2019
6168 Clouds 17 1014 72 10000 3.6 140 22:19 18.06.2019
6169 Rain 17 1015 82 10000 1 70 21:44 18.06.2019
6170 Rain 18 1015 82 10000 1 70 21:21 18.06.2019
6171 Rain 19 1015 64 10000 4.1 230 20:55 18.06.2019
6172 Rain 19 1015 56 10000 2.6 180 20:37 18.06.2019
6173 Rain 19 1015 56 10000 2.6 180 20:18 18.06.2019
6174 Rain 19 1015 56 10000 2.6 180 20:18 18.06.2019
6175 Clear 20 1015 64 10000 2.1 180 19:39 18.06.2019
6176 Clear 21 1015 64 10000 2.1 180 19:20 18.06.2019
6177 Clear 21 1016 56 10000 2.1 180 18:46 18.06.2019
6178 Clear 21 1016 56 10000 2.1 180 18:24 18.06.2019
6179 Rain 21 1016 72 10000 3.6 280 17:42 18.06.2019
6180 Rain 21 1016 72 10000 3.6 280 17:21 18.06.2019
6181 Rain 21 1017 73 10000 2.6 260 16:47 18.06.2019
6182 Rain 22 1016 77 10000 1.5 290 16:28 18.06.2019
6183 Rain 22 1016 53 10000 3.6 320 15:58 18.06.2019
6184 Clear 23 1016 49 10000 3.1 290 15:38 18.06.2019
6185 Clear 23 1016 49 10000 3.1 290 15:19 18.06.2019
6186 Clear 23 1017 49 10000 4.1 260 14:45 18.06.2019
6187 Clear 23 1017 49 10000 4.1 260 14:22 18.06.2019
6188 Clear 23 1017 49 10000 6.7 270 13:58 18.06.2019
6189 Clear 23 1017 49 10000 5.7 250 13:38 18.06.2019
6190 Clear 22 1017 49 10000 5.7 250 13:20 18.06.2019
6191 Clear 23 1017 53 10000 5.7 260 12:43 18.06.2019
6192 Clear 22 1017 53 10000 5.7 260 12:25 18.06.2019
6193 Clear 21 1017 52 10000 7.2 270 11:45 18.06.2019
6194 Clear 21 1017 52 10000 7.2 270 11:23 18.06.2019
6195 Clear 21 1017 52 10000 6.7 260 10:57 18.06.2019
6196 Clear 21 1017 52 10000 6.7 270 10:37 18.06.2019
6197 Clear 20 1017 52 10000 6.7 270 10:18 18.06.2019
6198 Clear 20 1017 56 10000 6.2 250 09:48 18.06.2019
6199 Clear 19 1017 55 10000 6.2 250 09:24 18.06.2019
6200 Clear 18 1017 59 10000 5.7 250 08:43 18.06.2019
6201 Clear 18 1017 59 10000 5.7 250 08:43 18.06.2019
6202 Clear 18 1017 59 10000 5.7 250 08:21 18.06.2019
6203 Clear 17 1017 67 10000 6.2 250 07:41 18.06.2019
6204 Clear 17 1017 67 10000 6.2 250 07:21 18.06.2019
6205 Clear 16 1017 67 10000 6.2 240 06:43 18.06.2019
6206 Clear 16 1016 67 10000 5.7 250 05:20 18.06.2019
6207 Clear 16 1016 72 10000 5.1 250 02:53 18.06.2019
6208 Clear 16 1016 67 10000 4.6 260 01:55 18.06.2019
6209 Clear 16 1016 67 10000 5.7 260 01:25 18.06.2019
6210 Clear 17 1016 67 10000 6.2 260 00:55 18.06.2019
6211 Clear 17 1016 59 10000 5.1 250 00:27 18.06.2019
6212 Clear 17 1016 59 10000 6.7 250 23:41 17.06.2019
6213 Clear 18 1016 59 10000 6.7 250 23:20 17.06.2019
6214 Clear 18 1015 55 10000 5.1 250 22:56 17.06.2019
6215 Clear 18 1015 52 10000 5.1 250 22:37 17.06.2019
6216 Clear 18 1015 52 10000 5.1 250 22:19 17.06.2019
6217 Clear 19 1015 45 10000 7.2 260 21:42 17.06.2019
6218 Clear 20 1015 40 10000 7.2 260 21:21 17.06.2019
6219 Clear 21 1014 40 10000 6.7 260 20:38 17.06.2019
6220 Clear 21 1014 40 10000 6.7 260 20:20 17.06.2019
6221 Clear 21 1015 35 10000 7.7 260 19:43 17.06.2019
6222 Clear 22 1015 35 10000 7.7 260 19:24 17.06.2019
6223 Clear 22 1014 33 10000 7.2 260 18:58 17.06.2019
6224 Clear 22 1015 33 10000 7.7 270 18:38 17.06.2019
6225 Clear 22 1015 33 10000 8.2 270 18:18 17.06.2019
6226 Clear 22 1015 33 10000 8.2 270 17:47 17.06.2019
6227 Clear 22 1015 33 10000 8.2 270 17:29 17.06.2019
6228 Clear 23 1015 31 10000 8.7 260 16:55 17.06.2019
6229 Clear 22 1015 28 10000 8.2 270 16:36 17.06.2019
6230 Clear 23 1015 27 10000 8.2 270 16:18 17.06.2019
6231 Clear 23 1015 27 10000 8.2 260 15:40 17.06.2019
6232 Clear 22 1015 28 10000 7.2 260 15:20 17.06.2019
6233 Clear 23 1015 28 10000 7.2 260 14:55 17.06.2019
6234 Clear 22 1015 30 10000 7.7 250 14:34 17.06.2019
6235 Clear 22 1015 30 10000 7.7 250 14:34 17.06.2019
6236 Clear 22 1015 30 10000 7.2 260 13:58 17.06.2019
6237 Clear 22 1015 33 10000 7.2 260 13:39 17.06.2019
6238 Clear 22 1015 37 10000 7.2 270 13:20 17.06.2019
6239 Clear 21 1015 35 10000 6.2 270 12:38 17.06.2019
6240 Clear 21 1015 37 10000 7.7 260 12:18 17.06.2019
6241 Clear 21 1015 34 10000 8.2 250 11:39 17.06.2019
6242 Clear 20 1015 45 10000 6.2 250 11:20 17.06.2019
6243 Clear 20 1015 55 10000 5.7 260 10:46 17.06.2019
6244 Clear 20 1015 55 10000 5.7 260 10:46 17.06.2019
6245 Clear 19 1015 55 10000 5.7 260 10:28 17.06.2019
6246 Clear 19 1015 59 10000 6.2 250 10:28 17.06.2019
6247 Clear 18 1015 59 10000 6.2 250 09:56 17.06.2019
6248 Clear 18 1015 59 10000 6.2 250 09:56 17.06.2019
6249 Clear 18 1015 59 10000 6.2 250 09:56 17.06.2019
6250 Clear 18 1015 55 10000 5.7 260 09:33 17.06.2019
6251 Clear 18 1015 67 10000 5.1 260 08:48 17.06.2019
6252 Clear 18 1015 67 10000 5.1 260 08:25 17.06.2019
6253 Clear 17 1015 72 10000 5.7 270 07:57 17.06.2019
6254 Clear 17 1015 72 10000 5.1 260 07:32 17.06.2019
6255 Clear 17 1015 63 10000 5.1 260 06:59 17.06.2019
6256 Clouds 16 1015 72 10000 4.6 270 06:18 17.06.2019
6257 Clouds 16 1015 67 10000 4.6 260 05:26 17.06.2019
6258 Clouds 17 1015 77 10000 4.1 260 04:23 17.06.2019
6259 Clouds 17 1015 82 10000 5.1 260 03:31 17.06.2019
6260 Clouds 17 1015 77 10000 6.2 260 02:44 17.06.2019
6261 Clouds 17 1015 77 10000 6.2 260 02:26 17.06.2019
6262 Clouds 18 1015 68 10000 4.1 250 01:36 17.06.2019
6263 Clouds 18 1014 55 10000 2.1 240 00:57 17.06.2019
6264 Clouds 18 1014 63 10000 2.1 220 00:37 17.06.2019
6265 Clouds 18 1014 55 10000 2.6 220 00:18 17.06.2019
6266 Clouds 18 1014 55 10000 2.6 230 23:39 16.06.2019
6267 Clouds 19 1014 49 10000 2.6 210 23:20 16.06.2019
6268 Clear 19 1014 46 10000 2.6 190 22:44 16.06.2019
6269 Clear 20 1014 46 10000 3.1 180 22:20 16.06.2019
6270 Clear 20 1014 46 10000 3.1 180 21:57 16.06.2019
6271 Clear 20 1014 43 10000 3.1 190 21:39 16.06.2019
6272 Clear 21 1014 40 10000 3.1 200 21:20 16.06.2019
6273 Clear 23 1014 36 10000 4.1 190 20:40 16.06.2019
6274 Clear 23 1014 33 10000 4.6 200 20:19 16.06.2019
6275 Clear 24 1014 33 10000 4.6 200 19:58 16.06.2019
6276 Clear 24 1014 33 10000 4.6 200 19:58 16.06.2019
6277 Clear 24 1014 31 10000 5.1 190 19:39 16.06.2019
6278 Clear 25 1013 29 10000 5.1 210 19:21 16.06.2019
6279 Clear 24 1014 34 10000 3.1 200 18:42 16.06.2019
6280 Clear 25 1014 31 10000 3.1 180 18:21 16.06.2019
6281 Clear 25 1014 31 10000 3.1 180 17:57 16.06.2019
6282 Clear 25 1014 31 10000 3.1 180 17:57 16.06.2019
6283 Clear 26 1014 29 10000 2.6 210 17:38 16.06.2019
6284 Clear 26 1014 31 10000 3.1 250 17:20 16.06.2019
6285 Clear 26 1014 31 10000 3.1 250 16:54 16.06.2019
6286 Clear 26 1014 29 10000 2.6 260 16:36 16.06.2019
6287 Clear 26 1014 34 10000 2.1 0 16:18 16.06.2019
6288 Clear 26 1014 38 10000 2.1 200 15:38 16.06.2019
6289 Clear 25 1015 38 10000 2.1 220 15:20 16.06.2019
6290 Clear 25 1015 36 10000 3.6 200 14:39 16.06.2019
6291 Clear 25 1015 38 10000 2.6 210 14:20 16.06.2019
6292 Clear 26 1015 36 10000 4.1 240 13:48 16.06.2019
6293 Clear 25 1015 38 10000 4.1 200 13:25 16.06.2019
6294 Clear 25 1015 36 10000 2.6 200 12:46 16.06.2019
6295 Clear 25 1015 36 10000 2.6 200 12:46 16.06.2019
6296 Clear 25 1015 44 10000 3.1 200 12:23 16.06.2019
6297 Clear 24 1015 44 10000 3.1 200 11:59 16.06.2019
6298 Clear 24 1015 44 10000 3.1 180 11:38 16.06.2019
6299 Clear 24 1015 44 10000 2.6 240 11:19 16.06.2019
6300 Clear 23 1015 40 10000 2.6 180 10:45 16.06.2019
6301 Clear 22 1015 43 10000 2.1 200 10:20 16.06.2019
6302 Clear 22 1015 46 10000 1 0 09:43 16.06.2019
6303 Clear 22 1015 46 10000 1 0 09:24 16.06.2019
6304 Clear 20 1015 52 10000 1.5 190 08:47 16.06.2019
6305 Clear 19 1015 56 10000 1.82 217.532 08:21 16.06.2019
6306 Clear 18 1015 59 10000 1 0 07:49 16.06.2019
6307 Clear 18 1015 59 10000 1 0 07:31 16.06.2019
6308 Clear 15 1015 72 10000 1 150 06:55 16.06.2019
6309 Clear 13 1015 82 10000 1.68 206.428 05:57 16.06.2019
6310 Clear 12 1015 82 10000 1.68 206.428 05:24 16.06.2019
6311 Clear 11 1015 87 10000 1.68 206.428 04:22 16.06.2019
6312 Clear 12 1015 82 10000 1.68 206.428 03:43 16.06.2019
6313 Clear 12 1015 82 10000 1.86 206.221 03:22 16.06.2019
6314 Clear 13 1015 72 10000 1 130 01:49 16.06.2019
6315 Clear 13 1015 72 10000 1 130 01:30 16.06.2019
6316 Clear 14 1015 77 10000 2.1 140 00:44 16.06.2019
6317 Clear 14 1015 77 10000 2.1 140 00:25 16.06.2019
6318 Clear 15 1015 77 10000 1.5 140 23:58 15.06.2019
6319 Clear 16 1015 67 10000 0.5 120 23:39 15.06.2019
6320 Clear 17 1015 63 10000 1.5 160 23:20 15.06.2019
6321 Clear 17 1015 59 10000 1 170 22:44 15.06.2019
6322 Clear 18 1015 52 10000 1 0 22:25 15.06.2019
6323 Clear 20 1015 46 10000 2.1 180 21:45 15.06.2019
6324 Clouds 21 1015 46 10000 2.1 180 21:21 15.06.2019
6325 Clouds 23 1016 40 10000 4.1 190 20:46 15.06.2019
6326 Clouds 23 1016 41 10000 3.6 200 20:23 15.06.2019
6327 Clouds 23 1016 41 10000 2.6 190 19:50 15.06.2019
6328 Clouds 23 1016 41 10000 2.6 190 19:28 15.06.2019
6329 Clouds 23 1016 41 10000 4.1 190 18:46 15.06.2019
6330 Clear 24 1016 41 10000 4.1 190 18:26 15.06.2019
6331 Clear 25 1016 36 10000 3.1 240 17:58 15.06.2019
6332 Clear 25 1016 33 10000 3.6 330 17:40 15.06.2019
6333 Clear 25 1016 36 10000 3.1 300 17:21 15.06.2019
6334 Clear 25 1017 34 10000 3.1 320 16:43 15.06.2019
6335 Clear 24 1017 36 10000 4.6 310 16:18 15.06.2019
6336 Clear 24 1017 38 10000 3.6 280 15:41 15.06.2019
6337 Clear 24 1017 38 10000 4.1 300 15:21 15.06.2019
6338 Clear 24 1017 38 10000 4.1 300 15:21 15.06.2019
6339 Clear 24 1017 38 10000 4.1 290 14:38 15.06.2019
6340 Clear 24 1018 38 10000 4.1 270 14:18 15.06.2019
6341 Clear 25 1018 44 10000 4.6 270 13:44 15.06.2019
6342 Clear 24 1018 41 10000 4.6 280 13:21 15.06.2019
6343 Clear 24 1018 41 10000 4.6 280 12:58 15.06.2019
6344 Clear 24 1018 43 10000 4.6 250 12:40 15.06.2019
6345 Clear 23 1018 43 10000 5.1 240 12:20 15.06.2019
6346 Clear 22 1018 46 10000 4.6 270 11:42 15.06.2019
6347 Clear 22 1018 46 10000 4.6 270 11:42 15.06.2019
6348 Clear 22 1018 46 10000 4.6 270 11:23 15.06.2019
6349 Clear 22 1019 52 10000 3.6 240 10:42 15.06.2019
6350 Clear 21 1019 52 10000 3.6 240 10:24 15.06.2019
6351 Clear 20 1019 56 10000 3.6 270 09:48 15.06.2019
6352 Clear 20 1019 56 10000 3.6 270 09:26 15.06.2019
6353 Clear 19 1018 63 10000 3.6 280 08:54 15.06.2019
6354 Clear 19 1018 63 10000 3.6 280 08:54 15.06.2019
6355 Clear 19 1019 63 10000 3.1 290 08:34 15.06.2019
6356 Clear 19 1019 63 10000 3.1 290 08:33 15.06.2019
6357 Clear 18 1019 72 10000 2.6 270 07:54 15.06.2019
6358 Clear 17 1019 72 10000 2.6 270 07:25 15.06.2019
6359 Clear 16 1019 77 10000 1.5 230 06:47 15.06.2019
6360 Clear 14 1019 87 10000 1.34 283.27 06:20 15.06.2019
6361 Clear 13 1019 87 10000 1.34 283.27 05:29 15.06.2019
6362 Clear 12 1019 93 10000 1.34 283.27 04:49 15.06.2019
6363 Clear 12 1019 87 10000 1.5 240 03:49 15.06.2019
6364 Clouds 13 1019 87 10000 2.6 220 02:58 15.06.2019
6365 Clouds 13 1019 87 10000 2.6 220 02:23 15.06.2019
6366 Clouds 14 1019 82 10000 2.1 210 01:50 15.06.2019
6367 Clouds 14 1019 77 10000 2.6 200 01:00 15.06.2019
6368 Clouds 14 1019 77 10000 1.5 210 00:40 15.06.2019
6369 Clouds 15 1019 77 10000 2.1 210 23:55 14.06.2019
6370 Clouds 15 1019 77 10000 2.1 210 23:27 14.06.2019
6371 Clouds 16 1018 67 10000 1.5 230 22:57 14.06.2019
6372 Clear 16 1018 55 10000 2.1 240 22:39 14.06.2019
6373 Clear 17 1018 49 10000 2.6 260 22:19 14.06.2019
6374 Clear 17 1018 46 10000 2.6 260 21:41 14.06.2019
6375 Clear 19 1018 46 10000 2.6 260 21:23 14.06.2019
6376 Clear 20 1018 46 10000 4.1 260 20:44 14.06.2019
6377 Clear 21 1018 49 10000 4.1 270 20:19 14.06.2019
6378 Clear 21 1018 49 10000 4.1 270 19:57 14.06.2019
6379 Clear 21 1018 49 10000 4.1 260 19:37 14.06.2019
6380 Clear 21 1018 49 10000 3.6 270 19:18 14.06.2019
6381 Clear 21 1018 53 10000 3.1 250 18:45 14.06.2019
6382 Clear 22 1018 53 10000 3.1 250 18:26 14.06.2019
6383 Clear 21 1018 53 10000 4.1 280 17:58 14.06.2019
6384 Clear 21 1018 53 10000 4.6 280 17:39 14.06.2019
6385 Clear 21 1018 60 10000 5.1 290 17:20 14.06.2019
6386 Clear 21 1019 60 10000 4.6 290 16:46 14.06.2019
6387 Clear 20 1019 64 10000 5.1 290 16:22 14.06.2019
6388 Clear 21 1019 60 10000 4.6 290 16:22 14.06.2019
6389 Clear 20 1019 64 10000 5.1 290 15:57 14.06.2019
6390 Clear 20 1019 64 10000 4.6 280 15:38 14.06.2019
6391 Clear 20 1019 64 10000 4.6 280 15:38 14.06.2019
6392 Clouds 19 1019 68 10000 5.1 290 15:19 14.06.2019
6393 Clouds 18 1019 68 10000 5.7 280 14:42 14.06.2019
6394 Clouds 18 1019 68 10000 5.7 280 14:24 14.06.2019
6395 Clouds 18 1019 72 10000 7.7 280 13:45 14.06.2019
6396 Clouds 17 1019 72 10000 7.7 280 13:26 14.06.2019
6397 Clouds 17 1019 77 10000 5.1 290 12:49 14.06.2019
6398 Clouds 17 1019 77 10000 5.1 290 12:49 14.06.2019
6399 Clouds 16 1019 77 10000 5.1 290 12:27 14.06.2019
6400 Clouds 16 1019 82 10000 4.1 280 11:59 14.06.2019
6401 Mist 15 1018 87 10000 4.6 280 11:41 14.06.2019
6402 Clouds 14 1018 87 10000 5.1 290 11:23 14.06.2019
6403 Clouds 14 1018 87 10000 6.2 290 10:46 14.06.2019
6404 Clouds 14 1017 87 10000 5.7 270 10:20 14.06.2019
6405 Clouds 14 1017 87 10000 5.7 270 10:20 14.06.2019
6406 Clouds 14 1017 87 10000 5.1 280 09:52 14.06.2019
6407 Clouds 14 1017 87 10000 5.1 280 09:33 14.06.2019
6408 Clouds 14 1017 87 10000 4.1 280 08:48 14.06.2019
6409 Clouds 13 1017 93 10000 4.6 260 08:20 14.06.2019
6410 Clouds 13 1016 93 10000 5.1 290 07:53 14.06.2019
6411 Clouds 13 1016 93 10000 4.1 280 07:23 14.06.2019
6412 Clouds 13 1016 93 10000 4.1 260 06:52 14.06.2019
6413 Clouds 13 1016 93 10000 4.1 280 06:52 14.06.2019
6414 Clouds 13 1016 93 10000 4.1 280 06:18 14.06.2019
6415 Clouds 13 1016 93 10000 3.6 270 05:35 14.06.2019
6416 Clouds 13 1016 93 10000 3.6 300 04:51 14.06.2019
6417 Clouds 13 1015 93 10000 3.1 310 04:19 14.06.2019
6418 Mist 13 1015 93 10000 4.1 310 03:38 14.06.2019
6419 Mist 13 1015 93 10000 3.6 290 03:19 14.06.2019
6420 Mist 13 1015 93 10000 3.1 280 02:36 14.06.2019
6421 Mist 14 1015 100 10000 4.1 280 01:39 14.06.2019
6422 Mist 14 1015 100 10000 4.1 280 01:39 14.06.2019
6423 Mist 14 1015 100 10000 4.1 280 00:37 14.06.2019
6424 Mist 14 1015 93 8000 4.1 280 00:19 14.06.2019
6425 Mist 14 1015 100 5000 4.6 270 23:49 13.06.2019
6426 Mist 14 1015 100 2400 5.1 280 23:25 13.06.2019
6427 Drizzle 15 1014 100 1900 4.1 280 22:41 13.06.2019
6428 Drizzle 15 1014 100 1900 4.1 280 22:22 13.06.2019
6429 Mist 15 1013 100 1800 3.1 310 21:59 13.06.2019
6430 Mist 15 1013 100 1800 3.1 310 21:37 13.06.2019
6431 Mist 15 1013 100 2600 3.1 280 21:18 13.06.2019
6432 Mist 15 1013 100 2600 3.1 280 21:18 13.06.2019
6433 Mist 16 1013 100 2200 2.6 310 20:44 13.06.2019
6434 Mist 15 1013 100 2700 1.5 310 20:20 13.06.2019
6435 Mist 15 1013 93 7000 1.5 0 19:43 13.06.2019
6436 Clouds 15 1013 93 8000 1.5 320 19:25 13.06.2019
6437 Clouds 15 1013 93 8000 1.5 320 18:59 13.06.2019
6438 Mist 15 1012 93 7000 2.1 300 18:41 13.06.2019
6439 Mist 16 1012 93 7000 1.5 330 18:22 13.06.2019
6440 Mist 16 1012 93 7000 2.1 40 17:45 13.06.2019
6441 Mist 16 1012 93 7000 2.1 40 17:22 13.06.2019
6442 Mist 16 1012 93 7000 2.1 10 16:59 13.06.2019
6443 Mist 15 1012 93 7000 2.1 10 16:41 13.06.2019
6444 Mist 15 1012 93 8000 2.6 60 16:20 13.06.2019
6445 Drizzle 15 1012 93 9000 3.1 70 15:41 13.06.2019
6446 Clouds 15 1012 93 10000 3.75 105.5 15:22 13.06.2019
6447 Clouds 16 1012 93 10000 2.1 140 14:52 13.06.2019
6448 Clouds 16 1012 93 10000 2.1 140 14:31 13.06.2019
6449 Clouds 15 1012 93 10000 5.1 120 13:57 13.06.2019
6450 Clouds 15 1012 93 10000 5.1 120 13:57 13.06.2019
6451 Clouds 15 1012 93 10000 5.1 120 13:57 13.06.2019
6452 Rain 15 1012 93 10000 6.2 120 13:39 13.06.2019
6453 Rain 15 1011 93 10000 2.6 110 13:20 13.06.2019
6454 Rain 16 1011 93 10000 4.6 80 12:41 13.06.2019
6455 Rain 15 1011 100 10000 5.1 100 12:21 13.06.2019
6456 Rain 15 1012 93 10000 5.7 120 11:46 13.06.2019
6457 Rain 15 1012 93 10000 5.7 120 11:28 13.06.2019
6458 Clouds 14 1011 100 10000 4.1 100 10:51 13.06.2019
6459 Rain 14 1011 100 10000 4.1 100 10:31 13.06.2019
6460 Rain 13 1011 100 10000 6.7 100 09:56 13.06.2019
6461 Rain 13 1010 100 10000 7.2 70 09:38 13.06.2019
6462 Rain 13 1010 93 10000 5.7 70 09:20 13.06.2019
6463 Rain 13 1012 93 10000 4.6 90 08:43 13.06.2019
6464 Rain 13 1012 93 10000 4.6 90 08:22 13.06.2019
6465 Rain 13 1012 100 10000 5.7 90 07:42 13.06.2019
6466 Rain 13 1012 100 10000 5.7 90 07:24 13.06.2019
6467 Rain 13 1013 82 10000 4.6 80 06:45 13.06.2019
6468 Rain 13 1013 82 10000 5.7 70 06:22 13.06.2019
6469 Clouds 13 1013 82 10000 5.7 80 05:53 13.06.2019
6470 Clouds 13 1013 82 10000 5.7 80 05:35 13.06.2019
6471 Clouds 12 1014 82 10000 5.1 70 03:57 13.06.2019
6472 Rain 12 1017 76 10000 6.2 60 02:23 13.06.2019
6473 Clouds 13 1019 62 10000 4.6 60 00:46 13.06.2019
6474 Clouds 14 1018 58 10000 5.1 60 23:47 12.06.2019
6475 Clouds 14 1018 54 10000 5.7 60 23:21 12.06.2019
6476 Clouds 14 1019 58 10000 6.7 60 22:42 12.06.2019
6477 Clouds 14 1019 58 10000 5.7 60 22:24 12.06.2019
6478 Clouds 14 1019 58 10000 5.7 60 21:48 12.06.2019
6479 Clouds 14 1019 58 10000 5.7 60 21:29 12.06.2019
6480 Clear 14 1019 58 10000 7.2 60 20:57 12.06.2019
6481 Clear 14 1020 62 10000 5.1 60 20:37 12.06.2019
6482 Clear 14 1019 59 10000 7.7 60 20:19 12.06.2019
6483 Clear 15 1020 59 10000 6.7 50 19:42 12.06.2019
6484 Clear 15 1020 59 10000 6.7 50 19:22 12.06.2019
6485 Clear 15 1021 59 10000 6.2 60 18:51 12.06.2019
6486 Clear 15 1021 59 10000 6.2 60 18:29 12.06.2019
6487 Clear 15 1021 55 10000 7.2 60 17:58 12.06.2019
6488 Drizzle 15 1021 55 10000 7.2 60 17:40 12.06.2019
6489 Clear 16 1021 55 10000 7.2 60 17:19 12.06.2019
6490 Clear 16 1021 55 10000 6.7 60 16:42 12.06.2019
6491 Clear 16 1021 51 10000 7.7 60 16:23 12.06.2019
6492 Rain 15 1021 51 10000 7.7 60 15:48 12.06.2019
6493 Rain 15 1021 51 10000 7.7 60 15:29 12.06.2019
6494 Clear 15 1021 55 10000 7.7 60 14:45 12.06.2019
6495 Clear 15 1021 55 10000 7.7 60 14:26 12.06.2019
6496 Clear 15 1023 58 10000 5.7 60 13:42 12.06.2019
6497 Clear 15 1023 55 10000 6.2 40 13:20 12.06.2019
6498 Clear 15 1023 55 10000 6.2 40 12:58 12.06.2019
6499 Clear 15 1023 54 10000 5.1 60 12:38 12.06.2019
6500 Clear 15 1023 54 10000 5.1 60 12:38 12.06.2019
6501 Clear 14 1023 58 10000 4.6 20 12:19 12.06.2019
6502 Clear 14 1023 58 10000 4.6 20 12:19 12.06.2019
6503 Clear 14 1023 58 10000 6.2 40 11:46 12.06.2019
6504 -273 0 0 0 0 0 11:27 12.06.2019
6505 Clear 13 1023 58 10000 5.1 40 10:51 12.06.2019
6506 Clear 13 1023 58 10000 5.1 40 10:29 12.06.2019
6507 Clear 13 1024 62 10000 3.6 30 09:45 12.06.2019
6508 Clear 13 1024 62 10000 3.6 30 09:23 12.06.2019
6509 Clear 13 1024 62 10000 4.1 30 08:56 12.06.2019
6510 Clear 13 1024 62 10000 4.1 30 08:56 12.06.2019
6511 Clear 12 1023 62 10000 4.6 30 08:23 12.06.2019
6512 Clear 12 1023 62 10000 5.7 30 07:46 12.06.2019
6513 Clear 12 1022 62 10000 5.1 30 06:54 12.06.2019
6514 Clear 12 1022 62 10000 5.1 30 06:54 12.06.2019
6515 Clouds 12 1023 66 10000 5.7 20 05:37 12.06.2019
6516 Clouds 12 1022 66 10000 4.6 20 05:19 12.06.2019
6517 Clouds 13 1022 62 10000 5.1 20 01:58 12.06.2019
6518 Clouds 13 1023 58 10000 4.1 10 00:40 12.06.2019
6519 Clouds 13 1022 62 10000 5.1 20 23:50 11.06.2019
6520 Clouds 13 1022 62 10000 5.1 20 23:31 11.06.2019
6521 Clear 13 1022 58 10000 6.2 30 22:44 11.06.2019
6522 Clear 13 1022 62 10000 5.7 20 22:21 11.06.2019
6523 Clear 13 1022 62 10000 5.7 20 21:58 11.06.2019
6524 Clear 13 1022 67 10000 6.2 30 21:39 11.06.2019
6525 Clear 13 1022 67 10000 6.2 30 21:39 11.06.2019
6526 Rain 13 1022 62 10000 4.6 30 21:20 11.06.2019
6527 Rain 13 1022 62 10000 4.6 30 21:20 11.06.2019
6528 Rain 14 1022 58 10000 4.1 10 20:49 11.06.2019
6529 Rain 14 1022 58 10000 4.1 10 20:26 11.06.2019
6530 Clear 14 1022 58 10000 5.1 20 19:57 11.06.2019
6531 Clear 14 1022 58 10000 5.1 20 19:39 11.06.2019
6532 Clear 14 1022 54 10000 5.7 30 19:18 11.06.2019
6533 Clear 15 1023 54 10000 8.7 30 18:40 11.06.2019
6534 Rain 15 1022 55 10000 5.1 20 18:18 11.06.2019
6535 Drizzle 15 1022 63 10000 5.1 30 17:41 11.06.2019
6536 Drizzle 15 1022 72 10000 4.1 40 17:19 11.06.2019
6537 Rain 15 1022 77 10000 4.1 50 16:42 11.06.2019
6538 Rain 16 1022 67 10000 3.6 50 16:23 11.06.2019
6539 Rain 16 1022 67 10000 3.6 50 16:23 11.06.2019
6540 Rain 17 1022 67 10000 4.1 70 15:43 11.06.2019
6541 Rain 17 1022 67 10000 4.1 70 15:25 11.06.2019
6542 Rain 17 1022 63 10000 4.1 90 14:54 11.06.2019
6543 Clear 18 1022 52 10000 4.6 60 14:23 11.06.2019
6544 Drizzle 18 1022 52 10000 4.1 80 13:58 11.06.2019
6545 Clear 18 1022 52 10000 4.1 70 13:37 11.06.2019
6546 Clouds 18 1022 48 10000 4.1 60 13:19 11.06.2019
6547 Clear 18 1022 52 10000 3.6 50 12:41 11.06.2019
6548 Clear 18 1021 52 10000 3.6 60 12:21 11.06.2019
6549 Clear 19 1021 52 10000 4.6 80 11:49 11.06.2019
6550 Clear 19 1021 52 10000 4.6 80 11:31 11.06.2019
6551 Clear 19 1021 55 10000 3.6 80 10:50 11.06.2019
6552 Clear 18 1021 55 10000 3.6 80 10:27 11.06.2019
6553 Clear 17 1021 63 10000 3.1 60 09:51 11.06.2019
6554 Clear 18 1021 63 10000 3.1 60 09:26 11.06.2019
6555 Clear 17 1021 59 10000 3.6 70 08:56 11.06.2019
6556 Clear 17 1021 59 10000 2.6 50 08:38 11.06.2019
6557 Clear 16 1021 59 10000 2.1 80 08:19 11.06.2019
6558 Clouds 16 1021 67 10000 1.5 40 07:32 11.06.2019
6559 Clear 15 1021 76 10000 1 350 06:52 11.06.2019
6560 Clear 11 1021 93 10000 0.99 105.937 05:21 11.06.2019
6561 Clear 10 1021 87 10000 0.99 105.937 04:27 11.06.2019
6562 Clear 10 1020 87 10000 0.21 255.767 01:58 11.06.2019
6563 Clear 12 1020 76 10000 0.21 255.767 00:50 11.06.2019
6564 Clear 12 1020 66 10000 1 140 00:24 11.06.2019
6565 Clear 13 1020 62 10000 1 0 23:44 10.06.2019
6566 Clear 14 1020 58 10000 1.5 190 23:20 10.06.2019
6567 Clear 15 1019 51 10000 2.1 170 22:43 10.06.2019
6568 Clear 15 1019 48 10000 2.6 180 22:25 10.06.2019
6569 Clear 16 1019 48 10000 2.6 180 21:56 10.06.2019
6570 Clear 17 1019 52 10000 3.1 200 21:38 10.06.2019
6571 Clear 18 1019 48 10000 2.6 190 21:19 10.06.2019
6572 Clear 18 1019 48 10000 4.6 190 20:41 10.06.2019
6573 Clear 19 1019 48 10000 5.7 200 20:21 10.06.2019
6574 Clear 19 1019 48 10000 5.1 200 19:44 10.06.2019
6575 Clear 20 1019 45 10000 5.7 200 19:22 10.06.2019
6576 Clear 20 1019 45 10000 5.7 200 18:56 10.06.2019
6577 Clear 20 1019 45 10000 5.7 190 18:38 10.06.2019
6578 Clear 20 1019 45 10000 5.1 200 18:19 10.06.2019
6579 Clear 20 1019 45 10000 5.1 200 18:19 10.06.2019
6580 Clear 20 1019 48 10000 5.1 190 17:43 10.06.2019
6581 Clear 20 1019 48 10000 5.1 190 17:24 10.06.2019
6582 Clear 21 1019 40 10000 5.1 200 16:49 10.06.2019
6583 Clear 21 1019 40 10000 5.1 200 16:30 10.06.2019
6584 Clear 20 1019 30 10000 5.1 220 15:58 10.06.2019
6585 Clear 20 1019 32 10000 4.6 260 15:39 10.06.2019
6586 Clear 20 1019 37 10000 4.6 250 15:21 10.06.2019
6587 Clear 20 1020 40 10000 5.7 270 14:42 10.06.2019
6588 Clear 20 1020 40 10000 5.7 270 14:24 10.06.2019
6589 Clear 19 1020 42 10000 5.7 220 13:46 10.06.2019
6590 Clear 19 1020 42 10000 5.7 220 13:26 10.06.2019
6591 Clear 19 1020 42 10000 5.1 240 12:54 10.06.2019
6592 Clouds 19 1020 45 10000 5.7 260 12:30 10.06.2019
6593 Clouds 18 1020 45 10000 5.7 260 11:54 10.06.2019
6594 Clouds 18 1020 52 10000 5.7 250 11:30 10.06.2019
6595 Clouds 18 1020 52 10000 5.7 240 10:59 10.06.2019
6596 Clouds 18 1020 55 0 5.1 260 10:41 10.06.2019
6597 Clear 17 1020 55 10000 5.1 230 10:19 10.06.2019
6598 Clear 17 1020 59 10000 5.1 240 09:51 10.06.2019
6599 Clear 17 1020 59 10000 5.1 240 09:29 10.06.2019
6600 Clear 16 1020 67 10000 5.7 230 08:49 10.06.2019
6601 Clear 15 1020 67 10000 5.7 230 08:26 10.06.2019
6602 Clear 15 1020 71 10000 5.1 230 07:41 10.06.2019
6603 Clear 13 1020 76 10000 4.1 210 04:43 10.06.2019
6604 Clear 12 1020 76 10000 3.6 200 03:29 10.06.2019
6605 Clouds 12 1020 76 10000 3.1 200 01:55 10.06.2019
6606 Clouds 12 1019 71 10000 4.1 230 01:19 10.06.2019
6607 Clouds 13 1019 71 10000 4.1 220 00:47 10.06.2019
6608 Clear 13 1019 67 10000 5.1 230 23:48 09.06.2019
6609 Clear 13 1019 67 10000 5.1 230 23:48 09.06.2019
6610 Clear 14 1019 71 10000 5.1 240 23:23 09.06.2019
6611 Clear 14 1019 62 10000 5.1 240 22:48 09.06.2019
6612 Clear 14 1019 62 10000 5.1 240 22:26 09.06.2019
6613 Clear 15 1018 62 10000 5.7 230 21:57 09.06.2019
6614 Clear 15 1018 63 10000 6.7 250 21:37 09.06.2019
6615 Clear 16 1018 59 10000 5.7 230 21:18 09.06.2019
6616 Clear 16 1017 63 10000 5.7 230 20:41 09.06.2019
6617 Clear 17 1017 55 10000 6.2 230 20:22 09.06.2019
6618 Clear 18 1017 55 10000 6.7 220 19:45 09.06.2019
6619 Rain 18 1017 55 10000 6.2 220 19:18 09.06.2019
6620 Rain 18 1017 55 10000 6.2 220 19:18 09.06.2019
6621 Rain 18 1017 55 10000 6.2 220 19:18 09.06.2019
6622 Clouds 18 1017 52 10000 8.7 240 18:44 09.06.2019
6623 Clouds 19 1017 52 10000 8.7 240 18:25 09.06.2019
6624 Clouds 19 1017 48 10000 5.7 230 17:56 09.06.2019
6625 Clouds 19 1017 52 10000 5.7 220 17:32 09.06.2019
6626 Rain 19 1017 55 10000 6.7 210 16:59 09.06.2019
6627 Rain 19 1017 55 10000 6.7 210 16:59 09.06.2019
6628 Drizzle 19 1017 52 10000 6.7 230 16:40 09.06.2019
6629 Drizzle 19 1017 52 10000 6.7 230 16:40 09.06.2019
6630 Clear 19 1017 52 10000 7.2 240 16:20 09.06.2019
6631 Rain 18 1017 63 10000 6.2 210 15:50 09.06.2019
6632 Rain 18 1017 63 10000 6.2 210 15:29 09.06.2019
6633 Clouds 18 1017 49 10000 6.7 190 14:56 09.06.2019
6634 Rain 18 1017 52 10000 6.7 180 14:38 09.06.2019
6635 Rain 19 1017 48 10000 7.7 190 14:19 09.06.2019
6636 Clear 19 1017 48 10000 7.2 180 13:48 09.06.2019
6637 Clear 19 1018 52 10000 7.7 170 12:57 09.06.2019
6638 Clear 19 1018 48 10000 7.2 180 12:35 09.06.2019
6639 Clear 19 1018 48 10000 6.7 180 11:58 09.06.2019
6640 -273 0 0 0 0 0 11:36 09.06.2019
6641 Clear 19 1017 52 10000 6.2 180 11:18 09.06.2019
6642 Clear 18 1017 48 10000 5.7 190 10:43 09.06.2019
6643 Clear 18 1017 48 10000 5.7 190 10:43 09.06.2019
6644 Clear 18 1017 52 10000 5.1 180 10:20 09.06.2019
6645 Clear 18 1017 55 10000 5.1 200 09:39 09.06.2019
6646 Clear 17 1017 63 10000 5.1 190 09:20 09.06.2019
6647 Clear 17 1017 59 10000 4.6 200 08:45 09.06.2019
6648 Clear 16 1017 67 10000 5.1 200 07:57 09.06.2019
6649 Clear 15 1017 76 10000 3.1 200 06:48 09.06.2019
6650 Clear 15 1017 76 10000 3.1 200 06:29 09.06.2019
6651 Clouds 15 1016 87 10000 3.1 220 03:21 09.06.2019
6652 Clouds 16 1015 93 10000 2.1 210 01:38 09.06.2019
6653 Rain 16 1015 87 10000 1.5 0 01:19 09.06.2019
6654 Rain 16 1015 93 10000 3.1 220 00:42 09.06.2019
6655 Rain 17 1014 88 10000 2.6 220 23:42 08.06.2019
6656 Rain 17 1014 88 10000 2.6 220 23:23 08.06.2019
6657 Rain 17 1014 88 10000 3.6 220 22:56 08.06.2019
6658 Rain 18 1013 77 10000 2.6 210 22:37 08.06.2019
6659 Rain 18 1013 68 10000 2.6 210 22:18 08.06.2019
6660 Rain 18 1013 68 10000 3.1 190 21:49 08.06.2019
6661 Clear 19 1013 68 10000 3.6 180 21:24 08.06.2019
6662 Clear 20 1012 60 10000 5.7 190 20:46 08.06.2019
6663 Clear 20 1012 60 10000 5.7 190 20:25 08.06.2019
6664 Clear 21 1012 52 10000 5.7 160 19:58 08.06.2019
6665 Clear 22 1012 43 10000 5.7 180 19:39 08.06.2019
6666 Clear 22 1012 38 10000 6.2 160 19:19 08.06.2019
6667 Clear 22 1013 46 10000 6.2 160 18:51 08.06.2019
6668 Clear 24 1013 46 10000 6.2 160 18:32 08.06.2019
6669 Clear 24 1013 44 10000 7.7 160 17:48 08.06.2019
6670 Clear 24 1013 44 10000 7.7 160 17:23 08.06.2019
6671 Clear 24 1013 41 10000 6.7 150 16:54 08.06.2019
6672 Clear 25 1013 41 10000 6.7 150 16:35 08.06.2019
6673 Clear 25 1013 44 10000 6.7 140 15:54 08.06.2019
6674 Clear 25 1013 44 10000 6.7 140 15:35 08.06.2019
6675 Clear 26 1013 47 10000 6.7 130 14:49 08.06.2019
6676 Clear 25 1013 47 10000 6.7 130 14:31 08.06.2019
6677 Clear 26 1013 41 10000 6.2 140 13:51 08.06.2019
6678 Clear 25 1013 44 10000 3.6 160 12:54 08.06.2019
6679 Clear 25 1013 44 10000 3.6 160 12:35 08.06.2019
6680 Clear 24 1014 53 10000 3.1 190 11:56 08.06.2019
6681 Clear 25 1014 53 10000 3.1 190 11:37 08.06.2019
6682 Clear 24 1014 50 10000 3.6 180 11:19 08.06.2019
6683 Clear 23 1014 50 10000 4.6 160 10:42 08.06.2019
6684 Clear 23 1014 60 10000 4.6 160 10:19 08.06.2019
6685 Clear 22 1014 68 10000 3.6 130 09:36 08.06.2019
6686 Clear 21 1014 73 10000 3.6 140 08:58 08.06.2019
6687 Clear 19 1014 77 10000 3.6 150 08:22 08.06.2019
6688 Clear 18 1014 82 10000 3.1 140 07:27 08.06.2019